<?xml version="1.0" encoding="UTF-8" standalone="no" ?>
<gpx xmlns="http://www.topografix.com/GPX/1/1" xmlns:xsi="http://www.w3.org/2001/XMLSchema-instance" xsi:schemaLocation="http://www.topografix.com/GPX/1/1 http://www.topografix.com/GPX/1/1/gpx.xsd" version="1.1" creator="VisuGPX - https://www.visugpx.com">
  <metadata>
    <name>2016-02-04 Walk from Col de Saint Bonnet</name>
    <desc><![CDATA[2016-02-04 Walk from Col de Saint Bonnet]]></desc>
  </metadata>
  <wpt lat="46.02168" lon="4.59112">
    <ele>733.8</ele>
    <name><![CDATA[2016-02-04 09:07 (Start)]]></name>
  </wpt>
  <wpt lat="46.02158" lon="4.59089">
    <ele>694.2</ele>
    <name><![CDATA[2016-02-04 09:07 (End)]]></name>
    <desc><![CDATA[Created by Google My Tracks on Android  Name: 2016-02-04 09:07 Activity type: walking Description: - Total distance: 22.77 km (14.1 mi) Total time: 6:27:27 Moving time: 5:56:14 Average speed: 3.53 km/h (2.2 mi/h) Average moving speed: 3.83 km/h (2.4 mi/h) Max speed: 5.18 km/h (3.2 mi/h) Average pace: 17:01 min/km (27:23 min/mi) Average moving pace: 15:39 min/km (25:11 min/mi) Fastest pace: 11:35 min/km (18:38 min/mi) Max elevation: 770 m (2525 ft) Min elevation: 332 m (1089 ft) Elevation gain: 1676 m (5500 ft) Max grade: 39 % Min grade: -32 % Recorded: 04/02/2016 09:07]]></desc>
  </wpt>
  <trk>
    <name><![CDATA[2016-02-04 09:07]]></name>
    <trkseg>
      <trkpt lat="46.02168" lon="4.59112">
        <ele>733.84979248</ele>
        <time>2016-02-04T08:07:51.687Z</time>
      </trkpt>
      <trkpt lat="46.02168" lon="4.59112">
        <ele>733.84979248</ele>
        <time>2016-02-04T08:07:57.586Z</time>
      </trkpt>
      <trkpt lat="46.02171" lon="4.5911">
        <ele>693.601257324</ele>
        <time>2016-02-04T08:08:07.643Z</time>
      </trkpt>
      <trkpt lat="46.02153" lon="4.59113">
        <ele>694.420166016</ele>
        <time>2016-02-04T08:08:08.657Z</time>
      </trkpt>
      <trkpt lat="46.02153" lon="4.59113">
        <ele>694.656982422</ele>
        <time>2016-02-04T08:12:07.703Z</time>
      </trkpt>
      <trkpt lat="46.02163" lon="4.591">
        <ele>694.765014648</ele>
        <time>2016-02-04T08:12:08.674Z</time>
      </trkpt>
      <trkpt lat="46.02171" lon="4.59099">
        <ele>695.247070312</ele>
        <time>2016-02-04T08:12:14.751Z</time>
      </trkpt>
      <trkpt lat="46.02173" lon="4.59098">
        <ele>695.285949707</ele>
        <time>2016-02-04T08:12:15.649Z</time>
      </trkpt>
      <trkpt lat="46.0218" lon="4.59094">
        <ele>695.438964844</ele>
        <time>2016-02-04T08:12:21.674Z</time>
      </trkpt>
      <trkpt lat="46.02181" lon="4.59093">
        <ele>695.425537109</ele>
        <time>2016-02-04T08:12:22.659Z</time>
      </trkpt>
      <trkpt lat="46.02189" lon="4.59087">
        <ele>695.46472168</ele>
        <time>2016-02-04T08:12:28.696Z</time>
      </trkpt>
      <trkpt lat="46.0219" lon="4.59086">
        <ele>695.492004395</ele>
        <time>2016-02-04T08:12:29.642Z</time>
      </trkpt>
      <trkpt lat="46.02197" lon="4.5908">
        <ele>695.760803223</ele>
        <time>2016-02-04T08:12:36.677Z</time>
      </trkpt>
      <trkpt lat="46.02198" lon="4.59079">
        <ele>695.796630859</ele>
        <time>2016-02-04T08:12:37.658Z</time>
      </trkpt>
      <trkpt lat="46.02204" lon="4.59069">
        <ele>696.152038574</ele>
        <time>2016-02-04T08:12:44.703Z</time>
      </trkpt>
      <trkpt lat="46.02205" lon="4.59068">
        <ele>696.197021484</ele>
        <time>2016-02-04T08:12:45.626Z</time>
      </trkpt>
      <trkpt lat="46.02209" lon="4.59058">
        <ele>697.121704102</ele>
        <time>2016-02-04T08:12:54.672Z</time>
      </trkpt>
      <trkpt lat="46.0221" lon="4.59057">
        <ele>697.23449707</ele>
        <time>2016-02-04T08:12:55.668Z</time>
      </trkpt>
      <trkpt lat="46.02216" lon="4.59049">
        <ele>698.258117676</ele>
        <time>2016-02-04T08:13:03.676Z</time>
      </trkpt>
      <trkpt lat="46.02217" lon="4.59048">
        <ele>698.404846191</ele>
        <time>2016-02-04T08:13:04.656Z</time>
      </trkpt>
      <trkpt lat="46.02224" lon="4.5904">
        <ele>699.124389648</ele>
        <time>2016-02-04T08:13:10.642Z</time>
      </trkpt>
      <trkpt lat="46.02225" lon="4.59039">
        <ele>699.179382324</ele>
        <time>2016-02-04T08:13:11.649Z</time>
      </trkpt>
      <trkpt lat="46.02231" lon="4.59035">
        <ele>700.129333496</ele>
        <time>2016-02-04T08:13:19.665Z</time>
      </trkpt>
      <trkpt lat="46.02233" lon="4.59034">
        <ele>700.273742676</ele>
        <time>2016-02-04T08:13:20.65Z</time>
      </trkpt>
      <trkpt lat="46.02241" lon="4.59028">
        <ele>700.732116699</ele>
        <time>2016-02-04T08:13:27.675Z</time>
      </trkpt>
      <trkpt lat="46.02242" lon="4.59027">
        <ele>700.671936035</ele>
        <time>2016-02-04T08:13:28.649Z</time>
      </trkpt>
      <trkpt lat="46.02249" lon="4.5902">
        <ele>700.814147949</ele>
        <time>2016-02-04T08:13:39.688Z</time>
      </trkpt>
      <trkpt lat="46.02249" lon="4.59019">
        <ele>700.937194824</ele>
        <time>2016-02-04T08:13:40.65Z</time>
      </trkpt>
      <trkpt lat="46.02257" lon="4.59013">
        <ele>701.834655762</ele>
        <time>2016-02-04T08:13:47.665Z</time>
      </trkpt>
      <trkpt lat="46.02258" lon="4.59012">
        <ele>701.93359375</ele>
        <time>2016-02-04T08:13:48.649Z</time>
      </trkpt>
      <trkpt lat="46.02266" lon="4.59006">
        <ele>703.304931641</ele>
        <time>2016-02-04T08:13:58.665Z</time>
      </trkpt>
      <trkpt lat="46.02266" lon="4.59005">
        <ele>703.558532715</ele>
        <time>2016-02-04T08:13:59.645Z</time>
      </trkpt>
      <trkpt lat="46.02271" lon="4.58994">
        <ele>706.436096191</ele>
        <time>2016-02-04T08:14:19.669Z</time>
      </trkpt>
      <trkpt lat="46.02271" lon="4.58992">
        <ele>706.483337402</ele>
        <time>2016-02-04T08:14:20.651Z</time>
      </trkpt>
      <trkpt lat="46.02273" lon="4.58981">
        <ele>707.33001709</ele>
        <time>2016-02-04T08:14:32.676Z</time>
      </trkpt>
      <trkpt lat="46.02274" lon="4.5898">
        <ele>707.436706543</ele>
        <time>2016-02-04T08:14:33.65Z</time>
      </trkpt>
      <trkpt lat="46.02279" lon="4.58969">
        <ele>709.776428223</ele>
        <time>2016-02-04T08:14:42.684Z</time>
      </trkpt>
      <trkpt lat="46.02279" lon="4.58968">
        <ele>710.032836914</ele>
        <time>2016-02-04T08:14:43.653Z</time>
      </trkpt>
      <trkpt lat="46.02283" lon="4.58957">
        <ele>711.563110352</ele>
        <time>2016-02-04T08:14:54.714Z</time>
      </trkpt>
      <trkpt lat="46.02283" lon="4.58955">
        <ele>711.663818359</ele>
        <time>2016-02-04T08:14:55.652Z</time>
      </trkpt>
      <trkpt lat="46.02288" lon="4.58945">
        <ele>712.155822754</ele>
        <time>2016-02-04T08:15:01.686Z</time>
      </trkpt>
      <trkpt lat="46.02289" lon="4.58944">
        <ele>712.268432617</ele>
        <time>2016-02-04T08:15:02.65Z</time>
      </trkpt>
      <trkpt lat="46.02293" lon="4.58934">
        <ele>712.893310547</ele>
        <time>2016-02-04T08:15:09.675Z</time>
      </trkpt>
      <trkpt lat="46.02294" lon="4.58932">
        <ele>712.991333008</ele>
        <time>2016-02-04T08:15:10.638Z</time>
      </trkpt>
      <trkpt lat="46.02299" lon="4.58923">
        <ele>713.678222656</ele>
        <time>2016-02-04T08:15:17.683Z</time>
      </trkpt>
      <trkpt lat="46.023" lon="4.58921">
        <ele>713.839416504</ele>
        <time>2016-02-04T08:15:18.668Z</time>
      </trkpt>
      <trkpt lat="46.02305" lon="4.58913">
        <ele>715.115478516</ele>
        <time>2016-02-04T08:15:26.683Z</time>
      </trkpt>
      <trkpt lat="46.02306" lon="4.58911">
        <ele>715.248657227</ele>
        <time>2016-02-04T08:15:27.654Z</time>
      </trkpt>
      <trkpt lat="46.0231" lon="4.58901">
        <ele>716.017822266</ele>
        <time>2016-02-04T08:15:34.71Z</time>
      </trkpt>
      <trkpt lat="46.02311" lon="4.589">
        <ele>716.071899414</ele>
        <time>2016-02-04T08:15:35.665Z</time>
      </trkpt>
      <trkpt lat="46.02316" lon="4.58892">
        <ele>717.092712402</ele>
        <time>2016-02-04T08:15:41.681Z</time>
      </trkpt>
      <trkpt lat="46.02317" lon="4.5889">
        <ele>717.262023926</ele>
        <time>2016-02-04T08:15:42.666Z</time>
      </trkpt>
      <trkpt lat="46.02322" lon="4.5888">
        <ele>718.096191406</ele>
        <time>2016-02-04T08:15:47.675Z</time>
      </trkpt>
      <trkpt lat="46.02324" lon="4.58879">
        <ele>718.189758301</ele>
        <time>2016-02-04T08:15:48.655Z</time>
      </trkpt>
      <trkpt lat="46.02329" lon="4.5887">
        <ele>719.150756836</ele>
        <time>2016-02-04T08:15:56.696Z</time>
      </trkpt>
      <trkpt lat="46.0233" lon="4.58868">
        <ele>719.24810791</ele>
        <time>2016-02-04T08:15:57.67Z</time>
      </trkpt>
      <trkpt lat="46.02336" lon="4.58859">
        <ele>719.373168945</ele>
        <time>2016-02-04T08:16:05.693Z</time>
      </trkpt>
      <trkpt lat="46.02337" lon="4.58858">
        <ele>719.410827637</ele>
        <time>2016-02-04T08:16:06.672Z</time>
      </trkpt>
      <trkpt lat="46.02341" lon="4.58849">
        <ele>719.630371094</ele>
        <time>2016-02-04T08:16:13.69Z</time>
      </trkpt>
      <trkpt lat="46.02342" lon="4.58847">
        <ele>719.757995605</ele>
        <time>2016-02-04T08:16:14.663Z</time>
      </trkpt>
      <trkpt lat="46.02348" lon="4.58837">
        <ele>720.917724609</ele>
        <time>2016-02-04T08:16:21.686Z</time>
      </trkpt>
      <trkpt lat="46.02349" lon="4.58836">
        <ele>721.099121094</ele>
        <time>2016-02-04T08:16:22.67Z</time>
      </trkpt>
      <trkpt lat="46.02355" lon="4.58828">
        <ele>721.942382812</ele>
        <time>2016-02-04T08:16:30.694Z</time>
      </trkpt>
      <trkpt lat="46.02356" lon="4.58827">
        <ele>722.201293945</ele>
        <time>2016-02-04T08:16:31.678Z</time>
      </trkpt>
      <trkpt lat="46.0236" lon="4.58818">
        <ele>723.394775391</ele>
        <time>2016-02-04T08:16:39.693Z</time>
      </trkpt>
      <trkpt lat="46.02361" lon="4.58816">
        <ele>723.500732422</ele>
        <time>2016-02-04T08:16:40.668Z</time>
      </trkpt>
      <trkpt lat="46.02366" lon="4.58808">
        <ele>724.836547852</ele>
        <time>2016-02-04T08:16:48.693Z</time>
      </trkpt>
      <trkpt lat="46.02367" lon="4.58806">
        <ele>725.061157227</ele>
        <time>2016-02-04T08:16:49.658Z</time>
      </trkpt>
      <trkpt lat="46.02373" lon="4.58799">
        <ele>725.653198242</ele>
        <time>2016-02-04T08:16:54.678Z</time>
      </trkpt>
      <trkpt lat="46.02375" lon="4.58796">
        <ele>725.726074219</ele>
        <time>2016-02-04T08:16:55.669Z</time>
      </trkpt>
      <trkpt lat="46.0238" lon="4.58788">
        <ele>726.365478516</ele>
        <time>2016-02-04T08:17:01.702Z</time>
      </trkpt>
      <trkpt lat="46.02381" lon="4.58786">
        <ele>726.397277832</ele>
        <time>2016-02-04T08:17:02.672Z</time>
      </trkpt>
      <trkpt lat="46.02387" lon="4.58778">
        <ele>726.901733398</ele>
        <time>2016-02-04T08:17:08.692Z</time>
      </trkpt>
      <trkpt lat="46.02388" lon="4.58777">
        <ele>726.947570801</ele>
        <time>2016-02-04T08:17:09.661Z</time>
      </trkpt>
      <trkpt lat="46.02394" lon="4.58768">
        <ele>727.347961426</ele>
        <time>2016-02-04T08:17:18.693Z</time>
      </trkpt>
      <trkpt lat="46.02395" lon="4.58767">
        <ele>727.353881836</ele>
        <time>2016-02-04T08:17:19.67Z</time>
      </trkpt>
      <trkpt lat="46.02401" lon="4.58759">
        <ele>727.813415527</ele>
        <time>2016-02-04T08:17:25.696Z</time>
      </trkpt>
      <trkpt lat="46.02402" lon="4.58757">
        <ele>728.064025879</ele>
        <time>2016-02-04T08:17:26.641Z</time>
      </trkpt>
      <trkpt lat="46.02408" lon="4.5875">
        <ele>729.052124023</ele>
        <time>2016-02-04T08:17:32.708Z</time>
      </trkpt>
      <trkpt lat="46.02409" lon="4.58749">
        <ele>729.286010742</ele>
        <time>2016-02-04T08:17:33.648Z</time>
      </trkpt>
      <trkpt lat="46.02415" lon="4.5874">
        <ele>730.175842285</ele>
        <time>2016-02-04T08:17:41.664Z</time>
      </trkpt>
      <trkpt lat="46.02415" lon="4.58739">
        <ele>730.422302246</ele>
        <time>2016-02-04T08:17:42.641Z</time>
      </trkpt>
      <trkpt lat="46.02422" lon="4.58731">
        <ele>731.851928711</ele>
        <time>2016-02-04T08:17:48.662Z</time>
      </trkpt>
      <trkpt lat="46.02423" lon="4.58729">
        <ele>732.055847168</ele>
        <time>2016-02-04T08:17:49.642Z</time>
      </trkpt>
      <trkpt lat="46.02429" lon="4.58723">
        <ele>733.980712891</ele>
        <time>2016-02-04T08:17:58.746Z</time>
      </trkpt>
      <trkpt lat="46.0243" lon="4.58722">
        <ele>734.278503418</ele>
        <time>2016-02-04T08:17:59.648Z</time>
      </trkpt>
      <trkpt lat="46.02437" lon="4.58716">
        <ele>735.963439941</ele>
        <time>2016-02-04T08:18:04.675Z</time>
      </trkpt>
      <trkpt lat="46.02438" lon="4.58714">
        <ele>736.211975098</ele>
        <time>2016-02-04T08:18:05.638Z</time>
      </trkpt>
      <trkpt lat="46.02445" lon="4.58706">
        <ele>737.164978027</ele>
        <time>2016-02-04T08:18:11.67Z</time>
      </trkpt>
      <trkpt lat="46.02446" lon="4.58705">
        <ele>737.270385742</ele>
        <time>2016-02-04T08:18:12.662Z</time>
      </trkpt>
      <trkpt lat="46.02452" lon="4.58698">
        <ele>737.930908203</ele>
        <time>2016-02-04T08:18:20.661Z</time>
      </trkpt>
      <trkpt lat="46.02454" lon="4.58697">
        <ele>738.0703125</ele>
        <time>2016-02-04T08:18:21.652Z</time>
      </trkpt>
      <trkpt lat="46.02461" lon="4.5869">
        <ele>739.318847656</ele>
        <time>2016-02-04T08:18:30.696Z</time>
      </trkpt>
      <trkpt lat="46.02462" lon="4.58689">
        <ele>739.427612305</ele>
        <time>2016-02-04T08:18:31.644Z</time>
      </trkpt>
      <trkpt lat="46.02468" lon="4.58683">
        <ele>739.721130371</ele>
        <time>2016-02-04T08:18:38.66Z</time>
      </trkpt>
      <trkpt lat="46.02469" lon="4.58682">
        <ele>739.810913086</ele>
        <time>2016-02-04T08:18:39.643Z</time>
      </trkpt>
      <trkpt lat="46.02476" lon="4.58678">
        <ele>740.151123047</ele>
        <time>2016-02-04T08:18:44.673Z</time>
      </trkpt>
      <trkpt lat="46.02478" lon="4.58677">
        <ele>740.231811523</ele>
        <time>2016-02-04T08:18:45.644Z</time>
      </trkpt>
      <trkpt lat="46.02485" lon="4.58672">
        <ele>740.652404785</ele>
        <time>2016-02-04T08:18:52.678Z</time>
      </trkpt>
      <trkpt lat="46.02486" lon="4.58671">
        <ele>740.696533203</ele>
        <time>2016-02-04T08:18:53.645Z</time>
      </trkpt>
      <trkpt lat="46.02494" lon="4.58664">
        <ele>741.261291504</ele>
        <time>2016-02-04T08:19:01.67Z</time>
      </trkpt>
      <trkpt lat="46.02494" lon="4.58663">
        <ele>741.410583496</ele>
        <time>2016-02-04T08:19:02.65Z</time>
      </trkpt>
      <trkpt lat="46.02502" lon="4.58659">
        <ele>742.948242188</ele>
        <time>2016-02-04T08:19:10.677Z</time>
      </trkpt>
      <trkpt lat="46.02503" lon="4.58658">
        <ele>743.062805176</ele>
        <time>2016-02-04T08:19:11.657Z</time>
      </trkpt>
      <trkpt lat="46.02511" lon="4.58654">
        <ele>743.43170166</ele>
        <time>2016-02-04T08:19:16.682Z</time>
      </trkpt>
      <trkpt lat="46.02513" lon="4.58653">
        <ele>743.504699707</ele>
        <time>2016-02-04T08:19:17.649Z</time>
      </trkpt>
      <trkpt lat="46.0252" lon="4.58646">
        <ele>743.625732422</ele>
        <time>2016-02-04T08:19:24.69Z</time>
      </trkpt>
      <trkpt lat="46.02521" lon="4.58646">
        <ele>743.644165039</ele>
        <time>2016-02-04T08:19:25.656Z</time>
      </trkpt>
      <trkpt lat="46.02529" lon="4.58644">
        <ele>744.007751465</ele>
        <time>2016-02-04T08:19:33.689Z</time>
      </trkpt>
      <trkpt lat="46.0253" lon="4.58644">
        <ele>744.12902832</ele>
        <time>2016-02-04T08:19:34.696Z</time>
      </trkpt>
      <trkpt lat="46.02538" lon="4.58642">
        <ele>745.108581543</ele>
        <time>2016-02-04T08:19:41.68Z</time>
      </trkpt>
      <trkpt lat="46.02539" lon="4.58641">
        <ele>745.319030762</ele>
        <time>2016-02-04T08:19:42.651Z</time>
      </trkpt>
      <trkpt lat="46.02547" lon="4.58638">
        <ele>746.206176758</ele>
        <time>2016-02-04T08:19:48.68Z</time>
      </trkpt>
      <trkpt lat="46.02548" lon="4.58637">
        <ele>746.222167969</ele>
        <time>2016-02-04T08:19:49.655Z</time>
      </trkpt>
      <trkpt lat="46.02555" lon="4.58633">
        <ele>746.592529297</ele>
        <time>2016-02-04T08:19:54.686Z</time>
      </trkpt>
      <trkpt lat="46.02558" lon="4.58632">
        <ele>746.6171875</ele>
        <time>2016-02-04T08:19:55.651Z</time>
      </trkpt>
      <trkpt lat="46.02565" lon="4.58627">
        <ele>747.75592041</ele>
        <time>2016-02-04T08:20:05.678Z</time>
      </trkpt>
      <trkpt lat="46.02566" lon="4.58626">
        <ele>747.798522949</ele>
        <time>2016-02-04T08:20:06.66Z</time>
      </trkpt>
      <trkpt lat="46.02573" lon="4.5862">
        <ele>748.379760742</ele>
        <time>2016-02-04T08:20:13.696Z</time>
      </trkpt>
      <trkpt lat="46.02575" lon="4.58619">
        <ele>748.45135498</ele>
        <time>2016-02-04T08:20:14.655Z</time>
      </trkpt>
      <trkpt lat="46.02583" lon="4.58612">
        <ele>748.463928223</ele>
        <time>2016-02-04T08:20:20.692Z</time>
      </trkpt>
      <trkpt lat="46.02584" lon="4.58612">
        <ele>748.452819824</ele>
        <time>2016-02-04T08:20:21.662Z</time>
      </trkpt>
      <trkpt lat="46.02592" lon="4.58605">
        <ele>748.57635498</ele>
        <time>2016-02-04T08:20:28.694Z</time>
      </trkpt>
      <trkpt lat="46.02593" lon="4.58605">
        <ele>748.633422852</ele>
        <time>2016-02-04T08:20:29.659Z</time>
      </trkpt>
      <trkpt lat="46.02601" lon="4.58603">
        <ele>748.734069824</ele>
        <time>2016-02-04T08:20:34.699Z</time>
      </trkpt>
      <trkpt lat="46.02602" lon="4.58603">
        <ele>748.75793457</ele>
        <time>2016-02-04T08:20:35.663Z</time>
      </trkpt>
      <trkpt lat="46.02611" lon="4.58601">
        <ele>749.151489258</ele>
        <time>2016-02-04T08:20:43.698Z</time>
      </trkpt>
      <trkpt lat="46.02612" lon="4.58601">
        <ele>749.305664062</ele>
        <time>2016-02-04T08:20:44.667Z</time>
      </trkpt>
      <trkpt lat="46.0262" lon="4.58601">
        <ele>751.402709961</ele>
        <time>2016-02-04T08:20:53.69Z</time>
      </trkpt>
      <trkpt lat="46.02622" lon="4.58602">
        <ele>751.682983398</ele>
        <time>2016-02-04T08:20:54.67Z</time>
      </trkpt>
      <trkpt lat="46.0263" lon="4.58602">
        <ele>753.089477539</ele>
        <time>2016-02-04T08:21:00.697Z</time>
      </trkpt>
      <trkpt lat="46.02631" lon="4.58602">
        <ele>753.27142334</ele>
        <time>2016-02-04T08:21:01.641Z</time>
      </trkpt>
      <trkpt lat="46.0264" lon="4.58602">
        <ele>753.926757812</ele>
        <time>2016-02-04T08:21:09.691Z</time>
      </trkpt>
      <trkpt lat="46.02641" lon="4.58602">
        <ele>754.08001709</ele>
        <time>2016-02-04T08:21:10.665Z</time>
      </trkpt>
      <trkpt lat="46.0265" lon="4.58604">
        <ele>755.949829102</ele>
        <time>2016-02-04T08:21:19.706Z</time>
      </trkpt>
      <trkpt lat="46.02651" lon="4.58605">
        <ele>756.155029297</ele>
        <time>2016-02-04T08:21:20.663Z</time>
      </trkpt>
      <trkpt lat="46.02658" lon="4.58607">
        <ele>757.612121582</ele>
        <time>2016-02-04T08:21:27.798Z</time>
      </trkpt>
      <trkpt lat="46.0266" lon="4.58608">
        <ele>757.769775391</ele>
        <time>2016-02-04T08:21:28.667Z</time>
      </trkpt>
      <trkpt lat="46.02667" lon="4.58609">
        <ele>758.322143555</ele>
        <time>2016-02-04T08:21:32.707Z</time>
      </trkpt>
      <trkpt lat="46.02668" lon="4.5861">
        <ele>758.385864258</ele>
        <time>2016-02-04T08:21:33.663Z</time>
      </trkpt>
      <trkpt lat="46.02677" lon="4.58614">
        <ele>759.100280762</ele>
        <time>2016-02-04T08:21:41.696Z</time>
      </trkpt>
      <trkpt lat="46.02678" lon="4.58614">
        <ele>759.202209473</ele>
        <time>2016-02-04T08:21:42.664Z</time>
      </trkpt>
      <trkpt lat="46.02685" lon="4.58617">
        <ele>759.640991211</ele>
        <time>2016-02-04T08:21:49.688Z</time>
      </trkpt>
      <trkpt lat="46.02687" lon="4.58618">
        <ele>759.722229004</ele>
        <time>2016-02-04T08:21:50.669Z</time>
      </trkpt>
      <trkpt lat="46.02695" lon="4.58622">
        <ele>760.910217285</ele>
        <time>2016-02-04T08:21:58.815Z</time>
      </trkpt>
      <trkpt lat="46.02696" lon="4.58623">
        <ele>760.973937988</ele>
        <time>2016-02-04T08:21:59.676Z</time>
      </trkpt>
      <trkpt lat="46.02703" lon="4.58626">
        <ele>761.030883789</ele>
        <time>2016-02-04T08:22:04.71Z</time>
      </trkpt>
      <trkpt lat="46.02705" lon="4.58627">
        <ele>760.974365234</ele>
        <time>2016-02-04T08:22:05.669Z</time>
      </trkpt>
      <trkpt lat="46.02713" lon="4.58629">
        <ele>761.342834473</ele>
        <time>2016-02-04T08:22:11.658Z</time>
      </trkpt>
      <trkpt lat="46.02715" lon="4.58629">
        <ele>761.455993652</ele>
        <time>2016-02-04T08:22:12.671Z</time>
      </trkpt>
      <trkpt lat="46.02723" lon="4.5863">
        <ele>763.377563477</ele>
        <time>2016-02-04T08:22:21.692Z</time>
      </trkpt>
      <trkpt lat="46.02724" lon="4.58631">
        <ele>763.592163086</ele>
        <time>2016-02-04T08:22:22.672Z</time>
      </trkpt>
      <trkpt lat="46.02732" lon="4.58633">
        <ele>764.761108398</ele>
        <time>2016-02-04T08:22:28.712Z</time>
      </trkpt>
      <trkpt lat="46.02733" lon="4.58633">
        <ele>764.909667969</ele>
        <time>2016-02-04T08:22:29.673Z</time>
      </trkpt>
      <trkpt lat="46.02741" lon="4.58637">
        <ele>765.423217773</ele>
        <time>2016-02-04T08:22:35.691Z</time>
      </trkpt>
      <trkpt lat="46.02742" lon="4.58638">
        <ele>765.506225586</ele>
        <time>2016-02-04T08:22:36.672Z</time>
      </trkpt>
      <trkpt lat="46.0275" lon="4.58639">
        <ele>765.775146484</ele>
        <time>2016-02-04T08:22:42.664Z</time>
      </trkpt>
      <trkpt lat="46.02752" lon="4.5864">
        <ele>765.855224609</ele>
        <time>2016-02-04T08:22:43.642Z</time>
      </trkpt>
      <trkpt lat="46.02761" lon="4.58641">
        <ele>765.937866211</ele>
        <time>2016-02-04T08:22:49.783Z</time>
      </trkpt>
      <trkpt lat="46.02761" lon="4.58641">
        <ele>765.986572266</ele>
        <time>2016-02-04T08:22:50.645Z</time>
      </trkpt>
      <trkpt lat="46.02769" lon="4.58639">
        <ele>767.228637695</ele>
        <time>2016-02-04T08:22:59.658Z</time>
      </trkpt>
      <trkpt lat="46.02771" lon="4.58639">
        <ele>767.371276855</ele>
        <time>2016-02-04T08:23:00.645Z</time>
      </trkpt>
      <trkpt lat="46.02779" lon="4.58639">
        <ele>768.339111328</ele>
        <time>2016-02-04T08:23:07.661Z</time>
      </trkpt>
      <trkpt lat="46.0278" lon="4.58639">
        <ele>768.422119141</ele>
        <time>2016-02-04T08:23:08.649Z</time>
      </trkpt>
      <trkpt lat="46.02788" lon="4.58635">
        <ele>769.106018066</ele>
        <time>2016-02-04T08:23:18.666Z</time>
      </trkpt>
      <trkpt lat="46.02788" lon="4.58635">
        <ele>769.235778809</ele>
        <time>2016-02-04T08:23:19.643Z</time>
      </trkpt>
      <trkpt lat="46.02794" lon="4.58626">
        <ele>770.264160156</ele>
        <time>2016-02-04T08:23:28.667Z</time>
      </trkpt>
      <trkpt lat="46.02795" lon="4.58625">
        <ele>770.303466797</ele>
        <time>2016-02-04T08:23:29.659Z</time>
      </trkpt>
      <trkpt lat="46.02801" lon="4.58616">
        <ele>770.435241699</ele>
        <time>2016-02-04T08:23:32.677Z</time>
      </trkpt>
      <trkpt lat="46.02802" lon="4.58614">
        <ele>770.434997559</ele>
        <time>2016-02-04T08:23:33.642Z</time>
      </trkpt>
      <trkpt lat="46.02806" lon="4.58604">
        <ele>770.207397461</ele>
        <time>2016-02-04T08:23:39.67Z</time>
      </trkpt>
      <trkpt lat="46.02807" lon="4.58603">
        <ele>770.161865234</ele>
        <time>2016-02-04T08:23:40.643Z</time>
      </trkpt>
      <trkpt lat="46.02813" lon="4.58597">
        <ele>770.548095703</ele>
        <time>2016-02-04T08:23:48.683Z</time>
      </trkpt>
      <trkpt lat="46.02814" lon="4.58595">
        <ele>770.54473877</ele>
        <time>2016-02-04T08:23:49.645Z</time>
      </trkpt>
      <trkpt lat="46.0282" lon="4.58587">
        <ele>770.341369629</ele>
        <time>2016-02-04T08:23:55.662Z</time>
      </trkpt>
      <trkpt lat="46.02821" lon="4.58586">
        <ele>770.232849121</ele>
        <time>2016-02-04T08:23:56.644Z</time>
      </trkpt>
      <trkpt lat="46.02826" lon="4.58576">
        <ele>769.985046387</ele>
        <time>2016-02-04T08:24:06.659Z</time>
      </trkpt>
      <trkpt lat="46.02827" lon="4.58575">
        <ele>769.852844238</ele>
        <time>2016-02-04T08:24:07.653Z</time>
      </trkpt>
      <trkpt lat="46.02831" lon="4.58566">
        <ele>769.702758789</ele>
        <time>2016-02-04T08:24:12.677Z</time>
      </trkpt>
      <trkpt lat="46.02832" lon="4.58564">
        <ele>769.746459961</ele>
        <time>2016-02-04T08:24:13.65Z</time>
      </trkpt>
      <trkpt lat="46.02837" lon="4.58554">
        <ele>769.508178711</ele>
        <time>2016-02-04T08:24:20.722Z</time>
      </trkpt>
      <trkpt lat="46.02837" lon="4.58552">
        <ele>769.539001465</ele>
        <time>2016-02-04T08:24:21.651Z</time>
      </trkpt>
      <trkpt lat="46.02842" lon="4.58543">
        <ele>769.384460449</ele>
        <time>2016-02-04T08:24:28.668Z</time>
      </trkpt>
      <trkpt lat="46.02843" lon="4.58541">
        <ele>769.278076172</ele>
        <time>2016-02-04T08:24:29.656Z</time>
      </trkpt>
      <trkpt lat="46.02848" lon="4.58532">
        <ele>768.945922852</ele>
        <time>2016-02-04T08:24:35.667Z</time>
      </trkpt>
      <trkpt lat="46.02848" lon="4.5853">
        <ele>768.927978516</ele>
        <time>2016-02-04T08:24:36.65Z</time>
      </trkpt>
      <trkpt lat="46.02854" lon="4.5852">
        <ele>768.468383789</ele>
        <time>2016-02-04T08:24:43.671Z</time>
      </trkpt>
      <trkpt lat="46.02855" lon="4.58519">
        <ele>768.432189941</ele>
        <time>2016-02-04T08:24:44.657Z</time>
      </trkpt>
      <trkpt lat="46.02859" lon="4.58509">
        <ele>768.213012695</ele>
        <time>2016-02-04T08:24:52.672Z</time>
      </trkpt>
      <trkpt lat="46.0286" lon="4.58507">
        <ele>768.228820801</ele>
        <time>2016-02-04T08:24:53.678Z</time>
      </trkpt>
      <trkpt lat="46.02862" lon="4.58497">
        <ele>767.781738281</ele>
        <time>2016-02-04T08:24:58.681Z</time>
      </trkpt>
      <trkpt lat="46.02863" lon="4.58494">
        <ele>767.645324707</ele>
        <time>2016-02-04T08:24:59.658Z</time>
      </trkpt>
      <trkpt lat="46.02867" lon="4.58484">
        <ele>767.588500977</ele>
        <time>2016-02-04T08:25:05.69Z</time>
      </trkpt>
      <trkpt lat="46.02868" lon="4.58482">
        <ele>767.630187988</ele>
        <time>2016-02-04T08:25:06.65Z</time>
      </trkpt>
      <trkpt lat="46.02873" lon="4.58472">
        <ele>767.897033691</ele>
        <time>2016-02-04T08:25:10.67Z</time>
      </trkpt>
      <trkpt lat="46.02874" lon="4.5847">
        <ele>767.961914062</ele>
        <time>2016-02-04T08:25:11.65Z</time>
      </trkpt>
      <trkpt lat="46.02879" lon="4.5846">
        <ele>767.860961914</ele>
        <time>2016-02-04T08:25:19.68Z</time>
      </trkpt>
      <trkpt lat="46.02879" lon="4.58459">
        <ele>767.786743164</ele>
        <time>2016-02-04T08:25:20.648Z</time>
      </trkpt>
      <trkpt lat="46.02883" lon="4.58448">
        <ele>767.278930664</ele>
        <time>2016-02-04T08:25:27.682Z</time>
      </trkpt>
      <trkpt lat="46.02884" lon="4.58446">
        <ele>767.204101562</ele>
        <time>2016-02-04T08:25:28.652Z</time>
      </trkpt>
      <trkpt lat="46.02886" lon="4.58435">
        <ele>766.815124512</ele>
        <time>2016-02-04T08:25:35.849Z</time>
      </trkpt>
      <trkpt lat="46.02887" lon="4.58433">
        <ele>766.816589355</ele>
        <time>2016-02-04T08:25:36.651Z</time>
      </trkpt>
      <trkpt lat="46.0289" lon="4.58422">
        <ele>766.890930176</ele>
        <time>2016-02-04T08:25:43.684Z</time>
      </trkpt>
      <trkpt lat="46.0289" lon="4.58421">
        <ele>766.882263184</ele>
        <time>2016-02-04T08:25:44.654Z</time>
      </trkpt>
      <trkpt lat="46.02894" lon="4.58409">
        <ele>767.166564941</ele>
        <time>2016-02-04T08:25:52.682Z</time>
      </trkpt>
      <trkpt lat="46.02894" lon="4.58408">
        <ele>767.303955078</ele>
        <time>2016-02-04T08:25:53.654Z</time>
      </trkpt>
      <trkpt lat="46.02897" lon="4.58396">
        <ele>767.699707031</ele>
        <time>2016-02-04T08:26:00.671Z</time>
      </trkpt>
      <trkpt lat="46.02897" lon="4.58394">
        <ele>767.664306641</ele>
        <time>2016-02-04T08:26:01.653Z</time>
      </trkpt>
      <trkpt lat="46.029" lon="4.58384">
        <ele>767.617858887</ele>
        <time>2016-02-04T08:26:07.68Z</time>
      </trkpt>
      <trkpt lat="46.02901" lon="4.58382">
        <ele>767.6015625</ele>
        <time>2016-02-04T08:26:08.654Z</time>
      </trkpt>
      <trkpt lat="46.02905" lon="4.5837">
        <ele>767.469116211</ele>
        <time>2016-02-04T08:26:15.685Z</time>
      </trkpt>
      <trkpt lat="46.02905" lon="4.58368">
        <ele>767.371276855</ele>
        <time>2016-02-04T08:26:16.655Z</time>
      </trkpt>
      <trkpt lat="46.02907" lon="4.58356">
        <ele>767.159973145</ele>
        <time>2016-02-04T08:26:23.693Z</time>
      </trkpt>
      <trkpt lat="46.02907" lon="4.58354">
        <ele>767.078796387</ele>
        <time>2016-02-04T08:26:24.654Z</time>
      </trkpt>
      <trkpt lat="46.0291" lon="4.58343">
        <ele>767.020263672</ele>
        <time>2016-02-04T08:26:30.689Z</time>
      </trkpt>
      <trkpt lat="46.02911" lon="4.58341">
        <ele>767.000976562</ele>
        <time>2016-02-04T08:26:31.655Z</time>
      </trkpt>
      <trkpt lat="46.02912" lon="4.5833">
        <ele>766.942810059</ele>
        <time>2016-02-04T08:26:36.678Z</time>
      </trkpt>
      <trkpt lat="46.02912" lon="4.58327">
        <ele>766.900512695</ele>
        <time>2016-02-04T08:26:37.679Z</time>
      </trkpt>
      <trkpt lat="46.02915" lon="4.58317">
        <ele>766.729064941</ele>
        <time>2016-02-04T08:26:42.677Z</time>
      </trkpt>
      <trkpt lat="46.02916" lon="4.58314">
        <ele>766.669189453</ele>
        <time>2016-02-04T08:26:43.655Z</time>
      </trkpt>
      <trkpt lat="46.02922" lon="4.58304">
        <ele>764.276733398</ele>
        <time>2016-02-04T08:26:55.702Z</time>
      </trkpt>
      <trkpt lat="46.02922" lon="4.58303">
        <ele>764.241882324</ele>
        <time>2016-02-04T08:26:56.661Z</time>
      </trkpt>
      <trkpt lat="46.02931" lon="4.58303">
        <ele>763.337280273</ele>
        <time>2016-02-04T08:27:07.686Z</time>
      </trkpt>
      <trkpt lat="46.02932" lon="4.58303">
        <ele>763.292175293</ele>
        <time>2016-02-04T08:27:08.664Z</time>
      </trkpt>
      <trkpt lat="46.02934" lon="4.58292">
        <ele>761.710876465</ele>
        <time>2016-02-04T08:27:50.696Z</time>
      </trkpt>
      <trkpt lat="46.02934" lon="4.58291">
        <ele>761.696105957</ele>
        <time>2016-02-04T08:27:51.67Z</time>
      </trkpt>
      <trkpt lat="46.02934" lon="4.58278">
        <ele>761.526306152</ele>
        <time>2016-02-04T08:27:58.668Z</time>
      </trkpt>
      <trkpt lat="46.02933" lon="4.58275">
        <ele>761.429199219</ele>
        <time>2016-02-04T08:27:59.639Z</time>
      </trkpt>
      <trkpt lat="46.02933" lon="4.58263">
        <ele>760.838989258</ele>
        <time>2016-02-04T08:28:06.678Z</time>
      </trkpt>
      <trkpt lat="46.02934" lon="4.58261">
        <ele>760.684020996</ele>
        <time>2016-02-04T08:28:07.646Z</time>
      </trkpt>
      <trkpt lat="46.02938" lon="4.58251">
        <ele>760.147277832</ele>
        <time>2016-02-04T08:28:13.677Z</time>
      </trkpt>
      <trkpt lat="46.02938" lon="4.58249">
        <ele>759.930664062</ele>
        <time>2016-02-04T08:28:14.64Z</time>
      </trkpt>
      <trkpt lat="46.02942" lon="4.58239">
        <ele>759.019775391</ele>
        <time>2016-02-04T08:28:18.657Z</time>
      </trkpt>
      <trkpt lat="46.02943" lon="4.58237">
        <ele>758.804260254</ele>
        <time>2016-02-04T08:28:19.641Z</time>
      </trkpt>
      <trkpt lat="46.02948" lon="4.58226">
        <ele>758.105651855</ele>
        <time>2016-02-04T08:28:26.664Z</time>
      </trkpt>
      <trkpt lat="46.02948" lon="4.58225">
        <ele>758.008483887</ele>
        <time>2016-02-04T08:28:27.65Z</time>
      </trkpt>
      <trkpt lat="46.02954" lon="4.58221">
        <ele>754.774230957</ele>
        <time>2016-02-04T08:29:15.665Z</time>
      </trkpt>
      <trkpt lat="46.02956" lon="4.5822">
        <ele>754.559082031</ele>
        <time>2016-02-04T08:29:16.643Z</time>
      </trkpt>
      <trkpt lat="46.02964" lon="4.58216">
        <ele>753.910400391</ele>
        <time>2016-02-04T08:29:22.691Z</time>
      </trkpt>
      <trkpt lat="46.02965" lon="4.58216">
        <ele>753.870910645</ele>
        <time>2016-02-04T08:29:23.643Z</time>
      </trkpt>
      <trkpt lat="46.02972" lon="4.58216">
        <ele>754.46862793</ele>
        <time>2016-02-04T08:29:30.684Z</time>
      </trkpt>
      <trkpt lat="46.02974" lon="4.58216">
        <ele>754.597412109</ele>
        <time>2016-02-04T08:29:31.645Z</time>
      </trkpt>
      <trkpt lat="46.02981" lon="4.58217">
        <ele>754.638977051</ele>
        <time>2016-02-04T08:29:34.666Z</time>
      </trkpt>
      <trkpt lat="46.02984" lon="4.58217">
        <ele>754.552185059</ele>
        <time>2016-02-04T08:29:35.645Z</time>
      </trkpt>
      <trkpt lat="46.02991" lon="4.5822">
        <ele>753.87310791</ele>
        <time>2016-02-04T08:29:41.698Z</time>
      </trkpt>
      <trkpt lat="46.02993" lon="4.58221">
        <ele>753.686523438</ele>
        <time>2016-02-04T08:29:42.657Z</time>
      </trkpt>
      <trkpt lat="46.03001" lon="4.58222">
        <ele>752.35144043</ele>
        <time>2016-02-04T08:29:49.666Z</time>
      </trkpt>
      <trkpt lat="46.03002" lon="4.58223">
        <ele>752.197814941</ele>
        <time>2016-02-04T08:29:50.646Z</time>
      </trkpt>
      <trkpt lat="46.0301" lon="4.58228">
        <ele>751.655334473</ele>
        <time>2016-02-04T08:29:59.666Z</time>
      </trkpt>
      <trkpt lat="46.03011" lon="4.58229">
        <ele>751.679321289</ele>
        <time>2016-02-04T08:30:00.65Z</time>
      </trkpt>
      <trkpt lat="46.03019" lon="4.58236">
        <ele>751.916992188</ele>
        <time>2016-02-04T08:30:06.663Z</time>
      </trkpt>
      <trkpt lat="46.0302" lon="4.58237">
        <ele>751.9375</ele>
        <time>2016-02-04T08:30:07.641Z</time>
      </trkpt>
      <trkpt lat="46.03028" lon="4.58241">
        <ele>751.335388184</ele>
        <time>2016-02-04T08:30:15.684Z</time>
      </trkpt>
      <trkpt lat="46.03029" lon="4.58242">
        <ele>751.306518555</ele>
        <time>2016-02-04T08:30:16.666Z</time>
      </trkpt>
      <trkpt lat="46.03036" lon="4.58246">
        <ele>751.047363281</ele>
        <time>2016-02-04T08:30:21.671Z</time>
      </trkpt>
      <trkpt lat="46.03038" lon="4.58247">
        <ele>750.90246582</ele>
        <time>2016-02-04T08:30:22.65Z</time>
      </trkpt>
      <trkpt lat="46.03046" lon="4.58253">
        <ele>749.864868164</ele>
        <time>2016-02-04T08:30:31.666Z</time>
      </trkpt>
      <trkpt lat="46.03046" lon="4.58253">
        <ele>749.76965332</ele>
        <time>2016-02-04T08:30:32.653Z</time>
      </trkpt>
      <trkpt lat="46.03053" lon="4.58256">
        <ele>749.175292969</ele>
        <time>2016-02-04T08:30:35.68Z</time>
      </trkpt>
      <trkpt lat="46.03055" lon="4.58257">
        <ele>748.887756348</ele>
        <time>2016-02-04T08:30:36.652Z</time>
      </trkpt>
      <trkpt lat="46.03063" lon="4.58262">
        <ele>747.174865723</ele>
        <time>2016-02-04T08:30:42.683Z</time>
      </trkpt>
      <trkpt lat="46.03064" lon="4.58262">
        <ele>746.939331055</ele>
        <time>2016-02-04T08:30:43.656Z</time>
      </trkpt>
      <trkpt lat="46.03072" lon="4.58269">
        <ele>745.006164551</ele>
        <time>2016-02-04T08:30:52.701Z</time>
      </trkpt>
      <trkpt lat="46.03072" lon="4.58269">
        <ele>744.829345703</ele>
        <time>2016-02-04T08:30:53.656Z</time>
      </trkpt>
      <trkpt lat="46.03078" lon="4.58277">
        <ele>744.30279541</ele>
        <time>2016-02-04T08:30:59.688Z</time>
      </trkpt>
      <trkpt lat="46.03079" lon="4.58277">
        <ele>744.131164551</ele>
        <time>2016-02-04T08:31:00.652Z</time>
      </trkpt>
      <trkpt lat="46.03084" lon="4.58285">
        <ele>743.318054199</ele>
        <time>2016-02-04T08:31:05.688Z</time>
      </trkpt>
      <trkpt lat="46.03085" lon="4.58287">
        <ele>743.076782227</ele>
        <time>2016-02-04T08:31:06.652Z</time>
      </trkpt>
      <trkpt lat="46.03092" lon="4.58294">
        <ele>742.159423828</ele>
        <time>2016-02-04T08:31:14.69Z</time>
      </trkpt>
      <trkpt lat="46.03094" lon="4.58296">
        <ele>742.180114746</ele>
        <time>2016-02-04T08:31:15.658Z</time>
      </trkpt>
      <trkpt lat="46.031" lon="4.58305">
        <ele>742.276916504</ele>
        <time>2016-02-04T08:31:23.681Z</time>
      </trkpt>
      <trkpt lat="46.03101" lon="4.58307">
        <ele>742.350219727</ele>
        <time>2016-02-04T08:31:24.653Z</time>
      </trkpt>
      <trkpt lat="46.03106" lon="4.58317">
        <ele>742.987854004</ele>
        <time>2016-02-04T08:31:31.707Z</time>
      </trkpt>
      <trkpt lat="46.03107" lon="4.58318">
        <ele>743.147949219</ele>
        <time>2016-02-04T08:31:32.654Z</time>
      </trkpt>
      <trkpt lat="46.03113" lon="4.58327">
        <ele>743.69317627</ele>
        <time>2016-02-04T08:31:39.697Z</time>
      </trkpt>
      <trkpt lat="46.03113" lon="4.58328">
        <ele>743.731201172</ele>
        <time>2016-02-04T08:31:40.651Z</time>
      </trkpt>
      <trkpt lat="46.03118" lon="4.5834">
        <ele>744.241455078</ele>
        <time>2016-02-04T08:31:45.69Z</time>
      </trkpt>
      <trkpt lat="46.03118" lon="4.58341">
        <ele>744.311401367</ele>
        <time>2016-02-04T08:31:46.664Z</time>
      </trkpt>
      <trkpt lat="46.03123" lon="4.58352">
        <ele>744.274414062</ele>
        <time>2016-02-04T08:31:54.695Z</time>
      </trkpt>
      <trkpt lat="46.03124" lon="4.58356">
        <ele>744.310546875</ele>
        <time>2016-02-04T08:31:55.666Z</time>
      </trkpt>
      <trkpt lat="46.03129" lon="4.58366">
        <ele>744.584655762</ele>
        <time>2016-02-04T08:32:03.694Z</time>
      </trkpt>
      <trkpt lat="46.0313" lon="4.58367">
        <ele>744.571228027</ele>
        <time>2016-02-04T08:32:04.669Z</time>
      </trkpt>
      <trkpt lat="46.03135" lon="4.58375">
        <ele>744.517822266</ele>
        <time>2016-02-04T08:32:09.676Z</time>
      </trkpt>
      <trkpt lat="46.03136" lon="4.58377">
        <ele>744.606079102</ele>
        <time>2016-02-04T08:32:10.667Z</time>
      </trkpt>
      <trkpt lat="46.03141" lon="4.58386">
        <ele>744.63885498</ele>
        <time>2016-02-04T08:32:18.697Z</time>
      </trkpt>
      <trkpt lat="46.03142" lon="4.58387">
        <ele>744.468139648</ele>
        <time>2016-02-04T08:32:19.667Z</time>
      </trkpt>
      <trkpt lat="46.03148" lon="4.58395">
        <ele>744.156494141</ele>
        <time>2016-02-04T08:32:23.675Z</time>
      </trkpt>
      <trkpt lat="46.03149" lon="4.58396">
        <ele>744.186889648</ele>
        <time>2016-02-04T08:32:24.667Z</time>
      </trkpt>
      <trkpt lat="46.03154" lon="4.58404">
        <ele>743.921508789</ele>
        <time>2016-02-04T08:32:30.694Z</time>
      </trkpt>
      <trkpt lat="46.03155" lon="4.58406">
        <ele>743.847900391</ele>
        <time>2016-02-04T08:32:31.675Z</time>
      </trkpt>
      <trkpt lat="46.03161" lon="4.58414">
        <ele>743.557678223</ele>
        <time>2016-02-04T08:32:36.705Z</time>
      </trkpt>
      <trkpt lat="46.03161" lon="4.58415">
        <ele>743.458312988</ele>
        <time>2016-02-04T08:32:37.68Z</time>
      </trkpt>
      <trkpt lat="46.03166" lon="4.58425">
        <ele>742.843078613</ele>
        <time>2016-02-04T08:32:45.704Z</time>
      </trkpt>
      <trkpt lat="46.03167" lon="4.58427">
        <ele>742.670166016</ele>
        <time>2016-02-04T08:32:46.68Z</time>
      </trkpt>
      <trkpt lat="46.03172" lon="4.58437">
        <ele>741.87878418</ele>
        <time>2016-02-04T08:32:53.718Z</time>
      </trkpt>
      <trkpt lat="46.03172" lon="4.58438">
        <ele>741.808898926</ele>
        <time>2016-02-04T08:32:54.669Z</time>
      </trkpt>
      <trkpt lat="46.03178" lon="4.58446">
        <ele>741.595703125</ele>
        <time>2016-02-04T08:32:59.698Z</time>
      </trkpt>
      <trkpt lat="46.03179" lon="4.58449">
        <ele>741.516479492</ele>
        <time>2016-02-04T08:33:00.67Z</time>
      </trkpt>
      <trkpt lat="46.03184" lon="4.58458">
        <ele>740.879211426</ele>
        <time>2016-02-04T08:33:05.696Z</time>
      </trkpt>
      <trkpt lat="46.03184" lon="4.5846">
        <ele>740.777709961</ele>
        <time>2016-02-04T08:33:06.67Z</time>
      </trkpt>
      <trkpt lat="46.0319" lon="4.58469">
        <ele>739.292785645</ele>
        <time>2016-02-04T08:33:11.723Z</time>
      </trkpt>
      <trkpt lat="46.03191" lon="4.5847">
        <ele>738.959655762</ele>
        <time>2016-02-04T08:33:12.64Z</time>
      </trkpt>
      <trkpt lat="46.03195" lon="4.58481">
        <ele>736.445678711</ele>
        <time>2016-02-04T08:33:21.657Z</time>
      </trkpt>
      <trkpt lat="46.03196" lon="4.58483">
        <ele>736.243103027</ele>
        <time>2016-02-04T08:33:22.64Z</time>
      </trkpt>
      <trkpt lat="46.032" lon="4.58494">
        <ele>735.131530762</ele>
        <time>2016-02-04T08:33:27.687Z</time>
      </trkpt>
      <trkpt lat="46.032" lon="4.58495">
        <ele>734.822509766</ele>
        <time>2016-02-04T08:33:28.648Z</time>
      </trkpt>
      <trkpt lat="46.03204" lon="4.58505">
        <ele>734.067932129</ele>
        <time>2016-02-04T08:33:33.663Z</time>
      </trkpt>
      <trkpt lat="46.03205" lon="4.58507">
        <ele>733.926574707</ele>
        <time>2016-02-04T08:33:34.651Z</time>
      </trkpt>
      <trkpt lat="46.03208" lon="4.58517">
        <ele>732.651916504</ele>
        <time>2016-02-04T08:33:42.661Z</time>
      </trkpt>
      <trkpt lat="46.03209" lon="4.58519">
        <ele>732.541137695</ele>
        <time>2016-02-04T08:33:43.641Z</time>
      </trkpt>
      <trkpt lat="46.03213" lon="4.5853">
        <ele>731.991882324</ele>
        <time>2016-02-04T08:33:50.769Z</time>
      </trkpt>
      <trkpt lat="46.03214" lon="4.58531">
        <ele>731.912841797</ele>
        <time>2016-02-04T08:33:51.643Z</time>
      </trkpt>
      <trkpt lat="46.03217" lon="4.58542">
        <ele>731.406555176</ele>
        <time>2016-02-04T08:33:58.689Z</time>
      </trkpt>
      <trkpt lat="46.03218" lon="4.58544">
        <ele>731.338317871</ele>
        <time>2016-02-04T08:33:59.652Z</time>
      </trkpt>
      <trkpt lat="46.03221" lon="4.58555">
        <ele>730.265991211</ele>
        <time>2016-02-04T08:34:05.666Z</time>
      </trkpt>
      <trkpt lat="46.03222" lon="4.58558">
        <ele>730.006347656</ele>
        <time>2016-02-04T08:34:06.642Z</time>
      </trkpt>
      <trkpt lat="46.03223" lon="4.5857">
        <ele>728.12298584</ele>
        <time>2016-02-04T08:34:13.675Z</time>
      </trkpt>
      <trkpt lat="46.03223" lon="4.58571">
        <ele>727.778747559</ele>
        <time>2016-02-04T08:34:14.651Z</time>
      </trkpt>
      <trkpt lat="46.03226" lon="4.58583">
        <ele>726.854187012</ele>
        <time>2016-02-04T08:34:20.676Z</time>
      </trkpt>
      <trkpt lat="46.03226" lon="4.58584">
        <ele>726.78137207</ele>
        <time>2016-02-04T08:34:21.643Z</time>
      </trkpt>
      <trkpt lat="46.03228" lon="4.58595">
        <ele>726.003967285</ele>
        <time>2016-02-04T08:34:28.772Z</time>
      </trkpt>
      <trkpt lat="46.03228" lon="4.586">
        <ele>725.854858398</ele>
        <time>2016-02-04T08:34:29.651Z</time>
      </trkpt>
      <trkpt lat="46.03231" lon="4.5861">
        <ele>725.494934082</ele>
        <time>2016-02-04T08:34:34.676Z</time>
      </trkpt>
      <trkpt lat="46.03232" lon="4.58612">
        <ele>725.312866211</ele>
        <time>2016-02-04T08:34:35.661Z</time>
      </trkpt>
      <trkpt lat="46.03232" lon="4.58623">
        <ele>723.463745117</ele>
        <time>2016-02-04T08:34:43.67Z</time>
      </trkpt>
      <trkpt lat="46.03232" lon="4.58625">
        <ele>723.366699219</ele>
        <time>2016-02-04T08:34:44.66Z</time>
      </trkpt>
      <trkpt lat="46.03234" lon="4.58636">
        <ele>722.414123535</ele>
        <time>2016-02-04T08:34:50.662Z</time>
      </trkpt>
      <trkpt lat="46.03234" lon="4.58637">
        <ele>722.295166016</ele>
        <time>2016-02-04T08:34:51.654Z</time>
      </trkpt>
      <trkpt lat="46.03235" lon="4.58649">
        <ele>720.593383789</ele>
        <time>2016-02-04T08:34:58.667Z</time>
      </trkpt>
      <trkpt lat="46.03236" lon="4.58653">
        <ele>720.282653809</ele>
        <time>2016-02-04T08:34:59.659Z</time>
      </trkpt>
      <trkpt lat="46.03239" lon="4.58664">
        <ele>719.288757324</ele>
        <time>2016-02-04T08:35:03.678Z</time>
      </trkpt>
      <trkpt lat="46.0324" lon="4.58667">
        <ele>719.120422363</ele>
        <time>2016-02-04T08:35:04.655Z</time>
      </trkpt>
      <trkpt lat="46.0324" lon="4.58679">
        <ele>717.34777832</ele>
        <time>2016-02-04T08:35:14.669Z</time>
      </trkpt>
      <trkpt lat="46.0324" lon="4.5868">
        <ele>717.126525879</ele>
        <time>2016-02-04T08:35:15.646Z</time>
      </trkpt>
      <trkpt lat="46.03239" lon="4.58691">
        <ele>715.115539551</ele>
        <time>2016-02-04T08:35:24.66Z</time>
      </trkpt>
      <trkpt lat="46.03239" lon="4.58694">
        <ele>714.842468262</ele>
        <time>2016-02-04T08:35:25.646Z</time>
      </trkpt>
      <trkpt lat="46.0324" lon="4.58705">
        <ele>714.349182129</ele>
        <time>2016-02-04T08:35:28.687Z</time>
      </trkpt>
      <trkpt lat="46.03241" lon="4.58708">
        <ele>714.206115723</ele>
        <time>2016-02-04T08:35:29.649Z</time>
      </trkpt>
      <trkpt lat="46.03241" lon="4.5872">
        <ele>714.218078613</ele>
        <time>2016-02-04T08:35:36.69Z</time>
      </trkpt>
      <trkpt lat="46.03241" lon="4.58722">
        <ele>714.038391113</ele>
        <time>2016-02-04T08:35:37.657Z</time>
      </trkpt>
      <trkpt lat="46.03241" lon="4.58733">
        <ele>713.303344727</ele>
        <time>2016-02-04T08:35:42.687Z</time>
      </trkpt>
      <trkpt lat="46.03241" lon="4.58736">
        <ele>713.187072754</ele>
        <time>2016-02-04T08:35:43.651Z</time>
      </trkpt>
      <trkpt lat="46.03241" lon="4.58747">
        <ele>712.703674316</ele>
        <time>2016-02-04T08:35:47.663Z</time>
      </trkpt>
      <trkpt lat="46.03241" lon="4.58749">
        <ele>712.460754395</ele>
        <time>2016-02-04T08:35:48.651Z</time>
      </trkpt>
      <trkpt lat="46.03242" lon="4.5876">
        <ele>711.467346191</ele>
        <time>2016-02-04T08:35:53.68Z</time>
      </trkpt>
      <trkpt lat="46.03243" lon="4.58763">
        <ele>711.295776367</ele>
        <time>2016-02-04T08:35:54.649Z</time>
      </trkpt>
      <trkpt lat="46.03247" lon="4.58774">
        <ele>709.650878906</ele>
        <time>2016-02-04T08:36:02.677Z</time>
      </trkpt>
      <trkpt lat="46.03247" lon="4.58776">
        <ele>709.540710449</ele>
        <time>2016-02-04T08:36:03.651Z</time>
      </trkpt>
      <trkpt lat="46.03251" lon="4.58785">
        <ele>709.171203613</ele>
        <time>2016-02-04T08:36:06.677Z</time>
      </trkpt>
      <trkpt lat="46.03253" lon="4.58787">
        <ele>709.051696777</ele>
        <time>2016-02-04T08:36:07.658Z</time>
      </trkpt>
      <trkpt lat="46.0326" lon="4.58779">
        <ele>706.199584961</ele>
        <time>2016-02-04T08:36:24.683Z</time>
      </trkpt>
      <trkpt lat="46.03259" lon="4.58778">
        <ele>706.155395508</ele>
        <time>2016-02-04T08:36:25.654Z</time>
      </trkpt>
      <trkpt lat="46.03259" lon="4.58767">
        <ele>706.254821777</ele>
        <time>2016-02-04T08:36:34.697Z</time>
      </trkpt>
      <trkpt lat="46.03259" lon="4.58765">
        <ele>706.261901855</ele>
        <time>2016-02-04T08:36:35.654Z</time>
      </trkpt>
      <trkpt lat="46.03259" lon="4.58753">
        <ele>706.267272949</ele>
        <time>2016-02-04T08:36:41.688Z</time>
      </trkpt>
      <trkpt lat="46.03259" lon="4.5875">
        <ele>706.281921387</ele>
        <time>2016-02-04T08:36:42.663Z</time>
      </trkpt>
      <trkpt lat="46.0326" lon="4.58739">
        <ele>706.36529541</ele>
        <time>2016-02-04T08:36:47.689Z</time>
      </trkpt>
      <trkpt lat="46.0326" lon="4.58737">
        <ele>706.34753418</ele>
        <time>2016-02-04T08:36:48.656Z</time>
      </trkpt>
      <trkpt lat="46.03261" lon="4.58726">
        <ele>706.011169434</ele>
        <time>2016-02-04T08:36:53.684Z</time>
      </trkpt>
      <trkpt lat="46.03261" lon="4.58724">
        <ele>705.950561523</ele>
        <time>2016-02-04T08:36:54.665Z</time>
      </trkpt>
      <trkpt lat="46.03261" lon="4.58711">
        <ele>705.890319824</ele>
        <time>2016-02-04T08:36:59.694Z</time>
      </trkpt>
      <trkpt lat="46.03261" lon="4.5871">
        <ele>705.838439941</ele>
        <time>2016-02-04T08:37:00.672Z</time>
      </trkpt>
      <trkpt lat="46.03263" lon="4.58698">
        <ele>705.312805176</ele>
        <time>2016-02-04T08:37:06.715Z</time>
      </trkpt>
      <trkpt lat="46.03264" lon="4.58696">
        <ele>705.328613281</ele>
        <time>2016-02-04T08:37:07.666Z</time>
      </trkpt>
      <trkpt lat="46.03262" lon="4.58684">
        <ele>706.406616211</ele>
        <time>2016-02-04T08:37:16.708Z</time>
      </trkpt>
      <trkpt lat="46.03262" lon="4.58682">
        <ele>706.46496582</ele>
        <time>2016-02-04T08:37:17.656Z</time>
      </trkpt>
      <trkpt lat="46.03262" lon="4.5867">
        <ele>706.968200684</ele>
        <time>2016-02-04T08:37:25.693Z</time>
      </trkpt>
      <trkpt lat="46.03262" lon="4.58669">
        <ele>707.077697754</ele>
        <time>2016-02-04T08:37:26.666Z</time>
      </trkpt>
      <trkpt lat="46.03263" lon="4.58658">
        <ele>707.111572266</ele>
        <time>2016-02-04T08:37:31.705Z</time>
      </trkpt>
      <trkpt lat="46.03264" lon="4.58656">
        <ele>707.077819824</ele>
        <time>2016-02-04T08:37:32.667Z</time>
      </trkpt>
      <trkpt lat="46.03263" lon="4.58643">
        <ele>706.686706543</ele>
        <time>2016-02-04T08:37:38.688Z</time>
      </trkpt>
      <trkpt lat="46.03264" lon="4.58642">
        <ele>706.604675293</ele>
        <time>2016-02-04T08:37:39.667Z</time>
      </trkpt>
      <trkpt lat="46.03263" lon="4.58631">
        <ele>706.690124512</ele>
        <time>2016-02-04T08:37:46.699Z</time>
      </trkpt>
      <trkpt lat="46.03263" lon="4.58629">
        <ele>706.818847656</ele>
        <time>2016-02-04T08:37:47.672Z</time>
      </trkpt>
      <trkpt lat="46.03264" lon="4.58618">
        <ele>707.151977539</ele>
        <time>2016-02-04T08:37:51.698Z</time>
      </trkpt>
      <trkpt lat="46.03264" lon="4.58616">
        <ele>707.216247559</ele>
        <time>2016-02-04T08:37:52.669Z</time>
      </trkpt>
      <trkpt lat="46.03262" lon="4.58604">
        <ele>707.61895752</ele>
        <time>2016-02-04T08:37:58.692Z</time>
      </trkpt>
      <trkpt lat="46.03262" lon="4.58602">
        <ele>707.709777832</ele>
        <time>2016-02-04T08:37:59.669Z</time>
      </trkpt>
      <trkpt lat="46.03261" lon="4.58591">
        <ele>707.939208984</ele>
        <time>2016-02-04T08:38:05.707Z</time>
      </trkpt>
      <trkpt lat="46.03261" lon="4.58589">
        <ele>707.900512695</ele>
        <time>2016-02-04T08:38:06.67Z</time>
      </trkpt>
      <trkpt lat="46.03261" lon="4.58578">
        <ele>708.282470703</ele>
        <time>2016-02-04T08:38:13.695Z</time>
      </trkpt>
      <trkpt lat="46.0326" lon="4.58576">
        <ele>708.332092285</ele>
        <time>2016-02-04T08:38:14.672Z</time>
      </trkpt>
      <trkpt lat="46.03259" lon="4.58565">
        <ele>708.846313477</ele>
        <time>2016-02-04T08:38:19.703Z</time>
      </trkpt>
      <trkpt lat="46.03259" lon="4.58562">
        <ele>708.947814941</ele>
        <time>2016-02-04T08:38:20.675Z</time>
      </trkpt>
      <trkpt lat="46.03256" lon="4.58552">
        <ele>709.178283691</ele>
        <time>2016-02-04T08:38:23.696Z</time>
      </trkpt>
      <trkpt lat="46.03256" lon="4.5855">
        <ele>709.183349609</ele>
        <time>2016-02-04T08:38:24.683Z</time>
      </trkpt>
      <trkpt lat="46.03253" lon="4.58539">
        <ele>709.319824219</ele>
        <time>2016-02-04T08:38:33.671Z</time>
      </trkpt>
      <trkpt lat="46.03252" lon="4.58538">
        <ele>709.307006836</ele>
        <time>2016-02-04T08:38:34.64Z</time>
      </trkpt>
      <trkpt lat="46.03248" lon="4.58528">
        <ele>709.173339844</ele>
        <time>2016-02-04T08:38:39.658Z</time>
      </trkpt>
      <trkpt lat="46.03246" lon="4.58526">
        <ele>709.12097168</ele>
        <time>2016-02-04T08:38:40.641Z</time>
      </trkpt>
      <trkpt lat="46.03243" lon="4.58514">
        <ele>709.180786133</ele>
        <time>2016-02-04T08:38:48.66Z</time>
      </trkpt>
      <trkpt lat="46.03243" lon="4.58513">
        <ele>709.236633301</ele>
        <time>2016-02-04T08:38:49.644Z</time>
      </trkpt>
      <trkpt lat="46.03242" lon="4.58501">
        <ele>709.292480469</ele>
        <time>2016-02-04T08:38:54.662Z</time>
      </trkpt>
      <trkpt lat="46.03241" lon="4.58498">
        <ele>709.346557617</ele>
        <time>2016-02-04T08:38:55.665Z</time>
      </trkpt>
      <trkpt lat="46.0324" lon="4.58487">
        <ele>710.223937988</ele>
        <time>2016-02-04T08:39:05.671Z</time>
      </trkpt>
      <trkpt lat="46.0324" lon="4.58485">
        <ele>710.346374512</ele>
        <time>2016-02-04T08:39:06.64Z</time>
      </trkpt>
      <trkpt lat="46.03239" lon="4.58473">
        <ele>710.761352539</ele>
        <time>2016-02-04T08:39:10.681Z</time>
      </trkpt>
      <trkpt lat="46.03239" lon="4.58471">
        <ele>710.753173828</ele>
        <time>2016-02-04T08:39:11.646Z</time>
      </trkpt>
      <trkpt lat="46.03239" lon="4.58459">
        <ele>710.719360352</ele>
        <time>2016-02-04T08:39:17.673Z</time>
      </trkpt>
      <trkpt lat="46.03238" lon="4.58458">
        <ele>710.727966309</ele>
        <time>2016-02-04T08:39:18.626Z</time>
      </trkpt>
      <trkpt lat="46.03237" lon="4.58447">
        <ele>710.782592773</ele>
        <time>2016-02-04T08:39:24.663Z</time>
      </trkpt>
      <trkpt lat="46.03236" lon="4.58445">
        <ele>710.825500488</ele>
        <time>2016-02-04T08:39:25.653Z</time>
      </trkpt>
      <trkpt lat="46.03234" lon="4.58435">
        <ele>710.899230957</ele>
        <time>2016-02-04T08:39:31.671Z</time>
      </trkpt>
      <trkpt lat="46.03234" lon="4.58432">
        <ele>710.853881836</ele>
        <time>2016-02-04T08:39:32.639Z</time>
      </trkpt>
      <trkpt lat="46.03231" lon="4.58421">
        <ele>710.667602539</ele>
        <time>2016-02-04T08:39:38.672Z</time>
      </trkpt>
      <trkpt lat="46.0323" lon="4.58418">
        <ele>710.597045898</ele>
        <time>2016-02-04T08:39:39.646Z</time>
      </trkpt>
      <trkpt lat="46.03228" lon="4.58406">
        <ele>710.393981934</ele>
        <time>2016-02-04T08:39:48.668Z</time>
      </trkpt>
      <trkpt lat="46.03228" lon="4.58405">
        <ele>710.475280762</ele>
        <time>2016-02-04T08:39:49.642Z</time>
      </trkpt>
      <trkpt lat="46.03226" lon="4.58393">
        <ele>710.655883789</ele>
        <time>2016-02-04T08:39:53.687Z</time>
      </trkpt>
      <trkpt lat="46.03225" lon="4.58391">
        <ele>710.59552002</ele>
        <time>2016-02-04T08:39:54.644Z</time>
      </trkpt>
      <trkpt lat="46.03221" lon="4.58379">
        <ele>710.537536621</ele>
        <time>2016-02-04T08:40:01.69Z</time>
      </trkpt>
      <trkpt lat="46.03221" lon="4.58378">
        <ele>710.602539062</ele>
        <time>2016-02-04T08:40:02.653Z</time>
      </trkpt>
      <trkpt lat="46.03218" lon="4.58367">
        <ele>710.623901367</ele>
        <time>2016-02-04T08:40:09.685Z</time>
      </trkpt>
      <trkpt lat="46.03216" lon="4.58362">
        <ele>710.605773926</ele>
        <time>2016-02-04T08:40:10.654Z</time>
      </trkpt>
      <trkpt lat="46.03212" lon="4.58352">
        <ele>710.324462891</ele>
        <time>2016-02-04T08:40:18.643Z</time>
      </trkpt>
      <trkpt lat="46.03211" lon="4.58349">
        <ele>710.280822754</ele>
        <time>2016-02-04T08:40:19.655Z</time>
      </trkpt>
      <trkpt lat="46.03208" lon="4.58338">
        <ele>709.588439941</ele>
        <time>2016-02-04T08:40:25.683Z</time>
      </trkpt>
      <trkpt lat="46.03207" lon="4.58337">
        <ele>709.593444824</ele>
        <time>2016-02-04T08:40:26.64Z</time>
      </trkpt>
      <trkpt lat="46.03202" lon="4.58327">
        <ele>709.724121094</ele>
        <time>2016-02-04T08:40:32.707Z</time>
      </trkpt>
      <trkpt lat="46.03202" lon="4.58326">
        <ele>709.784606934</ele>
        <time>2016-02-04T08:40:33.657Z</time>
      </trkpt>
      <trkpt lat="46.03197" lon="4.58316">
        <ele>710.390808105</ele>
        <time>2016-02-04T08:40:40.687Z</time>
      </trkpt>
      <trkpt lat="46.03197" lon="4.58313">
        <ele>710.392089844</ele>
        <time>2016-02-04T08:40:41.651Z</time>
      </trkpt>
      <trkpt lat="46.03193" lon="4.58302">
        <ele>710.426269531</ele>
        <time>2016-02-04T08:40:48.68Z</time>
      </trkpt>
      <trkpt lat="46.03192" lon="4.58301">
        <ele>710.370117188</ele>
        <time>2016-02-04T08:40:49.645Z</time>
      </trkpt>
      <trkpt lat="46.03188" lon="4.5829">
        <ele>710.017272949</ele>
        <time>2016-02-04T08:40:56.683Z</time>
      </trkpt>
      <trkpt lat="46.03187" lon="4.58289">
        <ele>709.93536377</ele>
        <time>2016-02-04T08:40:57.649Z</time>
      </trkpt>
      <trkpt lat="46.03185" lon="4.58278">
        <ele>708.944885254</ele>
        <time>2016-02-04T08:41:05.663Z</time>
      </trkpt>
      <trkpt lat="46.03184" lon="4.58276">
        <ele>708.743896484</ele>
        <time>2016-02-04T08:41:06.651Z</time>
      </trkpt>
      <trkpt lat="46.03181" lon="4.58265">
        <ele>707.677062988</ele>
        <time>2016-02-04T08:41:12.679Z</time>
      </trkpt>
      <trkpt lat="46.0318" lon="4.58263">
        <ele>707.490844727</ele>
        <time>2016-02-04T08:41:13.654Z</time>
      </trkpt>
      <trkpt lat="46.03176" lon="4.58253">
        <ele>706.233764648</ele>
        <time>2016-02-04T08:41:19.693Z</time>
      </trkpt>
      <trkpt lat="46.03176" lon="4.58251">
        <ele>706.035888672</ele>
        <time>2016-02-04T08:41:20.659Z</time>
      </trkpt>
      <trkpt lat="46.03173" lon="4.5824">
        <ele>703.634033203</ele>
        <time>2016-02-04T08:41:28.704Z</time>
      </trkpt>
      <trkpt lat="46.03172" lon="4.58238">
        <ele>703.330078125</ele>
        <time>2016-02-04T08:41:29.661Z</time>
      </trkpt>
      <trkpt lat="46.03169" lon="4.58227">
        <ele>701.813110352</ele>
        <time>2016-02-04T08:41:35.686Z</time>
      </trkpt>
      <trkpt lat="46.03168" lon="4.58225">
        <ele>701.577819824</ele>
        <time>2016-02-04T08:41:36.662Z</time>
      </trkpt>
      <trkpt lat="46.03163" lon="4.58215">
        <ele>700.055297852</ele>
        <time>2016-02-04T08:41:42.684Z</time>
      </trkpt>
      <trkpt lat="46.03162" lon="4.58214">
        <ele>699.844238281</ele>
        <time>2016-02-04T08:41:43.65Z</time>
      </trkpt>
      <trkpt lat="46.03158" lon="4.58204">
        <ele>699.194274902</ele>
        <time>2016-02-04T08:41:48.68Z</time>
      </trkpt>
      <trkpt lat="46.03158" lon="4.58202">
        <ele>699.005981445</ele>
        <time>2016-02-04T08:41:49.662Z</time>
      </trkpt>
      <trkpt lat="46.03154" lon="4.58191">
        <ele>697.507568359</ele>
        <time>2016-02-04T08:41:55.702Z</time>
      </trkpt>
      <trkpt lat="46.03153" lon="4.58189">
        <ele>697.276245117</ele>
        <time>2016-02-04T08:41:56.662Z</time>
      </trkpt>
      <trkpt lat="46.03149" lon="4.58179">
        <ele>696.111450195</ele>
        <time>2016-02-04T08:42:02.707Z</time>
      </trkpt>
      <trkpt lat="46.03149" lon="4.58178">
        <ele>695.970214844</ele>
        <time>2016-02-04T08:42:03.663Z</time>
      </trkpt>
      <trkpt lat="46.03143" lon="4.58168">
        <ele>694.975341797</ele>
        <time>2016-02-04T08:42:09.69Z</time>
      </trkpt>
      <trkpt lat="46.03142" lon="4.58166">
        <ele>694.821594238</ele>
        <time>2016-02-04T08:42:10.665Z</time>
      </trkpt>
      <trkpt lat="46.03135" lon="4.58159">
        <ele>693.90234375</ele>
        <time>2016-02-04T08:42:16.689Z</time>
      </trkpt>
      <trkpt lat="46.03134" lon="4.58158">
        <ele>693.772399902</ele>
        <time>2016-02-04T08:42:17.667Z</time>
      </trkpt>
      <trkpt lat="46.03128" lon="4.58149">
        <ele>692.85949707</ele>
        <time>2016-02-04T08:42:24.684Z</time>
      </trkpt>
      <trkpt lat="46.03127" lon="4.58148">
        <ele>692.748168945</ele>
        <time>2016-02-04T08:42:25.664Z</time>
      </trkpt>
      <trkpt lat="46.03121" lon="4.58141">
        <ele>692.170288086</ele>
        <time>2016-02-04T08:42:31.687Z</time>
      </trkpt>
      <trkpt lat="46.0312" lon="4.58139">
        <ele>692.073608398</ele>
        <time>2016-02-04T08:42:32.665Z</time>
      </trkpt>
      <trkpt lat="46.03114" lon="4.58131">
        <ele>691.572998047</ele>
        <time>2016-02-04T08:42:37.692Z</time>
      </trkpt>
      <trkpt lat="46.03113" lon="4.58129">
        <ele>691.563110352</ele>
        <time>2016-02-04T08:42:38.662Z</time>
      </trkpt>
      <trkpt lat="46.03107" lon="4.5812">
        <ele>691.076782227</ele>
        <time>2016-02-04T08:42:47.687Z</time>
      </trkpt>
      <trkpt lat="46.03106" lon="4.58119">
        <ele>691.030334473</ele>
        <time>2016-02-04T08:42:48.668Z</time>
      </trkpt>
      <trkpt lat="46.031" lon="4.5811">
        <ele>691.009033203</ele>
        <time>2016-02-04T08:42:57.707Z</time>
      </trkpt>
      <trkpt lat="46.03099" lon="4.5811">
        <ele>691.106811523</ele>
        <time>2016-02-04T08:42:58.667Z</time>
      </trkpt>
      <trkpt lat="46.03093" lon="4.58101">
        <ele>691.83190918</ele>
        <time>2016-02-04T08:43:05.682Z</time>
      </trkpt>
      <trkpt lat="46.03091" lon="4.58099">
        <ele>691.795715332</ele>
        <time>2016-02-04T08:43:06.678Z</time>
      </trkpt>
      <trkpt lat="46.03085" lon="4.58091">
        <ele>692.577636719</ele>
        <time>2016-02-04T08:43:14.697Z</time>
      </trkpt>
      <trkpt lat="46.03085" lon="4.5809">
        <ele>692.624511719</ele>
        <time>2016-02-04T08:43:15.669Z</time>
      </trkpt>
      <trkpt lat="46.03081" lon="4.58081">
        <ele>692.638671875</ele>
        <time>2016-02-04T08:43:21.69Z</time>
      </trkpt>
      <trkpt lat="46.0308" lon="4.58078">
        <ele>692.571472168</ele>
        <time>2016-02-04T08:43:22.671Z</time>
      </trkpt>
      <trkpt lat="46.03076" lon="4.58067">
        <ele>691.78527832</ele>
        <time>2016-02-04T08:43:28.697Z</time>
      </trkpt>
      <trkpt lat="46.03076" lon="4.58065">
        <ele>691.685424805</ele>
        <time>2016-02-04T08:43:29.67Z</time>
      </trkpt>
      <trkpt lat="46.03072" lon="4.58054">
        <ele>690.604064941</ele>
        <time>2016-02-04T08:43:35.716Z</time>
      </trkpt>
      <trkpt lat="46.03071" lon="4.58052">
        <ele>690.446838379</ele>
        <time>2016-02-04T08:43:36.67Z</time>
      </trkpt>
      <trkpt lat="46.03068" lon="4.58041">
        <ele>690.743896484</ele>
        <time>2016-02-04T08:43:48.674Z</time>
      </trkpt>
      <trkpt lat="46.03067" lon="4.5804">
        <ele>690.915039062</ele>
        <time>2016-02-04T08:43:49.638Z</time>
      </trkpt>
      <trkpt lat="46.03061" lon="4.58032">
        <ele>691.707580566</ele>
        <time>2016-02-04T08:43:57.677Z</time>
      </trkpt>
      <trkpt lat="46.0306" lon="4.5803">
        <ele>691.744262695</ele>
        <time>2016-02-04T08:43:58.641Z</time>
      </trkpt>
      <trkpt lat="46.03055" lon="4.5802">
        <ele>691.543762207</ele>
        <time>2016-02-04T08:44:03.669Z</time>
      </trkpt>
      <trkpt lat="46.03055" lon="4.58018">
        <ele>691.497253418</ele>
        <time>2016-02-04T08:44:04.635Z</time>
      </trkpt>
      <trkpt lat="46.0305" lon="4.58008">
        <ele>691.269348145</ele>
        <time>2016-02-04T08:44:07.677Z</time>
      </trkpt>
      <trkpt lat="46.03049" lon="4.58007">
        <ele>691.170410156</ele>
        <time>2016-02-04T08:44:08.626Z</time>
      </trkpt>
      <trkpt lat="46.03044" lon="4.57997">
        <ele>690.822631836</ele>
        <time>2016-02-04T08:44:15.686Z</time>
      </trkpt>
      <trkpt lat="46.03043" lon="4.57995">
        <ele>690.827209473</ele>
        <time>2016-02-04T08:44:16.641Z</time>
      </trkpt>
      <trkpt lat="46.03039" lon="4.57986">
        <ele>690.381530762</ele>
        <time>2016-02-04T08:44:24.683Z</time>
      </trkpt>
      <trkpt lat="46.03037" lon="4.57981">
        <ele>690.418823242</ele>
        <time>2016-02-04T08:44:25.643Z</time>
      </trkpt>
      <trkpt lat="46.03031" lon="4.57974">
        <ele>690.812683105</ele>
        <time>2016-02-04T08:44:32.655Z</time>
      </trkpt>
      <trkpt lat="46.0303" lon="4.57971">
        <ele>690.882324219</ele>
        <time>2016-02-04T08:44:33.642Z</time>
      </trkpt>
      <trkpt lat="46.03027" lon="4.5796">
        <ele>691.965454102</ele>
        <time>2016-02-04T08:44:40.666Z</time>
      </trkpt>
      <trkpt lat="46.03026" lon="4.57959">
        <ele>692.098815918</ele>
        <time>2016-02-04T08:44:41.643Z</time>
      </trkpt>
      <trkpt lat="46.03023" lon="4.57949">
        <ele>692.973083496</ele>
        <time>2016-02-04T08:44:49.659Z</time>
      </trkpt>
      <trkpt lat="46.03022" lon="4.57947">
        <ele>693.022705078</ele>
        <time>2016-02-04T08:44:50.639Z</time>
      </trkpt>
      <trkpt lat="46.03018" lon="4.57935">
        <ele>692.883117676</ele>
        <time>2016-02-04T08:44:56.664Z</time>
      </trkpt>
      <trkpt lat="46.03018" lon="4.57933">
        <ele>692.859619141</ele>
        <time>2016-02-04T08:44:57.657Z</time>
      </trkpt>
      <trkpt lat="46.03013" lon="4.57923">
        <ele>691.995056152</ele>
        <time>2016-02-04T08:45:03.683Z</time>
      </trkpt>
      <trkpt lat="46.03013" lon="4.57922">
        <ele>691.785583496</ele>
        <time>2016-02-04T08:45:04.657Z</time>
      </trkpt>
      <trkpt lat="46.03009" lon="4.57911">
        <ele>690.786560059</ele>
        <time>2016-02-04T08:45:12.682Z</time>
      </trkpt>
      <trkpt lat="46.03008" lon="4.57909">
        <ele>690.611755371</ele>
        <time>2016-02-04T08:45:13.633Z</time>
      </trkpt>
      <trkpt lat="46.03006" lon="4.57897">
        <ele>689.918945312</ele>
        <time>2016-02-04T08:45:18.643Z</time>
      </trkpt>
      <trkpt lat="46.03006" lon="4.57895">
        <ele>689.858764648</ele>
        <time>2016-02-04T08:45:19.654Z</time>
      </trkpt>
      <trkpt lat="46.03004" lon="4.57884">
        <ele>689.438415527</ele>
        <time>2016-02-04T08:45:24.683Z</time>
      </trkpt>
      <trkpt lat="46.03003" lon="4.5788">
        <ele>689.311279297</ele>
        <time>2016-02-04T08:45:25.654Z</time>
      </trkpt>
      <trkpt lat="46.02998" lon="4.57872">
        <ele>688.307434082</ele>
        <time>2016-02-04T08:45:32.684Z</time>
      </trkpt>
      <trkpt lat="46.02997" lon="4.5787">
        <ele>688.16192627</ele>
        <time>2016-02-04T08:45:33.653Z</time>
      </trkpt>
      <trkpt lat="46.02993" lon="4.57859">
        <ele>687.196655273</ele>
        <time>2016-02-04T08:45:39.68Z</time>
      </trkpt>
      <trkpt lat="46.02992" lon="4.57858">
        <ele>687.051147461</ele>
        <time>2016-02-04T08:45:40.644Z</time>
      </trkpt>
      <trkpt lat="46.02987" lon="4.57848">
        <ele>685.791320801</ele>
        <time>2016-02-04T08:45:47.683Z</time>
      </trkpt>
      <trkpt lat="46.02986" lon="4.57847">
        <ele>685.625366211</ele>
        <time>2016-02-04T08:45:48.655Z</time>
      </trkpt>
      <trkpt lat="46.02981" lon="4.57839">
        <ele>684.743225098</ele>
        <time>2016-02-04T08:45:53.689Z</time>
      </trkpt>
      <trkpt lat="46.0298" lon="4.57837">
        <ele>684.526000977</ele>
        <time>2016-02-04T08:45:54.656Z</time>
      </trkpt>
      <trkpt lat="46.02975" lon="4.57827">
        <ele>683.65625</ele>
        <time>2016-02-04T08:45:59.684Z</time>
      </trkpt>
      <trkpt lat="46.02973" lon="4.57825">
        <ele>683.453674316</ele>
        <time>2016-02-04T08:46:00.661Z</time>
      </trkpt>
      <trkpt lat="46.02968" lon="4.57819">
        <ele>682.427124023</ele>
        <time>2016-02-04T08:46:05.684Z</time>
      </trkpt>
      <trkpt lat="46.02965" lon="4.57816">
        <ele>682.189941406</ele>
        <time>2016-02-04T08:46:06.658Z</time>
      </trkpt>
      <trkpt lat="46.02958" lon="4.5781">
        <ele>680.208312988</ele>
        <time>2016-02-04T08:46:12.69Z</time>
      </trkpt>
      <trkpt lat="46.02956" lon="4.57809">
        <ele>679.908447266</ele>
        <time>2016-02-04T08:46:13.658Z</time>
      </trkpt>
      <trkpt lat="46.02948" lon="4.57806">
        <ele>678.774108887</ele>
        <time>2016-02-04T08:46:17.673Z</time>
      </trkpt>
      <trkpt lat="46.02947" lon="4.57806">
        <ele>678.489379883</ele>
        <time>2016-02-04T08:46:18.657Z</time>
      </trkpt>
      <trkpt lat="46.02939" lon="4.578">
        <ele>676.609802246</ele>
        <time>2016-02-04T08:46:24.685Z</time>
      </trkpt>
      <trkpt lat="46.02938" lon="4.57799">
        <ele>676.274414062</ele>
        <time>2016-02-04T08:46:25.65Z</time>
      </trkpt>
      <trkpt lat="46.02931" lon="4.57794">
        <ele>674.654846191</ele>
        <time>2016-02-04T08:46:30.675Z</time>
      </trkpt>
      <trkpt lat="46.0293" lon="4.57793">
        <ele>674.344970703</ele>
        <time>2016-02-04T08:46:31.653Z</time>
      </trkpt>
      <trkpt lat="46.02923" lon="4.57791">
        <ele>673.071960449</ele>
        <time>2016-02-04T08:46:36.684Z</time>
      </trkpt>
      <trkpt lat="46.02921" lon="4.5779">
        <ele>672.868103027</ele>
        <time>2016-02-04T08:46:37.661Z</time>
      </trkpt>
      <trkpt lat="46.02914" lon="4.57786">
        <ele>671.966674805</ele>
        <time>2016-02-04T08:46:42.693Z</time>
      </trkpt>
      <trkpt lat="46.02913" lon="4.57785">
        <ele>671.829223633</ele>
        <time>2016-02-04T08:46:43.655Z</time>
      </trkpt>
      <trkpt lat="46.02921" lon="4.5779">
        <ele>668.998046875</ele>
        <time>2016-02-04T08:47:00.691Z</time>
      </trkpt>
      <trkpt lat="46.02922" lon="4.57791">
        <ele>668.816711426</ele>
        <time>2016-02-04T08:47:01.692Z</time>
      </trkpt>
      <trkpt lat="46.02928" lon="4.57797">
        <ele>667.728820801</ele>
        <time>2016-02-04T08:47:07.686Z</time>
      </trkpt>
      <trkpt lat="46.02929" lon="4.57798">
        <ele>667.520019531</ele>
        <time>2016-02-04T08:47:08.66Z</time>
      </trkpt>
      <trkpt lat="46.02937" lon="4.57803">
        <ele>666.382995605</ele>
        <time>2016-02-04T08:47:14.682Z</time>
      </trkpt>
      <trkpt lat="46.02938" lon="4.57804">
        <ele>666.206176758</ele>
        <time>2016-02-04T08:47:15.663Z</time>
      </trkpt>
      <trkpt lat="46.02946" lon="4.57809">
        <ele>664.991638184</ele>
        <time>2016-02-04T08:47:20.694Z</time>
      </trkpt>
      <trkpt lat="46.02947" lon="4.5781">
        <ele>664.735351562</ele>
        <time>2016-02-04T08:47:21.655Z</time>
      </trkpt>
      <trkpt lat="46.02955" lon="4.57815">
        <ele>663.186889648</ele>
        <time>2016-02-04T08:47:27.688Z</time>
      </trkpt>
      <trkpt lat="46.02956" lon="4.57815">
        <ele>662.937805176</ele>
        <time>2016-02-04T08:47:28.67Z</time>
      </trkpt>
      <trkpt lat="46.02963" lon="4.57819">
        <ele>661.714172363</ele>
        <time>2016-02-04T08:47:34.682Z</time>
      </trkpt>
      <trkpt lat="46.02964" lon="4.5782">
        <ele>661.557922363</ele>
        <time>2016-02-04T08:47:35.67Z</time>
      </trkpt>
      <trkpt lat="46.02972" lon="4.57822">
        <ele>660.69354248</ele>
        <time>2016-02-04T08:47:41.712Z</time>
      </trkpt>
      <trkpt lat="46.02974" lon="4.57823">
        <ele>660.555969238</ele>
        <time>2016-02-04T08:47:42.659Z</time>
      </trkpt>
      <trkpt lat="46.02982" lon="4.57828">
        <ele>659.489013672</ele>
        <time>2016-02-04T08:47:48.692Z</time>
      </trkpt>
      <trkpt lat="46.02983" lon="4.57828">
        <ele>659.350219727</ele>
        <time>2016-02-04T08:47:49.664Z</time>
      </trkpt>
      <trkpt lat="46.02991" lon="4.57832">
        <ele>658.53125</ele>
        <time>2016-02-04T08:47:55.69Z</time>
      </trkpt>
      <trkpt lat="46.02992" lon="4.57833">
        <ele>658.394897461</ele>
        <time>2016-02-04T08:47:56.662Z</time>
      </trkpt>
      <trkpt lat="46.03" lon="4.57838">
        <ele>657.656066895</ele>
        <time>2016-02-04T08:48:02.797Z</time>
      </trkpt>
      <trkpt lat="46.03001" lon="4.5784">
        <ele>657.552490234</ele>
        <time>2016-02-04T08:48:03.665Z</time>
      </trkpt>
      <trkpt lat="46.03008" lon="4.57848">
        <ele>656.703918457</ele>
        <time>2016-02-04T08:48:10.719Z</time>
      </trkpt>
      <trkpt lat="46.03009" lon="4.57849">
        <ele>656.597961426</ele>
        <time>2016-02-04T08:48:11.667Z</time>
      </trkpt>
      <trkpt lat="46.03014" lon="4.57857">
        <ele>655.920349121</ele>
        <time>2016-02-04T08:48:17.703Z</time>
      </trkpt>
      <trkpt lat="46.03015" lon="4.57859">
        <ele>655.846069336</ele>
        <time>2016-02-04T08:48:18.664Z</time>
      </trkpt>
      <trkpt lat="46.03018" lon="4.5787">
        <ele>655.314819336</ele>
        <time>2016-02-04T08:48:25.69Z</time>
      </trkpt>
      <trkpt lat="46.03018" lon="4.57872">
        <ele>655.279663086</ele>
        <time>2016-02-04T08:48:26.668Z</time>
      </trkpt>
      <trkpt lat="46.03022" lon="4.57882">
        <ele>655.69543457</ele>
        <time>2016-02-04T08:48:34.69Z</time>
      </trkpt>
      <trkpt lat="46.03022" lon="4.57883">
        <ele>655.77331543</ele>
        <time>2016-02-04T08:48:35.677Z</time>
      </trkpt>
      <trkpt lat="46.03026" lon="4.57893">
        <ele>656.170471191</ele>
        <time>2016-02-04T08:48:40.692Z</time>
      </trkpt>
      <trkpt lat="46.03027" lon="4.57896">
        <ele>656.246459961</ele>
        <time>2016-02-04T08:48:41.671Z</time>
      </trkpt>
      <trkpt lat="46.0303" lon="4.57907">
        <ele>656.703613281</ele>
        <time>2016-02-04T08:48:45.696Z</time>
      </trkpt>
      <trkpt lat="46.0303" lon="4.57909">
        <ele>656.676635742</ele>
        <time>2016-02-04T08:48:46.668Z</time>
      </trkpt>
      <trkpt lat="46.03034" lon="4.57917">
        <ele>656.30480957</ele>
        <time>2016-02-04T08:48:51.691Z</time>
      </trkpt>
      <trkpt lat="46.03036" lon="4.5792">
        <ele>656.353759766</ele>
        <time>2016-02-04T08:48:52.668Z</time>
      </trkpt>
      <trkpt lat="46.03039" lon="4.57931">
        <ele>656.499755859</ele>
        <time>2016-02-04T08:48:58.696Z</time>
      </trkpt>
      <trkpt lat="46.0304" lon="4.57932">
        <ele>656.613769531</ele>
        <time>2016-02-04T08:48:59.646Z</time>
      </trkpt>
      <trkpt lat="46.03046" lon="4.57941">
        <ele>657.543762207</ele>
        <time>2016-02-04T08:49:05.652Z</time>
      </trkpt>
      <trkpt lat="46.03047" lon="4.57942">
        <ele>657.725402832</ele>
        <time>2016-02-04T08:49:06.639Z</time>
      </trkpt>
      <trkpt lat="46.03055" lon="4.57949">
        <ele>658.640136719</ele>
        <time>2016-02-04T08:49:14.683Z</time>
      </trkpt>
      <trkpt lat="46.03055" lon="4.5795">
        <ele>658.758605957</ele>
        <time>2016-02-04T08:49:15.641Z</time>
      </trkpt>
      <trkpt lat="46.0306" lon="4.57959">
        <ele>659.404724121</ele>
        <time>2016-02-04T08:49:20.676Z</time>
      </trkpt>
      <trkpt lat="46.03062" lon="4.5796">
        <ele>659.485900879</ele>
        <time>2016-02-04T08:49:21.624Z</time>
      </trkpt>
      <trkpt lat="46.03067" lon="4.5797">
        <ele>660.307861328</ele>
        <time>2016-02-04T08:49:27.677Z</time>
      </trkpt>
      <trkpt lat="46.03067" lon="4.5797">
        <ele>660.388061523</ele>
        <time>2016-02-04T08:49:28.635Z</time>
      </trkpt>
      <trkpt lat="46.03074" lon="4.57976">
        <ele>661.101928711</ele>
        <time>2016-02-04T08:49:33.667Z</time>
      </trkpt>
      <trkpt lat="46.03076" lon="4.57977">
        <ele>661.255126953</ele>
        <time>2016-02-04T08:49:34.64Z</time>
      </trkpt>
      <trkpt lat="46.03083" lon="4.57984">
        <ele>661.52545166</ele>
        <time>2016-02-04T08:49:40.669Z</time>
      </trkpt>
      <trkpt lat="46.03083" lon="4.57985">
        <ele>661.537963867</ele>
        <time>2016-02-04T08:49:41.649Z</time>
      </trkpt>
      <trkpt lat="46.03092" lon="4.57987">
        <ele>661.632202148</ele>
        <time>2016-02-04T08:49:49.67Z</time>
      </trkpt>
      <trkpt lat="46.03094" lon="4.57989">
        <ele>661.598937988</ele>
        <time>2016-02-04T08:49:50.643Z</time>
      </trkpt>
      <trkpt lat="46.03102" lon="4.57995">
        <ele>661.269836426</ele>
        <time>2016-02-04T08:49:57.668Z</time>
      </trkpt>
      <trkpt lat="46.03103" lon="4.57996">
        <ele>661.262939453</ele>
        <time>2016-02-04T08:49:58.638Z</time>
      </trkpt>
      <trkpt lat="46.0311" lon="4.58003">
        <ele>660.789672852</ele>
        <time>2016-02-04T08:50:04.672Z</time>
      </trkpt>
      <trkpt lat="46.03111" lon="4.58004">
        <ele>660.660217285</ele>
        <time>2016-02-04T08:50:05.641Z</time>
      </trkpt>
      <trkpt lat="46.03118" lon="4.58012">
        <ele>659.99420166</ele>
        <time>2016-02-04T08:50:10.663Z</time>
      </trkpt>
      <trkpt lat="46.03119" lon="4.58013">
        <ele>659.778015137</ele>
        <time>2016-02-04T08:50:11.654Z</time>
      </trkpt>
      <trkpt lat="46.03126" lon="4.58021">
        <ele>658.811157227</ele>
        <time>2016-02-04T08:50:16.675Z</time>
      </trkpt>
      <trkpt lat="46.03127" lon="4.58022">
        <ele>658.619995117</ele>
        <time>2016-02-04T08:50:17.652Z</time>
      </trkpt>
      <trkpt lat="46.03136" lon="4.58026">
        <ele>657.56072998</ele>
        <time>2016-02-04T08:50:24.677Z</time>
      </trkpt>
      <trkpt lat="46.03137" lon="4.58027">
        <ele>657.455383301</ele>
        <time>2016-02-04T08:50:25.651Z</time>
      </trkpt>
      <trkpt lat="46.03145" lon="4.58031">
        <ele>656.096801758</ele>
        <time>2016-02-04T08:50:31.686Z</time>
      </trkpt>
      <trkpt lat="46.03146" lon="4.58032">
        <ele>655.881713867</ele>
        <time>2016-02-04T08:50:32.653Z</time>
      </trkpt>
      <trkpt lat="46.03154" lon="4.58032">
        <ele>654.943908691</ele>
        <time>2016-02-04T08:50:39.678Z</time>
      </trkpt>
      <trkpt lat="46.03156" lon="4.58033">
        <ele>654.719421387</ele>
        <time>2016-02-04T08:50:40.656Z</time>
      </trkpt>
      <trkpt lat="46.03164" lon="4.58035">
        <ele>653.23614502</ele>
        <time>2016-02-04T08:50:46.682Z</time>
      </trkpt>
      <trkpt lat="46.03165" lon="4.58035">
        <ele>653.014221191</ele>
        <time>2016-02-04T08:50:47.654Z</time>
      </trkpt>
      <trkpt lat="46.03173" lon="4.58034">
        <ele>651.945495605</ele>
        <time>2016-02-04T08:50:52.681Z</time>
      </trkpt>
      <trkpt lat="46.03175" lon="4.58035">
        <ele>651.699951172</ele>
        <time>2016-02-04T08:50:53.7Z</time>
      </trkpt>
      <trkpt lat="46.03182" lon="4.58035">
        <ele>650.195678711</ele>
        <time>2016-02-04T08:50:59.799Z</time>
      </trkpt>
      <trkpt lat="46.03184" lon="4.58036">
        <ele>649.937194824</ele>
        <time>2016-02-04T08:51:00.654Z</time>
      </trkpt>
      <trkpt lat="46.03191" lon="4.58035">
        <ele>648.874206543</ele>
        <time>2016-02-04T08:51:06.661Z</time>
      </trkpt>
      <trkpt lat="46.03193" lon="4.58035">
        <ele>648.822998047</ele>
        <time>2016-02-04T08:51:07.648Z</time>
      </trkpt>
      <trkpt lat="46.03201" lon="4.58035">
        <ele>648.439331055</ele>
        <time>2016-02-04T08:51:13.668Z</time>
      </trkpt>
      <trkpt lat="46.03202" lon="4.58035">
        <ele>648.294189453</ele>
        <time>2016-02-04T08:51:14.643Z</time>
      </trkpt>
      <trkpt lat="46.03211" lon="4.58036">
        <ele>646.782226562</ele>
        <time>2016-02-04T08:51:21.69Z</time>
      </trkpt>
      <trkpt lat="46.03212" lon="4.58036">
        <ele>646.643493652</ele>
        <time>2016-02-04T08:51:22.643Z</time>
      </trkpt>
      <trkpt lat="46.0322" lon="4.58035">
        <ele>645.324035645</ele>
        <time>2016-02-04T08:51:29.669Z</time>
      </trkpt>
      <trkpt lat="46.03222" lon="4.58035">
        <ele>645.175842285</ele>
        <time>2016-02-04T08:51:30.658Z</time>
      </trkpt>
      <trkpt lat="46.0323" lon="4.58033">
        <ele>644.099975586</ele>
        <time>2016-02-04T08:51:36.686Z</time>
      </trkpt>
      <trkpt lat="46.03232" lon="4.58032">
        <ele>643.887145996</ele>
        <time>2016-02-04T08:51:37.656Z</time>
      </trkpt>
      <trkpt lat="46.0324" lon="4.58029">
        <ele>642.405700684</ele>
        <time>2016-02-04T08:51:43.682Z</time>
      </trkpt>
      <trkpt lat="46.03241" lon="4.58029">
        <ele>642.134887695</ele>
        <time>2016-02-04T08:51:44.659Z</time>
      </trkpt>
      <trkpt lat="46.03249" lon="4.58027">
        <ele>640.492736816</ele>
        <time>2016-02-04T08:51:51.686Z</time>
      </trkpt>
      <trkpt lat="46.0325" lon="4.58026">
        <ele>640.326477051</ele>
        <time>2016-02-04T08:51:52.664Z</time>
      </trkpt>
      <trkpt lat="46.03259" lon="4.58022">
        <ele>639.090026855</ele>
        <time>2016-02-04T08:51:58.704Z</time>
      </trkpt>
      <trkpt lat="46.0326" lon="4.58022">
        <ele>638.899597168</ele>
        <time>2016-02-04T08:51:59.658Z</time>
      </trkpt>
      <trkpt lat="46.03268" lon="4.58021">
        <ele>637.925720215</ele>
        <time>2016-02-04T08:52:04.684Z</time>
      </trkpt>
      <trkpt lat="46.03269" lon="4.58021">
        <ele>637.716552734</ele>
        <time>2016-02-04T08:52:05.672Z</time>
      </trkpt>
      <trkpt lat="46.03277" lon="4.5802">
        <ele>636.58972168</ele>
        <time>2016-02-04T08:52:10.681Z</time>
      </trkpt>
      <trkpt lat="46.03279" lon="4.58021">
        <ele>636.325622559</ele>
        <time>2016-02-04T08:52:11.667Z</time>
      </trkpt>
      <trkpt lat="46.03287" lon="4.58024">
        <ele>634.607788086</ele>
        <time>2016-02-04T08:52:18.684Z</time>
      </trkpt>
      <trkpt lat="46.03289" lon="4.58024">
        <ele>634.411315918</ele>
        <time>2016-02-04T08:52:19.639Z</time>
      </trkpt>
      <trkpt lat="46.03294" lon="4.58034">
        <ele>632.799194336</ele>
        <time>2016-02-04T08:52:28.807Z</time>
      </trkpt>
      <trkpt lat="46.03294" lon="4.58036">
        <ele>632.617248535</ele>
        <time>2016-02-04T08:52:29.667Z</time>
      </trkpt>
      <trkpt lat="46.03292" lon="4.58049">
        <ele>631.294555664</ele>
        <time>2016-02-04T08:52:37.687Z</time>
      </trkpt>
      <trkpt lat="46.03292" lon="4.5805">
        <ele>631.132446289</ele>
        <time>2016-02-04T08:52:38.663Z</time>
      </trkpt>
      <trkpt lat="46.03289" lon="4.58062">
        <ele>629.86706543</ele>
        <time>2016-02-04T08:52:45.7Z</time>
      </trkpt>
      <trkpt lat="46.03289" lon="4.58064">
        <ele>629.695678711</ele>
        <time>2016-02-04T08:52:46.665Z</time>
      </trkpt>
      <trkpt lat="46.03287" lon="4.58075">
        <ele>628.673339844</ele>
        <time>2016-02-04T08:52:52.719Z</time>
      </trkpt>
      <trkpt lat="46.03286" lon="4.58077">
        <ele>628.474609375</ele>
        <time>2016-02-04T08:52:53.663Z</time>
      </trkpt>
      <trkpt lat="46.03286" lon="4.58089">
        <ele>627.233215332</ele>
        <time>2016-02-04T08:52:59.691Z</time>
      </trkpt>
      <trkpt lat="46.03286" lon="4.58091">
        <ele>627.056518555</ele>
        <time>2016-02-04T08:53:00.664Z</time>
      </trkpt>
      <trkpt lat="46.03287" lon="4.58103">
        <ele>625.722595215</ele>
        <time>2016-02-04T08:53:07.799Z</time>
      </trkpt>
      <trkpt lat="46.03287" lon="4.58105">
        <ele>625.549804688</ele>
        <time>2016-02-04T08:53:08.658Z</time>
      </trkpt>
      <trkpt lat="46.03287" lon="4.58117">
        <ele>624.39855957</ele>
        <time>2016-02-04T08:53:15.69Z</time>
      </trkpt>
      <trkpt lat="46.03288" lon="4.58119">
        <ele>624.224243164</ele>
        <time>2016-02-04T08:53:16.666Z</time>
      </trkpt>
      <trkpt lat="46.03291" lon="4.5813">
        <ele>622.92767334</ele>
        <time>2016-02-04T08:53:22.693Z</time>
      </trkpt>
      <trkpt lat="46.03291" lon="4.58132">
        <ele>622.672180176</ele>
        <time>2016-02-04T08:53:23.668Z</time>
      </trkpt>
      <trkpt lat="46.03292" lon="4.58144">
        <ele>620.520507812</ele>
        <time>2016-02-04T08:53:34.697Z</time>
      </trkpt>
      <trkpt lat="46.03292" lon="4.58145">
        <ele>620.402160645</ele>
        <time>2016-02-04T08:53:35.666Z</time>
      </trkpt>
      <trkpt lat="46.03294" lon="4.58157">
        <ele>619.762084961</ele>
        <time>2016-02-04T08:53:42.688Z</time>
      </trkpt>
      <trkpt lat="46.03294" lon="4.58159">
        <ele>619.719665527</ele>
        <time>2016-02-04T08:53:43.667Z</time>
      </trkpt>
      <trkpt lat="46.03298" lon="4.5817">
        <ele>619.188415527</ele>
        <time>2016-02-04T08:53:47.687Z</time>
      </trkpt>
      <trkpt lat="46.03299" lon="4.58173">
        <ele>618.955322266</ele>
        <time>2016-02-04T08:53:48.669Z</time>
      </trkpt>
      <trkpt lat="46.03301" lon="4.58185">
        <ele>617.082397461</ele>
        <time>2016-02-04T08:53:54.697Z</time>
      </trkpt>
      <trkpt lat="46.03301" lon="4.58186">
        <ele>616.750183105</ele>
        <time>2016-02-04T08:53:55.671Z</time>
      </trkpt>
      <trkpt lat="46.03302" lon="4.58198">
        <ele>614.848815918</ele>
        <time>2016-02-04T08:54:01.691Z</time>
      </trkpt>
      <trkpt lat="46.03302" lon="4.58199">
        <ele>614.539001465</ele>
        <time>2016-02-04T08:54:02.67Z</time>
      </trkpt>
      <trkpt lat="46.03304" lon="4.58211">
        <ele>612.755310059</ele>
        <time>2016-02-04T08:54:08.731Z</time>
      </trkpt>
      <trkpt lat="46.03305" lon="4.58213">
        <ele>612.44329834</ele>
        <time>2016-02-04T08:54:09.671Z</time>
      </trkpt>
      <trkpt lat="46.03312" lon="4.58219">
        <ele>611.06628418</ele>
        <time>2016-02-04T08:54:15.676Z</time>
      </trkpt>
      <trkpt lat="46.03313" lon="4.5822">
        <ele>610.968566895</ele>
        <time>2016-02-04T08:54:16.654Z</time>
      </trkpt>
      <trkpt lat="46.03321" lon="4.58223">
        <ele>610.664978027</ele>
        <time>2016-02-04T08:54:21.656Z</time>
      </trkpt>
      <trkpt lat="46.03322" lon="4.58224">
        <ele>610.613464355</ele>
        <time>2016-02-04T08:54:22.639Z</time>
      </trkpt>
      <trkpt lat="46.03329" lon="4.58229">
        <ele>610.317626953</ele>
        <time>2016-02-04T08:54:27.663Z</time>
      </trkpt>
      <trkpt lat="46.0333" lon="4.58229">
        <ele>610.301208496</ele>
        <time>2016-02-04T08:54:28.64Z</time>
      </trkpt>
      <trkpt lat="46.03338" lon="4.58232">
        <ele>610.470458984</ele>
        <time>2016-02-04T08:54:34.668Z</time>
      </trkpt>
      <trkpt lat="46.0334" lon="4.58233">
        <ele>610.495544434</ele>
        <time>2016-02-04T08:54:35.639Z</time>
      </trkpt>
      <trkpt lat="46.03346" lon="4.58242">
        <ele>609.752502441</ele>
        <time>2016-02-04T08:54:43.68Z</time>
      </trkpt>
      <trkpt lat="46.03347" lon="4.58243">
        <ele>609.629821777</ele>
        <time>2016-02-04T08:54:44.646Z</time>
      </trkpt>
      <trkpt lat="46.03355" lon="4.58247">
        <ele>609.13684082</ele>
        <time>2016-02-04T08:54:49.679Z</time>
      </trkpt>
      <trkpt lat="46.03356" lon="4.58249">
        <ele>609.073730469</ele>
        <time>2016-02-04T08:54:50.658Z</time>
      </trkpt>
      <trkpt lat="46.03364" lon="4.58254">
        <ele>608.906188965</ele>
        <time>2016-02-04T08:54:55.674Z</time>
      </trkpt>
      <trkpt lat="46.03366" lon="4.58255">
        <ele>608.787841797</ele>
        <time>2016-02-04T08:54:56.651Z</time>
      </trkpt>
      <trkpt lat="46.03374" lon="4.58258">
        <ele>608.133300781</ele>
        <time>2016-02-04T08:55:03.668Z</time>
      </trkpt>
      <trkpt lat="46.03376" lon="4.58259">
        <ele>608.045715332</ele>
        <time>2016-02-04T08:55:04.649Z</time>
      </trkpt>
      <trkpt lat="46.03383" lon="4.5826">
        <ele>607.883239746</ele>
        <time>2016-02-04T08:55:08.678Z</time>
      </trkpt>
      <trkpt lat="46.03385" lon="4.5826">
        <ele>607.938537598</ele>
        <time>2016-02-04T08:55:09.648Z</time>
      </trkpt>
      <trkpt lat="46.03392" lon="4.58262">
        <ele>608.102294922</ele>
        <time>2016-02-04T08:55:14.691Z</time>
      </trkpt>
      <trkpt lat="46.03394" lon="4.58262">
        <ele>608.102844238</ele>
        <time>2016-02-04T08:55:15.648Z</time>
      </trkpt>
      <trkpt lat="46.03402" lon="4.58266">
        <ele>608.378051758</ele>
        <time>2016-02-04T08:55:24.67Z</time>
      </trkpt>
      <trkpt lat="46.03404" lon="4.58266">
        <ele>608.45324707</ele>
        <time>2016-02-04T08:55:25.65Z</time>
      </trkpt>
      <trkpt lat="46.03411" lon="4.58269">
        <ele>608.694213867</ele>
        <time>2016-02-04T08:55:31.693Z</time>
      </trkpt>
      <trkpt lat="46.03413" lon="4.58268">
        <ele>608.78338623</ele>
        <time>2016-02-04T08:55:32.651Z</time>
      </trkpt>
      <trkpt lat="46.03421" lon="4.5827">
        <ele>608.978942871</ele>
        <time>2016-02-04T08:55:36.678Z</time>
      </trkpt>
      <trkpt lat="46.03423" lon="4.5827">
        <ele>608.946838379</ele>
        <time>2016-02-04T08:55:37.667Z</time>
      </trkpt>
      <trkpt lat="46.03432" lon="4.58273">
        <ele>608.447570801</ele>
        <time>2016-02-04T08:55:42.688Z</time>
      </trkpt>
      <trkpt lat="46.03433" lon="4.58274">
        <ele>608.330078125</ele>
        <time>2016-02-04T08:55:43.651Z</time>
      </trkpt>
      <trkpt lat="46.03439" lon="4.58282">
        <ele>607.710021973</ele>
        <time>2016-02-04T08:55:50.68Z</time>
      </trkpt>
      <trkpt lat="46.0344" lon="4.58284">
        <ele>607.607421875</ele>
        <time>2016-02-04T08:55:51.643Z</time>
      </trkpt>
      <trkpt lat="46.03442" lon="4.58295">
        <ele>606.854492188</ele>
        <time>2016-02-04T08:55:56.664Z</time>
      </trkpt>
      <trkpt lat="46.03442" lon="4.58297">
        <ele>606.651733398</ele>
        <time>2016-02-04T08:55:57.659Z</time>
      </trkpt>
      <trkpt lat="46.03442" lon="4.58309">
        <ele>605.404724121</ele>
        <time>2016-02-04T08:56:05.675Z</time>
      </trkpt>
      <trkpt lat="46.03442" lon="4.58311">
        <ele>605.269470215</ele>
        <time>2016-02-04T08:56:06.642Z</time>
      </trkpt>
      <trkpt lat="46.03442" lon="4.58321">
        <ele>604.420898438</ele>
        <time>2016-02-04T08:56:14.681Z</time>
      </trkpt>
      <trkpt lat="46.03442" lon="4.58324">
        <ele>604.25567627</ele>
        <time>2016-02-04T08:56:15.666Z</time>
      </trkpt>
      <trkpt lat="46.03443" lon="4.58337">
        <ele>602.92401123</ele>
        <time>2016-02-04T08:56:24.682Z</time>
      </trkpt>
      <trkpt lat="46.03443" lon="4.58338">
        <ele>602.752502441</ele>
        <time>2016-02-04T08:56:25.649Z</time>
      </trkpt>
      <trkpt lat="46.03444" lon="4.5835">
        <ele>601.795288086</ele>
        <time>2016-02-04T08:56:33.667Z</time>
      </trkpt>
      <trkpt lat="46.03444" lon="4.58351">
        <ele>601.709899902</ele>
        <time>2016-02-04T08:56:34.65Z</time>
      </trkpt>
      <trkpt lat="46.03442" lon="4.58364">
        <ele>601.146057129</ele>
        <time>2016-02-04T08:56:44.819Z</time>
      </trkpt>
      <trkpt lat="46.03442" lon="4.58364">
        <ele>601.082946777</ele>
        <time>2016-02-04T08:56:45.652Z</time>
      </trkpt>
      <trkpt lat="46.03439" lon="4.58374">
        <ele>600.569641113</ele>
        <time>2016-02-04T08:56:53.689Z</time>
      </trkpt>
      <trkpt lat="46.03438" lon="4.58377">
        <ele>600.461730957</ele>
        <time>2016-02-04T08:56:54.658Z</time>
      </trkpt>
      <trkpt lat="46.03435" lon="4.58389">
        <ele>599.596862793</ele>
        <time>2016-02-04T08:57:03.792Z</time>
      </trkpt>
      <trkpt lat="46.03435" lon="4.58389">
        <ele>599.588867188</ele>
        <time>2016-02-04T08:57:04.66Z</time>
      </trkpt>
      <trkpt lat="46.03436" lon="4.58402">
        <ele>599.513000488</ele>
        <time>2016-02-04T08:57:10.651Z</time>
      </trkpt>
      <trkpt lat="46.03436" lon="4.58404">
        <ele>599.37310791</ele>
        <time>2016-02-04T08:57:11.662Z</time>
      </trkpt>
      <trkpt lat="46.03438" lon="4.58415">
        <ele>598.024169922</ele>
        <time>2016-02-04T08:57:17.688Z</time>
      </trkpt>
      <trkpt lat="46.03439" lon="4.58418">
        <ele>597.69934082</ele>
        <time>2016-02-04T08:57:18.662Z</time>
      </trkpt>
      <trkpt lat="46.03441" lon="4.58429">
        <ele>594.583190918</ele>
        <time>2016-02-04T08:57:26.683Z</time>
      </trkpt>
      <trkpt lat="46.03442" lon="4.5843">
        <ele>594.227844238</ele>
        <time>2016-02-04T08:57:27.667Z</time>
      </trkpt>
      <trkpt lat="46.03447" lon="4.5844">
        <ele>591.690490723</ele>
        <time>2016-02-04T08:57:36.689Z</time>
      </trkpt>
      <trkpt lat="46.03447" lon="4.58441">
        <ele>591.55847168</ele>
        <time>2016-02-04T08:57:37.661Z</time>
      </trkpt>
      <trkpt lat="46.03453" lon="4.58449">
        <ele>590.541809082</ele>
        <time>2016-02-04T08:57:43.691Z</time>
      </trkpt>
      <trkpt lat="46.03454" lon="4.5845">
        <ele>590.360534668</ele>
        <time>2016-02-04T08:57:44.663Z</time>
      </trkpt>
      <trkpt lat="46.03462" lon="4.58455">
        <ele>589.06652832</ele>
        <time>2016-02-04T08:57:51.684Z</time>
      </trkpt>
      <trkpt lat="46.03463" lon="4.58455">
        <ele>588.987304688</ele>
        <time>2016-02-04T08:57:52.674Z</time>
      </trkpt>
      <trkpt lat="46.03471" lon="4.58454">
        <ele>585.467102051</ele>
        <time>2016-02-04T08:58:36.725Z</time>
      </trkpt>
      <trkpt lat="46.03472" lon="4.58454">
        <ele>585.119689941</ele>
        <time>2016-02-04T08:58:37.667Z</time>
      </trkpt>
      <trkpt lat="46.0348" lon="4.58453">
        <ele>581.28918457</ele>
        <time>2016-02-04T08:58:47.718Z</time>
      </trkpt>
      <trkpt lat="46.03482" lon="4.58453">
        <ele>581.007141113</ele>
        <time>2016-02-04T08:58:48.666Z</time>
      </trkpt>
      <trkpt lat="46.03489" lon="4.58449">
        <ele>579.211242676</ele>
        <time>2016-02-04T08:59:02.688Z</time>
      </trkpt>
      <trkpt lat="46.03491" lon="4.58448">
        <ele>578.996276855</ele>
        <time>2016-02-04T08:59:03.667Z</time>
      </trkpt>
      <trkpt lat="46.03498" lon="4.58441">
        <ele>576.524780273</ele>
        <time>2016-02-04T08:59:19.687Z</time>
      </trkpt>
      <trkpt lat="46.03501" lon="4.58438">
        <ele>576.540161133</ele>
        <time>2016-02-04T08:59:20.666Z</time>
      </trkpt>
      <trkpt lat="46.03505" lon="4.58435">
        <ele>576.563415527</ele>
        <time>2016-02-04T08:59:21.692Z</time>
      </trkpt>
      <trkpt lat="46.0351" lon="4.58432">
        <ele>576.564697266</ele>
        <time>2016-02-04T08:59:22.668Z</time>
      </trkpt>
      <trkpt lat="46.03516" lon="4.58426">
        <ele>576.560180664</ele>
        <time>2016-02-04T08:59:24.695Z</time>
      </trkpt>
      <trkpt lat="46.03517" lon="4.58424">
        <ele>576.531799316</ele>
        <time>2016-02-04T08:59:25.656Z</time>
      </trkpt>
      <trkpt lat="46.03522" lon="4.58417">
        <ele>576.486022949</ele>
        <time>2016-02-04T08:59:29.693Z</time>
      </trkpt>
      <trkpt lat="46.03525" lon="4.58416">
        <ele>576.431091309</ele>
        <time>2016-02-04T08:59:30.644Z</time>
      </trkpt>
      <trkpt lat="46.03531" lon="4.58413">
        <ele>575.912231445</ele>
        <time>2016-02-04T08:59:35.676Z</time>
      </trkpt>
      <trkpt lat="46.03534" lon="4.58411">
        <ele>575.845336914</ele>
        <time>2016-02-04T08:59:36.645Z</time>
      </trkpt>
      <trkpt lat="46.03542" lon="4.58405">
        <ele>575.577331543</ele>
        <time>2016-02-04T08:59:42.656Z</time>
      </trkpt>
      <trkpt lat="46.03543" lon="4.58404">
        <ele>575.645935059</ele>
        <time>2016-02-04T08:59:43.634Z</time>
      </trkpt>
      <trkpt lat="46.03549" lon="4.58398">
        <ele>575.76184082</ele>
        <time>2016-02-04T08:59:46.678Z</time>
      </trkpt>
      <trkpt lat="46.03551" lon="4.58397">
        <ele>575.73425293</ele>
        <time>2016-02-04T08:59:47.636Z</time>
      </trkpt>
      <trkpt lat="46.03559" lon="4.58392">
        <ele>575.705566406</ele>
        <time>2016-02-04T08:59:51.669Z</time>
      </trkpt>
      <trkpt lat="46.03563" lon="4.58391">
        <ele>575.635070801</ele>
        <time>2016-02-04T08:59:52.636Z</time>
      </trkpt>
      <trkpt lat="46.0357" lon="4.58389">
        <ele>575.210388184</ele>
        <time>2016-02-04T08:59:56.672Z</time>
      </trkpt>
      <trkpt lat="46.03572" lon="4.58389">
        <ele>575.081237793</ele>
        <time>2016-02-04T08:59:57.637Z</time>
      </trkpt>
      <trkpt lat="46.0358" lon="4.58388">
        <ele>574.170898438</ele>
        <time>2016-02-04T09:00:02.659Z</time>
      </trkpt>
      <trkpt lat="46.03582" lon="4.58389">
        <ele>573.989501953</ele>
        <time>2016-02-04T09:00:03.64Z</time>
      </trkpt>
      <trkpt lat="46.0359" lon="4.58388">
        <ele>573.354125977</ele>
        <time>2016-02-04T09:00:07.689Z</time>
      </trkpt>
      <trkpt lat="46.03592" lon="4.58387">
        <ele>573.22442627</ele>
        <time>2016-02-04T09:00:08.637Z</time>
      </trkpt>
      <trkpt lat="46.036" lon="4.58386">
        <ele>572.688232422</ele>
        <time>2016-02-04T09:00:14.642Z</time>
      </trkpt>
      <trkpt lat="46.03602" lon="4.58385">
        <ele>572.63067627</ele>
        <time>2016-02-04T09:00:15.641Z</time>
      </trkpt>
      <trkpt lat="46.03609" lon="4.5838">
        <ele>571.497558594</ele>
        <time>2016-02-04T09:00:30.678Z</time>
      </trkpt>
      <trkpt lat="46.0361" lon="4.58378">
        <ele>571.417602539</ele>
        <time>2016-02-04T09:00:31.637Z</time>
      </trkpt>
      <trkpt lat="46.03616" lon="4.5837">
        <ele>571.125427246</ele>
        <time>2016-02-04T09:00:35.683Z</time>
      </trkpt>
      <trkpt lat="46.03618" lon="4.58369">
        <ele>571.052734375</ele>
        <time>2016-02-04T09:00:36.646Z</time>
      </trkpt>
      <trkpt lat="46.03624" lon="4.58361">
        <ele>570.250244141</ele>
        <time>2016-02-04T09:00:46.674Z</time>
      </trkpt>
      <trkpt lat="46.03625" lon="4.5836">
        <ele>570.212219238</ele>
        <time>2016-02-04T09:00:47.667Z</time>
      </trkpt>
      <trkpt lat="46.03633" lon="4.58354">
        <ele>569.651672363</ele>
        <time>2016-02-04T09:00:53.672Z</time>
      </trkpt>
      <trkpt lat="46.03634" lon="4.58353">
        <ele>569.548278809</ele>
        <time>2016-02-04T09:00:54.649Z</time>
      </trkpt>
      <trkpt lat="46.03641" lon="4.58349">
        <ele>569.275756836</ele>
        <time>2016-02-04T09:00:59.674Z</time>
      </trkpt>
      <trkpt lat="46.03643" lon="4.58349">
        <ele>569.23449707</ele>
        <time>2016-02-04T09:01:00.642Z</time>
      </trkpt>
      <trkpt lat="46.03651" lon="4.58345">
        <ele>569.181518555</ele>
        <time>2016-02-04T09:01:06.681Z</time>
      </trkpt>
      <trkpt lat="46.03652" lon="4.58345">
        <ele>569.24029541</ele>
        <time>2016-02-04T09:01:07.643Z</time>
      </trkpt>
      <trkpt lat="46.0366" lon="4.58341">
        <ele>569.598754883</ele>
        <time>2016-02-04T09:01:14.646Z</time>
      </trkpt>
      <trkpt lat="46.03662" lon="4.58341">
        <ele>569.657592773</ele>
        <time>2016-02-04T09:01:15.653Z</time>
      </trkpt>
      <trkpt lat="46.0367" lon="4.58339">
        <ele>569.819519043</ele>
        <time>2016-02-04T09:01:19.689Z</time>
      </trkpt>
      <trkpt lat="46.03671" lon="4.58339">
        <ele>569.815795898</ele>
        <time>2016-02-04T09:01:20.653Z</time>
      </trkpt>
      <trkpt lat="46.03679" lon="4.5834">
        <ele>569.614807129</ele>
        <time>2016-02-04T09:01:26.69Z</time>
      </trkpt>
      <trkpt lat="46.03681" lon="4.5834">
        <ele>569.43182373</ele>
        <time>2016-02-04T09:01:27.655Z</time>
      </trkpt>
      <trkpt lat="46.03689" lon="4.5834">
        <ele>568.500915527</ele>
        <time>2016-02-04T09:01:34.688Z</time>
      </trkpt>
      <trkpt lat="46.03691" lon="4.5834">
        <ele>568.410461426</ele>
        <time>2016-02-04T09:01:35.654Z</time>
      </trkpt>
      <trkpt lat="46.03698" lon="4.5834">
        <ele>567.256591797</ele>
        <time>2016-02-04T09:01:41.679Z</time>
      </trkpt>
      <trkpt lat="46.03701" lon="4.5834">
        <ele>567.109130859</ele>
        <time>2016-02-04T09:01:42.654Z</time>
      </trkpt>
      <trkpt lat="46.0371" lon="4.58338">
        <ele>566.233398438</ele>
        <time>2016-02-04T09:01:47.689Z</time>
      </trkpt>
      <trkpt lat="46.03711" lon="4.58337">
        <ele>566.056030273</ele>
        <time>2016-02-04T09:01:48.65Z</time>
      </trkpt>
      <trkpt lat="46.03718" lon="4.58331">
        <ele>563.185058594</ele>
        <time>2016-02-04T09:02:05.688Z</time>
      </trkpt>
      <trkpt lat="46.03719" lon="4.5833">
        <ele>563.09967041</ele>
        <time>2016-02-04T09:02:06.65Z</time>
      </trkpt>
      <trkpt lat="46.03726" lon="4.58322">
        <ele>562.555236816</ele>
        <time>2016-02-04T09:02:14.654Z</time>
      </trkpt>
      <trkpt lat="46.03727" lon="4.58321">
        <ele>562.494262695</ele>
        <time>2016-02-04T09:02:15.66Z</time>
      </trkpt>
      <trkpt lat="46.03734" lon="4.58313">
        <ele>562.465087891</ele>
        <time>2016-02-04T09:02:21.646Z</time>
      </trkpt>
      <trkpt lat="46.03735" lon="4.58312">
        <ele>562.445251465</ele>
        <time>2016-02-04T09:02:22.659Z</time>
      </trkpt>
      <trkpt lat="46.03744" lon="4.58308">
        <ele>561.616699219</ele>
        <time>2016-02-04T09:02:28.681Z</time>
      </trkpt>
      <trkpt lat="46.03745" lon="4.58307">
        <ele>561.405517578</ele>
        <time>2016-02-04T09:02:29.658Z</time>
      </trkpt>
      <trkpt lat="46.03752" lon="4.58304">
        <ele>561.212463379</ele>
        <time>2016-02-04T09:02:33.695Z</time>
      </trkpt>
      <trkpt lat="46.03755" lon="4.58303">
        <ele>561.229675293</ele>
        <time>2016-02-04T09:02:34.661Z</time>
      </trkpt>
      <trkpt lat="46.03764" lon="4.58303">
        <ele>561.10534668</ele>
        <time>2016-02-04T09:02:38.684Z</time>
      </trkpt>
      <trkpt lat="46.03765" lon="4.58302">
        <ele>560.971923828</ele>
        <time>2016-02-04T09:02:39.66Z</time>
      </trkpt>
      <trkpt lat="46.03773" lon="4.58305">
        <ele>560.28125</ele>
        <time>2016-02-04T09:02:49.686Z</time>
      </trkpt>
      <trkpt lat="46.03774" lon="4.58305">
        <ele>560.185058594</ele>
        <time>2016-02-04T09:02:50.666Z</time>
      </trkpt>
      <trkpt lat="46.03782" lon="4.58306">
        <ele>558.749816895</ele>
        <time>2016-02-04T09:02:59.687Z</time>
      </trkpt>
      <trkpt lat="46.03783" lon="4.58306">
        <ele>558.639831543</ele>
        <time>2016-02-04T09:03:00.662Z</time>
      </trkpt>
      <trkpt lat="46.03792" lon="4.58308">
        <ele>557.740356445</ele>
        <time>2016-02-04T09:03:08.686Z</time>
      </trkpt>
      <trkpt lat="46.03793" lon="4.58308">
        <ele>557.663879395</ele>
        <time>2016-02-04T09:03:09.664Z</time>
      </trkpt>
      <trkpt lat="46.03801" lon="4.58306">
        <ele>557.217956543</ele>
        <time>2016-02-04T09:03:29.688Z</time>
      </trkpt>
      <trkpt lat="46.03801" lon="4.58305">
        <ele>557.151000977</ele>
        <time>2016-02-04T09:03:30.666Z</time>
      </trkpt>
      <trkpt lat="46.03809" lon="4.58303">
        <ele>555.089050293</ele>
        <time>2016-02-04T09:05:48.671Z</time>
      </trkpt>
      <trkpt lat="46.03811" lon="4.58304">
        <ele>554.951782227</ele>
        <time>2016-02-04T09:05:49.641Z</time>
      </trkpt>
      <trkpt lat="46.03817" lon="4.58306">
        <ele>554.596435547</ele>
        <time>2016-02-04T09:05:54.673Z</time>
      </trkpt>
      <trkpt lat="46.0382" lon="4.58306">
        <ele>554.527770996</ele>
        <time>2016-02-04T09:05:55.642Z</time>
      </trkpt>
      <trkpt lat="46.03829" lon="4.58306">
        <ele>552.365783691</ele>
        <time>2016-02-04T09:06:19.669Z</time>
      </trkpt>
      <trkpt lat="46.0383" lon="4.58306">
        <ele>552.316894531</ele>
        <time>2016-02-04T09:06:20.659Z</time>
      </trkpt>
      <trkpt lat="46.03836" lon="4.58298">
        <ele>552.523132324</ele>
        <time>2016-02-04T09:06:27.682Z</time>
      </trkpt>
      <trkpt lat="46.03837" lon="4.58296">
        <ele>552.574768066</ele>
        <time>2016-02-04T09:06:28.653Z</time>
      </trkpt>
      <trkpt lat="46.03843" lon="4.58287">
        <ele>552.571655273</ele>
        <time>2016-02-04T09:06:33.692Z</time>
      </trkpt>
      <trkpt lat="46.03844" lon="4.58285">
        <ele>552.536560059</ele>
        <time>2016-02-04T09:06:34.653Z</time>
      </trkpt>
      <trkpt lat="46.03848" lon="4.58275">
        <ele>552.769042969</ele>
        <time>2016-02-04T09:06:39.685Z</time>
      </trkpt>
      <trkpt lat="46.03849" lon="4.58274">
        <ele>552.716003418</ele>
        <time>2016-02-04T09:06:40.643Z</time>
      </trkpt>
      <trkpt lat="46.03851" lon="4.58267">
        <ele>552.143188477</ele>
        <time>2016-02-04T09:06:45.689Z</time>
      </trkpt>
      <trkpt lat="46.03855" lon="4.58261">
        <ele>551.983032227</ele>
        <time>2016-02-04T09:06:46.654Z</time>
      </trkpt>
      <trkpt lat="46.0386" lon="4.58253">
        <ele>550.873046875</ele>
        <time>2016-02-04T09:06:52.67Z</time>
      </trkpt>
      <trkpt lat="46.03861" lon="4.58251">
        <ele>550.670471191</ele>
        <time>2016-02-04T09:06:53.654Z</time>
      </trkpt>
      <trkpt lat="46.03866" lon="4.58242">
        <ele>549.867736816</ele>
        <time>2016-02-04T09:07:02.667Z</time>
      </trkpt>
      <trkpt lat="46.03867" lon="4.58241">
        <ele>549.801879883</ele>
        <time>2016-02-04T09:07:03.646Z</time>
      </trkpt>
      <trkpt lat="46.03873" lon="4.58232">
        <ele>549.524414062</ele>
        <time>2016-02-04T09:07:10.69Z</time>
      </trkpt>
      <trkpt lat="46.03874" lon="4.58231">
        <ele>549.515625</ele>
        <time>2016-02-04T09:07:11.662Z</time>
      </trkpt>
      <trkpt lat="46.0388" lon="4.58226">
        <ele>549.55065918</ele>
        <time>2016-02-04T09:07:15.69Z</time>
      </trkpt>
      <trkpt lat="46.03883" lon="4.58225">
        <ele>549.53894043</ele>
        <time>2016-02-04T09:07:16.644Z</time>
      </trkpt>
      <trkpt lat="46.0389" lon="4.58219">
        <ele>549.418273926</ele>
        <time>2016-02-04T09:07:19.686Z</time>
      </trkpt>
      <trkpt lat="46.03891" lon="4.58219">
        <ele>549.296386719</ele>
        <time>2016-02-04T09:07:20.656Z</time>
      </trkpt>
      <trkpt lat="46.039" lon="4.58218">
        <ele>548.836914062</ele>
        <time>2016-02-04T09:07:27.68Z</time>
      </trkpt>
      <trkpt lat="46.03901" lon="4.58217">
        <ele>548.759765625</ele>
        <time>2016-02-04T09:07:28.645Z</time>
      </trkpt>
      <trkpt lat="46.0391" lon="4.58213">
        <ele>548.358398438</ele>
        <time>2016-02-04T09:07:35.679Z</time>
      </trkpt>
      <trkpt lat="46.03911" lon="4.58212">
        <ele>548.342956543</ele>
        <time>2016-02-04T09:07:36.649Z</time>
      </trkpt>
      <trkpt lat="46.03916" lon="4.58208">
        <ele>548.158752441</ele>
        <time>2016-02-04T09:07:40.69Z</time>
      </trkpt>
      <trkpt lat="46.03919" lon="4.58205">
        <ele>548.061523438</ele>
        <time>2016-02-04T09:07:41.651Z</time>
      </trkpt>
      <trkpt lat="46.03926" lon="4.58198">
        <ele>547.415771484</ele>
        <time>2016-02-04T09:07:49.697Z</time>
      </trkpt>
      <trkpt lat="46.03927" lon="4.58198">
        <ele>547.378112793</ele>
        <time>2016-02-04T09:07:50.658Z</time>
      </trkpt>
      <trkpt lat="46.03934" lon="4.5819">
        <ele>546.98223877</ele>
        <time>2016-02-04T09:07:59.687Z</time>
      </trkpt>
      <trkpt lat="46.03935" lon="4.58189">
        <ele>546.93927002</ele>
        <time>2016-02-04T09:08:00.66Z</time>
      </trkpt>
      <trkpt lat="46.03941" lon="4.5818">
        <ele>546.131530762</ele>
        <time>2016-02-04T09:08:09.691Z</time>
      </trkpt>
      <trkpt lat="46.03941" lon="4.58179">
        <ele>546.013244629</ele>
        <time>2016-02-04T09:08:10.66Z</time>
      </trkpt>
      <trkpt lat="46.03947" lon="4.58171">
        <ele>544.683105469</ele>
        <time>2016-02-04T09:08:18.715Z</time>
      </trkpt>
      <trkpt lat="46.03948" lon="4.5817">
        <ele>544.509338379</ele>
        <time>2016-02-04T09:08:19.661Z</time>
      </trkpt>
      <trkpt lat="46.03955" lon="4.58161">
        <ele>543.187438965</ele>
        <time>2016-02-04T09:08:28.687Z</time>
      </trkpt>
      <trkpt lat="46.03956" lon="4.5816">
        <ele>543.053894043</ele>
        <time>2016-02-04T09:08:29.661Z</time>
      </trkpt>
      <trkpt lat="46.03962" lon="4.58151">
        <ele>542.204345703</ele>
        <time>2016-02-04T09:08:37.673Z</time>
      </trkpt>
      <trkpt lat="46.03962" lon="4.5815">
        <ele>542.092346191</ele>
        <time>2016-02-04T09:08:38.653Z</time>
      </trkpt>
      <trkpt lat="46.0397" lon="4.58144">
        <ele>541.494262695</ele>
        <time>2016-02-04T09:08:43.702Z</time>
      </trkpt>
      <trkpt lat="46.03971" lon="4.58142">
        <ele>541.387268066</ele>
        <time>2016-02-04T09:08:44.664Z</time>
      </trkpt>
      <trkpt lat="46.03978" lon="4.58138">
        <ele>540.894592285</ele>
        <time>2016-02-04T09:08:48.671Z</time>
      </trkpt>
      <trkpt lat="46.0398" lon="4.58136">
        <ele>540.808166504</ele>
        <time>2016-02-04T09:08:49.651Z</time>
      </trkpt>
      <trkpt lat="46.03988" lon="4.58133">
        <ele>540.352478027</ele>
        <time>2016-02-04T09:08:53.679Z</time>
      </trkpt>
      <trkpt lat="46.03989" lon="4.58132">
        <ele>540.275939941</ele>
        <time>2016-02-04T09:08:54.648Z</time>
      </trkpt>
      <trkpt lat="46.03997" lon="4.58128">
        <ele>539.549194336</ele>
        <time>2016-02-04T09:09:00.701Z</time>
      </trkpt>
      <trkpt lat="46.03999" lon="4.58128">
        <ele>539.385681152</ele>
        <time>2016-02-04T09:09:01.656Z</time>
      </trkpt>
      <trkpt lat="46.04006" lon="4.58125">
        <ele>538.691650391</ele>
        <time>2016-02-04T09:09:06.681Z</time>
      </trkpt>
      <trkpt lat="46.04009" lon="4.58124">
        <ele>538.564697266</ele>
        <time>2016-02-04T09:09:07.656Z</time>
      </trkpt>
      <trkpt lat="46.04015" lon="4.58122">
        <ele>537.9921875</ele>
        <time>2016-02-04T09:09:11.806Z</time>
      </trkpt>
      <trkpt lat="46.04018" lon="4.58121">
        <ele>537.860534668</ele>
        <time>2016-02-04T09:09:12.643Z</time>
      </trkpt>
      <trkpt lat="46.04027" lon="4.58117">
        <ele>535.83380127</ele>
        <time>2016-02-04T09:09:21.695Z</time>
      </trkpt>
      <trkpt lat="46.04027" lon="4.58117">
        <ele>535.659606934</ele>
        <time>2016-02-04T09:09:22.667Z</time>
      </trkpt>
      <trkpt lat="46.04036" lon="4.58113">
        <ele>534.458435059</ele>
        <time>2016-02-04T09:09:33.698Z</time>
      </trkpt>
      <trkpt lat="46.04037" lon="4.58112">
        <ele>534.335510254</ele>
        <time>2016-02-04T09:09:34.667Z</time>
      </trkpt>
      <trkpt lat="46.04045" lon="4.58109">
        <ele>534.081420898</ele>
        <time>2016-02-04T09:09:46.691Z</time>
      </trkpt>
      <trkpt lat="46.04046" lon="4.58109">
        <ele>534.08215332</ele>
        <time>2016-02-04T09:09:47.656Z</time>
      </trkpt>
      <trkpt lat="46.04054" lon="4.58111">
        <ele>532.852783203</ele>
        <time>2016-02-04T09:10:17.667Z</time>
      </trkpt>
      <trkpt lat="46.04056" lon="4.5811">
        <ele>532.64050293</ele>
        <time>2016-02-04T09:10:18.664Z</time>
      </trkpt>
      <trkpt lat="46.04061" lon="4.58108">
        <ele>532.217529297</ele>
        <time>2016-02-04T09:10:20.675Z</time>
      </trkpt>
      <trkpt lat="46.04065" lon="4.58107">
        <ele>532.07043457</ele>
        <time>2016-02-04T09:10:21.637Z</time>
      </trkpt>
      <trkpt lat="46.04074" lon="4.58104">
        <ele>531.553710938</ele>
        <time>2016-02-04T09:10:25.654Z</time>
      </trkpt>
      <trkpt lat="46.04075" lon="4.58104">
        <ele>531.362792969</ele>
        <time>2016-02-04T09:10:26.642Z</time>
      </trkpt>
      <trkpt lat="46.04084" lon="4.58102">
        <ele>530.865661621</ele>
        <time>2016-02-04T09:10:32.658Z</time>
      </trkpt>
      <trkpt lat="46.04085" lon="4.58102">
        <ele>530.818908691</ele>
        <time>2016-02-04T09:10:33.641Z</time>
      </trkpt>
      <trkpt lat="46.04094" lon="4.581">
        <ele>530.236450195</ele>
        <time>2016-02-04T09:10:39.685Z</time>
      </trkpt>
      <trkpt lat="46.04095" lon="4.581">
        <ele>530.084106445</ele>
        <time>2016-02-04T09:10:40.639Z</time>
      </trkpt>
      <trkpt lat="46.04103" lon="4.58101">
        <ele>529.248352051</ele>
        <time>2016-02-04T09:10:45.685Z</time>
      </trkpt>
      <trkpt lat="46.04104" lon="4.58101">
        <ele>529.040344238</ele>
        <time>2016-02-04T09:10:46.638Z</time>
      </trkpt>
      <trkpt lat="46.04112" lon="4.581">
        <ele>527.379211426</ele>
        <time>2016-02-04T09:10:53.668Z</time>
      </trkpt>
      <trkpt lat="46.04113" lon="4.58099">
        <ele>527.171936035</ele>
        <time>2016-02-04T09:10:54.639Z</time>
      </trkpt>
      <trkpt lat="46.04121" lon="4.58097">
        <ele>525.683410645</ele>
        <time>2016-02-04T09:11:00.679Z</time>
      </trkpt>
      <trkpt lat="46.04123" lon="4.58097">
        <ele>525.442260742</ele>
        <time>2016-02-04T09:11:01.641Z</time>
      </trkpt>
      <trkpt lat="46.04131" lon="4.58096">
        <ele>523.461547852</ele>
        <time>2016-02-04T09:11:08.66Z</time>
      </trkpt>
      <trkpt lat="46.04134" lon="4.58095">
        <ele>523.168029785</ele>
        <time>2016-02-04T09:11:09.657Z</time>
      </trkpt>
      <trkpt lat="46.04142" lon="4.58094">
        <ele>520.298278809</ele>
        <time>2016-02-04T09:11:23.678Z</time>
      </trkpt>
      <trkpt lat="46.04144" lon="4.58094">
        <ele>520.140991211</ele>
        <time>2016-02-04T09:11:24.68Z</time>
      </trkpt>
      <trkpt lat="46.04153" lon="4.58095">
        <ele>518.915405273</ele>
        <time>2016-02-04T09:11:32.667Z</time>
      </trkpt>
      <trkpt lat="46.04154" lon="4.58096">
        <ele>518.89276123</ele>
        <time>2016-02-04T09:11:33.643Z</time>
      </trkpt>
      <trkpt lat="46.04162" lon="4.58094">
        <ele>517.426391602</ele>
        <time>2016-02-04T09:11:51.797Z</time>
      </trkpt>
      <trkpt lat="46.04162" lon="4.58094">
        <ele>517.40435791</ele>
        <time>2016-02-04T09:11:52.639Z</time>
      </trkpt>
      <trkpt lat="46.04171" lon="4.5809">
        <ele>517.19519043</ele>
        <time>2016-02-04T09:12:08.688Z</time>
      </trkpt>
      <trkpt lat="46.04171" lon="4.5809">
        <ele>517.176940918</ele>
        <time>2016-02-04T09:12:09.654Z</time>
      </trkpt>
      <trkpt lat="46.04179" lon="4.58091">
        <ele>514.06048584</ele>
        <time>2016-02-04T09:12:30.71Z</time>
      </trkpt>
      <trkpt lat="46.0418" lon="4.58091">
        <ele>513.961608887</ele>
        <time>2016-02-04T09:12:31.657Z</time>
      </trkpt>
      <trkpt lat="46.04188" lon="4.58093">
        <ele>513.217956543</ele>
        <time>2016-02-04T09:12:39.736Z</time>
      </trkpt>
      <trkpt lat="46.04189" lon="4.58093">
        <ele>513.081848145</ele>
        <time>2016-02-04T09:12:40.657Z</time>
      </trkpt>
      <trkpt lat="46.04197" lon="4.58096">
        <ele>512.272033691</ele>
        <time>2016-02-04T09:12:46.699Z</time>
      </trkpt>
      <trkpt lat="46.04198" lon="4.58097">
        <ele>512.18145752</ele>
        <time>2016-02-04T09:12:47.658Z</time>
      </trkpt>
      <trkpt lat="46.04205" lon="4.58102">
        <ele>510.966522217</ele>
        <time>2016-02-04T09:12:54.683Z</time>
      </trkpt>
      <trkpt lat="46.04207" lon="4.58104">
        <ele>510.747406006</ele>
        <time>2016-02-04T09:12:55.66Z</time>
      </trkpt>
      <trkpt lat="46.04214" lon="4.58108">
        <ele>509.281494141</ele>
        <time>2016-02-04T09:13:03.691Z</time>
      </trkpt>
      <trkpt lat="46.04216" lon="4.58109">
        <ele>509.035675049</ele>
        <time>2016-02-04T09:13:04.66Z</time>
      </trkpt>
      <trkpt lat="46.04222" lon="4.58117">
        <ele>507.039825439</ele>
        <time>2016-02-04T09:13:11.684Z</time>
      </trkpt>
      <trkpt lat="46.04223" lon="4.58118">
        <ele>506.783325195</ele>
        <time>2016-02-04T09:13:12.66Z</time>
      </trkpt>
      <trkpt lat="46.04225" lon="4.5813">
        <ele>504.565643311</ele>
        <time>2016-02-04T09:13:22.773Z</time>
      </trkpt>
      <trkpt lat="46.04226" lon="4.58132">
        <ele>504.348571777</ele>
        <time>2016-02-04T09:13:23.658Z</time>
      </trkpt>
      <trkpt lat="46.04226" lon="4.58144">
        <ele>502.425720215</ele>
        <time>2016-02-04T09:13:32.684Z</time>
      </trkpt>
      <trkpt lat="46.04226" lon="4.58145">
        <ele>502.274841309</ele>
        <time>2016-02-04T09:13:33.647Z</time>
      </trkpt>
      <trkpt lat="46.04227" lon="4.58157">
        <ele>501.112731934</ele>
        <time>2016-02-04T09:13:42.685Z</time>
      </trkpt>
      <trkpt lat="46.04226" lon="4.58159">
        <ele>501.073394775</ele>
        <time>2016-02-04T09:13:43.663Z</time>
      </trkpt>
      <trkpt lat="46.04228" lon="4.5817">
        <ele>500.877410889</ele>
        <time>2016-02-04T09:13:52.687Z</time>
      </trkpt>
      <trkpt lat="46.04228" lon="4.58172">
        <ele>500.883758545</ele>
        <time>2016-02-04T09:13:53.663Z</time>
      </trkpt>
      <trkpt lat="46.04231" lon="4.58182">
        <ele>500.976318359</ele>
        <time>2016-02-04T09:14:00.651Z</time>
      </trkpt>
      <trkpt lat="46.04232" lon="4.58184">
        <ele>500.87789917</ele>
        <time>2016-02-04T09:14:01.654Z</time>
      </trkpt>
      <trkpt lat="46.04237" lon="4.58194">
        <ele>499.915924072</ele>
        <time>2016-02-04T09:14:07.721Z</time>
      </trkpt>
      <trkpt lat="46.04239" lon="4.58196">
        <ele>499.754699707</ele>
        <time>2016-02-04T09:14:08.667Z</time>
      </trkpt>
      <trkpt lat="46.04247" lon="4.582">
        <ele>498.465148926</ele>
        <time>2016-02-04T09:14:15.661Z</time>
      </trkpt>
      <trkpt lat="46.04248" lon="4.58201">
        <ele>498.198577881</ele>
        <time>2016-02-04T09:14:16.645Z</time>
      </trkpt>
      <trkpt lat="46.04257" lon="4.58202">
        <ele>494.813842773</ele>
        <time>2016-02-04T09:14:30.693Z</time>
      </trkpt>
      <trkpt lat="46.04258" lon="4.58202">
        <ele>494.502105713</ele>
        <time>2016-02-04T09:14:31.653Z</time>
      </trkpt>
      <trkpt lat="46.04267" lon="4.582">
        <ele>491.988616943</ele>
        <time>2016-02-04T09:14:44.687Z</time>
      </trkpt>
      <trkpt lat="46.04269" lon="4.582">
        <ele>491.929046631</ele>
        <time>2016-02-04T09:14:45.667Z</time>
      </trkpt>
      <trkpt lat="46.04278" lon="4.58199">
        <ele>491.605682373</ele>
        <time>2016-02-04T09:14:51.703Z</time>
      </trkpt>
      <trkpt lat="46.04279" lon="4.58199">
        <ele>491.53515625</ele>
        <time>2016-02-04T09:14:52.667Z</time>
      </trkpt>
      <trkpt lat="46.04287" lon="4.58199">
        <ele>490.850036621</ele>
        <time>2016-02-04T09:15:00.654Z</time>
      </trkpt>
      <trkpt lat="46.04289" lon="4.58199">
        <ele>490.647125244</ele>
        <time>2016-02-04T09:15:01.674Z</time>
      </trkpt>
      <trkpt lat="46.04297" lon="4.58198">
        <ele>489.324829102</ele>
        <time>2016-02-04T09:15:06.696Z</time>
      </trkpt>
      <trkpt lat="46.04299" lon="4.58198">
        <ele>489.022827148</ele>
        <time>2016-02-04T09:15:07.672Z</time>
      </trkpt>
      <trkpt lat="46.04307" lon="4.58197">
        <ele>488.036651611</ele>
        <time>2016-02-04T09:15:11.669Z</time>
      </trkpt>
      <trkpt lat="46.04309" lon="4.58196">
        <ele>487.838989258</ele>
        <time>2016-02-04T09:15:12.676Z</time>
      </trkpt>
      <trkpt lat="46.04318" lon="4.58195">
        <ele>486.629943848</ele>
        <time>2016-02-04T09:15:17.662Z</time>
      </trkpt>
      <trkpt lat="46.04319" lon="4.58195">
        <ele>486.370941162</ele>
        <time>2016-02-04T09:15:18.648Z</time>
      </trkpt>
      <trkpt lat="46.04327" lon="4.58192">
        <ele>484.788269043</ele>
        <time>2016-02-04T09:15:25.67Z</time>
      </trkpt>
      <trkpt lat="46.04328" lon="4.58192">
        <ele>484.552124023</ele>
        <time>2016-02-04T09:15:26.636Z</time>
      </trkpt>
      <trkpt lat="46.04337" lon="4.5819">
        <ele>482.889587402</ele>
        <time>2016-02-04T09:15:33.654Z</time>
      </trkpt>
      <trkpt lat="46.04338" lon="4.5819">
        <ele>482.650634766</ele>
        <time>2016-02-04T09:15:34.639Z</time>
      </trkpt>
      <trkpt lat="46.04346" lon="4.58188">
        <ele>481.278167725</ele>
        <time>2016-02-04T09:15:40.66Z</time>
      </trkpt>
      <trkpt lat="46.04347" lon="4.58188">
        <ele>481.067810059</ele>
        <time>2016-02-04T09:15:41.641Z</time>
      </trkpt>
      <trkpt lat="46.04355" lon="4.58188">
        <ele>479.980285645</ele>
        <time>2016-02-04T09:15:47.67Z</time>
      </trkpt>
      <trkpt lat="46.04356" lon="4.58188">
        <ele>479.813903809</ele>
        <time>2016-02-04T09:15:48.641Z</time>
      </trkpt>
      <trkpt lat="46.04364" lon="4.58188">
        <ele>478.787414551</ele>
        <time>2016-02-04T09:15:53.669Z</time>
      </trkpt>
      <trkpt lat="46.04365" lon="4.58188">
        <ele>478.566162109</ele>
        <time>2016-02-04T09:15:54.647Z</time>
      </trkpt>
      <trkpt lat="46.04374" lon="4.58187">
        <ele>477.276733398</ele>
        <time>2016-02-04T09:16:00.636Z</time>
      </trkpt>
      <trkpt lat="46.04375" lon="4.58187">
        <ele>477.05871582</ele>
        <time>2016-02-04T09:16:01.644Z</time>
      </trkpt>
      <trkpt lat="46.04382" lon="4.58189">
        <ele>476.006866455</ele>
        <time>2016-02-04T09:16:06.681Z</time>
      </trkpt>
      <trkpt lat="46.04384" lon="4.58189">
        <ele>475.806518555</ele>
        <time>2016-02-04T09:16:07.643Z</time>
      </trkpt>
      <trkpt lat="46.04392" lon="4.5819">
        <ele>474.676116943</ele>
        <time>2016-02-04T09:16:13.675Z</time>
      </trkpt>
      <trkpt lat="46.04394" lon="4.5819">
        <ele>474.487091064</ele>
        <time>2016-02-04T09:16:14.642Z</time>
      </trkpt>
      <trkpt lat="46.04402" lon="4.58191">
        <ele>473.103240967</ele>
        <time>2016-02-04T09:16:21.657Z</time>
      </trkpt>
      <trkpt lat="46.04403" lon="4.58192">
        <ele>472.92364502</ele>
        <time>2016-02-04T09:16:22.641Z</time>
      </trkpt>
      <trkpt lat="46.04412" lon="4.58196">
        <ele>471.748077393</ele>
        <time>2016-02-04T09:16:29.672Z</time>
      </trkpt>
      <trkpt lat="46.04413" lon="4.58196">
        <ele>471.583343506</ele>
        <time>2016-02-04T09:16:30.646Z</time>
      </trkpt>
      <trkpt lat="46.04421" lon="4.58199">
        <ele>470.552764893</ele>
        <time>2016-02-04T09:16:36.674Z</time>
      </trkpt>
      <trkpt lat="46.04423" lon="4.58199">
        <ele>470.382293701</ele>
        <time>2016-02-04T09:16:37.643Z</time>
      </trkpt>
      <trkpt lat="46.04432" lon="4.58198">
        <ele>469.282226562</ele>
        <time>2016-02-04T09:16:44.678Z</time>
      </trkpt>
      <trkpt lat="46.04433" lon="4.58198">
        <ele>469.155548096</ele>
        <time>2016-02-04T09:16:45.65Z</time>
      </trkpt>
      <trkpt lat="46.04441" lon="4.58195">
        <ele>468.396514893</ele>
        <time>2016-02-04T09:16:51.672Z</time>
      </trkpt>
      <trkpt lat="46.04443" lon="4.58195">
        <ele>468.253387451</ele>
        <time>2016-02-04T09:16:52.642Z</time>
      </trkpt>
      <trkpt lat="46.04451" lon="4.58192">
        <ele>467.412658691</ele>
        <time>2016-02-04T09:16:57.663Z</time>
      </trkpt>
      <trkpt lat="46.04453" lon="4.58192">
        <ele>467.247131348</ele>
        <time>2016-02-04T09:16:58.648Z</time>
      </trkpt>
      <trkpt lat="46.04461" lon="4.58189">
        <ele>466.332794189</ele>
        <time>2016-02-04T09:17:04.687Z</time>
      </trkpt>
      <trkpt lat="46.04463" lon="4.58188">
        <ele>466.123199463</ele>
        <time>2016-02-04T09:17:05.664Z</time>
      </trkpt>
      <trkpt lat="46.04471" lon="4.58187">
        <ele>464.899017334</ele>
        <time>2016-02-04T09:17:11.688Z</time>
      </trkpt>
      <trkpt lat="46.04473" lon="4.58187">
        <ele>464.696289062</ele>
        <time>2016-02-04T09:17:12.639Z</time>
      </trkpt>
      <trkpt lat="46.04481" lon="4.58187">
        <ele>463.585998535</ele>
        <time>2016-02-04T09:17:18.684Z</time>
      </trkpt>
      <trkpt lat="46.04482" lon="4.58188">
        <ele>463.404907227</ele>
        <time>2016-02-04T09:17:19.65Z</time>
      </trkpt>
      <trkpt lat="46.0449" lon="4.5819">
        <ele>462.03414917</ele>
        <time>2016-02-04T09:17:27.675Z</time>
      </trkpt>
      <trkpt lat="46.04491" lon="4.58191">
        <ele>461.880340576</ele>
        <time>2016-02-04T09:17:28.648Z</time>
      </trkpt>
      <trkpt lat="46.04499" lon="4.58193">
        <ele>460.989837646</ele>
        <time>2016-02-04T09:17:34.665Z</time>
      </trkpt>
      <trkpt lat="46.04501" lon="4.58193">
        <ele>460.846038818</ele>
        <time>2016-02-04T09:17:35.646Z</time>
      </trkpt>
      <trkpt lat="46.04509" lon="4.58195">
        <ele>460.011138916</ele>
        <time>2016-02-04T09:17:41.683Z</time>
      </trkpt>
      <trkpt lat="46.0451" lon="4.58196">
        <ele>459.870422363</ele>
        <time>2016-02-04T09:17:42.659Z</time>
      </trkpt>
      <trkpt lat="46.04518" lon="4.582">
        <ele>458.988342285</ele>
        <time>2016-02-04T09:17:49.69Z</time>
      </trkpt>
      <trkpt lat="46.04519" lon="4.58201">
        <ele>458.918762207</ele>
        <time>2016-02-04T09:17:50.657Z</time>
      </trkpt>
      <trkpt lat="46.04526" lon="4.58205">
        <ele>458.477935791</ele>
        <time>2016-02-04T09:17:56.685Z</time>
      </trkpt>
      <trkpt lat="46.04528" lon="4.58205">
        <ele>458.397491455</ele>
        <time>2016-02-04T09:17:57.658Z</time>
      </trkpt>
      <trkpt lat="46.04536" lon="4.58209">
        <ele>457.843536377</ele>
        <time>2016-02-04T09:18:03.692Z</time>
      </trkpt>
      <trkpt lat="46.04537" lon="4.5821">
        <ele>457.743621826</ele>
        <time>2016-02-04T09:18:04.657Z</time>
      </trkpt>
      <trkpt lat="46.04544" lon="4.58217">
        <ele>458.059265137</ele>
        <time>2016-02-04T09:18:11.669Z</time>
      </trkpt>
      <trkpt lat="46.04545" lon="4.58218">
        <ele>458.111968994</ele>
        <time>2016-02-04T09:18:12.657Z</time>
      </trkpt>
      <trkpt lat="46.04551" lon="4.58225">
        <ele>458.406616211</ele>
        <time>2016-02-04T09:18:18.699Z</time>
      </trkpt>
      <trkpt lat="46.04553" lon="4.58226">
        <ele>458.464416504</ele>
        <time>2016-02-04T09:18:19.649Z</time>
      </trkpt>
      <trkpt lat="46.04559" lon="4.58234">
        <ele>458.826019287</ele>
        <time>2016-02-04T09:18:25.69Z</time>
      </trkpt>
      <trkpt lat="46.0456" lon="4.58235">
        <ele>458.804870605</ele>
        <time>2016-02-04T09:18:26.658Z</time>
      </trkpt>
      <trkpt lat="46.04566" lon="4.58243">
        <ele>458.752288818</ele>
        <time>2016-02-04T09:18:32.681Z</time>
      </trkpt>
      <trkpt lat="46.04567" lon="4.58244">
        <ele>458.740600586</ele>
        <time>2016-02-04T09:18:33.657Z</time>
      </trkpt>
      <trkpt lat="46.04575" lon="4.58251">
        <ele>458.674499512</ele>
        <time>2016-02-04T09:18:40.683Z</time>
      </trkpt>
      <trkpt lat="46.04576" lon="4.58252">
        <ele>458.662017822</ele>
        <time>2016-02-04T09:18:41.658Z</time>
      </trkpt>
      <trkpt lat="46.04584" lon="4.58256">
        <ele>458.554382324</ele>
        <time>2016-02-04T09:18:47.681Z</time>
      </trkpt>
      <trkpt lat="46.04586" lon="4.58257">
        <ele>458.536560059</ele>
        <time>2016-02-04T09:18:48.662Z</time>
      </trkpt>
      <trkpt lat="46.04593" lon="4.58259">
        <ele>458.473358154</ele>
        <time>2016-02-04T09:18:55.704Z</time>
      </trkpt>
      <trkpt lat="46.04595" lon="4.58258">
        <ele>458.473052979</ele>
        <time>2016-02-04T09:18:56.661Z</time>
      </trkpt>
      <trkpt lat="46.04603" lon="4.58259">
        <ele>458.0987854</ele>
        <time>2016-02-04T09:19:03.689Z</time>
      </trkpt>
      <trkpt lat="46.04605" lon="4.5826">
        <ele>458.001525879</ele>
        <time>2016-02-04T09:19:04.661Z</time>
      </trkpt>
      <trkpt lat="46.04614" lon="4.58259">
        <ele>457.236694336</ele>
        <time>2016-02-04T09:19:12.686Z</time>
      </trkpt>
      <trkpt lat="46.04615" lon="4.58259">
        <ele>457.142913818</ele>
        <time>2016-02-04T09:19:13.662Z</time>
      </trkpt>
      <trkpt lat="46.04624" lon="4.58258">
        <ele>456.760650635</ele>
        <time>2016-02-04T09:19:18.689Z</time>
      </trkpt>
      <trkpt lat="46.04626" lon="4.58258">
        <ele>456.684204102</ele>
        <time>2016-02-04T09:19:19.665Z</time>
      </trkpt>
      <trkpt lat="46.04634" lon="4.58257">
        <ele>456.077026367</ele>
        <time>2016-02-04T09:19:26.715Z</time>
      </trkpt>
      <trkpt lat="46.04636" lon="4.58257">
        <ele>456.00894165</ele>
        <time>2016-02-04T09:19:27.664Z</time>
      </trkpt>
      <trkpt lat="46.04643" lon="4.58254">
        <ele>454.840270996</ele>
        <time>2016-02-04T09:19:39.695Z</time>
      </trkpt>
      <trkpt lat="46.04644" lon="4.58253">
        <ele>454.735443115</ele>
        <time>2016-02-04T09:19:40.67Z</time>
      </trkpt>
      <trkpt lat="46.04651" lon="4.58246">
        <ele>453.451538086</ele>
        <time>2016-02-04T09:19:53.706Z</time>
      </trkpt>
      <trkpt lat="46.04652" lon="4.58246">
        <ele>453.323608398</ele>
        <time>2016-02-04T09:19:54.663Z</time>
      </trkpt>
      <trkpt lat="46.04659" lon="4.58239">
        <ele>452.937255859</ele>
        <time>2016-02-04T09:20:05.68Z</time>
      </trkpt>
      <trkpt lat="46.0466" lon="4.58238">
        <ele>452.917938232</ele>
        <time>2016-02-04T09:20:06.669Z</time>
      </trkpt>
      <trkpt lat="46.04667" lon="4.58232">
        <ele>451.357543945</ele>
        <time>2016-02-04T09:20:16.693Z</time>
      </trkpt>
      <trkpt lat="46.04668" lon="4.58231">
        <ele>451.19619751</ele>
        <time>2016-02-04T09:20:17.667Z</time>
      </trkpt>
      <trkpt lat="46.04674" lon="4.58224">
        <ele>449.942321777</ele>
        <time>2016-02-04T09:20:24.691Z</time>
      </trkpt>
      <trkpt lat="46.04676" lon="4.58223">
        <ele>449.686218262</ele>
        <time>2016-02-04T09:20:25.668Z</time>
      </trkpt>
      <trkpt lat="46.04682" lon="4.58215">
        <ele>448.233764648</ele>
        <time>2016-02-04T09:20:32.654Z</time>
      </trkpt>
      <trkpt lat="46.04684" lon="4.58214">
        <ele>448.000396729</ele>
        <time>2016-02-04T09:20:33.64Z</time>
      </trkpt>
      <trkpt lat="46.0469" lon="4.58208">
        <ele>447.137786865</ele>
        <time>2016-02-04T09:20:37.699Z</time>
      </trkpt>
      <trkpt lat="46.04691" lon="4.58207">
        <ele>446.928283691</ele>
        <time>2016-02-04T09:20:38.647Z</time>
      </trkpt>
      <trkpt lat="46.04698" lon="4.58204">
        <ele>446.328613281</ele>
        <time>2016-02-04T09:20:42.663Z</time>
      </trkpt>
      <trkpt lat="46.047" lon="4.58203">
        <ele>446.149841309</ele>
        <time>2016-02-04T09:20:43.634Z</time>
      </trkpt>
      <trkpt lat="46.04708" lon="4.582">
        <ele>445.001464844</ele>
        <time>2016-02-04T09:20:48.653Z</time>
      </trkpt>
      <trkpt lat="46.0471" lon="4.582">
        <ele>444.732147217</ele>
        <time>2016-02-04T09:20:49.648Z</time>
      </trkpt>
      <trkpt lat="46.04718" lon="4.58196">
        <ele>443.718200684</ele>
        <time>2016-02-04T09:20:53.658Z</time>
      </trkpt>
      <trkpt lat="46.0472" lon="4.58196">
        <ele>443.538208008</ele>
        <time>2016-02-04T09:20:54.641Z</time>
      </trkpt>
      <trkpt lat="46.04728" lon="4.58193">
        <ele>442.116607666</ele>
        <time>2016-02-04T09:21:02.679Z</time>
      </trkpt>
      <trkpt lat="46.0473" lon="4.58192">
        <ele>441.920318604</ele>
        <time>2016-02-04T09:21:03.639Z</time>
      </trkpt>
      <trkpt lat="46.04738" lon="4.58191">
        <ele>440.604980469</ele>
        <time>2016-02-04T09:21:08.634Z</time>
      </trkpt>
      <trkpt lat="46.04739" lon="4.5819">
        <ele>440.332672119</ele>
        <time>2016-02-04T09:21:09.647Z</time>
      </trkpt>
      <trkpt lat="46.04747" lon="4.58186">
        <ele>438.926940918</ele>
        <time>2016-02-04T09:21:14.68Z</time>
      </trkpt>
      <trkpt lat="46.04748" lon="4.58186">
        <ele>438.634094238</ele>
        <time>2016-02-04T09:21:15.64Z</time>
      </trkpt>
      <trkpt lat="46.04753" lon="4.58177">
        <ele>436.348510742</ele>
        <time>2016-02-04T09:21:23.671Z</time>
      </trkpt>
      <trkpt lat="46.04754" lon="4.58175">
        <ele>436.097015381</ele>
        <time>2016-02-04T09:21:24.636Z</time>
      </trkpt>
      <trkpt lat="46.04755" lon="4.58163">
        <ele>434.565429688</ele>
        <time>2016-02-04T09:21:30.69Z</time>
      </trkpt>
      <trkpt lat="46.04755" lon="4.58161">
        <ele>434.317626953</ele>
        <time>2016-02-04T09:21:31.642Z</time>
      </trkpt>
      <trkpt lat="46.04754" lon="4.58149">
        <ele>432.969146729</ele>
        <time>2016-02-04T09:21:37.668Z</time>
      </trkpt>
      <trkpt lat="46.04754" lon="4.58147">
        <ele>432.743286133</ele>
        <time>2016-02-04T09:21:38.649Z</time>
      </trkpt>
      <trkpt lat="46.04753" lon="4.58136">
        <ele>431.607635498</ele>
        <time>2016-02-04T09:21:44.679Z</time>
      </trkpt>
      <trkpt lat="46.04753" lon="4.58134">
        <ele>431.44152832</ele>
        <time>2016-02-04T09:21:45.642Z</time>
      </trkpt>
      <trkpt lat="46.04751" lon="4.58121">
        <ele>430.224487305</ele>
        <time>2016-02-04T09:21:52.665Z</time>
      </trkpt>
      <trkpt lat="46.0475" lon="4.5812">
        <ele>430.063232422</ele>
        <time>2016-02-04T09:21:53.642Z</time>
      </trkpt>
      <trkpt lat="46.04749" lon="4.58109">
        <ele>429.153503418</ele>
        <time>2016-02-04T09:21:59.681Z</time>
      </trkpt>
      <trkpt lat="46.04748" lon="4.58107">
        <ele>428.996856689</ele>
        <time>2016-02-04T09:22:00.63Z</time>
      </trkpt>
      <trkpt lat="46.04744" lon="4.58096">
        <ele>428.218536377</ele>
        <time>2016-02-04T09:22:06.666Z</time>
      </trkpt>
      <trkpt lat="46.04744" lon="4.58094">
        <ele>428.042144775</ele>
        <time>2016-02-04T09:22:07.636Z</time>
      </trkpt>
      <trkpt lat="46.0474" lon="4.58082">
        <ele>426.978118896</ele>
        <time>2016-02-04T09:22:15.661Z</time>
      </trkpt>
      <trkpt lat="46.0474" lon="4.5808">
        <ele>426.879425049</ele>
        <time>2016-02-04T09:22:16.643Z</time>
      </trkpt>
      <trkpt lat="46.04737" lon="4.58068">
        <ele>425.557006836</ele>
        <time>2016-02-04T09:22:23.664Z</time>
      </trkpt>
      <trkpt lat="46.04736" lon="4.58066">
        <ele>425.378234863</ele>
        <time>2016-02-04T09:22:24.654Z</time>
      </trkpt>
      <trkpt lat="46.04733" lon="4.58055">
        <ele>424.390533447</ele>
        <time>2016-02-04T09:22:30.68Z</time>
      </trkpt>
      <trkpt lat="46.04732" lon="4.58053">
        <ele>424.202545166</ele>
        <time>2016-02-04T09:22:31.653Z</time>
      </trkpt>
      <trkpt lat="46.04727" lon="4.58042">
        <ele>422.960540771</ele>
        <time>2016-02-04T09:22:37.664Z</time>
      </trkpt>
      <trkpt lat="46.04726" lon="4.5804">
        <ele>422.749389648</ele>
        <time>2016-02-04T09:22:38.653Z</time>
      </trkpt>
      <trkpt lat="46.04721" lon="4.58031">
        <ele>421.049407959</ele>
        <time>2016-02-04T09:22:45.671Z</time>
      </trkpt>
      <trkpt lat="46.0472" lon="4.5803">
        <ele>420.811676025</ele>
        <time>2016-02-04T09:22:46.649Z</time>
      </trkpt>
      <trkpt lat="46.0472" lon="4.58018">
        <ele>419.280487061</ele>
        <time>2016-02-04T09:22:53.678Z</time>
      </trkpt>
      <trkpt lat="46.0472" lon="4.58016">
        <ele>419.070922852</ele>
        <time>2016-02-04T09:22:54.647Z</time>
      </trkpt>
      <trkpt lat="46.04724" lon="4.58005">
        <ele>417.634216309</ele>
        <time>2016-02-04T09:23:01.681Z</time>
      </trkpt>
      <trkpt lat="46.04725" lon="4.58004">
        <ele>417.467315674</ele>
        <time>2016-02-04T09:23:02.652Z</time>
      </trkpt>
      <trkpt lat="46.0473" lon="4.57994">
        <ele>416.257629395</ele>
        <time>2016-02-04T09:23:08.672Z</time>
      </trkpt>
      <trkpt lat="46.04731" lon="4.57993">
        <ele>416.067871094</ele>
        <time>2016-02-04T09:23:09.647Z</time>
      </trkpt>
      <trkpt lat="46.04736" lon="4.57983">
        <ele>414.442657471</ele>
        <time>2016-02-04T09:23:18.688Z</time>
      </trkpt>
      <trkpt lat="46.04737" lon="4.57983">
        <ele>414.186920166</ele>
        <time>2016-02-04T09:23:19.668Z</time>
      </trkpt>
      <trkpt lat="46.04745" lon="4.57979">
        <ele>413.162567139</ele>
        <time>2016-02-04T09:23:23.691Z</time>
      </trkpt>
      <trkpt lat="46.04746" lon="4.57978">
        <ele>412.919006348</ele>
        <time>2016-02-04T09:23:24.658Z</time>
      </trkpt>
      <trkpt lat="46.04753" lon="4.57972">
        <ele>411.476806641</ele>
        <time>2016-02-04T09:23:30.689Z</time>
      </trkpt>
      <trkpt lat="46.04754" lon="4.57971">
        <ele>411.272491455</ele>
        <time>2016-02-04T09:23:31.658Z</time>
      </trkpt>
      <trkpt lat="46.04761" lon="4.57963">
        <ele>409.83605957</ele>
        <time>2016-02-04T09:23:39.689Z</time>
      </trkpt>
      <trkpt lat="46.04762" lon="4.57962">
        <ele>409.660827637</ele>
        <time>2016-02-04T09:23:40.659Z</time>
      </trkpt>
      <trkpt lat="46.04768" lon="4.57955">
        <ele>408.439575195</ele>
        <time>2016-02-04T09:23:46.688Z</time>
      </trkpt>
      <trkpt lat="46.04769" lon="4.57953">
        <ele>408.24331665</ele>
        <time>2016-02-04T09:23:47.66Z</time>
      </trkpt>
      <trkpt lat="46.04774" lon="4.57944">
        <ele>407.269195557</ele>
        <time>2016-02-04T09:23:52.687Z</time>
      </trkpt>
      <trkpt lat="46.04775" lon="4.57943">
        <ele>407.059143066</ele>
        <time>2016-02-04T09:23:53.661Z</time>
      </trkpt>
      <trkpt lat="46.04776" lon="4.5793">
        <ele>405.522705078</ele>
        <time>2016-02-04T09:24:00.674Z</time>
      </trkpt>
      <trkpt lat="46.04775" lon="4.57928">
        <ele>405.321899414</ele>
        <time>2016-02-04T09:24:01.65Z</time>
      </trkpt>
      <trkpt lat="46.04769" lon="4.5792">
        <ele>404.542572021</ele>
        <time>2016-02-04T09:24:06.703Z</time>
      </trkpt>
      <trkpt lat="46.04768" lon="4.57919">
        <ele>404.432281494</ele>
        <time>2016-02-04T09:24:07.66Z</time>
      </trkpt>
      <trkpt lat="46.04763" lon="4.57912">
        <ele>403.909545898</ele>
        <time>2016-02-04T09:24:13.69Z</time>
      </trkpt>
      <trkpt lat="46.04761" lon="4.57911">
        <ele>403.854248047</ele>
        <time>2016-02-04T09:24:14.659Z</time>
      </trkpt>
      <trkpt lat="46.04755" lon="4.57904">
        <ele>403.84677124</ele>
        <time>2016-02-04T09:24:19.685Z</time>
      </trkpt>
      <trkpt lat="46.04753" lon="4.57903">
        <ele>403.817260742</ele>
        <time>2016-02-04T09:24:20.653Z</time>
      </trkpt>
      <trkpt lat="46.04746" lon="4.57897">
        <ele>403.361999512</ele>
        <time>2016-02-04T09:24:26.711Z</time>
      </trkpt>
      <trkpt lat="46.04745" lon="4.57896">
        <ele>403.293579102</ele>
        <time>2016-02-04T09:24:27.663Z</time>
      </trkpt>
      <trkpt lat="46.04737" lon="4.57889">
        <ele>403.017852783</ele>
        <time>2016-02-04T09:24:34.696Z</time>
      </trkpt>
      <trkpt lat="46.04736" lon="4.57888">
        <ele>402.952606201</ele>
        <time>2016-02-04T09:24:35.663Z</time>
      </trkpt>
      <trkpt lat="46.04728" lon="4.57881">
        <ele>402.542297363</ele>
        <time>2016-02-04T09:24:43.69Z</time>
      </trkpt>
      <trkpt lat="46.04727" lon="4.5788">
        <ele>402.484924316</ele>
        <time>2016-02-04T09:24:44.673Z</time>
      </trkpt>
      <trkpt lat="46.0472" lon="4.57873">
        <ele>401.834442139</ele>
        <time>2016-02-04T09:24:51.825Z</time>
      </trkpt>
      <trkpt lat="46.0472" lon="4.57871">
        <ele>401.731536865</ele>
        <time>2016-02-04T09:24:52.662Z</time>
      </trkpt>
      <trkpt lat="46.04718" lon="4.5786">
        <ele>400.934539795</ele>
        <time>2016-02-04T09:24:58.69Z</time>
      </trkpt>
      <trkpt lat="46.04718" lon="4.57858">
        <ele>400.783691406</ele>
        <time>2016-02-04T09:24:59.668Z</time>
      </trkpt>
      <trkpt lat="46.04721" lon="4.57846">
        <ele>399.287689209</ele>
        <time>2016-02-04T09:25:10.686Z</time>
      </trkpt>
      <trkpt lat="46.04722" lon="4.57846">
        <ele>399.229125977</ele>
        <time>2016-02-04T09:25:11.666Z</time>
      </trkpt>
      <trkpt lat="46.04728" lon="4.57839">
        <ele>398.799407959</ele>
        <time>2016-02-04T09:25:18.69Z</time>
      </trkpt>
      <trkpt lat="46.0473" lon="4.57838">
        <ele>398.68460083</ele>
        <time>2016-02-04T09:25:19.669Z</time>
      </trkpt>
      <trkpt lat="46.04737" lon="4.57834">
        <ele>398.16784668</ele>
        <time>2016-02-04T09:25:23.696Z</time>
      </trkpt>
      <trkpt lat="46.04739" lon="4.57833">
        <ele>398.029968262</ele>
        <time>2016-02-04T09:25:24.667Z</time>
      </trkpt>
      <trkpt lat="46.04748" lon="4.5783">
        <ele>397.371307373</ele>
        <time>2016-02-04T09:25:29.701Z</time>
      </trkpt>
      <trkpt lat="46.04749" lon="4.5783">
        <ele>397.22088623</ele>
        <time>2016-02-04T09:25:30.665Z</time>
      </trkpt>
      <trkpt lat="46.04757" lon="4.57827">
        <ele>396.634490967</ele>
        <time>2016-02-04T09:25:35.692Z</time>
      </trkpt>
      <trkpt lat="46.04758" lon="4.57827">
        <ele>396.558990479</ele>
        <time>2016-02-04T09:25:36.668Z</time>
      </trkpt>
      <trkpt lat="46.04767" lon="4.57825">
        <ele>396.072662354</ele>
        <time>2016-02-04T09:25:43.695Z</time>
      </trkpt>
      <trkpt lat="46.04768" lon="4.57825">
        <ele>396.04119873</ele>
        <time>2016-02-04T09:25:44.68Z</time>
      </trkpt>
      <trkpt lat="46.04776" lon="4.57822">
        <ele>395.576599121</ele>
        <time>2016-02-04T09:25:51.668Z</time>
      </trkpt>
      <trkpt lat="46.04777" lon="4.57822">
        <ele>395.540100098</ele>
        <time>2016-02-04T09:25:52.647Z</time>
      </trkpt>
      <trkpt lat="46.04786" lon="4.57821">
        <ele>395.325836182</ele>
        <time>2016-02-04T09:25:58.658Z</time>
      </trkpt>
      <trkpt lat="46.04787" lon="4.57821">
        <ele>395.26574707</ele>
        <time>2016-02-04T09:25:59.636Z</time>
      </trkpt>
      <trkpt lat="46.04795" lon="4.57822">
        <ele>394.804473877</ele>
        <time>2016-02-04T09:26:04.638Z</time>
      </trkpt>
      <trkpt lat="46.04797" lon="4.57822">
        <ele>394.697601318</ele>
        <time>2016-02-04T09:26:05.636Z</time>
      </trkpt>
      <trkpt lat="46.04804" lon="4.57821">
        <ele>394.302520752</ele>
        <time>2016-02-04T09:26:11.682Z</time>
      </trkpt>
      <trkpt lat="46.04806" lon="4.5782">
        <ele>394.247344971</ele>
        <time>2016-02-04T09:26:12.636Z</time>
      </trkpt>
      <trkpt lat="46.04814" lon="4.57816">
        <ele>393.577758789</ele>
        <time>2016-02-04T09:26:19.785Z</time>
      </trkpt>
      <trkpt lat="46.04816" lon="4.57815">
        <ele>393.459533691</ele>
        <time>2016-02-04T09:26:20.647Z</time>
      </trkpt>
      <trkpt lat="46.04824" lon="4.57811">
        <ele>392.711334229</ele>
        <time>2016-02-04T09:26:29.662Z</time>
      </trkpt>
      <trkpt lat="46.04824" lon="4.57811">
        <ele>392.709472656</ele>
        <time>2016-02-04T09:26:30.637Z</time>
      </trkpt>
      <trkpt lat="46.04831" lon="4.57806">
        <ele>392.42376709</ele>
        <time>2016-02-04T09:26:36.666Z</time>
      </trkpt>
      <trkpt lat="46.04833" lon="4.57805">
        <ele>392.344665527</ele>
        <time>2016-02-04T09:26:37.642Z</time>
      </trkpt>
      <trkpt lat="46.0484" lon="4.57799">
        <ele>391.682922363</ele>
        <time>2016-02-04T09:26:44.669Z</time>
      </trkpt>
      <trkpt lat="46.04841" lon="4.57798">
        <ele>391.610748291</ele>
        <time>2016-02-04T09:26:45.641Z</time>
      </trkpt>
      <trkpt lat="46.04849" lon="4.57795">
        <ele>391.061798096</ele>
        <time>2016-02-04T09:26:52.683Z</time>
      </trkpt>
      <trkpt lat="46.0485" lon="4.57794">
        <ele>391.002716064</ele>
        <time>2016-02-04T09:26:53.646Z</time>
      </trkpt>
      <trkpt lat="46.04858" lon="4.57792">
        <ele>390.491577148</ele>
        <time>2016-02-04T09:27:00.658Z</time>
      </trkpt>
      <trkpt lat="46.04859" lon="4.57792">
        <ele>390.387298584</ele>
        <time>2016-02-04T09:27:01.626Z</time>
      </trkpt>
      <trkpt lat="46.04868" lon="4.57789">
        <ele>388.920837402</ele>
        <time>2016-02-04T09:28:29.811Z</time>
      </trkpt>
      <trkpt lat="46.04868" lon="4.57789">
        <ele>388.922149658</ele>
        <time>2016-02-04T09:28:30.634Z</time>
      </trkpt>
      <trkpt lat="46.04875" lon="4.57796">
        <ele>388.560516357</ele>
        <time>2016-02-04T09:28:57.713Z</time>
      </trkpt>
      <trkpt lat="46.04876" lon="4.57798">
        <ele>388.48260498</ele>
        <time>2016-02-04T09:28:58.661Z</time>
      </trkpt>
      <trkpt lat="46.0488" lon="4.57809">
        <ele>387.807067871</ele>
        <time>2016-02-04T09:29:05.689Z</time>
      </trkpt>
      <trkpt lat="46.04881" lon="4.5781">
        <ele>387.748199463</ele>
        <time>2016-02-04T09:29:06.659Z</time>
      </trkpt>
      <trkpt lat="46.04886" lon="4.57818">
        <ele>387.532958984</ele>
        <time>2016-02-04T09:29:12.691Z</time>
      </trkpt>
      <trkpt lat="46.04888" lon="4.57819">
        <ele>387.50088501</ele>
        <time>2016-02-04T09:29:13.659Z</time>
      </trkpt>
      <trkpt lat="46.04895" lon="4.57824">
        <ele>387.192474365</ele>
        <time>2016-02-04T09:29:19.673Z</time>
      </trkpt>
      <trkpt lat="46.04896" lon="4.57825">
        <ele>387.125579834</ele>
        <time>2016-02-04T09:29:20.661Z</time>
      </trkpt>
      <trkpt lat="46.04904" lon="4.57829">
        <ele>386.675720215</ele>
        <time>2016-02-04T09:29:26.694Z</time>
      </trkpt>
      <trkpt lat="46.04905" lon="4.5783">
        <ele>386.582855225</ele>
        <time>2016-02-04T09:29:27.658Z</time>
      </trkpt>
      <trkpt lat="46.04914" lon="4.57834">
        <ele>386.4324646</ele>
        <time>2016-02-04T09:29:34.649Z</time>
      </trkpt>
      <trkpt lat="46.04915" lon="4.57834">
        <ele>386.413879395</ele>
        <time>2016-02-04T09:29:35.654Z</time>
      </trkpt>
      <trkpt lat="46.04924" lon="4.57835">
        <ele>386.556213379</ele>
        <time>2016-02-04T09:29:43.687Z</time>
      </trkpt>
      <trkpt lat="46.04925" lon="4.57836">
        <ele>386.555755615</ele>
        <time>2016-02-04T09:29:44.669Z</time>
      </trkpt>
      <trkpt lat="46.04933" lon="4.5784">
        <ele>386.633422852</ele>
        <time>2016-02-04T09:29:50.681Z</time>
      </trkpt>
      <trkpt lat="46.04935" lon="4.57841">
        <ele>386.695831299</ele>
        <time>2016-02-04T09:29:51.664Z</time>
      </trkpt>
      <trkpt lat="46.04943" lon="4.57846">
        <ele>386.917938232</ele>
        <time>2016-02-04T09:29:57.68Z</time>
      </trkpt>
      <trkpt lat="46.04944" lon="4.57846">
        <ele>386.893615723</ele>
        <time>2016-02-04T09:29:58.668Z</time>
      </trkpt>
      <trkpt lat="46.04952" lon="4.57853">
        <ele>386.617340088</ele>
        <time>2016-02-04T09:30:05.701Z</time>
      </trkpt>
      <trkpt lat="46.04953" lon="4.57853">
        <ele>386.596252441</ele>
        <time>2016-02-04T09:30:06.64Z</time>
      </trkpt>
      <trkpt lat="46.0496" lon="4.57858">
        <ele>386.436706543</ele>
        <time>2016-02-04T09:30:12.699Z</time>
      </trkpt>
      <trkpt lat="46.04961" lon="4.57859">
        <ele>386.380737305</ele>
        <time>2016-02-04T09:30:13.665Z</time>
      </trkpt>
      <trkpt lat="46.04968" lon="4.57866">
        <ele>386.137268066</ele>
        <time>2016-02-04T09:30:20.688Z</time>
      </trkpt>
      <trkpt lat="46.04969" lon="4.57867">
        <ele>386.122131348</ele>
        <time>2016-02-04T09:30:21.651Z</time>
      </trkpt>
      <trkpt lat="46.04976" lon="4.57873">
        <ele>386.120513916</ele>
        <time>2016-02-04T09:30:28.698Z</time>
      </trkpt>
      <trkpt lat="46.04978" lon="4.57874">
        <ele>386.129730225</ele>
        <time>2016-02-04T09:30:29.666Z</time>
      </trkpt>
      <trkpt lat="46.04985" lon="4.57879">
        <ele>386.345092773</ele>
        <time>2016-02-04T09:30:36.681Z</time>
      </trkpt>
      <trkpt lat="46.04986" lon="4.5788">
        <ele>386.387329102</ele>
        <time>2016-02-04T09:30:37.667Z</time>
      </trkpt>
      <trkpt lat="46.04994" lon="4.57887">
        <ele>386.51260376</ele>
        <time>2016-02-04T09:30:44.696Z</time>
      </trkpt>
      <trkpt lat="46.04995" lon="4.57887">
        <ele>386.532989502</ele>
        <time>2016-02-04T09:30:45.664Z</time>
      </trkpt>
      <trkpt lat="46.05003" lon="4.57885">
        <ele>387.877288818</ele>
        <time>2016-02-04T09:31:00.683Z</time>
      </trkpt>
      <trkpt lat="46.05004" lon="4.57884">
        <ele>388.061859131</ele>
        <time>2016-02-04T09:31:01.646Z</time>
      </trkpt>
      <trkpt lat="46.05007" lon="4.57872">
        <ele>389.964813232</ele>
        <time>2016-02-04T09:31:11.65Z</time>
      </trkpt>
      <trkpt lat="46.05009" lon="4.57869">
        <ele>390.095428467</ele>
        <time>2016-02-04T09:31:12.635Z</time>
      </trkpt>
      <trkpt lat="46.05014" lon="4.57859">
        <ele>390.96673584</ele>
        <time>2016-02-04T09:31:19.669Z</time>
      </trkpt>
      <trkpt lat="46.05015" lon="4.57858">
        <ele>391.053985596</ele>
        <time>2016-02-04T09:31:20.634Z</time>
      </trkpt>
      <trkpt lat="46.05018" lon="4.57847">
        <ele>391.674530029</ele>
        <time>2016-02-04T09:31:29.671Z</time>
      </trkpt>
      <trkpt lat="46.05018" lon="4.57846">
        <ele>391.72479248</ele>
        <time>2016-02-04T09:31:30.632Z</time>
      </trkpt>
      <trkpt lat="46.0502" lon="4.57834">
        <ele>391.974639893</ele>
        <time>2016-02-04T09:31:38.702Z</time>
      </trkpt>
      <trkpt lat="46.0502" lon="4.57833">
        <ele>391.97744751</ele>
        <time>2016-02-04T09:31:39.638Z</time>
      </trkpt>
      <trkpt lat="46.0502" lon="4.57821">
        <ele>392.562042236</ele>
        <time>2016-02-04T09:31:46.678Z</time>
      </trkpt>
      <trkpt lat="46.05019" lon="4.5782">
        <ele>392.67098999</ele>
        <time>2016-02-04T09:31:47.639Z</time>
      </trkpt>
      <trkpt lat="46.05018" lon="4.57807">
        <ele>393.492614746</ele>
        <time>2016-02-04T09:31:54.689Z</time>
      </trkpt>
      <trkpt lat="46.05018" lon="4.57806">
        <ele>393.639984131</ele>
        <time>2016-02-04T09:31:55.647Z</time>
      </trkpt>
      <trkpt lat="46.05014" lon="4.57795">
        <ele>395.701446533</ele>
        <time>2016-02-04T09:32:06.641Z</time>
      </trkpt>
      <trkpt lat="46.05014" lon="4.57794">
        <ele>395.876678467</ele>
        <time>2016-02-04T09:32:07.647Z</time>
      </trkpt>
      <trkpt lat="46.05011" lon="4.57784">
        <ele>396.857025146</ele>
        <time>2016-02-04T09:32:13.677Z</time>
      </trkpt>
      <trkpt lat="46.0501" lon="4.57782">
        <ele>397.062255859</ele>
        <time>2016-02-04T09:32:14.681Z</time>
      </trkpt>
      <trkpt lat="46.05007" lon="4.57772">
        <ele>399.331604004</ele>
        <time>2016-02-04T09:32:22.675Z</time>
      </trkpt>
      <trkpt lat="46.05006" lon="4.5777">
        <ele>399.628662109</ele>
        <time>2016-02-04T09:32:23.655Z</time>
      </trkpt>
      <trkpt lat="46.05005" lon="4.57759">
        <ele>401.182769775</ele>
        <time>2016-02-04T09:32:31.676Z</time>
      </trkpt>
      <trkpt lat="46.05005" lon="4.57757">
        <ele>401.372192383</ele>
        <time>2016-02-04T09:32:32.643Z</time>
      </trkpt>
      <trkpt lat="46.05004" lon="4.57745">
        <ele>402.497253418</ele>
        <time>2016-02-04T09:32:40.675Z</time>
      </trkpt>
      <trkpt lat="46.05003" lon="4.57744">
        <ele>402.609008789</ele>
        <time>2016-02-04T09:32:41.651Z</time>
      </trkpt>
      <trkpt lat="46.05001" lon="4.57731">
        <ele>403.80255127</ele>
        <time>2016-02-04T09:32:50.671Z</time>
      </trkpt>
      <trkpt lat="46.05001" lon="4.57728">
        <ele>403.926605225</ele>
        <time>2016-02-04T09:32:51.652Z</time>
      </trkpt>
      <trkpt lat="46.04998" lon="4.57716">
        <ele>405.55090332</ele>
        <time>2016-02-04T09:33:02.672Z</time>
      </trkpt>
      <trkpt lat="46.04998" lon="4.57715">
        <ele>405.696105957</ele>
        <time>2016-02-04T09:33:03.652Z</time>
      </trkpt>
      <trkpt lat="46.04995" lon="4.57705">
        <ele>406.153869629</ele>
        <time>2016-02-04T09:33:10.676Z</time>
      </trkpt>
      <trkpt lat="46.04994" lon="4.57703">
        <ele>406.194488525</ele>
        <time>2016-02-04T09:33:11.629Z</time>
      </trkpt>
      <trkpt lat="46.04988" lon="4.57693">
        <ele>406.684844971</ele>
        <time>2016-02-04T09:33:18.667Z</time>
      </trkpt>
      <trkpt lat="46.04988" lon="4.57693">
        <ele>406.774017334</ele>
        <time>2016-02-04T09:33:19.654Z</time>
      </trkpt>
      <trkpt lat="46.04982" lon="4.57684">
        <ele>407.212371826</ele>
        <time>2016-02-04T09:33:25.685Z</time>
      </trkpt>
      <trkpt lat="46.04981" lon="4.57683">
        <ele>407.310974121</ele>
        <time>2016-02-04T09:33:26.655Z</time>
      </trkpt>
      <trkpt lat="46.04973" lon="4.57679">
        <ele>408.296539307</ele>
        <time>2016-02-04T09:33:32.679Z</time>
      </trkpt>
      <trkpt lat="46.04972" lon="4.57679">
        <ele>408.462188721</ele>
        <time>2016-02-04T09:33:33.636Z</time>
      </trkpt>
      <trkpt lat="46.04964" lon="4.57677">
        <ele>409.614471436</ele>
        <time>2016-02-04T09:33:39.689Z</time>
      </trkpt>
      <trkpt lat="46.04962" lon="4.57677">
        <ele>409.791809082</ele>
        <time>2016-02-04T09:33:40.648Z</time>
      </trkpt>
      <trkpt lat="46.04954" lon="4.57675">
        <ele>410.829803467</ele>
        <time>2016-02-04T09:33:46.681Z</time>
      </trkpt>
      <trkpt lat="46.04953" lon="4.57674">
        <ele>411.054931641</ele>
        <time>2016-02-04T09:33:47.659Z</time>
      </trkpt>
      <trkpt lat="46.04945" lon="4.57672">
        <ele>412.565917969</ele>
        <time>2016-02-04T09:33:53.672Z</time>
      </trkpt>
      <trkpt lat="46.04943" lon="4.5767">
        <ele>412.817596436</ele>
        <time>2016-02-04T09:33:54.657Z</time>
      </trkpt>
      <trkpt lat="46.04937" lon="4.57661">
        <ele>414.614532471</ele>
        <time>2016-02-04T09:34:03.684Z</time>
      </trkpt>
      <trkpt lat="46.04936" lon="4.5766">
        <ele>414.707244873</ele>
        <time>2016-02-04T09:34:04.658Z</time>
      </trkpt>
      <trkpt lat="46.04933" lon="4.57649">
        <ele>415.629119873</ele>
        <time>2016-02-04T09:34:15.685Z</time>
      </trkpt>
      <trkpt lat="46.04933" lon="4.57647">
        <ele>415.678833008</ele>
        <time>2016-02-04T09:34:16.671Z</time>
      </trkpt>
      <trkpt lat="46.04933" lon="4.57635">
        <ele>415.826721191</ele>
        <time>2016-02-04T09:34:23.679Z</time>
      </trkpt>
      <trkpt lat="46.04933" lon="4.57633">
        <ele>415.845275879</ele>
        <time>2016-02-04T09:34:24.664Z</time>
      </trkpt>
      <trkpt lat="46.04931" lon="4.57621">
        <ele>416.264587402</ele>
        <time>2016-02-04T09:34:31.677Z</time>
      </trkpt>
      <trkpt lat="46.0493" lon="4.5762">
        <ele>416.367767334</ele>
        <time>2016-02-04T09:34:32.662Z</time>
      </trkpt>
      <trkpt lat="46.04931" lon="4.57608">
        <ele>417.208892822</ele>
        <time>2016-02-04T09:34:40.69Z</time>
      </trkpt>
      <trkpt lat="46.04931" lon="4.57606">
        <ele>417.321258545</ele>
        <time>2016-02-04T09:34:41.668Z</time>
      </trkpt>
      <trkpt lat="46.04931" lon="4.57595">
        <ele>418.432647705</ele>
        <time>2016-02-04T09:34:50.686Z</time>
      </trkpt>
      <trkpt lat="46.04931" lon="4.57593">
        <ele>418.600708008</ele>
        <time>2016-02-04T09:34:51.655Z</time>
      </trkpt>
      <trkpt lat="46.04931" lon="4.57581">
        <ele>420.032012939</ele>
        <time>2016-02-04T09:34:59.688Z</time>
      </trkpt>
      <trkpt lat="46.04932" lon="4.57579">
        <ele>420.204711914</ele>
        <time>2016-02-04T09:35:00.666Z</time>
      </trkpt>
      <trkpt lat="46.04932" lon="4.57567">
        <ele>421.536254883</ele>
        <time>2016-02-04T09:35:09.688Z</time>
      </trkpt>
      <trkpt lat="46.04932" lon="4.57565">
        <ele>421.683929443</ele>
        <time>2016-02-04T09:35:10.666Z</time>
      </trkpt>
      <trkpt lat="46.04933" lon="4.57553">
        <ele>422.87210083</ele>
        <time>2016-02-04T09:35:21.69Z</time>
      </trkpt>
      <trkpt lat="46.04933" lon="4.57551">
        <ele>422.97076416</ele>
        <time>2016-02-04T09:35:22.652Z</time>
      </trkpt>
      <trkpt lat="46.04933" lon="4.57539">
        <ele>424.101776123</ele>
        <time>2016-02-04T09:35:32.687Z</time>
      </trkpt>
      <trkpt lat="46.04933" lon="4.57538">
        <ele>424.210449219</ele>
        <time>2016-02-04T09:35:33.666Z</time>
      </trkpt>
      <trkpt lat="46.04934" lon="4.57526">
        <ele>425.682403564</ele>
        <time>2016-02-04T09:35:44.688Z</time>
      </trkpt>
      <trkpt lat="46.04934" lon="4.57525">
        <ele>425.8203125</ele>
        <time>2016-02-04T09:35:45.656Z</time>
      </trkpt>
      <trkpt lat="46.04936" lon="4.57513">
        <ele>427.152893066</ele>
        <time>2016-02-04T09:35:56.803Z</time>
      </trkpt>
      <trkpt lat="46.04936" lon="4.57511">
        <ele>427.278839111</ele>
        <time>2016-02-04T09:35:57.667Z</time>
      </trkpt>
      <trkpt lat="46.04938" lon="4.57499">
        <ele>428.592437744</ele>
        <time>2016-02-04T09:36:07.696Z</time>
      </trkpt>
      <trkpt lat="46.04938" lon="4.57499">
        <ele>428.710845947</ele>
        <time>2016-02-04T09:36:08.675Z</time>
      </trkpt>
      <trkpt lat="46.0494" lon="4.57486">
        <ele>429.748016357</ele>
        <time>2016-02-04T09:36:18.659Z</time>
      </trkpt>
      <trkpt lat="46.0494" lon="4.57485">
        <ele>429.883972168</ele>
        <time>2016-02-04T09:36:19.634Z</time>
      </trkpt>
      <trkpt lat="46.04943" lon="4.57473">
        <ele>431.112426758</ele>
        <time>2016-02-04T09:36:29.682Z</time>
      </trkpt>
      <trkpt lat="46.04943" lon="4.57472">
        <ele>431.246276855</ele>
        <time>2016-02-04T09:36:30.64Z</time>
      </trkpt>
      <trkpt lat="46.04946" lon="4.5746">
        <ele>432.76965332</ele>
        <time>2016-02-04T09:36:42.66Z</time>
      </trkpt>
      <trkpt lat="46.04946" lon="4.57459">
        <ele>432.91027832</ele>
        <time>2016-02-04T09:36:43.641Z</time>
      </trkpt>
      <trkpt lat="46.0495" lon="4.57448">
        <ele>434.473052979</ele>
        <time>2016-02-04T09:36:53.657Z</time>
      </trkpt>
      <trkpt lat="46.04951" lon="4.57447">
        <ele>434.664123535</ele>
        <time>2016-02-04T09:36:54.646Z</time>
      </trkpt>
      <trkpt lat="46.04955" lon="4.57435">
        <ele>435.892425537</ele>
        <time>2016-02-04T09:37:03.653Z</time>
      </trkpt>
      <trkpt lat="46.04955" lon="4.57434">
        <ele>436.004669189</ele>
        <time>2016-02-04T09:37:04.648Z</time>
      </trkpt>
      <trkpt lat="46.0496" lon="4.57423">
        <ele>436.703918457</ele>
        <time>2016-02-04T09:37:12.665Z</time>
      </trkpt>
      <trkpt lat="46.04961" lon="4.57421">
        <ele>436.787261963</ele>
        <time>2016-02-04T09:37:13.649Z</time>
      </trkpt>
      <trkpt lat="46.04965" lon="4.5741">
        <ele>437.558135986</ele>
        <time>2016-02-04T09:37:22.662Z</time>
      </trkpt>
      <trkpt lat="46.04965" lon="4.57409">
        <ele>437.632293701</ele>
        <time>2016-02-04T09:37:23.647Z</time>
      </trkpt>
      <trkpt lat="46.04971" lon="4.57399">
        <ele>438.446960449</ele>
        <time>2016-02-04T09:37:34.776Z</time>
      </trkpt>
      <trkpt lat="46.04971" lon="4.57399">
        <ele>438.497802734</ele>
        <time>2016-02-04T09:37:35.648Z</time>
      </trkpt>
      <trkpt lat="46.04976" lon="4.57389">
        <ele>439.048065186</ele>
        <time>2016-02-04T09:37:44.678Z</time>
      </trkpt>
      <trkpt lat="46.04977" lon="4.57388">
        <ele>439.145141602</ele>
        <time>2016-02-04T09:37:45.668Z</time>
      </trkpt>
      <trkpt lat="46.04982" lon="4.57378">
        <ele>440.437347412</ele>
        <time>2016-02-04T09:37:54.67Z</time>
      </trkpt>
      <trkpt lat="46.04982" lon="4.57377">
        <ele>440.603027344</ele>
        <time>2016-02-04T09:37:55.651Z</time>
      </trkpt>
      <trkpt lat="46.04986" lon="4.57367">
        <ele>443.037567139</ele>
        <time>2016-02-04T09:38:08.665Z</time>
      </trkpt>
      <trkpt lat="46.04987" lon="4.57366">
        <ele>443.238128662</ele>
        <time>2016-02-04T09:38:09.649Z</time>
      </trkpt>
      <trkpt lat="46.04992" lon="4.57356">
        <ele>446.25592041</ele>
        <time>2016-02-04T09:38:23.685Z</time>
      </trkpt>
      <trkpt lat="46.04992" lon="4.57355">
        <ele>446.508331299</ele>
        <time>2016-02-04T09:38:24.644Z</time>
      </trkpt>
      <trkpt lat="46.04997" lon="4.57346">
        <ele>448.300323486</ele>
        <time>2016-02-04T09:38:33.667Z</time>
      </trkpt>
      <trkpt lat="46.04998" lon="4.57345">
        <ele>448.473907471</ele>
        <time>2016-02-04T09:38:34.65Z</time>
      </trkpt>
      <trkpt lat="46.05003" lon="4.57335">
        <ele>451.223480225</ele>
        <time>2016-02-04T09:38:46.681Z</time>
      </trkpt>
      <trkpt lat="46.05004" lon="4.57334">
        <ele>451.469329834</ele>
        <time>2016-02-04T09:38:47.654Z</time>
      </trkpt>
      <trkpt lat="46.0501" lon="4.57326">
        <ele>453.001922607</ele>
        <time>2016-02-04T09:38:54.683Z</time>
      </trkpt>
      <trkpt lat="46.05011" lon="4.57325">
        <ele>453.150970459</ele>
        <time>2016-02-04T09:38:55.657Z</time>
      </trkpt>
      <trkpt lat="46.05015" lon="4.57315">
        <ele>454.904144287</ele>
        <time>2016-02-04T09:39:04.688Z</time>
      </trkpt>
      <trkpt lat="46.05015" lon="4.57314">
        <ele>455.106567383</ele>
        <time>2016-02-04T09:39:05.657Z</time>
      </trkpt>
      <trkpt lat="46.05022" lon="4.57307">
        <ele>456.375915527</ele>
        <time>2016-02-04T09:39:13.695Z</time>
      </trkpt>
      <trkpt lat="46.05023" lon="4.57307">
        <ele>456.529327393</ele>
        <time>2016-02-04T09:39:14.659Z</time>
      </trkpt>
      <trkpt lat="46.05031" lon="4.57303">
        <ele>457.70123291</ele>
        <time>2016-02-04T09:39:21.7Z</time>
      </trkpt>
      <trkpt lat="46.05033" lon="4.57302">
        <ele>457.876342773</ele>
        <time>2016-02-04T09:39:22.664Z</time>
      </trkpt>
      <trkpt lat="46.0504" lon="4.57298">
        <ele>458.927856445</ele>
        <time>2016-02-04T09:39:30.686Z</time>
      </trkpt>
      <trkpt lat="46.05041" lon="4.57297">
        <ele>459.112884521</ele>
        <time>2016-02-04T09:39:31.661Z</time>
      </trkpt>
      <trkpt lat="46.05048" lon="4.5729">
        <ele>460.246704102</ele>
        <time>2016-02-04T09:39:40.686Z</time>
      </trkpt>
      <trkpt lat="46.05049" lon="4.57289">
        <ele>460.370361328</ele>
        <time>2016-02-04T09:39:41.663Z</time>
      </trkpt>
      <trkpt lat="46.05054" lon="4.5728">
        <ele>461.831726074</ele>
        <time>2016-02-04T09:39:52.684Z</time>
      </trkpt>
      <trkpt lat="46.05055" lon="4.57279">
        <ele>461.964447021</ele>
        <time>2016-02-04T09:39:53.661Z</time>
      </trkpt>
      <trkpt lat="46.05061" lon="4.57271">
        <ele>466.775848389</ele>
        <time>2016-02-04T09:40:53.691Z</time>
      </trkpt>
      <trkpt lat="46.05061" lon="4.5727">
        <ele>466.974121094</ele>
        <time>2016-02-04T09:40:54.665Z</time>
      </trkpt>
      <trkpt lat="46.05065" lon="4.57258">
        <ele>468.776794434</ele>
        <time>2016-02-04T09:41:02.684Z</time>
      </trkpt>
      <trkpt lat="46.05065" lon="4.57257">
        <ele>468.973632812</ele>
        <time>2016-02-04T09:41:03.666Z</time>
      </trkpt>
      <trkpt lat="46.0507" lon="4.57246">
        <ele>470.452423096</ele>
        <time>2016-02-04T09:41:11.699Z</time>
      </trkpt>
      <trkpt lat="46.0507" lon="4.57245">
        <ele>470.56048584</ele>
        <time>2016-02-04T09:41:12.667Z</time>
      </trkpt>
      <trkpt lat="46.05076" lon="4.57236">
        <ele>471.103088379</ele>
        <time>2016-02-04T09:41:18.686Z</time>
      </trkpt>
      <trkpt lat="46.05076" lon="4.57235">
        <ele>471.17376709</ele>
        <time>2016-02-04T09:41:19.667Z</time>
      </trkpt>
      <trkpt lat="46.05081" lon="4.57226">
        <ele>471.792053223</ele>
        <time>2016-02-04T09:41:25.689Z</time>
      </trkpt>
      <trkpt lat="46.05081" lon="4.57224">
        <ele>471.906921387</ele>
        <time>2016-02-04T09:41:26.669Z</time>
      </trkpt>
      <trkpt lat="46.05086" lon="4.57215">
        <ele>472.704437256</ele>
        <time>2016-02-04T09:41:34.677Z</time>
      </trkpt>
      <trkpt lat="46.05086" lon="4.57213">
        <ele>472.803131104</ele>
        <time>2016-02-04T09:41:35.638Z</time>
      </trkpt>
      <trkpt lat="46.0509" lon="4.57203">
        <ele>473.356292725</ele>
        <time>2016-02-04T09:41:41.696Z</time>
      </trkpt>
      <trkpt lat="46.05091" lon="4.57201">
        <ele>473.437103271</ele>
        <time>2016-02-04T09:41:42.644Z</time>
      </trkpt>
      <trkpt lat="46.05095" lon="4.57191">
        <ele>474.072875977</ele>
        <time>2016-02-04T09:41:50.677Z</time>
      </trkpt>
      <trkpt lat="46.05096" lon="4.5719">
        <ele>474.09564209</ele>
        <time>2016-02-04T09:41:51.642Z</time>
      </trkpt>
      <trkpt lat="46.05099" lon="4.57179">
        <ele>474.294677734</ele>
        <time>2016-02-04T09:41:57.675Z</time>
      </trkpt>
      <trkpt lat="46.051" lon="4.57178">
        <ele>474.304595947</ele>
        <time>2016-02-04T09:41:58.646Z</time>
      </trkpt>
      <trkpt lat="46.05103" lon="4.57168">
        <ele>474.53729248</ele>
        <time>2016-02-04T09:42:03.661Z</time>
      </trkpt>
      <trkpt lat="46.05104" lon="4.57166">
        <ele>474.608428955</ele>
        <time>2016-02-04T09:42:04.644Z</time>
      </trkpt>
      <trkpt lat="46.05104" lon="4.57154">
        <ele>475.167877197</ele>
        <time>2016-02-04T09:42:12.678Z</time>
      </trkpt>
      <trkpt lat="46.05104" lon="4.57152">
        <ele>475.227813721</ele>
        <time>2016-02-04T09:42:13.645Z</time>
      </trkpt>
      <trkpt lat="46.05104" lon="4.57139">
        <ele>475.774078369</ele>
        <time>2016-02-04T09:42:21.662Z</time>
      </trkpt>
      <trkpt lat="46.05104" lon="4.57138">
        <ele>475.852600098</ele>
        <time>2016-02-04T09:42:22.636Z</time>
      </trkpt>
      <trkpt lat="46.05105" lon="4.57125">
        <ele>476.345367432</ele>
        <time>2016-02-04T09:42:30.657Z</time>
      </trkpt>
      <trkpt lat="46.05105" lon="4.57124">
        <ele>476.400665283</ele>
        <time>2016-02-04T09:42:31.636Z</time>
      </trkpt>
      <trkpt lat="46.05104" lon="4.57112">
        <ele>476.873168945</ele>
        <time>2016-02-04T09:42:40.659Z</time>
      </trkpt>
      <trkpt lat="46.05104" lon="4.5711">
        <ele>476.910308838</ele>
        <time>2016-02-04T09:42:41.64Z</time>
      </trkpt>
      <trkpt lat="46.05104" lon="4.57097">
        <ele>477.258270264</ele>
        <time>2016-02-04T09:42:49.682Z</time>
      </trkpt>
      <trkpt lat="46.05104" lon="4.57096">
        <ele>477.30267334</ele>
        <time>2016-02-04T09:42:50.638Z</time>
      </trkpt>
      <trkpt lat="46.05103" lon="4.57084">
        <ele>477.882263184</ele>
        <time>2016-02-04T09:42:59.672Z</time>
      </trkpt>
      <trkpt lat="46.05102" lon="4.57083">
        <ele>477.991668701</ele>
        <time>2016-02-04T09:43:00.649Z</time>
      </trkpt>
      <trkpt lat="46.05102" lon="4.57071">
        <ele>478.93850708</ele>
        <time>2016-02-04T09:43:09.679Z</time>
      </trkpt>
      <trkpt lat="46.05102" lon="4.57069">
        <ele>479.053985596</ele>
        <time>2016-02-04T09:43:10.639Z</time>
      </trkpt>
      <trkpt lat="46.05101" lon="4.57057">
        <ele>480.178497314</ele>
        <time>2016-02-04T09:43:19.673Z</time>
      </trkpt>
      <trkpt lat="46.05102" lon="4.57056">
        <ele>480.295837402</ele>
        <time>2016-02-04T09:43:20.649Z</time>
      </trkpt>
      <trkpt lat="46.05102" lon="4.57044">
        <ele>481.32989502</ele>
        <time>2016-02-04T09:43:28.681Z</time>
      </trkpt>
      <trkpt lat="46.05102" lon="4.57042">
        <ele>481.466674805</ele>
        <time>2016-02-04T09:43:29.643Z</time>
      </trkpt>
      <trkpt lat="46.05102" lon="4.5703">
        <ele>482.544891357</ele>
        <time>2016-02-04T09:43:38.721Z</time>
      </trkpt>
      <trkpt lat="46.05102" lon="4.57029">
        <ele>482.624725342</ele>
        <time>2016-02-04T09:43:39.652Z</time>
      </trkpt>
      <trkpt lat="46.05105" lon="4.57017">
        <ele>483.490356445</ele>
        <time>2016-02-04T09:43:47.667Z</time>
      </trkpt>
      <trkpt lat="46.05106" lon="4.57016">
        <ele>483.604278564</ele>
        <time>2016-02-04T09:43:48.654Z</time>
      </trkpt>
      <trkpt lat="46.05112" lon="4.57009">
        <ele>484.360656738</ele>
        <time>2016-02-04T09:43:55.66Z</time>
      </trkpt>
      <trkpt lat="46.05113" lon="4.57008">
        <ele>484.420562744</ele>
        <time>2016-02-04T09:43:56.655Z</time>
      </trkpt>
      <trkpt lat="46.05121" lon="4.57002">
        <ele>484.571472168</ele>
        <time>2016-02-04T09:44:04.685Z</time>
      </trkpt>
      <trkpt lat="46.05122" lon="4.57002">
        <ele>484.595245361</ele>
        <time>2016-02-04T09:44:05.651Z</time>
      </trkpt>
      <trkpt lat="46.05129" lon="4.56994">
        <ele>485.263275146</ele>
        <time>2016-02-04T09:44:15.688Z</time>
      </trkpt>
      <trkpt lat="46.0513" lon="4.56993">
        <ele>485.337371826</ele>
        <time>2016-02-04T09:44:16.647Z</time>
      </trkpt>
      <trkpt lat="46.05136" lon="4.56986">
        <ele>486.393157959</ele>
        <time>2016-02-04T09:44:26.687Z</time>
      </trkpt>
      <trkpt lat="46.05137" lon="4.56985">
        <ele>486.543701172</ele>
        <time>2016-02-04T09:44:27.665Z</time>
      </trkpt>
      <trkpt lat="46.05143" lon="4.56976">
        <ele>488.112884521</ele>
        <time>2016-02-04T09:44:37.689Z</time>
      </trkpt>
      <trkpt lat="46.05144" lon="4.56975">
        <ele>488.271972656</ele>
        <time>2016-02-04T09:44:38.66Z</time>
      </trkpt>
      <trkpt lat="46.05149" lon="4.56965">
        <ele>489.407531738</ele>
        <time>2016-02-04T09:44:45.687Z</time>
      </trkpt>
      <trkpt lat="46.0515" lon="4.56964">
        <ele>489.546264648</ele>
        <time>2016-02-04T09:44:46.654Z</time>
      </trkpt>
      <trkpt lat="46.05154" lon="4.56954">
        <ele>491.210021973</ele>
        <time>2016-02-04T09:44:57.696Z</time>
      </trkpt>
      <trkpt lat="46.05154" lon="4.56952">
        <ele>491.433410645</ele>
        <time>2016-02-04T09:44:58.659Z</time>
      </trkpt>
      <trkpt lat="46.05158" lon="4.56942">
        <ele>493.508331299</ele>
        <time>2016-02-04T09:45:07.697Z</time>
      </trkpt>
      <trkpt lat="46.05159" lon="4.56941">
        <ele>493.681762695</ele>
        <time>2016-02-04T09:45:08.661Z</time>
      </trkpt>
      <trkpt lat="46.05162" lon="4.56929">
        <ele>494.86416626</ele>
        <time>2016-02-04T09:45:15.703Z</time>
      </trkpt>
      <trkpt lat="46.05162" lon="4.56928">
        <ele>495.066986084</ele>
        <time>2016-02-04T09:45:16.66Z</time>
      </trkpt>
      <trkpt lat="46.05163" lon="4.56915">
        <ele>496.828765869</ele>
        <time>2016-02-04T09:45:26.69Z</time>
      </trkpt>
      <trkpt lat="46.05164" lon="4.56914">
        <ele>496.971221924</ele>
        <time>2016-02-04T09:45:27.661Z</time>
      </trkpt>
      <trkpt lat="46.05165" lon="4.56902">
        <ele>498.166687012</ele>
        <time>2016-02-04T09:45:35.682Z</time>
      </trkpt>
      <trkpt lat="46.05166" lon="4.569">
        <ele>498.351867676</ele>
        <time>2016-02-04T09:45:36.653Z</time>
      </trkpt>
      <trkpt lat="46.05167" lon="4.56888">
        <ele>499.869781494</ele>
        <time>2016-02-04T09:45:46.69Z</time>
      </trkpt>
      <trkpt lat="46.05167" lon="4.56887">
        <ele>499.983123779</ele>
        <time>2016-02-04T09:45:47.642Z</time>
      </trkpt>
      <trkpt lat="46.0517" lon="4.56875">
        <ele>501.674194336</ele>
        <time>2016-02-04T09:46:02.652Z</time>
      </trkpt>
      <trkpt lat="46.0517" lon="4.56873">
        <ele>501.845672607</ele>
        <time>2016-02-04T09:46:03.664Z</time>
      </trkpt>
      <trkpt lat="46.05171" lon="4.5686">
        <ele>503.170074463</ele>
        <time>2016-02-04T09:46:11.685Z</time>
      </trkpt>
      <trkpt lat="46.05171" lon="4.56859">
        <ele>503.323822021</ele>
        <time>2016-02-04T09:46:12.641Z</time>
      </trkpt>
      <trkpt lat="46.05172" lon="4.56847">
        <ele>504.59552002</ele>
        <time>2016-02-04T09:46:20.693Z</time>
      </trkpt>
      <trkpt lat="46.05172" lon="4.56845">
        <ele>504.774047852</ele>
        <time>2016-02-04T09:46:21.669Z</time>
      </trkpt>
      <trkpt lat="46.05172" lon="4.56833">
        <ele>506.267822266</ele>
        <time>2016-02-04T09:46:29.698Z</time>
      </trkpt>
      <trkpt lat="46.05172" lon="4.56832">
        <ele>506.476257324</ele>
        <time>2016-02-04T09:46:30.671Z</time>
      </trkpt>
      <trkpt lat="46.05172" lon="4.56819">
        <ele>507.968353271</ele>
        <time>2016-02-04T09:46:38.696Z</time>
      </trkpt>
      <trkpt lat="46.05172" lon="4.56817">
        <ele>508.168365479</ele>
        <time>2016-02-04T09:46:39.652Z</time>
      </trkpt>
      <trkpt lat="46.05172" lon="4.56806">
        <ele>509.377593994</ele>
        <time>2016-02-04T09:46:46.773Z</time>
      </trkpt>
      <trkpt lat="46.05173" lon="4.56803">
        <ele>509.573181152</ele>
        <time>2016-02-04T09:46:47.638Z</time>
      </trkpt>
      <trkpt lat="46.05175" lon="4.56791">
        <ele>510.609588623</ele>
        <time>2016-02-04T09:46:55.653Z</time>
      </trkpt>
      <trkpt lat="46.05175" lon="4.56789">
        <ele>510.726867676</ele>
        <time>2016-02-04T09:46:56.634Z</time>
      </trkpt>
      <trkpt lat="46.05175" lon="4.56777">
        <ele>511.851898193</ele>
        <time>2016-02-04T09:47:05.663Z</time>
      </trkpt>
      <trkpt lat="46.05175" lon="4.56775">
        <ele>511.983581543</ele>
        <time>2016-02-04T09:47:06.634Z</time>
      </trkpt>
      <trkpt lat="46.05176" lon="4.56764">
        <ele>513.001708984</ele>
        <time>2016-02-04T09:47:14.657Z</time>
      </trkpt>
      <trkpt lat="46.05177" lon="4.56762">
        <ele>513.135314941</ele>
        <time>2016-02-04T09:47:15.644Z</time>
      </trkpt>
      <trkpt lat="46.0518" lon="4.56751">
        <ele>514.190490723</ele>
        <time>2016-02-04T09:47:22.658Z</time>
      </trkpt>
      <trkpt lat="46.05181" lon="4.5675">
        <ele>514.348266602</ele>
        <time>2016-02-04T09:47:23.636Z</time>
      </trkpt>
      <trkpt lat="46.05187" lon="4.56743">
        <ele>515.196411133</ele>
        <time>2016-02-04T09:47:29.662Z</time>
      </trkpt>
      <trkpt lat="46.05188" lon="4.56742">
        <ele>515.284790039</ele>
        <time>2016-02-04T09:47:30.656Z</time>
      </trkpt>
      <trkpt lat="46.05188" lon="4.5673">
        <ele>516.099365234</ele>
        <time>2016-02-04T09:47:39.68Z</time>
      </trkpt>
      <trkpt lat="46.05187" lon="4.56729">
        <ele>516.209777832</ele>
        <time>2016-02-04T09:47:40.64Z</time>
      </trkpt>
      <trkpt lat="46.05185" lon="4.56717">
        <ele>516.947387695</ele>
        <time>2016-02-04T09:47:47.678Z</time>
      </trkpt>
      <trkpt lat="46.05185" lon="4.56715">
        <ele>517.071472168</ele>
        <time>2016-02-04T09:47:48.676Z</time>
      </trkpt>
      <trkpt lat="46.05181" lon="4.56704">
        <ele>517.901794434</ele>
        <time>2016-02-04T09:47:55.67Z</time>
      </trkpt>
      <trkpt lat="46.05181" lon="4.56702">
        <ele>518.027770996</ele>
        <time>2016-02-04T09:47:56.65Z</time>
      </trkpt>
      <trkpt lat="46.05179" lon="4.5669">
        <ele>519.009216309</ele>
        <time>2016-02-04T09:48:04.683Z</time>
      </trkpt>
      <trkpt lat="46.05179" lon="4.56688">
        <ele>519.140441895</ele>
        <time>2016-02-04T09:48:05.644Z</time>
      </trkpt>
      <trkpt lat="46.05177" lon="4.56676">
        <ele>519.965026855</ele>
        <time>2016-02-04T09:48:12.638Z</time>
      </trkpt>
      <trkpt lat="46.05176" lon="4.56675">
        <ele>520.070251465</ele>
        <time>2016-02-04T09:48:13.641Z</time>
      </trkpt>
      <trkpt lat="46.05171" lon="4.56666">
        <ele>520.641845703</ele>
        <time>2016-02-04T09:48:19.705Z</time>
      </trkpt>
      <trkpt lat="46.0517" lon="4.56664">
        <ele>520.746337891</ele>
        <time>2016-02-04T09:48:20.658Z</time>
      </trkpt>
      <trkpt lat="46.05164" lon="4.56654">
        <ele>521.184875488</ele>
        <time>2016-02-04T09:48:27.66Z</time>
      </trkpt>
      <trkpt lat="46.05163" lon="4.56652">
        <ele>521.351257324</ele>
        <time>2016-02-04T09:48:28.642Z</time>
      </trkpt>
      <trkpt lat="46.05157" lon="4.56643">
        <ele>522.137084961</ele>
        <time>2016-02-04T09:48:33.688Z</time>
      </trkpt>
      <trkpt lat="46.05156" lon="4.56642">
        <ele>522.246704102</ele>
        <time>2016-02-04T09:48:34.644Z</time>
      </trkpt>
      <trkpt lat="46.05151" lon="4.56635">
        <ele>522.710021973</ele>
        <time>2016-02-04T09:48:42.76Z</time>
      </trkpt>
      <trkpt lat="46.0515" lon="4.56632">
        <ele>522.775512695</ele>
        <time>2016-02-04T09:48:43.648Z</time>
      </trkpt>
      <trkpt lat="46.05145" lon="4.56623">
        <ele>523.258972168</ele>
        <time>2016-02-04T09:48:50.693Z</time>
      </trkpt>
      <trkpt lat="46.05144" lon="4.56621">
        <ele>523.353210449</ele>
        <time>2016-02-04T09:48:51.647Z</time>
      </trkpt>
      <trkpt lat="46.0514" lon="4.56612">
        <ele>523.641723633</ele>
        <time>2016-02-04T09:48:58.673Z</time>
      </trkpt>
      <trkpt lat="46.05139" lon="4.5661">
        <ele>523.680236816</ele>
        <time>2016-02-04T09:48:59.644Z</time>
      </trkpt>
      <trkpt lat="46.05133" lon="4.566">
        <ele>523.919555664</ele>
        <time>2016-02-04T09:49:06.664Z</time>
      </trkpt>
      <trkpt lat="46.05132" lon="4.56599">
        <ele>523.950073242</ele>
        <time>2016-02-04T09:49:07.643Z</time>
      </trkpt>
      <trkpt lat="46.05128" lon="4.5659">
        <ele>524.165588379</ele>
        <time>2016-02-04T09:49:13.674Z</time>
      </trkpt>
      <trkpt lat="46.05127" lon="4.56588">
        <ele>524.191589355</ele>
        <time>2016-02-04T09:49:14.645Z</time>
      </trkpt>
      <trkpt lat="46.05122" lon="4.56578">
        <ele>524.44934082</ele>
        <time>2016-02-04T09:49:20.692Z</time>
      </trkpt>
      <trkpt lat="46.05121" lon="4.56577">
        <ele>524.469238281</ele>
        <time>2016-02-04T09:49:21.65Z</time>
      </trkpt>
      <trkpt lat="46.05117" lon="4.56566">
        <ele>524.725341797</ele>
        <time>2016-02-04T09:49:28.664Z</time>
      </trkpt>
      <trkpt lat="46.05116" lon="4.56564">
        <ele>524.774414062</ele>
        <time>2016-02-04T09:49:29.646Z</time>
      </trkpt>
      <trkpt lat="46.05114" lon="4.56553">
        <ele>525.141052246</ele>
        <time>2016-02-04T09:49:37.674Z</time>
      </trkpt>
      <trkpt lat="46.05114" lon="4.56551">
        <ele>525.234985352</ele>
        <time>2016-02-04T09:49:38.66Z</time>
      </trkpt>
      <trkpt lat="46.05112" lon="4.56539">
        <ele>525.81262207</ele>
        <time>2016-02-04T09:49:45.67Z</time>
      </trkpt>
      <trkpt lat="46.05111" lon="4.56537">
        <ele>525.913330078</ele>
        <time>2016-02-04T09:49:46.647Z</time>
      </trkpt>
      <trkpt lat="46.05108" lon="4.56525">
        <ele>526.629211426</ele>
        <time>2016-02-04T09:49:53.685Z</time>
      </trkpt>
      <trkpt lat="46.05108" lon="4.56524">
        <ele>526.740661621</ele>
        <time>2016-02-04T09:49:54.643Z</time>
      </trkpt>
      <trkpt lat="46.05108" lon="4.56511">
        <ele>527.712524414</ele>
        <time>2016-02-04T09:50:02.66Z</time>
      </trkpt>
      <trkpt lat="46.05107" lon="4.5651">
        <ele>527.801879883</ele>
        <time>2016-02-04T09:50:03.649Z</time>
      </trkpt>
      <trkpt lat="46.05104" lon="4.56499">
        <ele>528.338378906</ele>
        <time>2016-02-04T09:50:10.692Z</time>
      </trkpt>
      <trkpt lat="46.05104" lon="4.56498">
        <ele>528.439453125</ele>
        <time>2016-02-04T09:50:11.655Z</time>
      </trkpt>
      <trkpt lat="46.05102" lon="4.56486">
        <ele>529.174743652</ele>
        <time>2016-02-04T09:50:19.679Z</time>
      </trkpt>
      <trkpt lat="46.05101" lon="4.56484">
        <ele>529.292419434</ele>
        <time>2016-02-04T09:50:20.658Z</time>
      </trkpt>
      <trkpt lat="46.05099" lon="4.56473">
        <ele>530.501403809</ele>
        <time>2016-02-04T09:50:28.684Z</time>
      </trkpt>
      <trkpt lat="46.05099" lon="4.56471">
        <ele>530.640319824</ele>
        <time>2016-02-04T09:50:29.644Z</time>
      </trkpt>
      <trkpt lat="46.05094" lon="4.56461">
        <ele>531.52355957</ele>
        <time>2016-02-04T09:50:36.686Z</time>
      </trkpt>
      <trkpt lat="46.05093" lon="4.5646">
        <ele>531.727905273</ele>
        <time>2016-02-04T09:50:37.664Z</time>
      </trkpt>
      <trkpt lat="46.05087" lon="4.56451">
        <ele>534.08996582</ele>
        <time>2016-02-04T09:50:44.687Z</time>
      </trkpt>
      <trkpt lat="46.05086" lon="4.56449">
        <ele>534.404602051</ele>
        <time>2016-02-04T09:50:45.667Z</time>
      </trkpt>
      <trkpt lat="46.05082" lon="4.56439">
        <ele>535.936340332</ele>
        <time>2016-02-04T09:50:52.693Z</time>
      </trkpt>
      <trkpt lat="46.05081" lon="4.56437">
        <ele>536.010070801</ele>
        <time>2016-02-04T09:50:53.662Z</time>
      </trkpt>
      <trkpt lat="46.05079" lon="4.56427">
        <ele>536.237304688</ele>
        <time>2016-02-04T09:51:00.69Z</time>
      </trkpt>
      <trkpt lat="46.05079" lon="4.56425">
        <ele>536.289550781</ele>
        <time>2016-02-04T09:51:01.669Z</time>
      </trkpt>
      <trkpt lat="46.05075" lon="4.56415">
        <ele>536.663574219</ele>
        <time>2016-02-04T09:51:08.688Z</time>
      </trkpt>
      <trkpt lat="46.05074" lon="4.56413">
        <ele>536.719055176</ele>
        <time>2016-02-04T09:51:09.662Z</time>
      </trkpt>
      <trkpt lat="46.05072" lon="4.56401">
        <ele>537.228759766</ele>
        <time>2016-02-04T09:51:16.688Z</time>
      </trkpt>
      <trkpt lat="46.05071" lon="4.564">
        <ele>537.346008301</ele>
        <time>2016-02-04T09:51:17.666Z</time>
      </trkpt>
      <trkpt lat="46.0507" lon="4.56387">
        <ele>538.280029297</ele>
        <time>2016-02-04T09:51:25.822Z</time>
      </trkpt>
      <trkpt lat="46.0507" lon="4.56386">
        <ele>538.401245117</ele>
        <time>2016-02-04T09:51:26.664Z</time>
      </trkpt>
      <trkpt lat="46.05069" lon="4.56373">
        <ele>539.375366211</ele>
        <time>2016-02-04T09:51:34.688Z</time>
      </trkpt>
      <trkpt lat="46.05069" lon="4.56371">
        <ele>539.497436523</ele>
        <time>2016-02-04T09:51:35.666Z</time>
      </trkpt>
      <trkpt lat="46.05067" lon="4.56359">
        <ele>540.543518066</ele>
        <time>2016-02-04T09:51:43.706Z</time>
      </trkpt>
      <trkpt lat="46.05067" lon="4.56357">
        <ele>540.677734375</ele>
        <time>2016-02-04T09:51:44.663Z</time>
      </trkpt>
      <trkpt lat="46.05064" lon="4.56346">
        <ele>541.683044434</ele>
        <time>2016-02-04T09:51:52.868Z</time>
      </trkpt>
      <trkpt lat="46.05064" lon="4.56345">
        <ele>541.80078125</ele>
        <time>2016-02-04T09:51:53.655Z</time>
      </trkpt>
      <trkpt lat="46.05061" lon="4.56333">
        <ele>543.096740723</ele>
        <time>2016-02-04T09:52:01.668Z</time>
      </trkpt>
      <trkpt lat="46.0506" lon="4.56332">
        <ele>543.204406738</ele>
        <time>2016-02-04T09:52:02.656Z</time>
      </trkpt>
      <trkpt lat="46.05058" lon="4.5632">
        <ele>543.817565918</ele>
        <time>2016-02-04T09:52:09.65Z</time>
      </trkpt>
      <trkpt lat="46.05057" lon="4.56319">
        <ele>543.916137695</ele>
        <time>2016-02-04T09:52:10.633Z</time>
      </trkpt>
      <trkpt lat="46.05054" lon="4.56307">
        <ele>544.802734375</ele>
        <time>2016-02-04T09:52:18.661Z</time>
      </trkpt>
      <trkpt lat="46.05053" lon="4.56305">
        <ele>544.917785645</ele>
        <time>2016-02-04T09:52:19.639Z</time>
      </trkpt>
      <trkpt lat="46.0505" lon="4.56295">
        <ele>545.913635254</ele>
        <time>2016-02-04T09:52:28.648Z</time>
      </trkpt>
      <trkpt lat="46.0505" lon="4.56293">
        <ele>546.026000977</ele>
        <time>2016-02-04T09:52:29.644Z</time>
      </trkpt>
      <trkpt lat="46.05047" lon="4.56282">
        <ele>546.442199707</ele>
        <time>2016-02-04T09:52:37.633Z</time>
      </trkpt>
      <trkpt lat="46.05046" lon="4.5628">
        <ele>546.450256348</ele>
        <time>2016-02-04T09:52:38.639Z</time>
      </trkpt>
      <trkpt lat="46.05042" lon="4.5627">
        <ele>546.733825684</ele>
        <time>2016-02-04T09:52:45.659Z</time>
      </trkpt>
      <trkpt lat="46.05041" lon="4.56269">
        <ele>546.797912598</ele>
        <time>2016-02-04T09:52:46.646Z</time>
      </trkpt>
      <trkpt lat="46.05036" lon="4.56259">
        <ele>547.362915039</ele>
        <time>2016-02-04T09:52:53.652Z</time>
      </trkpt>
      <trkpt lat="46.05035" lon="4.56258">
        <ele>547.462524414</ele>
        <time>2016-02-04T09:52:54.64Z</time>
      </trkpt>
      <trkpt lat="46.05033" lon="4.56247">
        <ele>548.176025391</ele>
        <time>2016-02-04T09:53:02.654Z</time>
      </trkpt>
      <trkpt lat="46.05033" lon="4.56245">
        <ele>548.284667969</ele>
        <time>2016-02-04T09:53:03.623Z</time>
      </trkpt>
      <trkpt lat="46.05033" lon="4.56233">
        <ele>548.779541016</ele>
        <time>2016-02-04T09:53:10.678Z</time>
      </trkpt>
      <trkpt lat="46.05033" lon="4.56231">
        <ele>548.81829834</ele>
        <time>2016-02-04T09:53:11.637Z</time>
      </trkpt>
      <trkpt lat="46.05033" lon="4.56219">
        <ele>549.167541504</ele>
        <time>2016-02-04T09:53:18.656Z</time>
      </trkpt>
      <trkpt lat="46.05033" lon="4.56216">
        <ele>549.271728516</ele>
        <time>2016-02-04T09:53:19.636Z</time>
      </trkpt>
      <trkpt lat="46.05029" lon="4.56204">
        <ele>549.71661377</ele>
        <time>2016-02-04T09:53:25.67Z</time>
      </trkpt>
      <trkpt lat="46.05029" lon="4.56203">
        <ele>549.78125</ele>
        <time>2016-02-04T09:53:26.642Z</time>
      </trkpt>
      <trkpt lat="46.05028" lon="4.5619">
        <ele>551.245117188</ele>
        <time>2016-02-04T09:53:36.669Z</time>
      </trkpt>
      <trkpt lat="46.05028" lon="4.56189">
        <ele>551.376037598</ele>
        <time>2016-02-04T09:53:37.638Z</time>
      </trkpt>
      <trkpt lat="46.05026" lon="4.56176">
        <ele>552.225769043</ele>
        <time>2016-02-04T09:53:44.677Z</time>
      </trkpt>
      <trkpt lat="46.05026" lon="4.56174">
        <ele>552.331359863</ele>
        <time>2016-02-04T09:53:45.642Z</time>
      </trkpt>
      <trkpt lat="46.05022" lon="4.56162">
        <ele>553.121398926</ele>
        <time>2016-02-04T09:53:52.655Z</time>
      </trkpt>
      <trkpt lat="46.05022" lon="4.5616">
        <ele>553.247131348</ele>
        <time>2016-02-04T09:53:53.65Z</time>
      </trkpt>
      <trkpt lat="46.05018" lon="4.56149">
        <ele>554.150939941</ele>
        <time>2016-02-04T09:54:00.788Z</time>
      </trkpt>
      <trkpt lat="46.05018" lon="4.56147">
        <ele>554.294494629</ele>
        <time>2016-02-04T09:54:01.642Z</time>
      </trkpt>
      <trkpt lat="46.05016" lon="4.56136">
        <ele>555.236633301</ele>
        <time>2016-02-04T09:54:09.675Z</time>
      </trkpt>
      <trkpt lat="46.05015" lon="4.56134">
        <ele>555.348327637</ele>
        <time>2016-02-04T09:54:10.651Z</time>
      </trkpt>
      <trkpt lat="46.0501" lon="4.56123">
        <ele>556.418334961</ele>
        <time>2016-02-04T09:54:18.659Z</time>
      </trkpt>
      <trkpt lat="46.05009" lon="4.56121">
        <ele>556.55670166</ele>
        <time>2016-02-04T09:54:19.652Z</time>
      </trkpt>
      <trkpt lat="46.05007" lon="4.56109">
        <ele>557.469238281</ele>
        <time>2016-02-04T09:54:27.668Z</time>
      </trkpt>
      <trkpt lat="46.05007" lon="4.56107">
        <ele>557.568969727</ele>
        <time>2016-02-04T09:54:28.649Z</time>
      </trkpt>
      <trkpt lat="46.05007" lon="4.56095">
        <ele>558.251098633</ele>
        <time>2016-02-04T09:54:35.687Z</time>
      </trkpt>
      <trkpt lat="46.05006" lon="4.56093">
        <ele>558.33770752</ele>
        <time>2016-02-04T09:54:36.676Z</time>
      </trkpt>
      <trkpt lat="46.05006" lon="4.56081">
        <ele>558.947937012</ele>
        <time>2016-02-04T09:54:43.682Z</time>
      </trkpt>
      <trkpt lat="46.05005" lon="4.5608">
        <ele>559.049499512</ele>
        <time>2016-02-04T09:54:44.644Z</time>
      </trkpt>
      <trkpt lat="46.05004" lon="4.56067">
        <ele>559.840698242</ele>
        <time>2016-02-04T09:54:52.669Z</time>
      </trkpt>
      <trkpt lat="46.05004" lon="4.56065">
        <ele>559.935119629</ele>
        <time>2016-02-04T09:54:53.645Z</time>
      </trkpt>
      <trkpt lat="46.05004" lon="4.56054">
        <ele>560.410949707</ele>
        <time>2016-02-04T09:55:01.663Z</time>
      </trkpt>
      <trkpt lat="46.05004" lon="4.56052">
        <ele>560.453918457</ele>
        <time>2016-02-04T09:55:02.657Z</time>
      </trkpt>
      <trkpt lat="46.05004" lon="4.5604">
        <ele>560.823547363</ele>
        <time>2016-02-04T09:55:09.696Z</time>
      </trkpt>
      <trkpt lat="46.05004" lon="4.56039">
        <ele>560.89642334</ele>
        <time>2016-02-04T09:55:10.646Z</time>
      </trkpt>
      <trkpt lat="46.05003" lon="4.56027">
        <ele>561.523193359</ele>
        <time>2016-02-04T09:55:19.647Z</time>
      </trkpt>
      <trkpt lat="46.05003" lon="4.56025">
        <ele>561.599609375</ele>
        <time>2016-02-04T09:55:20.664Z</time>
      </trkpt>
      <trkpt lat="46.05003" lon="4.56013">
        <ele>562.443115234</ele>
        <time>2016-02-04T09:55:29.685Z</time>
      </trkpt>
      <trkpt lat="46.05003" lon="4.56012">
        <ele>562.547546387</ele>
        <time>2016-02-04T09:55:30.659Z</time>
      </trkpt>
      <trkpt lat="46.05001" lon="4.56002">
        <ele>563.347961426</ele>
        <time>2016-02-04T09:55:37.687Z</time>
      </trkpt>
      <trkpt lat="46.05" lon="4.56">
        <ele>563.467224121</ele>
        <time>2016-02-04T09:55:38.668Z</time>
      </trkpt>
      <trkpt lat="46.04995" lon="4.55989">
        <ele>565.016052246</ele>
        <time>2016-02-04T09:55:49.677Z</time>
      </trkpt>
      <trkpt lat="46.04995" lon="4.55988">
        <ele>565.153137207</ele>
        <time>2016-02-04T09:55:50.667Z</time>
      </trkpt>
      <trkpt lat="46.04994" lon="4.55975">
        <ele>566.63885498</ele>
        <time>2016-02-04T09:56:02.698Z</time>
      </trkpt>
      <trkpt lat="46.04994" lon="4.55974">
        <ele>566.711120605</ele>
        <time>2016-02-04T09:56:03.637Z</time>
      </trkpt>
      <trkpt lat="46.04995" lon="4.55962">
        <ele>567.735839844</ele>
        <time>2016-02-04T09:56:14.68Z</time>
      </trkpt>
      <trkpt lat="46.04995" lon="4.5596">
        <ele>567.82598877</ele>
        <time>2016-02-04T09:56:15.661Z</time>
      </trkpt>
      <trkpt lat="46.04996" lon="4.55948">
        <ele>569.067993164</ele>
        <time>2016-02-04T09:56:23.678Z</time>
      </trkpt>
      <trkpt lat="46.04996" lon="4.55947">
        <ele>569.226623535</ele>
        <time>2016-02-04T09:56:24.653Z</time>
      </trkpt>
      <trkpt lat="46.04998" lon="4.55936">
        <ele>570.860046387</ele>
        <time>2016-02-04T09:56:34.65Z</time>
      </trkpt>
      <trkpt lat="46.04998" lon="4.55935">
        <ele>571.017211914</ele>
        <time>2016-02-04T09:56:35.667Z</time>
      </trkpt>
      <trkpt lat="46.04997" lon="4.55922">
        <ele>573.268737793</ele>
        <time>2016-02-04T09:56:47.693Z</time>
      </trkpt>
      <trkpt lat="46.04997" lon="4.55921">
        <ele>573.447021484</ele>
        <time>2016-02-04T09:56:48.664Z</time>
      </trkpt>
      <trkpt lat="46.05" lon="4.5591">
        <ele>574.955871582</ele>
        <time>2016-02-04T09:56:57.689Z</time>
      </trkpt>
      <trkpt lat="46.05001" lon="4.55908">
        <ele>575.197937012</ele>
        <time>2016-02-04T09:56:58.668Z</time>
      </trkpt>
      <trkpt lat="46.05004" lon="4.55896">
        <ele>577.055541992</ele>
        <time>2016-02-04T09:57:06.708Z</time>
      </trkpt>
      <trkpt lat="46.05005" lon="4.55894">
        <ele>577.279846191</ele>
        <time>2016-02-04T09:57:07.665Z</time>
      </trkpt>
      <trkpt lat="46.05009" lon="4.55883">
        <ele>579.179992676</ele>
        <time>2016-02-04T09:57:20.647Z</time>
      </trkpt>
      <trkpt lat="46.05009" lon="4.55882">
        <ele>579.236572266</ele>
        <time>2016-02-04T09:57:21.632Z</time>
      </trkpt>
      <trkpt lat="46.05012" lon="4.5587">
        <ele>580.16003418</ele>
        <time>2016-02-04T09:57:31.647Z</time>
      </trkpt>
      <trkpt lat="46.05012" lon="4.55868">
        <ele>580.269348145</ele>
        <time>2016-02-04T09:57:32.644Z</time>
      </trkpt>
      <trkpt lat="46.05014" lon="4.55857">
        <ele>581.289367676</ele>
        <time>2016-02-04T09:57:41.651Z</time>
      </trkpt>
      <trkpt lat="46.05014" lon="4.55855">
        <ele>581.40814209</ele>
        <time>2016-02-04T09:57:42.648Z</time>
      </trkpt>
      <trkpt lat="46.05015" lon="4.55844">
        <ele>582.543518066</ele>
        <time>2016-02-04T09:57:51.648Z</time>
      </trkpt>
      <trkpt lat="46.05015" lon="4.55842">
        <ele>582.681884766</ele>
        <time>2016-02-04T09:57:52.634Z</time>
      </trkpt>
      <trkpt lat="46.05015" lon="4.5583">
        <ele>584.08795166</ele>
        <time>2016-02-04T09:58:04.651Z</time>
      </trkpt>
      <trkpt lat="46.05015" lon="4.55829">
        <ele>584.204345703</ele>
        <time>2016-02-04T09:58:05.633Z</time>
      </trkpt>
      <trkpt lat="46.05019" lon="4.55818">
        <ele>585.667053223</ele>
        <time>2016-02-04T09:58:15.655Z</time>
      </trkpt>
      <trkpt lat="46.05019" lon="4.55817">
        <ele>585.797668457</ele>
        <time>2016-02-04T09:58:16.634Z</time>
      </trkpt>
      <trkpt lat="46.0502" lon="4.55804">
        <ele>587.287719727</ele>
        <time>2016-02-04T09:58:27.678Z</time>
      </trkpt>
      <trkpt lat="46.0502" lon="4.55803">
        <ele>587.415161133</ele>
        <time>2016-02-04T09:58:28.655Z</time>
      </trkpt>
      <trkpt lat="46.0502" lon="4.55791">
        <ele>588.90032959</ele>
        <time>2016-02-04T09:58:38.659Z</time>
      </trkpt>
      <trkpt lat="46.0502" lon="4.5579">
        <ele>589.048095703</ele>
        <time>2016-02-04T09:58:39.641Z</time>
      </trkpt>
      <trkpt lat="46.05023" lon="4.55777">
        <ele>591.104064941</ele>
        <time>2016-02-04T09:58:51.654Z</time>
      </trkpt>
      <trkpt lat="46.05023" lon="4.55776">
        <ele>591.280273438</ele>
        <time>2016-02-04T09:58:52.646Z</time>
      </trkpt>
      <trkpt lat="46.05026" lon="4.55765">
        <ele>593.05456543</ele>
        <time>2016-02-04T09:59:03.662Z</time>
      </trkpt>
      <trkpt lat="46.05026" lon="4.55764">
        <ele>593.181884766</ele>
        <time>2016-02-04T09:59:04.637Z</time>
      </trkpt>
      <trkpt lat="46.0503" lon="4.55753">
        <ele>594.758056641</ele>
        <time>2016-02-04T09:59:15.659Z</time>
      </trkpt>
      <trkpt lat="46.0503" lon="4.55751">
        <ele>594.928466797</ele>
        <time>2016-02-04T09:59:16.645Z</time>
      </trkpt>
      <trkpt lat="46.05032" lon="4.55739">
        <ele>596.491455078</ele>
        <time>2016-02-04T09:59:27.705Z</time>
      </trkpt>
      <trkpt lat="46.05032" lon="4.55738">
        <ele>596.638305664</ele>
        <time>2016-02-04T09:59:28.649Z</time>
      </trkpt>
      <trkpt lat="46.05031" lon="4.55726">
        <ele>597.970092773</ele>
        <time>2016-02-04T09:59:37.663Z</time>
      </trkpt>
      <trkpt lat="46.05031" lon="4.55724">
        <ele>598.123779297</ele>
        <time>2016-02-04T09:59:38.65Z</time>
      </trkpt>
      <trkpt lat="46.0503" lon="4.55712">
        <ele>599.766662598</ele>
        <time>2016-02-04T09:59:47.663Z</time>
      </trkpt>
      <trkpt lat="46.0503" lon="4.55711">
        <ele>599.942565918</ele>
        <time>2016-02-04T09:59:48.668Z</time>
      </trkpt>
      <trkpt lat="46.05029" lon="4.55699">
        <ele>601.5234375</ele>
        <time>2016-02-04T09:59:57.667Z</time>
      </trkpt>
      <trkpt lat="46.05029" lon="4.55697">
        <ele>601.692626953</ele>
        <time>2016-02-04T09:59:58.645Z</time>
      </trkpt>
      <trkpt lat="46.05027" lon="4.55685">
        <ele>603.137390137</ele>
        <time>2016-02-04T10:00:07.656Z</time>
      </trkpt>
      <trkpt lat="46.05027" lon="4.55684">
        <ele>603.304992676</ele>
        <time>2016-02-04T10:00:08.651Z</time>
      </trkpt>
      <trkpt lat="46.05025" lon="4.55672">
        <ele>604.797790527</ele>
        <time>2016-02-04T10:00:18.663Z</time>
      </trkpt>
      <trkpt lat="46.05024" lon="4.5567">
        <ele>604.942321777</ele>
        <time>2016-02-04T10:00:19.647Z</time>
      </trkpt>
      <trkpt lat="46.05023" lon="4.55657">
        <ele>606.374206543</ele>
        <time>2016-02-04T10:00:28.668Z</time>
      </trkpt>
      <trkpt lat="46.05023" lon="4.55656">
        <ele>606.529846191</ele>
        <time>2016-02-04T10:00:29.645Z</time>
      </trkpt>
      <trkpt lat="46.0502" lon="4.55645">
        <ele>607.737670898</ele>
        <time>2016-02-04T10:00:37.687Z</time>
      </trkpt>
      <trkpt lat="46.0502" lon="4.55643">
        <ele>607.85144043</ele>
        <time>2016-02-04T10:00:38.652Z</time>
      </trkpt>
      <trkpt lat="46.05018" lon="4.55631">
        <ele>608.917236328</ele>
        <time>2016-02-04T10:00:47.672Z</time>
      </trkpt>
      <trkpt lat="46.05017" lon="4.5563">
        <ele>609.022705078</ele>
        <time>2016-02-04T10:00:48.652Z</time>
      </trkpt>
      <trkpt lat="46.05013" lon="4.55618">
        <ele>609.71282959</ele>
        <time>2016-02-04T10:00:56.665Z</time>
      </trkpt>
      <trkpt lat="46.05013" lon="4.55617">
        <ele>609.824462891</ele>
        <time>2016-02-04T10:00:57.658Z</time>
      </trkpt>
      <trkpt lat="46.05011" lon="4.55606">
        <ele>610.672668457</ele>
        <time>2016-02-04T10:01:06.799Z</time>
      </trkpt>
      <trkpt lat="46.0501" lon="4.55604">
        <ele>610.779052734</ele>
        <time>2016-02-04T10:01:07.647Z</time>
      </trkpt>
      <trkpt lat="46.05008" lon="4.55592">
        <ele>611.585327148</ele>
        <time>2016-02-04T10:01:15.669Z</time>
      </trkpt>
      <trkpt lat="46.05007" lon="4.55591">
        <ele>611.674621582</ele>
        <time>2016-02-04T10:01:16.653Z</time>
      </trkpt>
      <trkpt lat="46.05006" lon="4.55578">
        <ele>612.402893066</ele>
        <time>2016-02-04T10:01:25.672Z</time>
      </trkpt>
      <trkpt lat="46.05006" lon="4.55576">
        <ele>612.49798584</ele>
        <time>2016-02-04T10:01:26.653Z</time>
      </trkpt>
      <trkpt lat="46.05005" lon="4.55565">
        <ele>613.315917969</ele>
        <time>2016-02-04T10:01:33.684Z</time>
      </trkpt>
      <trkpt lat="46.05005" lon="4.55563">
        <ele>613.450317383</ele>
        <time>2016-02-04T10:01:34.659Z</time>
      </trkpt>
      <trkpt lat="46.05003" lon="4.55551">
        <ele>614.543334961</ele>
        <time>2016-02-04T10:01:43.708Z</time>
      </trkpt>
      <trkpt lat="46.05003" lon="4.55549">
        <ele>614.687683105</ele>
        <time>2016-02-04T10:01:44.667Z</time>
      </trkpt>
      <trkpt lat="46.04999" lon="4.55538">
        <ele>615.568969727</ele>
        <time>2016-02-04T10:01:51.677Z</time>
      </trkpt>
      <trkpt lat="46.04998" lon="4.55537">
        <ele>615.701782227</ele>
        <time>2016-02-04T10:01:52.664Z</time>
      </trkpt>
      <trkpt lat="46.04994" lon="4.55527">
        <ele>616.904541016</ele>
        <time>2016-02-04T10:02:02.69Z</time>
      </trkpt>
      <trkpt lat="46.04993" lon="4.55525">
        <ele>617.007446289</ele>
        <time>2016-02-04T10:02:03.667Z</time>
      </trkpt>
      <trkpt lat="46.04991" lon="4.55515">
        <ele>618.473144531</ele>
        <time>2016-02-04T10:02:10.694Z</time>
      </trkpt>
      <trkpt lat="46.0499" lon="4.55513">
        <ele>618.707824707</ele>
        <time>2016-02-04T10:02:11.667Z</time>
      </trkpt>
      <trkpt lat="46.04988" lon="4.55501">
        <ele>620.164123535</ele>
        <time>2016-02-04T10:02:18.694Z</time>
      </trkpt>
      <trkpt lat="46.04988" lon="4.555">
        <ele>620.385375977</ele>
        <time>2016-02-04T10:02:19.669Z</time>
      </trkpt>
      <trkpt lat="46.04986" lon="4.55489">
        <ele>621.722595215</ele>
        <time>2016-02-04T10:02:26.705Z</time>
      </trkpt>
      <trkpt lat="46.04986" lon="4.55487">
        <ele>621.912719727</ele>
        <time>2016-02-04T10:02:27.668Z</time>
      </trkpt>
      <trkpt lat="46.04984" lon="4.55476">
        <ele>623.165222168</ele>
        <time>2016-02-04T10:02:34.772Z</time>
      </trkpt>
      <trkpt lat="46.04984" lon="4.55474">
        <ele>623.344604492</ele>
        <time>2016-02-04T10:02:35.642Z</time>
      </trkpt>
      <trkpt lat="46.04982" lon="4.55462">
        <ele>625.017700195</ele>
        <time>2016-02-04T10:02:44.657Z</time>
      </trkpt>
      <trkpt lat="46.04981" lon="4.5546">
        <ele>625.208374023</ele>
        <time>2016-02-04T10:02:45.673Z</time>
      </trkpt>
      <trkpt lat="46.04978" lon="4.55448">
        <ele>626.535339355</ele>
        <time>2016-02-04T10:02:53.663Z</time>
      </trkpt>
      <trkpt lat="46.04978" lon="4.55447">
        <ele>626.678466797</ele>
        <time>2016-02-04T10:02:54.634Z</time>
      </trkpt>
      <trkpt lat="46.04975" lon="4.55436">
        <ele>627.965148926</ele>
        <time>2016-02-04T10:03:02.673Z</time>
      </trkpt>
      <trkpt lat="46.04975" lon="4.55434">
        <ele>628.108398438</ele>
        <time>2016-02-04T10:03:03.635Z</time>
      </trkpt>
      <trkpt lat="46.04975" lon="4.55422">
        <ele>629.019348145</ele>
        <time>2016-02-04T10:03:12.67Z</time>
      </trkpt>
      <trkpt lat="46.04975" lon="4.5542">
        <ele>629.093566895</ele>
        <time>2016-02-04T10:03:13.647Z</time>
      </trkpt>
      <trkpt lat="46.04974" lon="4.55409">
        <ele>629.867736816</ele>
        <time>2016-02-04T10:03:20.652Z</time>
      </trkpt>
      <trkpt lat="46.04974" lon="4.55407">
        <ele>629.992858887</ele>
        <time>2016-02-04T10:03:21.641Z</time>
      </trkpt>
      <trkpt lat="46.04972" lon="4.55395">
        <ele>630.954162598</ele>
        <time>2016-02-04T10:03:29.657Z</time>
      </trkpt>
      <trkpt lat="46.04972" lon="4.55394">
        <ele>631.082580566</ele>
        <time>2016-02-04T10:03:30.642Z</time>
      </trkpt>
      <trkpt lat="46.04971" lon="4.55381">
        <ele>632.203613281</ele>
        <time>2016-02-04T10:03:41.691Z</time>
      </trkpt>
      <trkpt lat="46.04972" lon="4.5538">
        <ele>632.260925293</ele>
        <time>2016-02-04T10:03:42.642Z</time>
      </trkpt>
      <trkpt lat="46.04978" lon="4.5537">
        <ele>634.97076416</ele>
        <time>2016-02-04T10:04:17.67Z</time>
      </trkpt>
      <trkpt lat="46.04978" lon="4.5537">
        <ele>634.972900391</ele>
        <time>2016-02-04T10:04:18.641Z</time>
      </trkpt>
      <trkpt lat="46.04983" lon="4.55361">
        <ele>639.250915527</ele>
        <time>2016-02-04T10:08:21.661Z</time>
      </trkpt>
      <trkpt lat="46.04983" lon="4.5536">
        <ele>639.362060547</ele>
        <time>2016-02-04T10:08:22.634Z</time>
      </trkpt>
      <trkpt lat="46.04987" lon="4.5535">
        <ele>639.909057617</ele>
        <time>2016-02-04T10:08:29.667Z</time>
      </trkpt>
      <trkpt lat="46.04988" lon="4.55348">
        <ele>639.976379395</ele>
        <time>2016-02-04T10:08:30.635Z</time>
      </trkpt>
      <trkpt lat="46.04991" lon="4.55336">
        <ele>640.657409668</ele>
        <time>2016-02-04T10:08:39.662Z</time>
      </trkpt>
      <trkpt lat="46.04991" lon="4.55335">
        <ele>640.671691895</ele>
        <time>2016-02-04T10:08:40.639Z</time>
      </trkpt>
      <trkpt lat="46.04993" lon="4.55323">
        <ele>641.385803223</ele>
        <time>2016-02-04T10:08:48.663Z</time>
      </trkpt>
      <trkpt lat="46.04994" lon="4.55321">
        <ele>641.469848633</ele>
        <time>2016-02-04T10:08:49.636Z</time>
      </trkpt>
      <trkpt lat="46.04996" lon="4.55308">
        <ele>641.967895508</ele>
        <time>2016-02-04T10:08:56.708Z</time>
      </trkpt>
      <trkpt lat="46.04996" lon="4.55307">
        <ele>642.072692871</ele>
        <time>2016-02-04T10:08:57.647Z</time>
      </trkpt>
      <trkpt lat="46.04997" lon="4.55295">
        <ele>642.430603027</ele>
        <time>2016-02-04T10:09:03.695Z</time>
      </trkpt>
      <trkpt lat="46.04997" lon="4.55293">
        <ele>642.48034668</ele>
        <time>2016-02-04T10:09:04.647Z</time>
      </trkpt>
      <trkpt lat="46.04999" lon="4.5528">
        <ele>642.878295898</ele>
        <time>2016-02-04T10:09:10.66Z</time>
      </trkpt>
      <trkpt lat="46.05" lon="4.55279">
        <ele>642.935180664</ele>
        <time>2016-02-04T10:09:11.642Z</time>
      </trkpt>
      <trkpt lat="46.05001" lon="4.55267">
        <ele>643.097839355</ele>
        <time>2016-02-04T10:09:18.671Z</time>
      </trkpt>
      <trkpt lat="46.05001" lon="4.55265">
        <ele>643.137878418</ele>
        <time>2016-02-04T10:09:19.666Z</time>
      </trkpt>
      <trkpt lat="46.05001" lon="4.55253">
        <ele>643.66192627</ele>
        <time>2016-02-04T10:09:26.677Z</time>
      </trkpt>
      <trkpt lat="46.05001" lon="4.55251">
        <ele>643.775695801</ele>
        <time>2016-02-04T10:09:27.649Z</time>
      </trkpt>
      <trkpt lat="46.05" lon="4.55238">
        <ele>644.463256836</ele>
        <time>2016-02-04T10:09:34.672Z</time>
      </trkpt>
      <trkpt lat="46.05" lon="4.55236">
        <ele>644.585571289</ele>
        <time>2016-02-04T10:09:35.638Z</time>
      </trkpt>
      <trkpt lat="46.05001" lon="4.55225">
        <ele>645.519165039</ele>
        <time>2016-02-04T10:09:41.664Z</time>
      </trkpt>
      <trkpt lat="46.05002" lon="4.55223">
        <ele>645.574707031</ele>
        <time>2016-02-04T10:09:42.649Z</time>
      </trkpt>
      <trkpt lat="46.05001" lon="4.55211">
        <ele>645.692321777</ele>
        <time>2016-02-04T10:09:48.668Z</time>
      </trkpt>
      <trkpt lat="46.05" lon="4.55209">
        <ele>645.65612793</ele>
        <time>2016-02-04T10:09:49.642Z</time>
      </trkpt>
      <trkpt lat="46.05001" lon="4.55198">
        <ele>645.672790527</ele>
        <time>2016-02-04T10:09:55.675Z</time>
      </trkpt>
      <trkpt lat="46.05" lon="4.55196">
        <ele>645.630554199</ele>
        <time>2016-02-04T10:09:56.644Z</time>
      </trkpt>
      <trkpt lat="46.04997" lon="4.55185">
        <ele>645.905578613</ele>
        <time>2016-02-04T10:10:03.675Z</time>
      </trkpt>
      <trkpt lat="46.04995" lon="4.55184">
        <ele>646.026855469</ele>
        <time>2016-02-04T10:10:04.65Z</time>
      </trkpt>
      <trkpt lat="46.04988" lon="4.55176">
        <ele>646.513244629</ele>
        <time>2016-02-04T10:10:10.025Z</time>
      </trkpt>
      <trkpt lat="46.04987" lon="4.55174">
        <ele>646.57409668</ele>
        <time>2016-02-04T10:10:10.628Z</time>
      </trkpt>
      <trkpt lat="46.04983" lon="4.55165">
        <ele>646.871643066</ele>
        <time>2016-02-04T10:10:14.683Z</time>
      </trkpt>
      <trkpt lat="46.04982" lon="4.55162">
        <ele>647.021057129</ele>
        <time>2016-02-04T10:10:15.649Z</time>
      </trkpt>
      <trkpt lat="46.04978" lon="4.55152">
        <ele>647.411193848</ele>
        <time>2016-02-04T10:10:23.678Z</time>
      </trkpt>
      <trkpt lat="46.04978" lon="4.5515">
        <ele>647.393981934</ele>
        <time>2016-02-04T10:10:24.653Z</time>
      </trkpt>
      <trkpt lat="46.04977" lon="4.55139">
        <ele>648.105529785</ele>
        <time>2016-02-04T10:10:31.693Z</time>
      </trkpt>
      <trkpt lat="46.04977" lon="4.55135">
        <ele>648.208618164</ele>
        <time>2016-02-04T10:10:32.662Z</time>
      </trkpt>
      <trkpt lat="46.04976" lon="4.55123">
        <ele>648.358947754</ele>
        <time>2016-02-04T10:10:37.678Z</time>
      </trkpt>
      <trkpt lat="46.04975" lon="4.55121">
        <ele>648.307250977</ele>
        <time>2016-02-04T10:10:38.7Z</time>
      </trkpt>
      <trkpt lat="46.04976" lon="4.55109">
        <ele>647.971069336</ele>
        <time>2016-02-04T10:10:45.702Z</time>
      </trkpt>
      <trkpt lat="46.04976" lon="4.55106">
        <ele>647.837890625</ele>
        <time>2016-02-04T10:10:46.652Z</time>
      </trkpt>
      <trkpt lat="46.04978" lon="4.55096">
        <ele>647.345214844</ele>
        <time>2016-02-04T10:10:50.684Z</time>
      </trkpt>
      <trkpt lat="46.04979" lon="4.55093">
        <ele>647.337768555</ele>
        <time>2016-02-04T10:10:51.654Z</time>
      </trkpt>
      <trkpt lat="46.04978" lon="4.5508">
        <ele>647.310180664</ele>
        <time>2016-02-04T10:11:00.688Z</time>
      </trkpt>
      <trkpt lat="46.04978" lon="4.55079">
        <ele>647.286010742</ele>
        <time>2016-02-04T10:11:01.653Z</time>
      </trkpt>
      <trkpt lat="46.04976" lon="4.55068">
        <ele>646.866088867</ele>
        <time>2016-02-04T10:11:07.686Z</time>
      </trkpt>
      <trkpt lat="46.04975" lon="4.55065">
        <ele>646.83807373</ele>
        <time>2016-02-04T10:11:08.657Z</time>
      </trkpt>
      <trkpt lat="46.04973" lon="4.55053">
        <ele>646.487121582</ele>
        <time>2016-02-04T10:11:17.683Z</time>
      </trkpt>
      <trkpt lat="46.04972" lon="4.55051">
        <ele>646.442321777</ele>
        <time>2016-02-04T10:11:18.668Z</time>
      </trkpt>
      <trkpt lat="46.0497" lon="4.55041">
        <ele>645.093994141</ele>
        <time>2016-02-04T10:11:29.68Z</time>
      </trkpt>
      <trkpt lat="46.0497" lon="4.55038">
        <ele>645.102905273</ele>
        <time>2016-02-04T10:11:30.646Z</time>
      </trkpt>
      <trkpt lat="46.04967" lon="4.55029">
        <ele>644.62286377</ele>
        <time>2016-02-04T10:11:37.711Z</time>
      </trkpt>
      <trkpt lat="46.04966" lon="4.55024">
        <ele>644.456420898</ele>
        <time>2016-02-04T10:11:38.66Z</time>
      </trkpt>
      <trkpt lat="46.04965" lon="4.55015">
        <ele>644.075866699</ele>
        <time>2016-02-04T10:11:40.681Z</time>
      </trkpt>
      <trkpt lat="46.04964" lon="4.55011">
        <ele>643.793518066</ele>
        <time>2016-02-04T10:11:41.659Z</time>
      </trkpt>
      <trkpt lat="46.04964" lon="4.55002">
        <ele>643.282531738</ele>
        <time>2016-02-04T10:11:43.678Z</time>
      </trkpt>
      <trkpt lat="46.04964" lon="4.54998">
        <ele>643.08795166</ele>
        <time>2016-02-04T10:11:44.665Z</time>
      </trkpt>
      <trkpt lat="46.04967" lon="4.54986">
        <ele>642.206176758</ele>
        <time>2016-02-04T10:11:49.685Z</time>
      </trkpt>
      <trkpt lat="46.04968" lon="4.54983">
        <ele>642.081420898</ele>
        <time>2016-02-04T10:11:50.66Z</time>
      </trkpt>
      <trkpt lat="46.0497" lon="4.54973">
        <ele>641.74041748</ele>
        <time>2016-02-04T10:11:57.706Z</time>
      </trkpt>
      <trkpt lat="46.04971" lon="4.54969">
        <ele>641.665100098</ele>
        <time>2016-02-04T10:11:58.659Z</time>
      </trkpt>
      <trkpt lat="46.04975" lon="4.54959">
        <ele>641.481140137</ele>
        <time>2016-02-04T10:12:04.659Z</time>
      </trkpt>
      <trkpt lat="46.04975" lon="4.54958">
        <ele>641.459838867</ele>
        <time>2016-02-04T10:12:05.662Z</time>
      </trkpt>
      <trkpt lat="46.0498" lon="4.5495">
        <ele>641.042541504</ele>
        <time>2016-02-04T10:12:10.683Z</time>
      </trkpt>
      <trkpt lat="46.04981" lon="4.54948">
        <ele>640.989929199</ele>
        <time>2016-02-04T10:12:11.663Z</time>
      </trkpt>
      <trkpt lat="46.04986" lon="4.5494">
        <ele>641.249511719</ele>
        <time>2016-02-04T10:12:17.685Z</time>
      </trkpt>
      <trkpt lat="46.04988" lon="4.54938">
        <ele>641.323547363</ele>
        <time>2016-02-04T10:12:18.661Z</time>
      </trkpt>
      <trkpt lat="46.04996" lon="4.5493">
        <ele>641.694335938</ele>
        <time>2016-02-04T10:12:24.682Z</time>
      </trkpt>
      <trkpt lat="46.04998" lon="4.54929">
        <ele>641.81829834</ele>
        <time>2016-02-04T10:12:25.665Z</time>
      </trkpt>
      <trkpt lat="46.05005" lon="4.54926">
        <ele>642.798339844</ele>
        <time>2016-02-04T10:12:32.702Z</time>
      </trkpt>
      <trkpt lat="46.05007" lon="4.54926">
        <ele>643.052734375</ele>
        <time>2016-02-04T10:12:33.66Z</time>
      </trkpt>
      <trkpt lat="46.05013" lon="4.54919">
        <ele>643.949768066</ele>
        <time>2016-02-04T10:12:39.687Z</time>
      </trkpt>
      <trkpt lat="46.05014" lon="4.54918">
        <ele>643.961547852</ele>
        <time>2016-02-04T10:12:40.66Z</time>
      </trkpt>
      <trkpt lat="46.05022" lon="4.54914">
        <ele>643.64666748</ele>
        <time>2016-02-04T10:12:48.681Z</time>
      </trkpt>
      <trkpt lat="46.05024" lon="4.54914">
        <ele>643.498657227</ele>
        <time>2016-02-04T10:12:49.664Z</time>
      </trkpt>
      <trkpt lat="46.05032" lon="4.54911">
        <ele>643.234680176</ele>
        <time>2016-02-04T10:12:53.704Z</time>
      </trkpt>
      <trkpt lat="46.05034" lon="4.54912">
        <ele>643.201049805</ele>
        <time>2016-02-04T10:12:54.659Z</time>
      </trkpt>
      <trkpt lat="46.05041" lon="4.5491">
        <ele>643.184020996</ele>
        <time>2016-02-04T10:12:55.69Z</time>
      </trkpt>
      <trkpt lat="46.05045" lon="4.54908">
        <ele>643.131652832</ele>
        <time>2016-02-04T10:12:56.668Z</time>
      </trkpt>
      <trkpt lat="46.05052" lon="4.54906">
        <ele>642.963256836</ele>
        <time>2016-02-04T10:12:59.686Z</time>
      </trkpt>
      <trkpt lat="46.05053" lon="4.54905">
        <ele>642.870178223</ele>
        <time>2016-02-04T10:13:00.665Z</time>
      </trkpt>
      <trkpt lat="46.05062" lon="4.54902">
        <ele>642.617675781</ele>
        <time>2016-02-04T10:13:05.66Z</time>
      </trkpt>
      <trkpt lat="46.05063" lon="4.54902">
        <ele>642.610656738</ele>
        <time>2016-02-04T10:13:06.631Z</time>
      </trkpt>
      <trkpt lat="46.0507" lon="4.54895">
        <ele>642.606323242</ele>
        <time>2016-02-04T10:13:11.664Z</time>
      </trkpt>
      <trkpt lat="46.05071" lon="4.54894">
        <ele>642.598571777</ele>
        <time>2016-02-04T10:13:12.653Z</time>
      </trkpt>
      <trkpt lat="46.05075" lon="4.54888">
        <ele>642.662597656</ele>
        <time>2016-02-04T10:13:17.674Z</time>
      </trkpt>
      <trkpt lat="46.05078" lon="4.54886">
        <ele>642.676330566</ele>
        <time>2016-02-04T10:13:18.638Z</time>
      </trkpt>
      <trkpt lat="46.05083" lon="4.54875">
        <ele>641.657958984</ele>
        <time>2016-02-04T10:13:24.659Z</time>
      </trkpt>
      <trkpt lat="46.05084" lon="4.54873">
        <ele>641.452697754</ele>
        <time>2016-02-04T10:13:25.638Z</time>
      </trkpt>
      <trkpt lat="46.05085" lon="4.54862">
        <ele>640.246459961</ele>
        <time>2016-02-04T10:13:31.664Z</time>
      </trkpt>
      <trkpt lat="46.05085" lon="4.54859">
        <ele>639.96270752</ele>
        <time>2016-02-04T10:13:32.64Z</time>
      </trkpt>
      <trkpt lat="46.05084" lon="4.54847">
        <ele>637.639587402</ele>
        <time>2016-02-04T10:13:40.661Z</time>
      </trkpt>
      <trkpt lat="46.05084" lon="4.54846">
        <ele>637.460754395</ele>
        <time>2016-02-04T10:13:41.634Z</time>
      </trkpt>
      <trkpt lat="46.05084" lon="4.54838">
        <ele>636.963989258</ele>
        <time>2016-02-04T10:13:45.649Z</time>
      </trkpt>
      <trkpt lat="46.05085" lon="4.54832">
        <ele>636.909606934</ele>
        <time>2016-02-04T10:13:46.643Z</time>
      </trkpt>
      <trkpt lat="46.05085" lon="4.5482">
        <ele>636.423278809</ele>
        <time>2016-02-04T10:13:51.679Z</time>
      </trkpt>
      <trkpt lat="46.05085" lon="4.54817">
        <ele>636.214904785</ele>
        <time>2016-02-04T10:13:52.644Z</time>
      </trkpt>
      <trkpt lat="46.05088" lon="4.54805">
        <ele>634.730773926</ele>
        <time>2016-02-04T10:13:59.677Z</time>
      </trkpt>
      <trkpt lat="46.05088" lon="4.54803">
        <ele>634.557434082</ele>
        <time>2016-02-04T10:14:00.646Z</time>
      </trkpt>
      <trkpt lat="46.05089" lon="4.5479">
        <ele>633.526550293</ele>
        <time>2016-02-04T10:14:06.686Z</time>
      </trkpt>
      <trkpt lat="46.0509" lon="4.54788">
        <ele>633.444091797</ele>
        <time>2016-02-04T10:14:07.67Z</time>
      </trkpt>
      <trkpt lat="46.05091" lon="4.54775">
        <ele>633.267272949</ele>
        <time>2016-02-04T10:14:14.666Z</time>
      </trkpt>
      <trkpt lat="46.05091" lon="4.54773">
        <ele>633.161315918</ele>
        <time>2016-02-04T10:14:15.65Z</time>
      </trkpt>
      <trkpt lat="46.05091" lon="4.54762">
        <ele>633.038818359</ele>
        <time>2016-02-04T10:14:21.669Z</time>
      </trkpt>
      <trkpt lat="46.0509" lon="4.54759">
        <ele>632.94354248</ele>
        <time>2016-02-04T10:14:22.642Z</time>
      </trkpt>
      <trkpt lat="46.05089" lon="4.54747">
        <ele>630.516113281</ele>
        <time>2016-02-04T10:14:35.664Z</time>
      </trkpt>
      <trkpt lat="46.05088" lon="4.54743">
        <ele>630.29296875</ele>
        <time>2016-02-04T10:14:36.64Z</time>
      </trkpt>
      <trkpt lat="46.05086" lon="4.54732">
        <ele>629.317504883</ele>
        <time>2016-02-04T10:14:41.672Z</time>
      </trkpt>
      <trkpt lat="46.05086" lon="4.54729">
        <ele>629.114074707</ele>
        <time>2016-02-04T10:14:42.648Z</time>
      </trkpt>
      <trkpt lat="46.05084" lon="4.54719">
        <ele>628.254760742</ele>
        <time>2016-02-04T10:14:46.677Z</time>
      </trkpt>
      <trkpt lat="46.05083" lon="4.54714">
        <ele>628.072692871</ele>
        <time>2016-02-04T10:14:47.632Z</time>
      </trkpt>
      <trkpt lat="46.05083" lon="4.54702">
        <ele>627.149291992</ele>
        <time>2016-02-04T10:14:52.671Z</time>
      </trkpt>
      <trkpt lat="46.05081" lon="4.54699">
        <ele>626.981323242</ele>
        <time>2016-02-04T10:14:53.65Z</time>
      </trkpt>
      <trkpt lat="46.05077" lon="4.54689">
        <ele>625.19317627</ele>
        <time>2016-02-04T10:15:02.717Z</time>
      </trkpt>
      <trkpt lat="46.05077" lon="4.54687">
        <ele>625.03894043</ele>
        <time>2016-02-04T10:15:03.649Z</time>
      </trkpt>
      <trkpt lat="46.05076" lon="4.54674">
        <ele>624.350585938</ele>
        <time>2016-02-04T10:15:09.676Z</time>
      </trkpt>
      <trkpt lat="46.05076" lon="4.54673">
        <ele>624.249267578</ele>
        <time>2016-02-04T10:15:10.65Z</time>
      </trkpt>
      <trkpt lat="46.05079" lon="4.54663">
        <ele>623.879882812</ele>
        <time>2016-02-04T10:15:17.677Z</time>
      </trkpt>
      <trkpt lat="46.05078" lon="4.54661">
        <ele>623.786132812</ele>
        <time>2016-02-04T10:15:18.644Z</time>
      </trkpt>
      <trkpt lat="46.05075" lon="4.54651">
        <ele>623.713928223</ele>
        <time>2016-02-04T10:15:23.674Z</time>
      </trkpt>
      <trkpt lat="46.05075" lon="4.54648">
        <ele>623.725463867</ele>
        <time>2016-02-04T10:15:24.644Z</time>
      </trkpt>
      <trkpt lat="46.05074" lon="4.54637">
        <ele>623.43170166</ele>
        <time>2016-02-04T10:15:29.673Z</time>
      </trkpt>
      <trkpt lat="46.05074" lon="4.54634">
        <ele>623.325744629</ele>
        <time>2016-02-04T10:15:30.651Z</time>
      </trkpt>
      <trkpt lat="46.05076" lon="4.54623">
        <ele>623.111938477</ele>
        <time>2016-02-04T10:15:36.658Z</time>
      </trkpt>
      <trkpt lat="46.05076" lon="4.54619">
        <ele>623.10369873</ele>
        <time>2016-02-04T10:15:37.647Z</time>
      </trkpt>
      <trkpt lat="46.05075" lon="4.54608">
        <ele>622.966430664</ele>
        <time>2016-02-04T10:15:41.674Z</time>
      </trkpt>
      <trkpt lat="46.05075" lon="4.54605">
        <ele>622.867370605</ele>
        <time>2016-02-04T10:15:42.654Z</time>
      </trkpt>
      <trkpt lat="46.05076" lon="4.54593">
        <ele>622.234558105</ele>
        <time>2016-02-04T10:15:49.692Z</time>
      </trkpt>
      <trkpt lat="46.05076" lon="4.5459">
        <ele>622.045349121</ele>
        <time>2016-02-04T10:15:50.653Z</time>
      </trkpt>
      <trkpt lat="46.05073" lon="4.54577">
        <ele>620.960876465</ele>
        <time>2016-02-04T10:15:58.685Z</time>
      </trkpt>
      <trkpt lat="46.05073" lon="4.54576">
        <ele>620.950744629</ele>
        <time>2016-02-04T10:15:59.653Z</time>
      </trkpt>
      <trkpt lat="46.0507" lon="4.54566">
        <ele>621.056091309</ele>
        <time>2016-02-04T10:16:04.649Z</time>
      </trkpt>
      <trkpt lat="46.05069" lon="4.54564">
        <ele>621.094238281</ele>
        <time>2016-02-04T10:16:05.621Z</time>
      </trkpt>
      <trkpt lat="46.05066" lon="4.54552">
        <ele>621.144958496</ele>
        <time>2016-02-04T10:16:12.64Z</time>
      </trkpt>
      <trkpt lat="46.05066" lon="4.5455">
        <ele>621.128540039</ele>
        <time>2016-02-04T10:16:13.628Z</time>
      </trkpt>
      <trkpt lat="46.05064" lon="4.54538">
        <ele>621.298583984</ele>
        <time>2016-02-04T10:16:21.653Z</time>
      </trkpt>
      <trkpt lat="46.05063" lon="4.54537">
        <ele>621.344177246</ele>
        <time>2016-02-04T10:16:22.645Z</time>
      </trkpt>
      <trkpt lat="46.05058" lon="4.54526">
        <ele>621.807617188</ele>
        <time>2016-02-04T10:16:29.671Z</time>
      </trkpt>
      <trkpt lat="46.05058" lon="4.54524">
        <ele>621.814941406</ele>
        <time>2016-02-04T10:16:30.632Z</time>
      </trkpt>
      <trkpt lat="46.05055" lon="4.54512">
        <ele>622.554992676</ele>
        <time>2016-02-04T10:16:39.645Z</time>
      </trkpt>
      <trkpt lat="46.05055" lon="4.54511">
        <ele>622.759460449</ele>
        <time>2016-02-04T10:16:40.626Z</time>
      </trkpt>
      <trkpt lat="46.05054" lon="4.545">
        <ele>623.084289551</ele>
        <time>2016-02-04T10:16:45.669Z</time>
      </trkpt>
      <trkpt lat="46.05054" lon="4.54497">
        <ele>623.024597168</ele>
        <time>2016-02-04T10:16:46.634Z</time>
      </trkpt>
      <trkpt lat="46.05056" lon="4.54486">
        <ele>623.656738281</ele>
        <time>2016-02-04T10:16:54.644Z</time>
      </trkpt>
      <trkpt lat="46.05056" lon="4.54484">
        <ele>623.703979492</ele>
        <time>2016-02-04T10:16:55.634Z</time>
      </trkpt>
      <trkpt lat="46.05054" lon="4.54475">
        <ele>623.66595459</ele>
        <time>2016-02-04T10:16:59.645Z</time>
      </trkpt>
      <trkpt lat="46.05055" lon="4.54471">
        <ele>623.561218262</ele>
        <time>2016-02-04T10:17:00.612Z</time>
      </trkpt>
      <trkpt lat="46.05055" lon="4.54458">
        <ele>621.964111328</ele>
        <time>2016-02-04T10:17:07.678Z</time>
      </trkpt>
      <trkpt lat="46.05055" lon="4.54456">
        <ele>621.79095459</ele>
        <time>2016-02-04T10:17:08.636Z</time>
      </trkpt>
      <trkpt lat="46.05062" lon="4.54451">
        <ele>624.027954102</ele>
        <time>2016-02-04T10:17:31.781Z</time>
      </trkpt>
      <trkpt lat="46.05063" lon="4.54451">
        <ele>624.228088379</ele>
        <time>2016-02-04T10:17:32.635Z</time>
      </trkpt>
      <trkpt lat="46.05072" lon="4.54453">
        <ele>624.789794922</ele>
        <time>2016-02-04T10:17:38.66Z</time>
      </trkpt>
      <trkpt lat="46.05073" lon="4.54453">
        <ele>624.812561035</ele>
        <time>2016-02-04T10:17:39.626Z</time>
      </trkpt>
      <trkpt lat="46.05081" lon="4.54456">
        <ele>625.452880859</ele>
        <time>2016-02-04T10:17:59.816Z</time>
      </trkpt>
      <trkpt lat="46.05084" lon="4.54458">
        <ele>625.664855957</ele>
        <time>2016-02-04T10:18:00.643Z</time>
      </trkpt>
      <trkpt lat="46.05091" lon="4.54459">
        <ele>627.513122559</ele>
        <time>2016-02-04T10:18:11.769Z</time>
      </trkpt>
      <trkpt lat="46.05094" lon="4.5446">
        <ele>627.62487793</ele>
        <time>2016-02-04T10:18:12.639Z</time>
      </trkpt>
      <trkpt lat="46.05101" lon="4.54463">
        <ele>627.968933105</ele>
        <time>2016-02-04T10:18:17.677Z</time>
      </trkpt>
      <trkpt lat="46.05102" lon="4.54464">
        <ele>628.057861328</ele>
        <time>2016-02-04T10:18:18.639Z</time>
      </trkpt>
      <trkpt lat="46.0511" lon="4.54467">
        <ele>628.483215332</ele>
        <time>2016-02-04T10:18:21.657Z</time>
      </trkpt>
      <trkpt lat="46.05112" lon="4.5447">
        <ele>628.643310547</ele>
        <time>2016-02-04T10:18:22.627Z</time>
      </trkpt>
      <trkpt lat="46.0512" lon="4.54475">
        <ele>629.123535156</ele>
        <time>2016-02-04T10:18:25.643Z</time>
      </trkpt>
      <trkpt lat="46.05122" lon="4.54477">
        <ele>629.29876709</ele>
        <time>2016-02-04T10:18:26.637Z</time>
      </trkpt>
      <trkpt lat="46.0513" lon="4.54481">
        <ele>630.264526367</ele>
        <time>2016-02-04T10:18:31.643Z</time>
      </trkpt>
      <trkpt lat="46.05132" lon="4.54483">
        <ele>630.390319824</ele>
        <time>2016-02-04T10:18:32.631Z</time>
      </trkpt>
      <trkpt lat="46.05138" lon="4.54485">
        <ele>630.737060547</ele>
        <time>2016-02-04T10:18:35.647Z</time>
      </trkpt>
      <trkpt lat="46.05144" lon="4.54489">
        <ele>630.838684082</ele>
        <time>2016-02-04T10:18:36.639Z</time>
      </trkpt>
      <trkpt lat="46.05151" lon="4.54495">
        <ele>631.053588867</ele>
        <time>2016-02-04T10:18:43.66Z</time>
      </trkpt>
      <trkpt lat="46.05152" lon="4.54495">
        <ele>631.030761719</ele>
        <time>2016-02-04T10:18:44.637Z</time>
      </trkpt>
      <trkpt lat="46.05159" lon="4.545">
        <ele>631.745178223</ele>
        <time>2016-02-04T10:18:53.649Z</time>
      </trkpt>
      <trkpt lat="46.0516" lon="4.54501">
        <ele>631.89666748</ele>
        <time>2016-02-04T10:18:54.635Z</time>
      </trkpt>
      <trkpt lat="46.05167" lon="4.54506">
        <ele>632.61340332</ele>
        <time>2016-02-04T10:19:00.711Z</time>
      </trkpt>
      <trkpt lat="46.05169" lon="4.54507">
        <ele>632.684570312</ele>
        <time>2016-02-04T10:19:01.644Z</time>
      </trkpt>
      <trkpt lat="46.05176" lon="4.54512">
        <ele>632.887145996</ele>
        <time>2016-02-04T10:19:04.666Z</time>
      </trkpt>
      <trkpt lat="46.05179" lon="4.54514">
        <ele>632.908630371</ele>
        <time>2016-02-04T10:19:05.66Z</time>
      </trkpt>
      <trkpt lat="46.05184" lon="4.54522">
        <ele>633.009399414</ele>
        <time>2016-02-04T10:19:15.675Z</time>
      </trkpt>
      <trkpt lat="46.05185" lon="4.54523">
        <ele>633.123168945</ele>
        <time>2016-02-04T10:19:16.649Z</time>
      </trkpt>
      <trkpt lat="46.05193" lon="4.54527">
        <ele>633.751464844</ele>
        <time>2016-02-04T10:19:23.669Z</time>
      </trkpt>
      <trkpt lat="46.05194" lon="4.54526">
        <ele>633.791564941</ele>
        <time>2016-02-04T10:19:24.646Z</time>
      </trkpt>
      <trkpt lat="46.05203" lon="4.54529">
        <ele>633.931945801</ele>
        <time>2016-02-04T10:19:31.677Z</time>
      </trkpt>
      <trkpt lat="46.05206" lon="4.54531">
        <ele>633.904724121</ele>
        <time>2016-02-04T10:19:32.645Z</time>
      </trkpt>
      <trkpt lat="46.05214" lon="4.54532">
        <ele>633.898864746</ele>
        <time>2016-02-04T10:19:38.669Z</time>
      </trkpt>
      <trkpt lat="46.05216" lon="4.54532">
        <ele>633.89276123</ele>
        <time>2016-02-04T10:19:39.677Z</time>
      </trkpt>
      <trkpt lat="46.05225" lon="4.54534">
        <ele>633.309570312</ele>
        <time>2016-02-04T10:19:45.657Z</time>
      </trkpt>
      <trkpt lat="46.05226" lon="4.54534">
        <ele>633.152404785</ele>
        <time>2016-02-04T10:19:46.635Z</time>
      </trkpt>
      <trkpt lat="46.05235" lon="4.54535">
        <ele>632.975097656</ele>
        <time>2016-02-04T10:19:55.672Z</time>
      </trkpt>
      <trkpt lat="46.05236" lon="4.54535">
        <ele>633.010681152</ele>
        <time>2016-02-04T10:19:56.657Z</time>
      </trkpt>
      <trkpt lat="46.05243" lon="4.54537">
        <ele>632.868347168</ele>
        <time>2016-02-04T10:20:00.677Z</time>
      </trkpt>
      <trkpt lat="46.05245" lon="4.54537">
        <ele>632.898803711</ele>
        <time>2016-02-04T10:20:01.657Z</time>
      </trkpt>
      <trkpt lat="46.05253" lon="4.54538">
        <ele>632.881347656</ele>
        <time>2016-02-04T10:20:11.671Z</time>
      </trkpt>
      <trkpt lat="46.05254" lon="4.54538">
        <ele>632.822143555</ele>
        <time>2016-02-04T10:20:12.652Z</time>
      </trkpt>
      <trkpt lat="46.05263" lon="4.54539">
        <ele>633.108154297</ele>
        <time>2016-02-04T10:20:18.675Z</time>
      </trkpt>
      <trkpt lat="46.05264" lon="4.5454">
        <ele>633.196166992</ele>
        <time>2016-02-04T10:20:19.649Z</time>
      </trkpt>
      <trkpt lat="46.05269" lon="4.54549">
        <ele>631.959106445</ele>
        <time>2016-02-04T10:20:35.663Z</time>
      </trkpt>
      <trkpt lat="46.05269" lon="4.54551">
        <ele>631.834472656</ele>
        <time>2016-02-04T10:20:36.652Z</time>
      </trkpt>
      <trkpt lat="46.0527" lon="4.54563">
        <ele>630.686645508</ele>
        <time>2016-02-04T10:20:44.677Z</time>
      </trkpt>
      <trkpt lat="46.05271" lon="4.54565">
        <ele>630.515197754</ele>
        <time>2016-02-04T10:20:45.64Z</time>
      </trkpt>
      <trkpt lat="46.05273" lon="4.54574">
        <ele>630.007995605</ele>
        <time>2016-02-04T10:20:49.702Z</time>
      </trkpt>
      <trkpt lat="46.05275" lon="4.54581">
        <ele>629.895324707</ele>
        <time>2016-02-04T10:20:50.652Z</time>
      </trkpt>
      <trkpt lat="46.05279" lon="4.5459">
        <ele>628.998657227</ele>
        <time>2016-02-04T10:20:55.674Z</time>
      </trkpt>
      <trkpt lat="46.0528" lon="4.54593">
        <ele>628.85369873</ele>
        <time>2016-02-04T10:20:56.655Z</time>
      </trkpt>
      <trkpt lat="46.05283" lon="4.54603">
        <ele>628.156005859</ele>
        <time>2016-02-04T10:21:01.686Z</time>
      </trkpt>
      <trkpt lat="46.05284" lon="4.54605">
        <ele>628.015197754</ele>
        <time>2016-02-04T10:21:02.653Z</time>
      </trkpt>
      <trkpt lat="46.05288" lon="4.54614">
        <ele>627.18560791</ele>
        <time>2016-02-04T10:21:07.71Z</time>
      </trkpt>
      <trkpt lat="46.05289" lon="4.54616">
        <ele>626.981567383</ele>
        <time>2016-02-04T10:21:08.656Z</time>
      </trkpt>
      <trkpt lat="46.05292" lon="4.54627">
        <ele>626.039611816</ele>
        <time>2016-02-04T10:21:14.676Z</time>
      </trkpt>
      <trkpt lat="46.05292" lon="4.54628">
        <ele>625.864135742</ele>
        <time>2016-02-04T10:21:15.655Z</time>
      </trkpt>
      <trkpt lat="46.05293" lon="4.54641">
        <ele>625.088745117</ele>
        <time>2016-02-04T10:21:23.654Z</time>
      </trkpt>
      <trkpt lat="46.05294" lon="4.54643">
        <ele>624.97088623</ele>
        <time>2016-02-04T10:21:24.628Z</time>
      </trkpt>
      <trkpt lat="46.05295" lon="4.54655">
        <ele>624.475097656</ele>
        <time>2016-02-04T10:21:29.638Z</time>
      </trkpt>
      <trkpt lat="46.05295" lon="4.54656">
        <ele>624.392272949</ele>
        <time>2016-02-04T10:21:30.621Z</time>
      </trkpt>
      <trkpt lat="46.05298" lon="4.54667">
        <ele>622.782043457</ele>
        <time>2016-02-04T10:21:39.644Z</time>
      </trkpt>
      <trkpt lat="46.05299" lon="4.54668">
        <ele>622.589111328</ele>
        <time>2016-02-04T10:21:40.622Z</time>
      </trkpt>
      <trkpt lat="46.05302" lon="4.54679">
        <ele>621.278076172</ele>
        <time>2016-02-04T10:21:47.655Z</time>
      </trkpt>
      <trkpt lat="46.05303" lon="4.5468">
        <ele>621.065979004</ele>
        <time>2016-02-04T10:21:48.624Z</time>
      </trkpt>
      <trkpt lat="46.05308" lon="4.5469">
        <ele>619.710205078</ele>
        <time>2016-02-04T10:21:55.652Z</time>
      </trkpt>
      <trkpt lat="46.05308" lon="4.54692">
        <ele>619.556518555</ele>
        <time>2016-02-04T10:21:56.633Z</time>
      </trkpt>
      <trkpt lat="46.05312" lon="4.54701">
        <ele>618.800354004</ele>
        <time>2016-02-04T10:22:01.653Z</time>
      </trkpt>
      <trkpt lat="46.05313" lon="4.54703">
        <ele>618.641723633</ele>
        <time>2016-02-04T10:22:02.634Z</time>
      </trkpt>
      <trkpt lat="46.05316" lon="4.54715">
        <ele>617.61505127</ele>
        <time>2016-02-04T10:22:09.655Z</time>
      </trkpt>
      <trkpt lat="46.05317" lon="4.54718">
        <ele>617.481689453</ele>
        <time>2016-02-04T10:22:10.61Z</time>
      </trkpt>
      <trkpt lat="46.05322" lon="4.54729">
        <ele>616.596191406</ele>
        <time>2016-02-04T10:22:16.65Z</time>
      </trkpt>
      <trkpt lat="46.05322" lon="4.5473">
        <ele>616.448730469</ele>
        <time>2016-02-04T10:22:17.634Z</time>
      </trkpt>
      <trkpt lat="46.05327" lon="4.54739">
        <ele>615.895996094</ele>
        <time>2016-02-04T10:22:22.669Z</time>
      </trkpt>
      <trkpt lat="46.05328" lon="4.54741">
        <ele>615.793884277</ele>
        <time>2016-02-04T10:22:23.633Z</time>
      </trkpt>
      <trkpt lat="46.05333" lon="4.54751">
        <ele>614.140075684</ele>
        <time>2016-02-04T10:22:31.648Z</time>
      </trkpt>
      <trkpt lat="46.05334" lon="4.54752">
        <ele>613.899963379</ele>
        <time>2016-02-04T10:22:32.625Z</time>
      </trkpt>
      <trkpt lat="46.0534" lon="4.54758">
        <ele>612.633117676</ele>
        <time>2016-02-04T10:22:37.688Z</time>
      </trkpt>
      <trkpt lat="46.05341" lon="4.5476">
        <ele>612.414245605</ele>
        <time>2016-02-04T10:22:38.631Z</time>
      </trkpt>
      <trkpt lat="46.05348" lon="4.54766">
        <ele>611.484680176</ele>
        <time>2016-02-04T10:22:47.664Z</time>
      </trkpt>
      <trkpt lat="46.05349" lon="4.54767">
        <ele>611.387145996</ele>
        <time>2016-02-04T10:22:48.638Z</time>
      </trkpt>
      <trkpt lat="46.05354" lon="4.54775">
        <ele>610.281433105</ele>
        <time>2016-02-04T10:22:56.657Z</time>
      </trkpt>
      <trkpt lat="46.05355" lon="4.54777">
        <ele>610.222351074</ele>
        <time>2016-02-04T10:22:57.627Z</time>
      </trkpt>
      <trkpt lat="46.05363" lon="4.54784">
        <ele>610.099121094</ele>
        <time>2016-02-04T10:23:03.652Z</time>
      </trkpt>
      <trkpt lat="46.05364" lon="4.54784">
        <ele>610.093078613</ele>
        <time>2016-02-04T10:23:04.629Z</time>
      </trkpt>
      <trkpt lat="46.05372" lon="4.54787">
        <ele>609.928833008</ele>
        <time>2016-02-04T10:23:11.666Z</time>
      </trkpt>
      <trkpt lat="46.05373" lon="4.54787">
        <ele>609.93560791</ele>
        <time>2016-02-04T10:23:12.634Z</time>
      </trkpt>
      <trkpt lat="46.05381" lon="4.54792">
        <ele>610.072509766</ele>
        <time>2016-02-04T10:23:18.675Z</time>
      </trkpt>
      <trkpt lat="46.05382" lon="4.54793">
        <ele>610.088928223</ele>
        <time>2016-02-04T10:23:19.64Z</time>
      </trkpt>
      <trkpt lat="46.0539" lon="4.548">
        <ele>610.112426758</ele>
        <time>2016-02-04T10:23:27.656Z</time>
      </trkpt>
      <trkpt lat="46.05391" lon="4.54801">
        <ele>610.076599121</ele>
        <time>2016-02-04T10:23:28.63Z</time>
      </trkpt>
      <trkpt lat="46.05394" lon="4.54811">
        <ele>610.739196777</ele>
        <time>2016-02-04T10:23:47.669Z</time>
      </trkpt>
      <trkpt lat="46.05394" lon="4.54812">
        <ele>610.785339355</ele>
        <time>2016-02-04T10:23:48.641Z</time>
      </trkpt>
      <trkpt lat="46.05395" lon="4.54824">
        <ele>610.791503906</ele>
        <time>2016-02-04T10:23:54.666Z</time>
      </trkpt>
      <trkpt lat="46.05395" lon="4.54826">
        <ele>610.803405762</ele>
        <time>2016-02-04T10:23:55.618Z</time>
      </trkpt>
      <trkpt lat="46.05396" lon="4.54838">
        <ele>610.729980469</ele>
        <time>2016-02-04T10:24:03.673Z</time>
      </trkpt>
      <trkpt lat="46.05396" lon="4.5484">
        <ele>610.661499023</ele>
        <time>2016-02-04T10:24:04.633Z</time>
      </trkpt>
      <trkpt lat="46.05397" lon="4.54852">
        <ele>610.780273438</ele>
        <time>2016-02-04T10:24:10.664Z</time>
      </trkpt>
      <trkpt lat="46.05397" lon="4.54854">
        <ele>610.909423828</ele>
        <time>2016-02-04T10:24:11.645Z</time>
      </trkpt>
      <trkpt lat="46.05398" lon="4.54865">
        <ele>609.842468262</ele>
        <time>2016-02-04T10:24:36.673Z</time>
      </trkpt>
      <trkpt lat="46.05398" lon="4.54867">
        <ele>609.711486816</ele>
        <time>2016-02-04T10:24:37.649Z</time>
      </trkpt>
      <trkpt lat="46.05395" lon="4.54878">
        <ele>608.877746582</ele>
        <time>2016-02-04T10:24:44.661Z</time>
      </trkpt>
      <trkpt lat="46.05395" lon="4.5488">
        <ele>608.793884277</ele>
        <time>2016-02-04T10:24:45.635Z</time>
      </trkpt>
      <trkpt lat="46.05391" lon="4.54892">
        <ele>608.584350586</ele>
        <time>2016-02-04T10:24:53.665Z</time>
      </trkpt>
      <trkpt lat="46.05391" lon="4.54892">
        <ele>608.594116211</ele>
        <time>2016-02-04T10:24:54.638Z</time>
      </trkpt>
      <trkpt lat="46.05389" lon="4.54904">
        <ele>609.679077148</ele>
        <time>2016-02-04T10:25:03.671Z</time>
      </trkpt>
      <trkpt lat="46.05389" lon="4.54907">
        <ele>609.737854004</ele>
        <time>2016-02-04T10:25:04.648Z</time>
      </trkpt>
      <trkpt lat="46.05386" lon="4.54917">
        <ele>610.719116211</ele>
        <time>2016-02-04T10:25:11.658Z</time>
      </trkpt>
      <trkpt lat="46.05386" lon="4.54919">
        <ele>610.725097656</ele>
        <time>2016-02-04T10:25:12.644Z</time>
      </trkpt>
      <trkpt lat="46.05384" lon="4.5493">
        <ele>610.521057129</ele>
        <time>2016-02-04T10:25:16.679Z</time>
      </trkpt>
      <trkpt lat="46.05384" lon="4.54933">
        <ele>610.473815918</ele>
        <time>2016-02-04T10:25:17.647Z</time>
      </trkpt>
      <trkpt lat="46.05383" lon="4.54945">
        <ele>610.260498047</ele>
        <time>2016-02-04T10:25:22.678Z</time>
      </trkpt>
      <trkpt lat="46.05383" lon="4.54947">
        <ele>610.089599609</ele>
        <time>2016-02-04T10:25:23.636Z</time>
      </trkpt>
      <trkpt lat="46.05382" lon="4.54959">
        <ele>608.078613281</ele>
        <time>2016-02-04T10:25:39.67Z</time>
      </trkpt>
      <trkpt lat="46.05382" lon="4.5496">
        <ele>607.975219727</ele>
        <time>2016-02-04T10:25:40.654Z</time>
      </trkpt>
      <trkpt lat="46.05379" lon="4.54971">
        <ele>607.179382324</ele>
        <time>2016-02-04T10:25:47.669Z</time>
      </trkpt>
      <trkpt lat="46.05379" lon="4.54973">
        <ele>606.996765137</ele>
        <time>2016-02-04T10:25:48.65Z</time>
      </trkpt>
      <trkpt lat="46.05377" lon="4.54985">
        <ele>606.034790039</ele>
        <time>2016-02-04T10:25:53.67Z</time>
      </trkpt>
      <trkpt lat="46.05377" lon="4.54988">
        <ele>605.830078125</ele>
        <time>2016-02-04T10:25:54.642Z</time>
      </trkpt>
      <trkpt lat="46.05379" lon="4.54999">
        <ele>605.134094238</ele>
        <time>2016-02-04T10:25:59.698Z</time>
      </trkpt>
      <trkpt lat="46.0538" lon="4.55001">
        <ele>604.95916748</ele>
        <time>2016-02-04T10:26:00.642Z</time>
      </trkpt>
      <trkpt lat="46.05381" lon="4.55013">
        <ele>602.731323242</ele>
        <time>2016-02-04T10:26:09.679Z</time>
      </trkpt>
      <trkpt lat="46.05382" lon="4.55014">
        <ele>602.495361328</ele>
        <time>2016-02-04T10:26:10.643Z</time>
      </trkpt>
      <trkpt lat="46.05374" lon="4.55009">
        <ele>595.960510254</ele>
        <time>2016-02-04T10:26:36.643Z</time>
      </trkpt>
      <trkpt lat="46.05373" lon="4.55008">
        <ele>595.723754883</ele>
        <time>2016-02-04T10:26:37.642Z</time>
      </trkpt>
      <trkpt lat="46.05368" lon="4.54999">
        <ele>594.144348145</ele>
        <time>2016-02-04T10:26:44.636Z</time>
      </trkpt>
      <trkpt lat="46.05367" lon="4.54998">
        <ele>593.934631348</ele>
        <time>2016-02-04T10:26:45.622Z</time>
      </trkpt>
      <trkpt lat="46.05363" lon="4.54987">
        <ele>591.925354004</ele>
        <time>2016-02-04T10:26:54.653Z</time>
      </trkpt>
      <trkpt lat="46.05363" lon="4.54986">
        <ele>591.689086914</ele>
        <time>2016-02-04T10:26:55.629Z</time>
      </trkpt>
      <trkpt lat="46.05359" lon="4.54975">
        <ele>589.973022461</ele>
        <time>2016-02-04T10:27:05.659Z</time>
      </trkpt>
      <trkpt lat="46.05359" lon="4.54974">
        <ele>589.901306152</ele>
        <time>2016-02-04T10:27:06.633Z</time>
      </trkpt>
      <trkpt lat="46.0535" lon="4.54977">
        <ele>588.237670898</ele>
        <time>2016-02-04T10:27:24.662Z</time>
      </trkpt>
      <trkpt lat="46.05349" lon="4.54978">
        <ele>588.222839355</ele>
        <time>2016-02-04T10:27:25.63Z</time>
      </trkpt>
      <trkpt lat="46.05346" lon="4.54988">
        <ele>586.917602539</ele>
        <time>2016-02-04T10:27:34.77Z</time>
      </trkpt>
      <trkpt lat="46.05345" lon="4.5499">
        <ele>586.746826172</ele>
        <time>2016-02-04T10:27:35.626Z</time>
      </trkpt>
      <trkpt lat="46.05342" lon="4.55002">
        <ele>584.923583984</ele>
        <time>2016-02-04T10:27:44.649Z</time>
      </trkpt>
      <trkpt lat="46.05342" lon="4.55002">
        <ele>584.736022949</ele>
        <time>2016-02-04T10:27:45.626Z</time>
      </trkpt>
      <trkpt lat="46.0534" lon="4.55014">
        <ele>583.642089844</ele>
        <time>2016-02-04T10:27:54.651Z</time>
      </trkpt>
      <trkpt lat="46.0534" lon="4.55015">
        <ele>583.525634766</ele>
        <time>2016-02-04T10:27:55.638Z</time>
      </trkpt>
      <trkpt lat="46.05337" lon="4.55027">
        <ele>582.117736816</ele>
        <time>2016-02-04T10:28:05.65Z</time>
      </trkpt>
      <trkpt lat="46.05337" lon="4.55028">
        <ele>581.944091797</ele>
        <time>2016-02-04T10:28:06.638Z</time>
      </trkpt>
      <trkpt lat="46.05336" lon="4.5504">
        <ele>580.583129883</ele>
        <time>2016-02-04T10:28:14.639Z</time>
      </trkpt>
      <trkpt lat="46.05336" lon="4.55041">
        <ele>580.396911621</ele>
        <time>2016-02-04T10:28:15.637Z</time>
      </trkpt>
      <trkpt lat="46.05337" lon="4.55054">
        <ele>578.382080078</ele>
        <time>2016-02-04T10:28:25.647Z</time>
      </trkpt>
      <trkpt lat="46.05337" lon="4.55055">
        <ele>578.182861328</ele>
        <time>2016-02-04T10:28:26.63Z</time>
      </trkpt>
      <trkpt lat="46.05336" lon="4.55067">
        <ele>576.632385254</ele>
        <time>2016-02-04T10:28:34.654Z</time>
      </trkpt>
      <trkpt lat="46.05336" lon="4.55069">
        <ele>576.42175293</ele>
        <time>2016-02-04T10:28:35.633Z</time>
      </trkpt>
      <trkpt lat="46.05336" lon="4.55081">
        <ele>574.52154541</ele>
        <time>2016-02-04T10:28:43.662Z</time>
      </trkpt>
      <trkpt lat="46.05336" lon="4.55083">
        <ele>574.314453125</ele>
        <time>2016-02-04T10:28:44.635Z</time>
      </trkpt>
      <trkpt lat="46.05338" lon="4.55096">
        <ele>572.149414062</ele>
        <time>2016-02-04T10:28:53.66Z</time>
      </trkpt>
      <trkpt lat="46.05338" lon="4.55097">
        <ele>571.897460938</ele>
        <time>2016-02-04T10:28:54.631Z</time>
      </trkpt>
      <trkpt lat="46.05341" lon="4.55109">
        <ele>569.731384277</ele>
        <time>2016-02-04T10:29:03.65Z</time>
      </trkpt>
      <trkpt lat="46.05342" lon="4.55111">
        <ele>569.464050293</ele>
        <time>2016-02-04T10:29:04.631Z</time>
      </trkpt>
      <trkpt lat="46.05343" lon="4.55121">
        <ele>567.334533691</ele>
        <time>2016-02-04T10:29:13.651Z</time>
      </trkpt>
      <trkpt lat="46.05344" lon="4.55124">
        <ele>567.056274414</ele>
        <time>2016-02-04T10:29:14.632Z</time>
      </trkpt>
      <trkpt lat="46.05346" lon="4.55136">
        <ele>564.546142578</ele>
        <time>2016-02-04T10:29:25.668Z</time>
      </trkpt>
      <trkpt lat="46.05346" lon="4.55138">
        <ele>564.301208496</ele>
        <time>2016-02-04T10:29:26.641Z</time>
      </trkpt>
      <trkpt lat="46.05348" lon="4.5515">
        <ele>562.177307129</ele>
        <time>2016-02-04T10:29:36.661Z</time>
      </trkpt>
      <trkpt lat="46.05348" lon="4.55151">
        <ele>562.032958984</ele>
        <time>2016-02-04T10:29:37.634Z</time>
      </trkpt>
      <trkpt lat="46.05349" lon="4.55164">
        <ele>559.961242676</ele>
        <time>2016-02-04T10:29:46.669Z</time>
      </trkpt>
      <trkpt lat="46.05349" lon="4.55165">
        <ele>559.750488281</ele>
        <time>2016-02-04T10:29:47.647Z</time>
      </trkpt>
      <trkpt lat="46.0535" lon="4.55177">
        <ele>557.565429688</ele>
        <time>2016-02-04T10:30:00.69Z</time>
      </trkpt>
      <trkpt lat="46.05351" lon="4.55179">
        <ele>557.414367676</ele>
        <time>2016-02-04T10:30:01.642Z</time>
      </trkpt>
      <trkpt lat="46.05353" lon="4.55191">
        <ele>556.063415527</ele>
        <time>2016-02-04T10:30:08.688Z</time>
      </trkpt>
      <trkpt lat="46.05354" lon="4.55193">
        <ele>555.842041016</ele>
        <time>2016-02-04T10:30:09.651Z</time>
      </trkpt>
      <trkpt lat="46.05358" lon="4.55204">
        <ele>553.974365234</ele>
        <time>2016-02-04T10:30:16.717Z</time>
      </trkpt>
      <trkpt lat="46.05358" lon="4.55205">
        <ele>553.694274902</ele>
        <time>2016-02-04T10:30:17.645Z</time>
      </trkpt>
      <trkpt lat="46.05364" lon="4.55214">
        <ele>552.072998047</ele>
        <time>2016-02-04T10:30:25.658Z</time>
      </trkpt>
      <trkpt lat="46.05365" lon="4.55215">
        <ele>551.887512207</ele>
        <time>2016-02-04T10:30:26.64Z</time>
      </trkpt>
      <trkpt lat="46.05371" lon="4.55224">
        <ele>550.581848145</ele>
        <time>2016-02-04T10:30:33.679Z</time>
      </trkpt>
      <trkpt lat="46.05372" lon="4.55225">
        <ele>550.430053711</ele>
        <time>2016-02-04T10:30:34.647Z</time>
      </trkpt>
      <trkpt lat="46.05378" lon="4.55234">
        <ele>549.450683594</ele>
        <time>2016-02-04T10:30:40.671Z</time>
      </trkpt>
      <trkpt lat="46.05379" lon="4.55236">
        <ele>549.307617188</ele>
        <time>2016-02-04T10:30:41.642Z</time>
      </trkpt>
      <trkpt lat="46.05385" lon="4.55244">
        <ele>548.317687988</ele>
        <time>2016-02-04T10:30:47.672Z</time>
      </trkpt>
      <trkpt lat="46.05386" lon="4.55245">
        <ele>548.126464844</ele>
        <time>2016-02-04T10:30:48.648Z</time>
      </trkpt>
      <trkpt lat="46.05393" lon="4.55252">
        <ele>546.833496094</ele>
        <time>2016-02-04T10:30:55.686Z</time>
      </trkpt>
      <trkpt lat="46.05394" lon="4.55252">
        <ele>546.553344727</ele>
        <time>2016-02-04T10:30:56.643Z</time>
      </trkpt>
      <trkpt lat="46.05401" lon="4.55258">
        <ele>545.307983398</ele>
        <time>2016-02-04T10:31:02.68Z</time>
      </trkpt>
      <trkpt lat="46.05402" lon="4.55259">
        <ele>545.079589844</ele>
        <time>2016-02-04T10:31:03.649Z</time>
      </trkpt>
      <trkpt lat="46.05408" lon="4.55265">
        <ele>543.993652344</ele>
        <time>2016-02-04T10:31:10.657Z</time>
      </trkpt>
      <trkpt lat="46.05409" lon="4.55266">
        <ele>543.910095215</ele>
        <time>2016-02-04T10:31:11.641Z</time>
      </trkpt>
      <trkpt lat="46.05416" lon="4.55272">
        <ele>543.325073242</ele>
        <time>2016-02-04T10:31:18.673Z</time>
      </trkpt>
      <trkpt lat="46.05418" lon="4.55272">
        <ele>543.23248291</ele>
        <time>2016-02-04T10:31:19.651Z</time>
      </trkpt>
      <trkpt lat="46.05426" lon="4.55274">
        <ele>542.506958008</ele>
        <time>2016-02-04T10:31:25.68Z</time>
      </trkpt>
      <trkpt lat="46.05427" lon="4.55274">
        <ele>542.338989258</ele>
        <time>2016-02-04T10:31:26.671Z</time>
      </trkpt>
      <trkpt lat="46.05435" lon="4.55279">
        <ele>541.091186523</ele>
        <time>2016-02-04T10:31:34.682Z</time>
      </trkpt>
      <trkpt lat="46.05436" lon="4.5528">
        <ele>540.946289062</ele>
        <time>2016-02-04T10:31:35.655Z</time>
      </trkpt>
      <trkpt lat="46.05443" lon="4.55285">
        <ele>539.753479004</ele>
        <time>2016-02-04T10:31:43.674Z</time>
      </trkpt>
      <trkpt lat="46.05444" lon="4.55285">
        <ele>539.573425293</ele>
        <time>2016-02-04T10:31:44.653Z</time>
      </trkpt>
      <trkpt lat="46.0545" lon="4.55293">
        <ele>537.38671875</ele>
        <time>2016-02-04T10:31:56.659Z</time>
      </trkpt>
      <trkpt lat="46.05451" lon="4.55295">
        <ele>537.226623535</ele>
        <time>2016-02-04T10:31:57.62Z</time>
      </trkpt>
      <trkpt lat="46.05454" lon="4.55306">
        <ele>535.355957031</ele>
        <time>2016-02-04T10:32:06.66Z</time>
      </trkpt>
      <trkpt lat="46.05454" lon="4.55308">
        <ele>535.156799316</ele>
        <time>2016-02-04T10:32:07.633Z</time>
      </trkpt>
      <trkpt lat="46.05455" lon="4.5532">
        <ele>533.409301758</ele>
        <time>2016-02-04T10:32:15.653Z</time>
      </trkpt>
      <trkpt lat="46.05455" lon="4.55321">
        <ele>533.197753906</ele>
        <time>2016-02-04T10:32:16.622Z</time>
      </trkpt>
      <trkpt lat="46.05458" lon="4.55333">
        <ele>530.85345459</ele>
        <time>2016-02-04T10:32:26.702Z</time>
      </trkpt>
      <trkpt lat="46.05458" lon="4.55334">
        <ele>530.657958984</ele>
        <time>2016-02-04T10:32:27.633Z</time>
      </trkpt>
      <trkpt lat="46.05459" lon="4.55346">
        <ele>529.015625</ele>
        <time>2016-02-04T10:32:38.652Z</time>
      </trkpt>
      <trkpt lat="46.05459" lon="4.55348">
        <ele>528.856872559</ele>
        <time>2016-02-04T10:32:39.629Z</time>
      </trkpt>
      <trkpt lat="46.05461" lon="4.5536">
        <ele>527.506713867</ele>
        <time>2016-02-04T10:32:46.665Z</time>
      </trkpt>
      <trkpt lat="46.05461" lon="4.55362">
        <ele>527.317565918</ele>
        <time>2016-02-04T10:32:47.628Z</time>
      </trkpt>
      <trkpt lat="46.05465" lon="4.55372">
        <ele>525.579772949</ele>
        <time>2016-02-04T10:32:54.647Z</time>
      </trkpt>
      <trkpt lat="46.05465" lon="4.55374">
        <ele>525.362609863</ele>
        <time>2016-02-04T10:32:55.638Z</time>
      </trkpt>
      <trkpt lat="46.0547" lon="4.55383">
        <ele>524.02746582</ele>
        <time>2016-02-04T10:33:00.763Z</time>
      </trkpt>
      <trkpt lat="46.05471" lon="4.55385">
        <ele>523.713378906</ele>
        <time>2016-02-04T10:33:01.623Z</time>
      </trkpt>
      <trkpt lat="46.05476" lon="4.55393">
        <ele>521.17388916</ele>
        <time>2016-02-04T10:33:08.645Z</time>
      </trkpt>
      <trkpt lat="46.05476" lon="4.55395">
        <ele>520.860778809</ele>
        <time>2016-02-04T10:33:09.624Z</time>
      </trkpt>
      <trkpt lat="46.05482" lon="4.55403">
        <ele>519.527526855</ele>
        <time>2016-02-04T10:33:15.668Z</time>
      </trkpt>
      <trkpt lat="46.05483" lon="4.55405">
        <ele>519.352600098</ele>
        <time>2016-02-04T10:33:16.625Z</time>
      </trkpt>
      <trkpt lat="46.05489" lon="4.55413">
        <ele>518.338317871</ele>
        <time>2016-02-04T10:33:23.711Z</time>
      </trkpt>
      <trkpt lat="46.0549" lon="4.55414">
        <ele>518.150878906</ele>
        <time>2016-02-04T10:33:24.639Z</time>
      </trkpt>
      <trkpt lat="46.05495" lon="4.55423">
        <ele>517.257263184</ele>
        <time>2016-02-04T10:33:31.663Z</time>
      </trkpt>
      <trkpt lat="46.05496" lon="4.55425">
        <ele>517.190979004</ele>
        <time>2016-02-04T10:33:32.643Z</time>
      </trkpt>
      <trkpt lat="46.05501" lon="4.55434">
        <ele>516.137390137</ele>
        <time>2016-02-04T10:33:39.672Z</time>
      </trkpt>
      <trkpt lat="46.05502" lon="4.55435">
        <ele>515.926635742</ele>
        <time>2016-02-04T10:33:40.636Z</time>
      </trkpt>
      <trkpt lat="46.05506" lon="4.55444">
        <ele>514.677307129</ele>
        <time>2016-02-04T10:33:47.665Z</time>
      </trkpt>
      <trkpt lat="46.05507" lon="4.55446">
        <ele>514.507995605</ele>
        <time>2016-02-04T10:33:48.635Z</time>
      </trkpt>
      <trkpt lat="46.05512" lon="4.55455">
        <ele>513.571960449</ele>
        <time>2016-02-04T10:33:54.666Z</time>
      </trkpt>
      <trkpt lat="46.05512" lon="4.55456">
        <ele>513.400512695</ele>
        <time>2016-02-04T10:33:55.63Z</time>
      </trkpt>
      <trkpt lat="46.05517" lon="4.55468">
        <ele>512.405395508</ele>
        <time>2016-02-04T10:34:03.772Z</time>
      </trkpt>
      <trkpt lat="46.05517" lon="4.55469">
        <ele>512.257751465</ele>
        <time>2016-02-04T10:34:04.642Z</time>
      </trkpt>
      <trkpt lat="46.05521" lon="4.5548">
        <ele>510.966033936</ele>
        <time>2016-02-04T10:34:12.653Z</time>
      </trkpt>
      <trkpt lat="46.05521" lon="4.55481">
        <ele>510.785186768</ele>
        <time>2016-02-04T10:34:13.631Z</time>
      </trkpt>
      <trkpt lat="46.05524" lon="4.55493">
        <ele>509.170043945</ele>
        <time>2016-02-04T10:34:22.65Z</time>
      </trkpt>
      <trkpt lat="46.05524" lon="4.55494">
        <ele>508.967498779</ele>
        <time>2016-02-04T10:34:23.638Z</time>
      </trkpt>
      <trkpt lat="46.05527" lon="4.55505">
        <ele>506.979492188</ele>
        <time>2016-02-04T10:34:31.732Z</time>
      </trkpt>
      <trkpt lat="46.05527" lon="4.55506">
        <ele>506.690246582</ele>
        <time>2016-02-04T10:34:32.632Z</time>
      </trkpt>
      <trkpt lat="46.05531" lon="4.55517">
        <ele>505.184417725</ele>
        <time>2016-02-04T10:34:38.664Z</time>
      </trkpt>
      <trkpt lat="46.05532" lon="4.55519">
        <ele>504.962646484</ele>
        <time>2016-02-04T10:34:39.64Z</time>
      </trkpt>
      <trkpt lat="46.05537" lon="4.55528">
        <ele>504.038635254</ele>
        <time>2016-02-04T10:34:45.667Z</time>
      </trkpt>
      <trkpt lat="46.05537" lon="4.55529">
        <ele>503.854797363</ele>
        <time>2016-02-04T10:34:46.646Z</time>
      </trkpt>
      <trkpt lat="46.05542" lon="4.55538">
        <ele>502.207458496</ele>
        <time>2016-02-04T10:34:54.65Z</time>
      </trkpt>
      <trkpt lat="46.05544" lon="4.55542">
        <ele>502.008483887</ele>
        <time>2016-02-04T10:34:55.723Z</time>
      </trkpt>
      <trkpt lat="46.05549" lon="4.55551">
        <ele>501.126922607</ele>
        <time>2016-02-04T10:35:01.747Z</time>
      </trkpt>
      <trkpt lat="46.0555" lon="4.55552">
        <ele>500.952331543</ele>
        <time>2016-02-04T10:35:02.633Z</time>
      </trkpt>
      <trkpt lat="46.05556" lon="4.55562">
        <ele>500.091430664</ele>
        <time>2016-02-04T10:35:10.715Z</time>
      </trkpt>
      <trkpt lat="46.05556" lon="4.55563">
        <ele>499.978057861</ele>
        <time>2016-02-04T10:35:11.708Z</time>
      </trkpt>
      <trkpt lat="46.05564" lon="4.55569">
        <ele>498.374359131</ele>
        <time>2016-02-04T10:35:59.68Z</time>
      </trkpt>
      <trkpt lat="46.05564" lon="4.5557">
        <ele>498.401947021</ele>
        <time>2016-02-04T10:36:00.648Z</time>
      </trkpt>
      <trkpt lat="46.05572" lon="4.55572">
        <ele>494.988739014</ele>
        <time>2016-02-04T10:36:49.683Z</time>
      </trkpt>
      <trkpt lat="46.05573" lon="4.55572">
        <ele>495.035919189</ele>
        <time>2016-02-04T10:36:50.643Z</time>
      </trkpt>
      <trkpt lat="46.05582" lon="4.55573">
        <ele>494.956604004</ele>
        <time>2016-02-04T10:36:56.684Z</time>
      </trkpt>
      <trkpt lat="46.05583" lon="4.55574">
        <ele>494.840362549</ele>
        <time>2016-02-04T10:36:57.649Z</time>
      </trkpt>
      <trkpt lat="46.05592" lon="4.55576">
        <ele>494.620452881</ele>
        <time>2016-02-04T10:37:03.64Z</time>
      </trkpt>
      <trkpt lat="46.05593" lon="4.55576">
        <ele>494.603118896</ele>
        <time>2016-02-04T10:37:04.627Z</time>
      </trkpt>
      <trkpt lat="46.05601" lon="4.55571">
        <ele>494.264801025</ele>
        <time>2016-02-04T10:37:12.64Z</time>
      </trkpt>
      <trkpt lat="46.05602" lon="4.5557">
        <ele>494.254272461</ele>
        <time>2016-02-04T10:37:13.627Z</time>
      </trkpt>
      <trkpt lat="46.05609" lon="4.55565">
        <ele>494.411773682</ele>
        <time>2016-02-04T10:37:19.637Z</time>
      </trkpt>
      <trkpt lat="46.0561" lon="4.55564">
        <ele>494.485839844</ele>
        <time>2016-02-04T10:37:20.628Z</time>
      </trkpt>
      <trkpt lat="46.05618" lon="4.55559">
        <ele>494.946685791</ele>
        <time>2016-02-04T10:37:28.646Z</time>
      </trkpt>
      <trkpt lat="46.05619" lon="4.55558">
        <ele>494.944366455</ele>
        <time>2016-02-04T10:37:29.624Z</time>
      </trkpt>
      <trkpt lat="46.05628" lon="4.55555">
        <ele>494.800384521</ele>
        <time>2016-02-04T10:37:37.639Z</time>
      </trkpt>
      <trkpt lat="46.05629" lon="4.55555">
        <ele>494.791381836</ele>
        <time>2016-02-04T10:37:38.628Z</time>
      </trkpt>
      <trkpt lat="46.05636" lon="4.55552">
        <ele>494.866912842</ele>
        <time>2016-02-04T10:37:43.623Z</time>
      </trkpt>
      <trkpt lat="46.05638" lon="4.55552">
        <ele>494.852905273</ele>
        <time>2016-02-04T10:37:44.677Z</time>
      </trkpt>
      <trkpt lat="46.05646" lon="4.5555">
        <ele>495.372955322</ele>
        <time>2016-02-04T10:37:55.653Z</time>
      </trkpt>
      <trkpt lat="46.05648" lon="4.5555">
        <ele>495.428131104</ele>
        <time>2016-02-04T10:37:56.629Z</time>
      </trkpt>
      <trkpt lat="46.05657" lon="4.55547">
        <ele>495.858215332</ele>
        <time>2016-02-04T10:38:03.674Z</time>
      </trkpt>
      <trkpt lat="46.05658" lon="4.55547">
        <ele>495.902709961</ele>
        <time>2016-02-04T10:38:04.625Z</time>
      </trkpt>
      <trkpt lat="46.05666" lon="4.55545">
        <ele>496.216217041</ele>
        <time>2016-02-04T10:38:10.661Z</time>
      </trkpt>
      <trkpt lat="46.05667" lon="4.55545">
        <ele>496.232971191</ele>
        <time>2016-02-04T10:38:11.63Z</time>
      </trkpt>
      <trkpt lat="46.05676" lon="4.55543">
        <ele>496.807006836</ele>
        <time>2016-02-04T10:38:19.652Z</time>
      </trkpt>
      <trkpt lat="46.05678" lon="4.55543">
        <ele>496.804168701</ele>
        <time>2016-02-04T10:38:20.629Z</time>
      </trkpt>
      <trkpt lat="46.05686" lon="4.55539">
        <ele>497.136932373</ele>
        <time>2016-02-04T10:38:28.662Z</time>
      </trkpt>
      <trkpt lat="46.05686" lon="4.55539">
        <ele>497.183105469</ele>
        <time>2016-02-04T10:38:29.632Z</time>
      </trkpt>
      <trkpt lat="46.05694" lon="4.55534">
        <ele>497.604431152</ele>
        <time>2016-02-04T10:38:36.653Z</time>
      </trkpt>
      <trkpt lat="46.05695" lon="4.55534">
        <ele>497.665924072</ele>
        <time>2016-02-04T10:38:37.632Z</time>
      </trkpt>
      <trkpt lat="46.05703" lon="4.55534">
        <ele>497.902099609</ele>
        <time>2016-02-04T10:38:44.659Z</time>
      </trkpt>
      <trkpt lat="46.05704" lon="4.55534">
        <ele>497.962677002</ele>
        <time>2016-02-04T10:38:45.633Z</time>
      </trkpt>
      <trkpt lat="46.05711" lon="4.55539">
        <ele>498.678894043</ele>
        <time>2016-02-04T10:38:53.653Z</time>
      </trkpt>
      <trkpt lat="46.05712" lon="4.5554">
        <ele>498.749389648</ele>
        <time>2016-02-04T10:38:54.626Z</time>
      </trkpt>
      <trkpt lat="46.05719" lon="4.55548">
        <ele>499.209838867</ele>
        <time>2016-02-04T10:39:01.647Z</time>
      </trkpt>
      <trkpt lat="46.0572" lon="4.5555">
        <ele>499.278320312</ele>
        <time>2016-02-04T10:39:02.633Z</time>
      </trkpt>
      <trkpt lat="46.05725" lon="4.55559">
        <ele>499.279663086</ele>
        <time>2016-02-04T10:39:10.774Z</time>
      </trkpt>
      <trkpt lat="46.05726" lon="4.5556">
        <ele>499.224609375</ele>
        <time>2016-02-04T10:39:11.632Z</time>
      </trkpt>
      <trkpt lat="46.05733" lon="4.55567">
        <ele>499.185119629</ele>
        <time>2016-02-04T10:39:16.666Z</time>
      </trkpt>
      <trkpt lat="46.05734" lon="4.55568">
        <ele>499.182037354</ele>
        <time>2016-02-04T10:39:17.665Z</time>
      </trkpt>
      <trkpt lat="46.05742" lon="4.55567">
        <ele>498.743865967</ele>
        <time>2016-02-04T10:39:23.771Z</time>
      </trkpt>
      <trkpt lat="46.05743" lon="4.55567">
        <ele>498.668304443</ele>
        <time>2016-02-04T10:39:24.626Z</time>
      </trkpt>
      <trkpt lat="46.05752" lon="4.55564">
        <ele>497.979217529</ele>
        <time>2016-02-04T10:39:29.673Z</time>
      </trkpt>
      <trkpt lat="46.05753" lon="4.55564">
        <ele>497.777862549</ele>
        <time>2016-02-04T10:39:30.639Z</time>
      </trkpt>
      <trkpt lat="46.05758" lon="4.55553">
        <ele>496.236785889</ele>
        <time>2016-02-04T10:40:18.673Z</time>
      </trkpt>
      <trkpt lat="46.0576" lon="4.55553">
        <ele>496.181518555</ele>
        <time>2016-02-04T10:40:19.635Z</time>
      </trkpt>
      <trkpt lat="46.05767" lon="4.55557">
        <ele>496.103881836</ele>
        <time>2016-02-04T10:40:26.789Z</time>
      </trkpt>
      <trkpt lat="46.05768" lon="4.55557">
        <ele>496.057952881</ele>
        <time>2016-02-04T10:40:27.643Z</time>
      </trkpt>
      <trkpt lat="46.05777" lon="4.55554">
        <ele>495.757751465</ele>
        <time>2016-02-04T10:40:36.671Z</time>
      </trkpt>
      <trkpt lat="46.05778" lon="4.55554">
        <ele>495.69821167</ele>
        <time>2016-02-04T10:40:37.632Z</time>
      </trkpt>
      <trkpt lat="46.05786" lon="4.55549">
        <ele>495.309143066</ele>
        <time>2016-02-04T10:40:46.69Z</time>
      </trkpt>
      <trkpt lat="46.05787" lon="4.55548">
        <ele>495.259246826</ele>
        <time>2016-02-04T10:40:47.637Z</time>
      </trkpt>
      <trkpt lat="46.05794" lon="4.55541">
        <ele>494.418731689</ele>
        <time>2016-02-04T10:40:54.671Z</time>
      </trkpt>
      <trkpt lat="46.05795" lon="4.5554">
        <ele>494.300292969</ele>
        <time>2016-02-04T10:40:55.647Z</time>
      </trkpt>
      <trkpt lat="46.058" lon="4.55531">
        <ele>493.897338867</ele>
        <time>2016-02-04T10:41:03.7Z</time>
      </trkpt>
      <trkpt lat="46.05801" lon="4.5553">
        <ele>493.827331543</ele>
        <time>2016-02-04T10:41:04.649Z</time>
      </trkpt>
      <trkpt lat="46.05804" lon="4.5552">
        <ele>493.848968506</ele>
        <time>2016-02-04T10:41:14.64Z</time>
      </trkpt>
      <trkpt lat="46.05804" lon="4.55518">
        <ele>493.816467285</ele>
        <time>2016-02-04T10:41:15.651Z</time>
      </trkpt>
      <trkpt lat="46.05811" lon="4.5551">
        <ele>493.687683105</ele>
        <time>2016-02-04T10:41:25.676Z</time>
      </trkpt>
      <trkpt lat="46.05812" lon="4.55509">
        <ele>493.683502197</ele>
        <time>2016-02-04T10:41:26.656Z</time>
      </trkpt>
      <trkpt lat="46.0582" lon="4.55505">
        <ele>493.764892578</ele>
        <time>2016-02-04T10:41:38.672Z</time>
      </trkpt>
      <trkpt lat="46.0582" lon="4.55504">
        <ele>493.773956299</ele>
        <time>2016-02-04T10:41:39.643Z</time>
      </trkpt>
      <trkpt lat="46.05826" lon="4.55495">
        <ele>494.139251709</ele>
        <time>2016-02-04T10:41:52.673Z</time>
      </trkpt>
      <trkpt lat="46.05826" lon="4.55494">
        <ele>494.151153564</ele>
        <time>2016-02-04T10:41:53.642Z</time>
      </trkpt>
      <trkpt lat="46.05834" lon="4.55488">
        <ele>494.018035889</ele>
        <time>2016-02-04T10:42:00.723Z</time>
      </trkpt>
      <trkpt lat="46.05835" lon="4.55487">
        <ele>494.064727783</ele>
        <time>2016-02-04T10:42:01.654Z</time>
      </trkpt>
      <trkpt lat="46.05842" lon="4.55483">
        <ele>495.560821533</ele>
        <time>2016-02-04T10:42:13.678Z</time>
      </trkpt>
      <trkpt lat="46.05843" lon="4.55482">
        <ele>495.730712891</ele>
        <time>2016-02-04T10:42:14.643Z</time>
      </trkpt>
      <trkpt lat="46.05851" lon="4.55476">
        <ele>496.195983887</ele>
        <time>2016-02-04T10:42:21.673Z</time>
      </trkpt>
      <trkpt lat="46.05852" lon="4.55475">
        <ele>496.186828613</ele>
        <time>2016-02-04T10:42:22.62Z</time>
      </trkpt>
      <trkpt lat="46.0586" lon="4.5547">
        <ele>495.948730469</ele>
        <time>2016-02-04T10:42:26.639Z</time>
      </trkpt>
      <trkpt lat="46.05861" lon="4.55468">
        <ele>495.849517822</ele>
        <time>2016-02-04T10:42:27.623Z</time>
      </trkpt>
      <trkpt lat="46.05867" lon="4.55458">
        <ele>495.600738525</ele>
        <time>2016-02-04T10:42:32.638Z</time>
      </trkpt>
      <trkpt lat="46.05867" lon="4.55456">
        <ele>495.637145996</ele>
        <time>2016-02-04T10:42:33.621Z</time>
      </trkpt>
      <trkpt lat="46.05871" lon="4.55448">
        <ele>493.947235107</ele>
        <time>2016-02-04T10:42:52.639Z</time>
      </trkpt>
      <trkpt lat="46.05871" lon="4.55443">
        <ele>493.566345215</ele>
        <time>2016-02-04T10:42:53.622Z</time>
      </trkpt>
      <trkpt lat="46.05874" lon="4.55432">
        <ele>492.632293701</ele>
        <time>2016-02-04T10:43:03.639Z</time>
      </trkpt>
      <trkpt lat="46.05875" lon="4.5543">
        <ele>492.615203857</ele>
        <time>2016-02-04T10:43:04.631Z</time>
      </trkpt>
      <trkpt lat="46.05874" lon="4.55442">
        <ele>494.136657715</ele>
        <time>2016-02-04T10:43:19.654Z</time>
      </trkpt>
      <trkpt lat="46.05873" lon="4.55443">
        <ele>494.110717773</ele>
        <time>2016-02-04T10:43:20.64Z</time>
      </trkpt>
      <trkpt lat="46.05873" lon="4.55455">
        <ele>493.875488281</ele>
        <time>2016-02-04T10:43:25.655Z</time>
      </trkpt>
      <trkpt lat="46.05874" lon="4.55457">
        <ele>493.796600342</ele>
        <time>2016-02-04T10:43:26.64Z</time>
      </trkpt>
      <trkpt lat="46.05872" lon="4.5547">
        <ele>493.054840088</ele>
        <time>2016-02-04T10:43:36.665Z</time>
      </trkpt>
      <trkpt lat="46.05873" lon="4.55471">
        <ele>492.915618896</ele>
        <time>2016-02-04T10:43:37.628Z</time>
      </trkpt>
      <trkpt lat="46.05874" lon="4.55483">
        <ele>492.070831299</ele>
        <time>2016-02-04T10:43:45.651Z</time>
      </trkpt>
      <trkpt lat="46.05874" lon="4.55485">
        <ele>492.146362305</ele>
        <time>2016-02-04T10:43:46.676Z</time>
      </trkpt>
      <trkpt lat="46.05875" lon="4.55498">
        <ele>492.472747803</ele>
        <time>2016-02-04T10:43:51.645Z</time>
      </trkpt>
      <trkpt lat="46.05875" lon="4.555">
        <ele>492.497283936</ele>
        <time>2016-02-04T10:43:52.63Z</time>
      </trkpt>
      <trkpt lat="46.05876" lon="4.5551">
        <ele>491.799438477</ele>
        <time>2016-02-04T10:43:58.651Z</time>
      </trkpt>
      <trkpt lat="46.05876" lon="4.55512">
        <ele>491.738891602</ele>
        <time>2016-02-04T10:43:59.625Z</time>
      </trkpt>
      <trkpt lat="46.05879" lon="4.55523">
        <ele>491.323028564</ele>
        <time>2016-02-04T10:44:04.692Z</time>
      </trkpt>
      <trkpt lat="46.05879" lon="4.55525">
        <ele>491.214477539</ele>
        <time>2016-02-04T10:44:05.636Z</time>
      </trkpt>
      <trkpt lat="46.05882" lon="4.55536">
        <ele>490.389923096</ele>
        <time>2016-02-04T10:44:10.655Z</time>
      </trkpt>
      <trkpt lat="46.05883" lon="4.55538">
        <ele>490.223937988</ele>
        <time>2016-02-04T10:44:11.638Z</time>
      </trkpt>
      <trkpt lat="46.05883" lon="4.55547">
        <ele>489.283538818</ele>
        <time>2016-02-04T10:44:17.661Z</time>
      </trkpt>
      <trkpt lat="46.05884" lon="4.55551">
        <ele>489.131256104</ele>
        <time>2016-02-04T10:44:18.637Z</time>
      </trkpt>
      <trkpt lat="46.05886" lon="4.55563">
        <ele>488.575805664</ele>
        <time>2016-02-04T10:44:24.664Z</time>
      </trkpt>
      <trkpt lat="46.05886" lon="4.55564">
        <ele>488.511627197</ele>
        <time>2016-02-04T10:44:25.638Z</time>
      </trkpt>
      <trkpt lat="46.05889" lon="4.55575">
        <ele>487.995605469</ele>
        <time>2016-02-04T10:44:30.657Z</time>
      </trkpt>
      <trkpt lat="46.05889" lon="4.55576">
        <ele>487.858459473</ele>
        <time>2016-02-04T10:44:31.638Z</time>
      </trkpt>
      <trkpt lat="46.05893" lon="4.55587">
        <ele>486.760955811</ele>
        <time>2016-02-04T10:44:40.642Z</time>
      </trkpt>
      <trkpt lat="46.05894" lon="4.55589">
        <ele>486.620513916</ele>
        <time>2016-02-04T10:44:41.63Z</time>
      </trkpt>
      <trkpt lat="46.05899" lon="4.556">
        <ele>485.819702148</ele>
        <time>2016-02-04T10:44:47.665Z</time>
      </trkpt>
      <trkpt lat="46.05899" lon="4.55601">
        <ele>485.685119629</ele>
        <time>2016-02-04T10:44:48.63Z</time>
      </trkpt>
      <trkpt lat="46.05903" lon="4.55611">
        <ele>484.89630127</ele>
        <time>2016-02-04T10:44:54.663Z</time>
      </trkpt>
      <trkpt lat="46.05903" lon="4.55613">
        <ele>484.686248779</ele>
        <time>2016-02-04T10:44:55.643Z</time>
      </trkpt>
      <trkpt lat="46.05907" lon="4.55624">
        <ele>484.239746094</ele>
        <time>2016-02-04T10:45:02.661Z</time>
      </trkpt>
      <trkpt lat="46.05908" lon="4.55625">
        <ele>484.196350098</ele>
        <time>2016-02-04T10:45:03.638Z</time>
      </trkpt>
      <trkpt lat="46.05911" lon="4.55637">
        <ele>483.855651855</ele>
        <time>2016-02-04T10:45:10.656Z</time>
      </trkpt>
      <trkpt lat="46.05913" lon="4.5564">
        <ele>483.757385254</ele>
        <time>2016-02-04T10:45:11.632Z</time>
      </trkpt>
      <trkpt lat="46.05917" lon="4.55652">
        <ele>483.445281982</ele>
        <time>2016-02-04T10:45:16.661Z</time>
      </trkpt>
      <trkpt lat="46.05917" lon="4.55654">
        <ele>483.385894775</ele>
        <time>2016-02-04T10:45:17.631Z</time>
      </trkpt>
      <trkpt lat="46.0592" lon="4.55665">
        <ele>483.130615234</ele>
        <time>2016-02-04T10:45:24.692Z</time>
      </trkpt>
      <trkpt lat="46.0592" lon="4.55667">
        <ele>483.122131348</ele>
        <time>2016-02-04T10:45:25.645Z</time>
      </trkpt>
      <trkpt lat="46.05923" lon="4.55677">
        <ele>482.848022461</ele>
        <time>2016-02-04T10:45:30.664Z</time>
      </trkpt>
      <trkpt lat="46.05924" lon="4.55678">
        <ele>482.781921387</ele>
        <time>2016-02-04T10:45:31.654Z</time>
      </trkpt>
      <trkpt lat="46.05929" lon="4.55687">
        <ele>482.36529541</ele>
        <time>2016-02-04T10:45:37.663Z</time>
      </trkpt>
      <trkpt lat="46.0593" lon="4.55688">
        <ele>482.378356934</ele>
        <time>2016-02-04T10:45:38.653Z</time>
      </trkpt>
      <trkpt lat="46.05935" lon="4.55697">
        <ele>482.426208496</ele>
        <time>2016-02-04T10:45:45.662Z</time>
      </trkpt>
      <trkpt lat="46.05936" lon="4.55699">
        <ele>482.385314941</ele>
        <time>2016-02-04T10:45:46.647Z</time>
      </trkpt>
      <trkpt lat="46.05941" lon="4.55708">
        <ele>482.530914307</ele>
        <time>2016-02-04T10:45:55.669Z</time>
      </trkpt>
      <trkpt lat="46.05942" lon="4.55709">
        <ele>482.583862305</ele>
        <time>2016-02-04T10:45:56.656Z</time>
      </trkpt>
      <trkpt lat="46.05947" lon="4.55719">
        <ele>483.215881348</ele>
        <time>2016-02-04T10:46:06.668Z</time>
      </trkpt>
      <trkpt lat="46.05947" lon="4.55721">
        <ele>483.285583496</ele>
        <time>2016-02-04T10:46:07.656Z</time>
      </trkpt>
      <trkpt lat="46.05951" lon="4.55732">
        <ele>483.675262451</ele>
        <time>2016-02-04T10:46:14.67Z</time>
      </trkpt>
      <trkpt lat="46.05952" lon="4.55733">
        <ele>483.694976807</ele>
        <time>2016-02-04T10:46:15.648Z</time>
      </trkpt>
      <trkpt lat="46.05955" lon="4.55745">
        <ele>484.197662354</ele>
        <time>2016-02-04T10:46:25.682Z</time>
      </trkpt>
      <trkpt lat="46.05956" lon="4.55746">
        <ele>484.183563232</ele>
        <time>2016-02-04T10:46:26.634Z</time>
      </trkpt>
      <trkpt lat="46.05961" lon="4.55757">
        <ele>484.851715088</ele>
        <time>2016-02-04T10:46:34.673Z</time>
      </trkpt>
      <trkpt lat="46.05961" lon="4.55758">
        <ele>484.978118896</ele>
        <time>2016-02-04T10:46:35.649Z</time>
      </trkpt>
      <trkpt lat="46.05967" lon="4.55768">
        <ele>485.485626221</ele>
        <time>2016-02-04T10:46:43.678Z</time>
      </trkpt>
      <trkpt lat="46.05967" lon="4.55769">
        <ele>485.56338501</ele>
        <time>2016-02-04T10:46:44.688Z</time>
      </trkpt>
      <trkpt lat="46.05972" lon="4.55779">
        <ele>486.423980713</ele>
        <time>2016-02-04T10:46:53.693Z</time>
      </trkpt>
      <trkpt lat="46.05973" lon="4.5578">
        <ele>486.465576172</ele>
        <time>2016-02-04T10:46:54.648Z</time>
      </trkpt>
      <trkpt lat="46.05978" lon="4.5579">
        <ele>487.08807373</ele>
        <time>2016-02-04T10:47:01.679Z</time>
      </trkpt>
      <trkpt lat="46.05978" lon="4.55792">
        <ele>487.218322754</ele>
        <time>2016-02-04T10:47:02.666Z</time>
      </trkpt>
      <trkpt lat="46.05984" lon="4.55801">
        <ele>488.010864258</ele>
        <time>2016-02-04T10:47:09.794Z</time>
      </trkpt>
      <trkpt lat="46.05984" lon="4.55803">
        <ele>488.122436523</ele>
        <time>2016-02-04T10:47:10.651Z</time>
      </trkpt>
      <trkpt lat="46.0599" lon="4.55812">
        <ele>488.116424561</ele>
        <time>2016-02-04T10:47:16.642Z</time>
      </trkpt>
      <trkpt lat="46.05991" lon="4.55813">
        <ele>488.104919434</ele>
        <time>2016-02-04T10:47:17.652Z</time>
      </trkpt>
      <trkpt lat="46.05998" lon="4.55822">
        <ele>488.34262085</ele>
        <time>2016-02-04T10:47:24.673Z</time>
      </trkpt>
      <trkpt lat="46.05999" lon="4.55823">
        <ele>488.441314697</ele>
        <time>2016-02-04T10:47:25.652Z</time>
      </trkpt>
      <trkpt lat="46.06005" lon="4.55829">
        <ele>489.029693604</ele>
        <time>2016-02-04T10:47:31.675Z</time>
      </trkpt>
      <trkpt lat="46.06006" lon="4.55831">
        <ele>489.151275635</ele>
        <time>2016-02-04T10:47:32.652Z</time>
      </trkpt>
      <trkpt lat="46.06014" lon="4.55837">
        <ele>489.627593994</ele>
        <time>2016-02-04T10:47:41.66Z</time>
      </trkpt>
      <trkpt lat="46.06016" lon="4.55838">
        <ele>489.701263428</ele>
        <time>2016-02-04T10:47:42.619Z</time>
      </trkpt>
      <trkpt lat="46.06023" lon="4.55844">
        <ele>490.028717041</ele>
        <time>2016-02-04T10:47:48.642Z</time>
      </trkpt>
      <trkpt lat="46.06024" lon="4.55844">
        <ele>490.068054199</ele>
        <time>2016-02-04T10:47:49.619Z</time>
      </trkpt>
      <trkpt lat="46.06032" lon="4.5585">
        <ele>493.373291016</ele>
        <time>2016-02-04T10:51:14.679Z</time>
      </trkpt>
      <trkpt lat="46.06033" lon="4.55851">
        <ele>493.415802002</ele>
        <time>2016-02-04T10:51:15.632Z</time>
      </trkpt>
      <trkpt lat="46.06028" lon="4.55861">
        <ele>494.31640625</ele>
        <time>2016-02-04T10:51:42.666Z</time>
      </trkpt>
      <trkpt lat="46.06027" lon="4.55862">
        <ele>494.293609619</ele>
        <time>2016-02-04T10:51:43.623Z</time>
      </trkpt>
      <trkpt lat="46.0602" lon="4.55869">
        <ele>494.260070801</ele>
        <time>2016-02-04T10:51:51.679Z</time>
      </trkpt>
      <trkpt lat="46.06019" lon="4.55871">
        <ele>494.247772217</ele>
        <time>2016-02-04T10:51:52.648Z</time>
      </trkpt>
      <trkpt lat="46.06014" lon="4.55881">
        <ele>494.041137695</ele>
        <time>2016-02-04T10:51:59.665Z</time>
      </trkpt>
      <trkpt lat="46.06013" lon="4.55883">
        <ele>493.977233887</ele>
        <time>2016-02-04T10:52:00.648Z</time>
      </trkpt>
      <trkpt lat="46.06008" lon="4.55892">
        <ele>493.239257812</ele>
        <time>2016-02-04T10:52:07.669Z</time>
      </trkpt>
      <trkpt lat="46.06007" lon="4.55893">
        <ele>493.098937988</ele>
        <time>2016-02-04T10:52:08.638Z</time>
      </trkpt>
      <trkpt lat="46.06001" lon="4.55901">
        <ele>492.259216309</ele>
        <time>2016-02-04T10:52:14.676Z</time>
      </trkpt>
      <trkpt lat="46.06" lon="4.55903">
        <ele>492.127502441</ele>
        <time>2016-02-04T10:52:15.648Z</time>
      </trkpt>
      <trkpt lat="46.05999" lon="4.55914">
        <ele>491.057250977</ele>
        <time>2016-02-04T10:52:23.675Z</time>
      </trkpt>
      <trkpt lat="46.06" lon="4.55916">
        <ele>490.951782227</ele>
        <time>2016-02-04T10:52:24.649Z</time>
      </trkpt>
      <trkpt lat="46.06007" lon="4.5592">
        <ele>490.276428223</ele>
        <time>2016-02-04T10:52:29.67Z</time>
      </trkpt>
      <trkpt lat="46.06008" lon="4.55921">
        <ele>490.126220703</ele>
        <time>2016-02-04T10:52:30.648Z</time>
      </trkpt>
      <trkpt lat="46.06016" lon="4.55927">
        <ele>489.618743896</ele>
        <time>2016-02-04T10:52:36.688Z</time>
      </trkpt>
      <trkpt lat="46.06018" lon="4.55927">
        <ele>489.578796387</ele>
        <time>2016-02-04T10:52:37.649Z</time>
      </trkpt>
      <trkpt lat="46.06025" lon="4.55929">
        <ele>489.264282227</ele>
        <time>2016-02-04T10:52:43.669Z</time>
      </trkpt>
      <trkpt lat="46.06027" lon="4.55929">
        <ele>489.189483643</ele>
        <time>2016-02-04T10:52:44.652Z</time>
      </trkpt>
      <trkpt lat="46.06035" lon="4.55931">
        <ele>488.670257568</ele>
        <time>2016-02-04T10:52:50.65Z</time>
      </trkpt>
      <trkpt lat="46.06036" lon="4.55931">
        <ele>488.603637695</ele>
        <time>2016-02-04T10:52:51.625Z</time>
      </trkpt>
      <trkpt lat="46.06045" lon="4.55933">
        <ele>488.218231201</ele>
        <time>2016-02-04T10:52:57.649Z</time>
      </trkpt>
      <trkpt lat="46.06046" lon="4.55933">
        <ele>488.16708374</ele>
        <time>2016-02-04T10:52:58.627Z</time>
      </trkpt>
      <trkpt lat="46.06054" lon="4.55936">
        <ele>487.74887085</ele>
        <time>2016-02-04T10:53:04.66Z</time>
      </trkpt>
      <trkpt lat="46.06055" lon="4.55936">
        <ele>487.703857422</ele>
        <time>2016-02-04T10:53:05.627Z</time>
      </trkpt>
      <trkpt lat="46.06064" lon="4.55939">
        <ele>487.445587158</ele>
        <time>2016-02-04T10:53:12.651Z</time>
      </trkpt>
      <trkpt lat="46.06065" lon="4.55939">
        <ele>487.426300049</ele>
        <time>2016-02-04T10:53:13.627Z</time>
      </trkpt>
      <trkpt lat="46.06071" lon="4.55946">
        <ele>487.118713379</ele>
        <time>2016-02-04T10:53:19.62Z</time>
      </trkpt>
      <trkpt lat="46.06071" lon="4.55948">
        <ele>487.110717773</ele>
        <time>2016-02-04T10:53:20.624Z</time>
      </trkpt>
      <trkpt lat="46.06072" lon="4.5596">
        <ele>487.297332764</ele>
        <time>2016-02-04T10:53:27.653Z</time>
      </trkpt>
      <trkpt lat="46.06072" lon="4.55962">
        <ele>487.349029541</ele>
        <time>2016-02-04T10:53:28.629Z</time>
      </trkpt>
      <trkpt lat="46.06071" lon="4.55974">
        <ele>487.785614014</ele>
        <time>2016-02-04T10:53:35.672Z</time>
      </trkpt>
      <trkpt lat="46.06071" lon="4.55976">
        <ele>487.856811523</ele>
        <time>2016-02-04T10:53:36.63Z</time>
      </trkpt>
      <trkpt lat="46.06073" lon="4.55987">
        <ele>487.864685059</ele>
        <time>2016-02-04T10:53:42.676Z</time>
      </trkpt>
      <trkpt lat="46.06073" lon="4.5599">
        <ele>487.804443359</ele>
        <time>2016-02-04T10:53:43.63Z</time>
      </trkpt>
      <trkpt lat="46.06075" lon="4.56003">
        <ele>487.654693604</ele>
        <time>2016-02-04T10:53:49.661Z</time>
      </trkpt>
      <trkpt lat="46.06076" lon="4.56005">
        <ele>487.658996582</ele>
        <time>2016-02-04T10:53:50.63Z</time>
      </trkpt>
      <trkpt lat="46.06077" lon="4.56017">
        <ele>487.654907227</ele>
        <time>2016-02-04T10:53:56.654Z</time>
      </trkpt>
      <trkpt lat="46.06077" lon="4.5602">
        <ele>487.638946533</ele>
        <time>2016-02-04T10:53:57.635Z</time>
      </trkpt>
      <trkpt lat="46.06078" lon="4.56031">
        <ele>487.652587891</ele>
        <time>2016-02-04T10:54:03.655Z</time>
      </trkpt>
      <trkpt lat="46.06079" lon="4.56034">
        <ele>487.590026855</ele>
        <time>2016-02-04T10:54:04.632Z</time>
      </trkpt>
      <trkpt lat="46.0608" lon="4.56046">
        <ele>487.249938965</ele>
        <time>2016-02-04T10:54:10.675Z</time>
      </trkpt>
      <trkpt lat="46.0608" lon="4.56048">
        <ele>487.250274658</ele>
        <time>2016-02-04T10:54:11.612Z</time>
      </trkpt>
      <trkpt lat="46.0608" lon="4.56059">
        <ele>487.641204834</ele>
        <time>2016-02-04T10:54:18.675Z</time>
      </trkpt>
      <trkpt lat="46.0608" lon="4.56061">
        <ele>487.71987915</ele>
        <time>2016-02-04T10:54:19.632Z</time>
      </trkpt>
      <trkpt lat="46.06081" lon="4.56072">
        <ele>488.106109619</ele>
        <time>2016-02-04T10:54:24.655Z</time>
      </trkpt>
      <trkpt lat="46.06081" lon="4.56074">
        <ele>488.167144775</ele>
        <time>2016-02-04T10:54:25.629Z</time>
      </trkpt>
      <trkpt lat="46.06081" lon="4.56086">
        <ele>488.432342529</ele>
        <time>2016-02-04T10:54:31.667Z</time>
      </trkpt>
      <trkpt lat="46.06081" lon="4.56088">
        <ele>488.478668213</ele>
        <time>2016-02-04T10:54:32.634Z</time>
      </trkpt>
      <trkpt lat="46.06079" lon="4.56101">
        <ele>488.599334717</ele>
        <time>2016-02-04T10:54:39.657Z</time>
      </trkpt>
      <trkpt lat="46.06079" lon="4.56104">
        <ele>488.601196289</ele>
        <time>2016-02-04T10:54:40.635Z</time>
      </trkpt>
      <trkpt lat="46.06076" lon="4.56115">
        <ele>488.506469727</ele>
        <time>2016-02-04T10:54:46.678Z</time>
      </trkpt>
      <trkpt lat="46.06075" lon="4.56116">
        <ele>488.507019043</ele>
        <time>2016-02-04T10:54:47.627Z</time>
      </trkpt>
      <trkpt lat="46.06073" lon="4.56129">
        <ele>488.493713379</ele>
        <time>2016-02-04T10:54:54.647Z</time>
      </trkpt>
      <trkpt lat="46.06073" lon="4.5613">
        <ele>488.479064941</ele>
        <time>2016-02-04T10:54:55.624Z</time>
      </trkpt>
      <trkpt lat="46.06074" lon="4.56141">
        <ele>488.377288818</ele>
        <time>2016-02-04T10:55:01.646Z</time>
      </trkpt>
      <trkpt lat="46.06075" lon="4.56144">
        <ele>488.345092773</ele>
        <time>2016-02-04T10:55:02.626Z</time>
      </trkpt>
      <trkpt lat="46.06074" lon="4.56155">
        <ele>487.905883789</ele>
        <time>2016-02-04T10:55:09.756Z</time>
      </trkpt>
      <trkpt lat="46.06074" lon="4.56157">
        <ele>487.827270508</ele>
        <time>2016-02-04T10:55:10.647Z</time>
      </trkpt>
      <trkpt lat="46.06073" lon="4.56168">
        <ele>487.525695801</ele>
        <time>2016-02-04T10:55:15.66Z</time>
      </trkpt>
      <trkpt lat="46.06073" lon="4.5617">
        <ele>487.466918945</ele>
        <time>2016-02-04T10:55:16.64Z</time>
      </trkpt>
      <trkpt lat="46.06073" lon="4.56182">
        <ele>486.789733887</ele>
        <time>2016-02-04T10:55:23.671Z</time>
      </trkpt>
      <trkpt lat="46.06072" lon="4.56184">
        <ele>486.702453613</ele>
        <time>2016-02-04T10:55:24.634Z</time>
      </trkpt>
      <trkpt lat="46.06073" lon="4.56196">
        <ele>486.199432373</ele>
        <time>2016-02-04T10:55:31.647Z</time>
      </trkpt>
      <trkpt lat="46.06073" lon="4.56198">
        <ele>486.155181885</ele>
        <time>2016-02-04T10:55:32.638Z</time>
      </trkpt>
      <trkpt lat="46.06074" lon="4.56211">
        <ele>485.732543945</ele>
        <time>2016-02-04T10:55:38.664Z</time>
      </trkpt>
      <trkpt lat="46.06075" lon="4.56212">
        <ele>485.613769531</ele>
        <time>2016-02-04T10:55:39.639Z</time>
      </trkpt>
      <trkpt lat="46.06078" lon="4.56222">
        <ele>485.107055664</ele>
        <time>2016-02-04T10:55:45.685Z</time>
      </trkpt>
      <trkpt lat="46.06079" lon="4.56224">
        <ele>484.988586426</ele>
        <time>2016-02-04T10:55:46.64Z</time>
      </trkpt>
      <trkpt lat="46.06084" lon="4.56233">
        <ele>484.799957275</ele>
        <time>2016-02-04T10:55:53.669Z</time>
      </trkpt>
      <trkpt lat="46.06085" lon="4.56235">
        <ele>484.753234863</ele>
        <time>2016-02-04T10:55:54.645Z</time>
      </trkpt>
      <trkpt lat="46.06083" lon="4.56245">
        <ele>484.432769775</ele>
        <time>2016-02-04T10:56:03.667Z</time>
      </trkpt>
      <trkpt lat="46.06082" lon="4.56247">
        <ele>484.342407227</ele>
        <time>2016-02-04T10:56:04.641Z</time>
      </trkpt>
      <trkpt lat="46.06079" lon="4.56257">
        <ele>483.798919678</ele>
        <time>2016-02-04T10:56:09.667Z</time>
      </trkpt>
      <trkpt lat="46.06078" lon="4.56259">
        <ele>483.701141357</ele>
        <time>2016-02-04T10:56:10.641Z</time>
      </trkpt>
      <trkpt lat="46.06074" lon="4.5627">
        <ele>483.102416992</ele>
        <time>2016-02-04T10:56:18.667Z</time>
      </trkpt>
      <trkpt lat="46.06074" lon="4.56271">
        <ele>483.082611084</ele>
        <time>2016-02-04T10:56:19.644Z</time>
      </trkpt>
      <trkpt lat="46.0607" lon="4.56282">
        <ele>482.879821777</ele>
        <time>2016-02-04T10:56:26.665Z</time>
      </trkpt>
      <trkpt lat="46.06069" lon="4.56283">
        <ele>482.867553711</ele>
        <time>2016-02-04T10:56:27.644Z</time>
      </trkpt>
      <trkpt lat="46.06065" lon="4.56292">
        <ele>482.603942871</ele>
        <time>2016-02-04T10:56:32.705Z</time>
      </trkpt>
      <trkpt lat="46.06064" lon="4.56293">
        <ele>482.528717041</ele>
        <time>2016-02-04T10:56:33.645Z</time>
      </trkpt>
      <trkpt lat="46.0606" lon="4.56304">
        <ele>481.890106201</ele>
        <time>2016-02-04T10:56:40.672Z</time>
      </trkpt>
      <trkpt lat="46.06059" lon="4.56305">
        <ele>481.778442383</ele>
        <time>2016-02-04T10:56:41.645Z</time>
      </trkpt>
      <trkpt lat="46.06055" lon="4.56317">
        <ele>480.900024414</ele>
        <time>2016-02-04T10:56:47.684Z</time>
      </trkpt>
      <trkpt lat="46.06055" lon="4.56318">
        <ele>480.720672607</ele>
        <time>2016-02-04T10:56:48.644Z</time>
      </trkpt>
      <trkpt lat="46.0605" lon="4.56329">
        <ele>478.426208496</ele>
        <time>2016-02-04T10:57:19.674Z</time>
      </trkpt>
      <trkpt lat="46.0605" lon="4.56331">
        <ele>478.27041626</ele>
        <time>2016-02-04T10:57:20.647Z</time>
      </trkpt>
      <trkpt lat="46.06046" lon="4.56341">
        <ele>477.060180664</ele>
        <time>2016-02-04T10:57:27.681Z</time>
      </trkpt>
      <trkpt lat="46.06045" lon="4.56343">
        <ele>476.898956299</ele>
        <time>2016-02-04T10:57:28.636Z</time>
      </trkpt>
      <trkpt lat="46.06043" lon="4.56354">
        <ele>475.898864746</ele>
        <time>2016-02-04T10:57:34.685Z</time>
      </trkpt>
      <trkpt lat="46.06042" lon="4.56356">
        <ele>475.759216309</ele>
        <time>2016-02-04T10:57:35.647Z</time>
      </trkpt>
      <trkpt lat="46.06038" lon="4.56366">
        <ele>474.761413574</ele>
        <time>2016-02-04T10:57:42.684Z</time>
      </trkpt>
      <trkpt lat="46.06037" lon="4.56368">
        <ele>474.643615723</ele>
        <time>2016-02-04T10:57:43.649Z</time>
      </trkpt>
      <trkpt lat="46.06033" lon="4.56379">
        <ele>473.656768799</ele>
        <time>2016-02-04T10:57:50.67Z</time>
      </trkpt>
      <trkpt lat="46.06032" lon="4.5638">
        <ele>473.527252197</ele>
        <time>2016-02-04T10:57:51.652Z</time>
      </trkpt>
      <trkpt lat="46.06027" lon="4.56391">
        <ele>472.882781982</ele>
        <time>2016-02-04T10:57:58.64Z</time>
      </trkpt>
      <trkpt lat="46.06026" lon="4.56392">
        <ele>472.790893555</ele>
        <time>2016-02-04T10:57:59.652Z</time>
      </trkpt>
      <trkpt lat="46.06021" lon="4.56401">
        <ele>472.048980713</ele>
        <time>2016-02-04T10:58:05.671Z</time>
      </trkpt>
      <trkpt lat="46.0602" lon="4.56402">
        <ele>471.876312256</ele>
        <time>2016-02-04T10:58:06.627Z</time>
      </trkpt>
      <trkpt lat="46.06014" lon="4.5641">
        <ele>471.111968994</ele>
        <time>2016-02-04T10:58:13.643Z</time>
      </trkpt>
      <trkpt lat="46.06013" lon="4.56411">
        <ele>471.020843506</ele>
        <time>2016-02-04T10:58:14.62Z</time>
      </trkpt>
      <trkpt lat="46.06006" lon="4.56419">
        <ele>470.176361084</ele>
        <time>2016-02-04T10:58:21.626Z</time>
      </trkpt>
      <trkpt lat="46.06005" lon="4.5642">
        <ele>470.120758057</ele>
        <time>2016-02-04T10:58:22.62Z</time>
      </trkpt>
      <trkpt lat="46.05998" lon="4.56426">
        <ele>469.601745605</ele>
        <time>2016-02-04T10:58:29.644Z</time>
      </trkpt>
      <trkpt lat="46.05996" lon="4.56428">
        <ele>469.558074951</ele>
        <time>2016-02-04T10:58:30.621Z</time>
      </trkpt>
      <trkpt lat="46.0599" lon="4.56435">
        <ele>468.99621582</ele>
        <time>2016-02-04T10:58:36.764Z</time>
      </trkpt>
      <trkpt lat="46.05989" lon="4.56437">
        <ele>468.881195068</ele>
        <time>2016-02-04T10:58:37.618Z</time>
      </trkpt>
      <trkpt lat="46.05984" lon="4.56446">
        <ele>468.322113037</ele>
        <time>2016-02-04T10:58:42.651Z</time>
      </trkpt>
      <trkpt lat="46.05983" lon="4.56448">
        <ele>468.202819824</ele>
        <time>2016-02-04T10:58:43.642Z</time>
      </trkpt>
      <trkpt lat="46.05978" lon="4.56458">
        <ele>467.25088501</ele>
        <time>2016-02-04T10:58:50.657Z</time>
      </trkpt>
      <trkpt lat="46.05977" lon="4.56459">
        <ele>467.100158691</ele>
        <time>2016-02-04T10:58:51.623Z</time>
      </trkpt>
      <trkpt lat="46.05972" lon="4.56467">
        <ele>466.194213867</ele>
        <time>2016-02-04T10:58:59.65Z</time>
      </trkpt>
      <trkpt lat="46.05971" lon="4.56469">
        <ele>466.085418701</ele>
        <time>2016-02-04T10:59:00.631Z</time>
      </trkpt>
      <trkpt lat="46.05965" lon="4.56478">
        <ele>465.20010376</ele>
        <time>2016-02-04T10:59:10.653Z</time>
      </trkpt>
      <trkpt lat="46.05965" lon="4.56478">
        <ele>465.247650146</ele>
        <time>2016-02-04T10:59:11.626Z</time>
      </trkpt>
      <trkpt lat="46.05957" lon="4.56485">
        <ele>464.845825195</ele>
        <time>2016-02-04T10:59:38.74Z</time>
      </trkpt>
      <trkpt lat="46.05957" lon="4.56486">
        <ele>464.760223389</ele>
        <time>2016-02-04T10:59:39.622Z</time>
      </trkpt>
      <trkpt lat="46.0595" lon="4.56495">
        <ele>464.010620117</ele>
        <time>2016-02-04T10:59:47.655Z</time>
      </trkpt>
      <trkpt lat="46.0595" lon="4.56496">
        <ele>463.875762939</ele>
        <time>2016-02-04T10:59:48.627Z</time>
      </trkpt>
      <trkpt lat="46.05945" lon="4.56507">
        <ele>463.310638428</ele>
        <time>2016-02-04T10:59:55.671Z</time>
      </trkpt>
      <trkpt lat="46.05944" lon="4.56509">
        <ele>463.205413818</ele>
        <time>2016-02-04T10:59:56.626Z</time>
      </trkpt>
      <trkpt lat="46.0594" lon="4.56518">
        <ele>462.377655029</ele>
        <time>2016-02-04T11:00:03.664Z</time>
      </trkpt>
      <trkpt lat="46.05939" lon="4.5652">
        <ele>462.229248047</ele>
        <time>2016-02-04T11:00:04.636Z</time>
      </trkpt>
      <trkpt lat="46.05938" lon="4.56532">
        <ele>461.438903809</ele>
        <time>2016-02-04T11:00:10.664Z</time>
      </trkpt>
      <trkpt lat="46.05938" lon="4.56533">
        <ele>461.329193115</ele>
        <time>2016-02-04T11:00:11.636Z</time>
      </trkpt>
      <trkpt lat="46.05936" lon="4.56544">
        <ele>460.183044434</ele>
        <time>2016-02-04T11:00:19.673Z</time>
      </trkpt>
      <trkpt lat="46.05936" lon="4.56546">
        <ele>460.039398193</ele>
        <time>2016-02-04T11:00:20.625Z</time>
      </trkpt>
      <trkpt lat="46.05934" lon="4.56557">
        <ele>459.134979248</ele>
        <time>2016-02-04T11:00:27.665Z</time>
      </trkpt>
      <trkpt lat="46.05934" lon="4.56559">
        <ele>458.998626709</ele>
        <time>2016-02-04T11:00:28.638Z</time>
      </trkpt>
      <trkpt lat="46.05931" lon="4.5657">
        <ele>457.786376953</ele>
        <time>2016-02-04T11:00:36.662Z</time>
      </trkpt>
      <trkpt lat="46.0593" lon="4.56572">
        <ele>457.6300354</ele>
        <time>2016-02-04T11:00:37.638Z</time>
      </trkpt>
      <trkpt lat="46.05925" lon="4.56582">
        <ele>456.250671387</ele>
        <time>2016-02-04T11:00:47.669Z</time>
      </trkpt>
      <trkpt lat="46.05925" lon="4.56584">
        <ele>456.075958252</ele>
        <time>2016-02-04T11:00:48.642Z</time>
      </trkpt>
      <trkpt lat="46.0592" lon="4.56594">
        <ele>454.636383057</ele>
        <time>2016-02-04T11:00:56.666Z</time>
      </trkpt>
      <trkpt lat="46.0592" lon="4.56595">
        <ele>454.407745361</ele>
        <time>2016-02-04T11:00:57.623Z</time>
      </trkpt>
      <trkpt lat="46.05916" lon="4.56607">
        <ele>452.827148438</ele>
        <time>2016-02-04T11:01:05.66Z</time>
      </trkpt>
      <trkpt lat="46.05916" lon="4.56608">
        <ele>452.640380859</ele>
        <time>2016-02-04T11:01:06.639Z</time>
      </trkpt>
      <trkpt lat="46.05917" lon="4.56621">
        <ele>450.881011963</ele>
        <time>2016-02-04T11:01:14.652Z</time>
      </trkpt>
      <trkpt lat="46.05916" lon="4.56622">
        <ele>450.682434082</ele>
        <time>2016-02-04T11:01:15.64Z</time>
      </trkpt>
      <trkpt lat="46.05911" lon="4.56631">
        <ele>449.071899414</ele>
        <time>2016-02-04T11:01:23.657Z</time>
      </trkpt>
      <trkpt lat="46.05911" lon="4.56633">
        <ele>448.878417969</ele>
        <time>2016-02-04T11:01:24.641Z</time>
      </trkpt>
      <trkpt lat="46.05908" lon="4.56645">
        <ele>447.539398193</ele>
        <time>2016-02-04T11:01:31.662Z</time>
      </trkpt>
      <trkpt lat="46.05907" lon="4.56646">
        <ele>447.318695068</ele>
        <time>2016-02-04T11:01:32.643Z</time>
      </trkpt>
      <trkpt lat="46.05904" lon="4.56658">
        <ele>445.697479248</ele>
        <time>2016-02-04T11:01:40.669Z</time>
      </trkpt>
      <trkpt lat="46.05904" lon="4.56659">
        <ele>445.491851807</ele>
        <time>2016-02-04T11:01:41.621Z</time>
      </trkpt>
      <trkpt lat="46.059" lon="4.5667">
        <ele>443.633422852</ele>
        <time>2016-02-04T11:01:49.67Z</time>
      </trkpt>
      <trkpt lat="46.05899" lon="4.56671">
        <ele>443.389801025</ele>
        <time>2016-02-04T11:01:50.646Z</time>
      </trkpt>
      <trkpt lat="46.05897" lon="4.56684">
        <ele>442.048553467</ele>
        <time>2016-02-04T11:01:56.671Z</time>
      </trkpt>
      <trkpt lat="46.05897" lon="4.56685">
        <ele>441.832672119</ele>
        <time>2016-02-04T11:01:57.669Z</time>
      </trkpt>
      <trkpt lat="46.05894" lon="4.56696">
        <ele>440.346710205</ele>
        <time>2016-02-04T11:02:04.673Z</time>
      </trkpt>
      <trkpt lat="46.05893" lon="4.56697">
        <ele>440.212463379</ele>
        <time>2016-02-04T11:02:05.653Z</time>
      </trkpt>
      <trkpt lat="46.0589" lon="4.56709">
        <ele>438.461090088</ele>
        <time>2016-02-04T11:02:12.657Z</time>
      </trkpt>
      <trkpt lat="46.05889" lon="4.56711">
        <ele>438.187866211</ele>
        <time>2016-02-04T11:02:13.647Z</time>
      </trkpt>
      <trkpt lat="46.05886" lon="4.56723">
        <ele>436.250213623</ele>
        <time>2016-02-04T11:02:20.673Z</time>
      </trkpt>
      <trkpt lat="46.05885" lon="4.56725">
        <ele>435.945922852</ele>
        <time>2016-02-04T11:02:21.647Z</time>
      </trkpt>
      <trkpt lat="46.05881" lon="4.56735">
        <ele>433.854675293</ele>
        <time>2016-02-04T11:02:29.668Z</time>
      </trkpt>
      <trkpt lat="46.05881" lon="4.56736">
        <ele>433.713531494</ele>
        <time>2016-02-04T11:02:30.647Z</time>
      </trkpt>
      <trkpt lat="46.05878" lon="4.56748">
        <ele>432.533081055</ele>
        <time>2016-02-04T11:02:37.661Z</time>
      </trkpt>
      <trkpt lat="46.05877" lon="4.56749">
        <ele>432.348937988</ele>
        <time>2016-02-04T11:02:38.652Z</time>
      </trkpt>
      <trkpt lat="46.05873" lon="4.56761">
        <ele>431.357879639</ele>
        <time>2016-02-04T11:02:44.676Z</time>
      </trkpt>
      <trkpt lat="46.05873" lon="4.56763">
        <ele>431.113830566</ele>
        <time>2016-02-04T11:02:45.649Z</time>
      </trkpt>
      <trkpt lat="46.05879" lon="4.5677">
        <ele>429.201171875</ele>
        <time>2016-02-04T11:02:55.672Z</time>
      </trkpt>
      <trkpt lat="46.05881" lon="4.5677">
        <ele>429.008331299</ele>
        <time>2016-02-04T11:02:56.662Z</time>
      </trkpt>
      <trkpt lat="46.0589" lon="4.56769">
        <ele>427.285614014</ele>
        <time>2016-02-04T11:03:04.672Z</time>
      </trkpt>
      <trkpt lat="46.05891" lon="4.56769">
        <ele>426.996551514</ele>
        <time>2016-02-04T11:03:05.657Z</time>
      </trkpt>
      <trkpt lat="46.05892" lon="4.56781">
        <ele>423.181091309</ele>
        <time>2016-02-04T11:03:26.655Z</time>
      </trkpt>
      <trkpt lat="46.05892" lon="4.56782">
        <ele>423.192596436</ele>
        <time>2016-02-04T11:03:27.626Z</time>
      </trkpt>
      <trkpt lat="46.05885" lon="4.56788">
        <ele>422.566345215</ele>
        <time>2016-02-04T11:03:37.654Z</time>
      </trkpt>
      <trkpt lat="46.05884" lon="4.56789">
        <ele>422.477386475</ele>
        <time>2016-02-04T11:03:38.63Z</time>
      </trkpt>
      <trkpt lat="46.05877" lon="4.56795">
        <ele>421.768615723</ele>
        <time>2016-02-04T11:03:49.675Z</time>
      </trkpt>
      <trkpt lat="46.05876" lon="4.56796">
        <ele>421.675170898</ele>
        <time>2016-02-04T11:03:50.628Z</time>
      </trkpt>
      <trkpt lat="46.05868" lon="4.56793">
        <ele>420.453887939</ele>
        <time>2016-02-04T11:04:02.654Z</time>
      </trkpt>
      <trkpt lat="46.05867" lon="4.56792">
        <ele>420.324951172</ele>
        <time>2016-02-04T11:04:03.628Z</time>
      </trkpt>
      <trkpt lat="46.0586" lon="4.568">
        <ele>419.035919189</ele>
        <time>2016-02-04T11:04:17.671Z</time>
      </trkpt>
      <trkpt lat="46.05859" lon="4.56801">
        <ele>418.974731445</ele>
        <time>2016-02-04T11:04:18.618Z</time>
      </trkpt>
      <trkpt lat="46.0585" lon="4.56798">
        <ele>417.999816895</ele>
        <time>2016-02-04T11:04:36.659Z</time>
      </trkpt>
      <trkpt lat="46.0585" lon="4.568">
        <ele>417.726928711</ele>
        <time>2016-02-04T11:04:37.618Z</time>
      </trkpt>
      <trkpt lat="46.05847" lon="4.56812">
        <ele>415.198181152</ele>
        <time>2016-02-04T11:04:47.646Z</time>
      </trkpt>
      <trkpt lat="46.05847" lon="4.56813">
        <ele>414.955047607</ele>
        <time>2016-02-04T11:04:48.633Z</time>
      </trkpt>
      <trkpt lat="46.05846" lon="4.56825">
        <ele>413.895721436</ele>
        <time>2016-02-04T11:04:56.656Z</time>
      </trkpt>
      <trkpt lat="46.05846" lon="4.56826">
        <ele>413.819458008</ele>
        <time>2016-02-04T11:04:57.634Z</time>
      </trkpt>
      <trkpt lat="46.05846" lon="4.56839">
        <ele>412.8125</ele>
        <time>2016-02-04T11:05:07.665Z</time>
      </trkpt>
      <trkpt lat="46.05846" lon="4.5684">
        <ele>412.618988037</ele>
        <time>2016-02-04T11:05:08.635Z</time>
      </trkpt>
      <trkpt lat="46.05846" lon="4.56853">
        <ele>411.700073242</ele>
        <time>2016-02-04T11:05:16.654Z</time>
      </trkpt>
      <trkpt lat="46.05846" lon="4.56854">
        <ele>411.668151855</ele>
        <time>2016-02-04T11:05:17.634Z</time>
      </trkpt>
      <trkpt lat="46.05843" lon="4.56864">
        <ele>412.405914307</ele>
        <time>2016-02-04T11:05:27.664Z</time>
      </trkpt>
      <trkpt lat="46.05842" lon="4.56866">
        <ele>412.42276001</ele>
        <time>2016-02-04T11:05:28.646Z</time>
      </trkpt>
      <trkpt lat="46.05835" lon="4.56874">
        <ele>413.164611816</ele>
        <time>2016-02-04T11:05:42.661Z</time>
      </trkpt>
      <trkpt lat="46.05835" lon="4.56875">
        <ele>413.052612305</ele>
        <time>2016-02-04T11:05:43.637Z</time>
      </trkpt>
      <trkpt lat="46.05827" lon="4.56882">
        <ele>412.309387207</ele>
        <time>2016-02-04T11:05:48.66Z</time>
      </trkpt>
      <trkpt lat="46.05825" lon="4.56883">
        <ele>412.131317139</ele>
        <time>2016-02-04T11:05:49.64Z</time>
      </trkpt>
      <trkpt lat="46.05818" lon="4.5689">
        <ele>410.764678955</ele>
        <time>2016-02-04T11:05:55.669Z</time>
      </trkpt>
      <trkpt lat="46.05817" lon="4.5689">
        <ele>410.535125732</ele>
        <time>2016-02-04T11:05:56.634Z</time>
      </trkpt>
      <trkpt lat="46.0581" lon="4.56898">
        <ele>408.429382324</ele>
        <time>2016-02-04T11:06:06.659Z</time>
      </trkpt>
      <trkpt lat="46.0581" lon="4.569">
        <ele>408.270690918</ele>
        <time>2016-02-04T11:06:07.643Z</time>
      </trkpt>
      <trkpt lat="46.05807" lon="4.5691">
        <ele>406.943939209</ele>
        <time>2016-02-04T11:06:16.79Z</time>
      </trkpt>
      <trkpt lat="46.05807" lon="4.56912">
        <ele>406.807189941</ele>
        <time>2016-02-04T11:06:17.639Z</time>
      </trkpt>
      <trkpt lat="46.05805" lon="4.56923">
        <ele>406.922515869</ele>
        <time>2016-02-04T11:06:24.661Z</time>
      </trkpt>
      <trkpt lat="46.05805" lon="4.56925">
        <ele>407.093658447</ele>
        <time>2016-02-04T11:06:25.64Z</time>
      </trkpt>
      <trkpt lat="46.05805" lon="4.56936">
        <ele>408.159606934</ele>
        <time>2016-02-04T11:06:32.8Z</time>
      </trkpt>
      <trkpt lat="46.05804" lon="4.56938">
        <ele>408.16317749</ele>
        <time>2016-02-04T11:06:33.638Z</time>
      </trkpt>
      <trkpt lat="46.05803" lon="4.56949">
        <ele>408.659820557</ele>
        <time>2016-02-04T11:06:39.667Z</time>
      </trkpt>
      <trkpt lat="46.05802" lon="4.5695">
        <ele>408.802520752</ele>
        <time>2016-02-04T11:06:40.641Z</time>
      </trkpt>
      <trkpt lat="46.05796" lon="4.56959">
        <ele>408.917541504</ele>
        <time>2016-02-04T11:06:48.67Z</time>
      </trkpt>
      <trkpt lat="46.05795" lon="4.5696">
        <ele>408.914245605</ele>
        <time>2016-02-04T11:06:49.642Z</time>
      </trkpt>
      <trkpt lat="46.05789" lon="4.56968">
        <ele>409.729370117</ele>
        <time>2016-02-04T11:07:00.639Z</time>
      </trkpt>
      <trkpt lat="46.05788" lon="4.56969">
        <ele>409.790008545</ele>
        <time>2016-02-04T11:07:01.644Z</time>
      </trkpt>
      <trkpt lat="46.0578" lon="4.56975">
        <ele>410.734619141</ele>
        <time>2016-02-04T11:07:15.665Z</time>
      </trkpt>
      <trkpt lat="46.0578" lon="4.56975">
        <ele>410.725585938</ele>
        <time>2016-02-04T11:07:16.644Z</time>
      </trkpt>
      <trkpt lat="46.05771" lon="4.56978">
        <ele>411.06048584</ele>
        <time>2016-02-04T11:07:24.669Z</time>
      </trkpt>
      <trkpt lat="46.0577" lon="4.56979">
        <ele>411.076507568</ele>
        <time>2016-02-04T11:07:25.632Z</time>
      </trkpt>
      <trkpt lat="46.05765" lon="4.56989">
        <ele>411.61706543</ele>
        <time>2016-02-04T11:07:36.663Z</time>
      </trkpt>
      <trkpt lat="46.05765" lon="4.5699">
        <ele>411.807617188</ele>
        <time>2016-02-04T11:07:37.649Z</time>
      </trkpt>
      <trkpt lat="46.0577" lon="4.57">
        <ele>412.336029053</ele>
        <time>2016-02-04T11:07:49.682Z</time>
      </trkpt>
      <trkpt lat="46.0577" lon="4.57001">
        <ele>412.418395996</ele>
        <time>2016-02-04T11:07:50.646Z</time>
      </trkpt>
      <trkpt lat="46.05777" lon="4.57008">
        <ele>413.050476074</ele>
        <time>2016-02-04T11:08:02.677Z</time>
      </trkpt>
      <trkpt lat="46.05778" lon="4.57009">
        <ele>413.180114746</ele>
        <time>2016-02-04T11:08:03.648Z</time>
      </trkpt>
      <trkpt lat="46.05783" lon="4.57019">
        <ele>413.522064209</ele>
        <time>2016-02-04T11:08:10.674Z</time>
      </trkpt>
      <trkpt lat="46.05783" lon="4.5702">
        <ele>413.520355225</ele>
        <time>2016-02-04T11:08:11.649Z</time>
      </trkpt>
      <trkpt lat="46.05786" lon="4.57031">
        <ele>413.274932861</ele>
        <time>2016-02-04T11:08:16.674Z</time>
      </trkpt>
      <trkpt lat="46.05787" lon="4.57034">
        <ele>413.262207031</ele>
        <time>2016-02-04T11:08:17.648Z</time>
      </trkpt>
      <trkpt lat="46.05789" lon="4.57046">
        <ele>412.841461182</ele>
        <time>2016-02-04T11:08:23.674Z</time>
      </trkpt>
      <trkpt lat="46.05788" lon="4.57048">
        <ele>412.711242676</ele>
        <time>2016-02-04T11:08:24.649Z</time>
      </trkpt>
      <trkpt lat="46.05788" lon="4.5706">
        <ele>412.642669678</ele>
        <time>2016-02-04T11:08:35.656Z</time>
      </trkpt>
      <trkpt lat="46.05788" lon="4.57061">
        <ele>412.647918701</ele>
        <time>2016-02-04T11:08:36.625Z</time>
      </trkpt>
      <trkpt lat="46.05786" lon="4.57072">
        <ele>412.187591553</ele>
        <time>2016-02-04T11:08:43.635Z</time>
      </trkpt>
      <trkpt lat="46.05786" lon="4.57073">
        <ele>412.09564209</ele>
        <time>2016-02-04T11:08:44.618Z</time>
      </trkpt>
      <trkpt lat="46.05785" lon="4.57085">
        <ele>411.463439941</ele>
        <time>2016-02-04T11:08:50.643Z</time>
      </trkpt>
      <trkpt lat="46.05785" lon="4.57086">
        <ele>411.347015381</ele>
        <time>2016-02-04T11:08:51.62Z</time>
      </trkpt>
      <trkpt lat="46.05784" lon="4.57098">
        <ele>410.852233887</ele>
        <time>2016-02-04T11:08:59.648Z</time>
      </trkpt>
      <trkpt lat="46.05784" lon="4.571">
        <ele>410.884399414</ele>
        <time>2016-02-04T11:09:00.617Z</time>
      </trkpt>
      <trkpt lat="46.05783" lon="4.57112">
        <ele>411.10369873</ele>
        <time>2016-02-04T11:09:08.649Z</time>
      </trkpt>
      <trkpt lat="46.05783" lon="4.57113">
        <ele>411.158996582</ele>
        <time>2016-02-04T11:09:09.616Z</time>
      </trkpt>
      <trkpt lat="46.05781" lon="4.57126">
        <ele>411.409454346</ele>
        <time>2016-02-04T11:09:21.635Z</time>
      </trkpt>
      <trkpt lat="46.05781" lon="4.57127">
        <ele>411.359344482</ele>
        <time>2016-02-04T11:09:22.621Z</time>
      </trkpt>
      <trkpt lat="46.05779" lon="4.57139">
        <ele>411.416534424</ele>
        <time>2016-02-04T11:09:34.646Z</time>
      </trkpt>
      <trkpt lat="46.05779" lon="4.5714">
        <ele>411.402862549</ele>
        <time>2016-02-04T11:09:35.622Z</time>
      </trkpt>
      <trkpt lat="46.05778" lon="4.57153">
        <ele>412.385040283</ele>
        <time>2016-02-04T11:09:45.657Z</time>
      </trkpt>
      <trkpt lat="46.05778" lon="4.57154">
        <ele>412.618286133</ele>
        <time>2016-02-04T11:09:46.63Z</time>
      </trkpt>
      <trkpt lat="46.05778" lon="4.57167">
        <ele>414.718444824</ele>
        <time>2016-02-04T11:09:54.666Z</time>
      </trkpt>
      <trkpt lat="46.05778" lon="4.57168">
        <ele>414.907867432</ele>
        <time>2016-02-04T11:09:55.622Z</time>
      </trkpt>
      <trkpt lat="46.05778" lon="4.5718">
        <ele>418.135192871</ele>
        <time>2016-02-04T11:10:23.64Z</time>
      </trkpt>
      <trkpt lat="46.05778" lon="4.57182">
        <ele>418.375427246</ele>
        <time>2016-02-04T11:10:24.635Z</time>
      </trkpt>
      <trkpt lat="46.05777" lon="4.57194">
        <ele>419.821502686</ele>
        <time>2016-02-04T11:10:34.64Z</time>
      </trkpt>
      <trkpt lat="46.05777" lon="4.57195">
        <ele>420.117095947</ele>
        <time>2016-02-04T11:10:35.626Z</time>
      </trkpt>
      <trkpt lat="46.05777" lon="4.57208">
        <ele>423.822540283</ele>
        <time>2016-02-04T11:10:49.758Z</time>
      </trkpt>
      <trkpt lat="46.05777" lon="4.57209">
        <ele>423.866516113</ele>
        <time>2016-02-04T11:10:50.636Z</time>
      </trkpt>
      <trkpt lat="46.05779" lon="4.5722">
        <ele>425.86428833</ele>
        <time>2016-02-04T11:10:59.658Z</time>
      </trkpt>
      <trkpt lat="46.0578" lon="4.57222">
        <ele>426.219116211</ele>
        <time>2016-02-04T11:11:00.636Z</time>
      </trkpt>
      <trkpt lat="46.05781" lon="4.57234">
        <ele>428.216705322</ele>
        <time>2016-02-04T11:11:10.667Z</time>
      </trkpt>
      <trkpt lat="46.05781" lon="4.57235">
        <ele>428.473571777</ele>
        <time>2016-02-04T11:11:11.637Z</time>
      </trkpt>
      <trkpt lat="46.05781" lon="4.57248">
        <ele>431.354431152</ele>
        <time>2016-02-04T11:11:29.667Z</time>
      </trkpt>
      <trkpt lat="46.05781" lon="4.57249">
        <ele>431.606170654</ele>
        <time>2016-02-04T11:11:30.643Z</time>
      </trkpt>
      <trkpt lat="46.05781" lon="4.57261">
        <ele>433.69921875</ele>
        <time>2016-02-04T11:11:38.666Z</time>
      </trkpt>
      <trkpt lat="46.05782" lon="4.57263">
        <ele>434.064086914</ele>
        <time>2016-02-04T11:11:39.646Z</time>
      </trkpt>
      <trkpt lat="46.05784" lon="4.57274">
        <ele>436.008453369</ele>
        <time>2016-02-04T11:11:50.668Z</time>
      </trkpt>
      <trkpt lat="46.05784" lon="4.57275">
        <ele>436.407623291</ele>
        <time>2016-02-04T11:11:51.636Z</time>
      </trkpt>
      <trkpt lat="46.05786" lon="4.57287">
        <ele>438.651000977</ele>
        <time>2016-02-04T11:11:58.646Z</time>
      </trkpt>
      <trkpt lat="46.05786" lon="4.57288">
        <ele>438.916931152</ele>
        <time>2016-02-04T11:11:59.642Z</time>
      </trkpt>
      <trkpt lat="46.05787" lon="4.573">
        <ele>440.636688232</ele>
        <time>2016-02-04T11:12:10.666Z</time>
      </trkpt>
      <trkpt lat="46.05787" lon="4.573">
        <ele>440.773834229</ele>
        <time>2016-02-04T11:12:11.633Z</time>
      </trkpt>
      <trkpt lat="46.05788" lon="4.57313">
        <ele>447.364044189</ele>
        <time>2016-02-04T11:12:30.667Z</time>
      </trkpt>
      <trkpt lat="46.05788" lon="4.57314">
        <ele>447.659118652</ele>
        <time>2016-02-04T11:12:31.634Z</time>
      </trkpt>
      <trkpt lat="46.05788" lon="4.57326">
        <ele>449.6640625</ele>
        <time>2016-02-04T11:12:41.678Z</time>
      </trkpt>
      <trkpt lat="46.05788" lon="4.57327">
        <ele>449.914276123</ele>
        <time>2016-02-04T11:12:42.631Z</time>
      </trkpt>
      <trkpt lat="46.0579" lon="4.57338">
        <ele>451.648376465</ele>
        <time>2016-02-04T11:12:50.679Z</time>
      </trkpt>
      <trkpt lat="46.0579" lon="4.5734">
        <ele>451.947845459</ele>
        <time>2016-02-04T11:12:51.645Z</time>
      </trkpt>
      <trkpt lat="46.05793" lon="4.57352">
        <ele>453.885894775</ele>
        <time>2016-02-04T11:12:59.673Z</time>
      </trkpt>
      <trkpt lat="46.05793" lon="4.57353">
        <ele>454.146148682</ele>
        <time>2016-02-04T11:13:00.646Z</time>
      </trkpt>
      <trkpt lat="46.05793" lon="4.57365">
        <ele>456.252075195</ele>
        <time>2016-02-04T11:13:16.675Z</time>
      </trkpt>
      <trkpt lat="46.05794" lon="4.57368">
        <ele>456.441589355</ele>
        <time>2016-02-04T11:13:17.657Z</time>
      </trkpt>
      <trkpt lat="46.05794" lon="4.5738">
        <ele>457.34274292</ele>
        <time>2016-02-04T11:13:30.67Z</time>
      </trkpt>
      <trkpt lat="46.05794" lon="4.57381">
        <ele>457.361785889</ele>
        <time>2016-02-04T11:13:31.649Z</time>
      </trkpt>
      <trkpt lat="46.05796" lon="4.57393">
        <ele>460.994262695</ele>
        <time>2016-02-04T11:13:42.676Z</time>
      </trkpt>
      <trkpt lat="46.05796" lon="4.57394">
        <ele>461.370239258</ele>
        <time>2016-02-04T11:13:43.648Z</time>
      </trkpt>
      <trkpt lat="46.05798" lon="4.57406">
        <ele>463.407684326</ele>
        <time>2016-02-04T11:13:54.649Z</time>
      </trkpt>
      <trkpt lat="46.05798" lon="4.57407">
        <ele>463.631561279</ele>
        <time>2016-02-04T11:13:55.649Z</time>
      </trkpt>
      <trkpt lat="46.05797" lon="4.5742">
        <ele>464.837890625</ele>
        <time>2016-02-04T11:14:05.648Z</time>
      </trkpt>
      <trkpt lat="46.05797" lon="4.57421">
        <ele>464.922546387</ele>
        <time>2016-02-04T11:14:06.62Z</time>
      </trkpt>
      <trkpt lat="46.05796" lon="4.57433">
        <ele>466.287811279</ele>
        <time>2016-02-04T11:14:13.656Z</time>
      </trkpt>
      <trkpt lat="46.05795" lon="4.57434">
        <ele>466.56451416</ele>
        <time>2016-02-04T11:14:14.606Z</time>
      </trkpt>
      <trkpt lat="46.05794" lon="4.57447">
        <ele>468.156494141</ele>
        <time>2016-02-04T11:14:23.641Z</time>
      </trkpt>
      <trkpt lat="46.05794" lon="4.57448">
        <ele>468.478759766</ele>
        <time>2016-02-04T11:14:24.633Z</time>
      </trkpt>
      <trkpt lat="46.0579" lon="4.57459">
        <ele>470.511291504</ele>
        <time>2016-02-04T11:14:34.658Z</time>
      </trkpt>
      <trkpt lat="46.05789" lon="4.5746">
        <ele>470.593200684</ele>
        <time>2016-02-04T11:14:35.621Z</time>
      </trkpt>
      <trkpt lat="46.05785" lon="4.57471">
        <ele>471.271118164</ele>
        <time>2016-02-04T11:14:44.651Z</time>
      </trkpt>
      <trkpt lat="46.05785" lon="4.57473">
        <ele>471.389526367</ele>
        <time>2016-02-04T11:14:45.625Z</time>
      </trkpt>
      <trkpt lat="46.05782" lon="4.57484">
        <ele>471.378570557</ele>
        <time>2016-02-04T11:14:54.656Z</time>
      </trkpt>
      <trkpt lat="46.05781" lon="4.57485">
        <ele>471.42980957</ele>
        <time>2016-02-04T11:14:55.611Z</time>
      </trkpt>
      <trkpt lat="46.05778" lon="4.57496">
        <ele>471.342498779</ele>
        <time>2016-02-04T11:15:02.656Z</time>
      </trkpt>
      <trkpt lat="46.05777" lon="4.57497">
        <ele>471.367889404</ele>
        <time>2016-02-04T11:15:03.619Z</time>
      </trkpt>
      <trkpt lat="46.05774" lon="4.57508">
        <ele>471.322631836</ele>
        <time>2016-02-04T11:15:11.637Z</time>
      </trkpt>
      <trkpt lat="46.05774" lon="4.5751">
        <ele>471.292724609</ele>
        <time>2016-02-04T11:15:12.622Z</time>
      </trkpt>
      <trkpt lat="46.05772" lon="4.57521">
        <ele>471.547668457</ele>
        <time>2016-02-04T11:15:21.634Z</time>
      </trkpt>
      <trkpt lat="46.05771" lon="4.57522">
        <ele>471.675018311</ele>
        <time>2016-02-04T11:15:22.622Z</time>
      </trkpt>
      <trkpt lat="46.05772" lon="4.57535">
        <ele>471.912750244</ele>
        <time>2016-02-04T11:15:34.647Z</time>
      </trkpt>
      <trkpt lat="46.05773" lon="4.57535">
        <ele>471.915252686</ele>
        <time>2016-02-04T11:15:35.609Z</time>
      </trkpt>
      <trkpt lat="46.0578" lon="4.57542">
        <ele>471.859741211</ele>
        <time>2016-02-04T11:16:12.665Z</time>
      </trkpt>
      <trkpt lat="46.05781" lon="4.57542">
        <ele>471.876953125</ele>
        <time>2016-02-04T11:16:13.633Z</time>
      </trkpt>
      <trkpt lat="46.05776" lon="4.57531">
        <ele>472.119476318</ele>
        <time>2016-02-04T11:17:25.663Z</time>
      </trkpt>
      <trkpt lat="46.05776" lon="4.5753">
        <ele>472.074005127</ele>
        <time>2016-02-04T11:17:26.64Z</time>
      </trkpt>
      <trkpt lat="46.05767" lon="4.5753">
        <ele>471.694732666</ele>
        <time>2016-02-04T11:18:20.681Z</time>
      </trkpt>
      <trkpt lat="46.05767" lon="4.5753">
        <ele>471.704071045</ele>
        <time>2016-02-04T11:18:21.646Z</time>
      </trkpt>
      <trkpt lat="46.05761" lon="4.57539">
        <ele>471.631195068</ele>
        <time>2016-02-04T11:19:01.672Z</time>
      </trkpt>
      <trkpt lat="46.05761" lon="4.5754">
        <ele>471.640289307</ele>
        <time>2016-02-04T11:19:02.656Z</time>
      </trkpt>
      <trkpt lat="46.05753" lon="4.57547">
        <ele>473.327087402</ele>
        <time>2016-02-04T11:19:17.633Z</time>
      </trkpt>
      <trkpt lat="46.05752" lon="4.57547">
        <ele>473.453125</ele>
        <time>2016-02-04T11:19:18.62Z</time>
      </trkpt>
      <trkpt lat="46.05744" lon="4.57549">
        <ele>474.357635498</ele>
        <time>2016-02-04T11:19:25.645Z</time>
      </trkpt>
      <trkpt lat="46.0574" lon="4.57551">
        <ele>474.515441895</ele>
        <time>2016-02-04T11:19:26.618Z</time>
      </trkpt>
      <trkpt lat="46.05732" lon="4.57554">
        <ele>475.278594971</ele>
        <time>2016-02-04T11:19:33.658Z</time>
      </trkpt>
      <trkpt lat="46.0573" lon="4.57555">
        <ele>475.292388916</ele>
        <time>2016-02-04T11:19:34.616Z</time>
      </trkpt>
      <trkpt lat="46.05722" lon="4.57557">
        <ele>475.59286499</ele>
        <time>2016-02-04T11:19:41.651Z</time>
      </trkpt>
      <trkpt lat="46.0572" lon="4.57557">
        <ele>475.624481201</ele>
        <time>2016-02-04T11:19:42.609Z</time>
      </trkpt>
      <trkpt lat="46.05712" lon="4.5756">
        <ele>475.662872314</ele>
        <time>2016-02-04T11:19:50.653Z</time>
      </trkpt>
      <trkpt lat="46.05711" lon="4.5756">
        <ele>475.721740723</ele>
        <time>2016-02-04T11:19:51.627Z</time>
      </trkpt>
      <trkpt lat="46.05702" lon="4.57563">
        <ele>476.647155762</ele>
        <time>2016-02-04T11:20:01.672Z</time>
      </trkpt>
      <trkpt lat="46.05701" lon="4.57563">
        <ele>476.88583374</ele>
        <time>2016-02-04T11:20:02.623Z</time>
      </trkpt>
      <trkpt lat="46.05692" lon="4.57566">
        <ele>477.272277832</ele>
        <time>2016-02-04T11:20:08.763Z</time>
      </trkpt>
      <trkpt lat="46.05692" lon="4.57567">
        <ele>477.335693359</ele>
        <time>2016-02-04T11:20:09.629Z</time>
      </trkpt>
      <trkpt lat="46.05684" lon="4.57571">
        <ele>477.970550537</ele>
        <time>2016-02-04T11:20:15.638Z</time>
      </trkpt>
      <trkpt lat="46.05683" lon="4.57572">
        <ele>478.078643799</ele>
        <time>2016-02-04T11:20:16.624Z</time>
      </trkpt>
      <trkpt lat="46.05677" lon="4.57574">
        <ele>478.773498535</ele>
        <time>2016-02-04T11:20:21.747Z</time>
      </trkpt>
      <trkpt lat="46.05674" lon="4.57576">
        <ele>478.98248291</ele>
        <time>2016-02-04T11:20:22.63Z</time>
      </trkpt>
      <trkpt lat="46.05667" lon="4.57583">
        <ele>480.151062012</ele>
        <time>2016-02-04T11:20:29.656Z</time>
      </trkpt>
      <trkpt lat="46.05665" lon="4.57584">
        <ele>480.156829834</ele>
        <time>2016-02-04T11:20:30.635Z</time>
      </trkpt>
      <trkpt lat="46.05658" lon="4.5759">
        <ele>480.200286865</ele>
        <time>2016-02-04T11:20:36.66Z</time>
      </trkpt>
      <trkpt lat="46.05658" lon="4.5759">
        <ele>480.304199219</ele>
        <time>2016-02-04T11:20:37.632Z</time>
      </trkpt>
      <trkpt lat="46.05654" lon="4.57602">
        <ele>481.076049805</ele>
        <time>2016-02-04T11:20:47.655Z</time>
      </trkpt>
      <trkpt lat="46.05654" lon="4.57605">
        <ele>481.163360596</ele>
        <time>2016-02-04T11:20:48.638Z</time>
      </trkpt>
      <trkpt lat="46.05653" lon="4.57617">
        <ele>482.230377197</ele>
        <time>2016-02-04T11:20:55.661Z</time>
      </trkpt>
      <trkpt lat="46.05653" lon="4.57619">
        <ele>482.221343994</ele>
        <time>2016-02-04T11:20:56.633Z</time>
      </trkpt>
      <trkpt lat="46.05653" lon="4.5763">
        <ele>482.927703857</ele>
        <time>2016-02-04T11:21:03.663Z</time>
      </trkpt>
      <trkpt lat="46.05653" lon="4.57632">
        <ele>483.106628418</ele>
        <time>2016-02-04T11:21:04.637Z</time>
      </trkpt>
      <trkpt lat="46.05654" lon="4.57643">
        <ele>484.131835938</ele>
        <time>2016-02-04T11:21:10.694Z</time>
      </trkpt>
      <trkpt lat="46.05654" lon="4.57645">
        <ele>484.282897949</ele>
        <time>2016-02-04T11:21:11.636Z</time>
      </trkpt>
      <trkpt lat="46.05657" lon="4.57656">
        <ele>485.867919922</ele>
        <time>2016-02-04T11:21:18.677Z</time>
      </trkpt>
      <trkpt lat="46.05657" lon="4.57658">
        <ele>485.92086792</ele>
        <time>2016-02-04T11:21:19.633Z</time>
      </trkpt>
      <trkpt lat="46.0566" lon="4.57671">
        <ele>486.486724854</ele>
        <time>2016-02-04T11:21:25.659Z</time>
      </trkpt>
      <trkpt lat="46.0566" lon="4.57672">
        <ele>486.56137085</ele>
        <time>2016-02-04T11:21:26.632Z</time>
      </trkpt>
      <trkpt lat="46.05663" lon="4.57683">
        <ele>492.567199707</ele>
        <time>2016-02-04T11:21:46.679Z</time>
      </trkpt>
      <trkpt lat="46.05663" lon="4.57686">
        <ele>492.919586182</ele>
        <time>2016-02-04T11:21:47.637Z</time>
      </trkpt>
      <trkpt lat="46.05664" lon="4.57698">
        <ele>495.183105469</ele>
        <time>2016-02-04T11:21:54.666Z</time>
      </trkpt>
      <trkpt lat="46.05665" lon="4.57702">
        <ele>495.311950684</ele>
        <time>2016-02-04T11:21:55.65Z</time>
      </trkpt>
      <trkpt lat="46.05667" lon="4.57714">
        <ele>496.260314941</ele>
        <time>2016-02-04T11:22:00.657Z</time>
      </trkpt>
      <trkpt lat="46.05669" lon="4.57717">
        <ele>496.520812988</ele>
        <time>2016-02-04T11:22:01.637Z</time>
      </trkpt>
      <trkpt lat="46.05672" lon="4.57728">
        <ele>498.920349121</ele>
        <time>2016-02-04T11:22:16.664Z</time>
      </trkpt>
      <trkpt lat="46.05673" lon="4.5773">
        <ele>498.898101807</ele>
        <time>2016-02-04T11:22:17.64Z</time>
      </trkpt>
      <trkpt lat="46.05675" lon="4.57738">
        <ele>498.840484619</ele>
        <time>2016-02-04T11:22:19.656Z</time>
      </trkpt>
      <trkpt lat="46.05676" lon="4.57742">
        <ele>498.811004639</ele>
        <time>2016-02-04T11:22:20.638Z</time>
      </trkpt>
      <trkpt lat="46.05679" lon="4.57753">
        <ele>499.062530518</ele>
        <time>2016-02-04T11:22:24.666Z</time>
      </trkpt>
      <trkpt lat="46.0568" lon="4.57754">
        <ele>499.154052734</ele>
        <time>2016-02-04T11:22:25.639Z</time>
      </trkpt>
      <trkpt lat="46.05685" lon="4.57762">
        <ele>499.826141357</ele>
        <time>2016-02-04T11:22:30.66Z</time>
      </trkpt>
      <trkpt lat="46.05686" lon="4.57764">
        <ele>499.956542969</ele>
        <time>2016-02-04T11:22:31.64Z</time>
      </trkpt>
      <trkpt lat="46.05692" lon="4.57772">
        <ele>501.015167236</ele>
        <time>2016-02-04T11:22:39.663Z</time>
      </trkpt>
      <trkpt lat="46.05693" lon="4.57772">
        <ele>501.116241455</ele>
        <time>2016-02-04T11:22:40.648Z</time>
      </trkpt>
      <trkpt lat="46.057" lon="4.57779">
        <ele>500.784851074</ele>
        <time>2016-02-04T11:22:48.666Z</time>
      </trkpt>
      <trkpt lat="46.05701" lon="4.5778">
        <ele>500.794525146</ele>
        <time>2016-02-04T11:22:49.645Z</time>
      </trkpt>
      <trkpt lat="46.05708" lon="4.57787">
        <ele>500.982513428</ele>
        <time>2016-02-04T11:22:56.667Z</time>
      </trkpt>
      <trkpt lat="46.05709" lon="4.57788">
        <ele>500.981109619</ele>
        <time>2016-02-04T11:22:57.646Z</time>
      </trkpt>
      <trkpt lat="46.05715" lon="4.57796">
        <ele>500.577484131</ele>
        <time>2016-02-04T11:23:06.663Z</time>
      </trkpt>
      <trkpt lat="46.05716" lon="4.57797">
        <ele>500.446777344</ele>
        <time>2016-02-04T11:23:07.642Z</time>
      </trkpt>
      <trkpt lat="46.05721" lon="4.57806">
        <ele>499.936035156</ele>
        <time>2016-02-04T11:23:12.681Z</time>
      </trkpt>
      <trkpt lat="46.05726" lon="4.57812">
        <ele>499.80456543</ele>
        <time>2016-02-04T11:23:13.644Z</time>
      </trkpt>
      <trkpt lat="46.05731" lon="4.57817">
        <ele>499.648468018</ele>
        <time>2016-02-04T11:23:15.678Z</time>
      </trkpt>
      <trkpt lat="46.05734" lon="4.5782">
        <ele>499.543060303</ele>
        <time>2016-02-04T11:23:16.643Z</time>
      </trkpt>
      <trkpt lat="46.05741" lon="4.57829">
        <ele>499.092132568</ele>
        <time>2016-02-04T11:23:24.668Z</time>
      </trkpt>
      <trkpt lat="46.05741" lon="4.5783">
        <ele>499.057647705</ele>
        <time>2016-02-04T11:23:25.645Z</time>
      </trkpt>
      <trkpt lat="46.05747" lon="4.57838">
        <ele>497.830413818</ele>
        <time>2016-02-04T11:23:33.672Z</time>
      </trkpt>
      <trkpt lat="46.05748" lon="4.5784">
        <ele>497.642272949</ele>
        <time>2016-02-04T11:23:34.643Z</time>
      </trkpt>
      <trkpt lat="46.05751" lon="4.5785">
        <ele>496.287475586</ele>
        <time>2016-02-04T11:23:40.69Z</time>
      </trkpt>
      <trkpt lat="46.05752" lon="4.57851">
        <ele>496.046081543</ele>
        <time>2016-02-04T11:23:41.642Z</time>
      </trkpt>
      <trkpt lat="46.05755" lon="4.57859">
        <ele>495.400115967</ele>
        <time>2016-02-04T11:23:46.725Z</time>
      </trkpt>
      <trkpt lat="46.05756" lon="4.57863">
        <ele>495.281005859</ele>
        <time>2016-02-04T11:23:47.646Z</time>
      </trkpt>
      <trkpt lat="46.0576" lon="4.57874">
        <ele>494.197631836</ele>
        <time>2016-02-04T11:23:54.681Z</time>
      </trkpt>
      <trkpt lat="46.0576" lon="4.57875">
        <ele>494.117919922</ele>
        <time>2016-02-04T11:23:55.658Z</time>
      </trkpt>
      <trkpt lat="46.05764" lon="4.57886">
        <ele>493.638885498</ele>
        <time>2016-02-04T11:24:01.674Z</time>
      </trkpt>
      <trkpt lat="46.05765" lon="4.57888">
        <ele>493.503295898</ele>
        <time>2016-02-04T11:24:02.65Z</time>
      </trkpt>
      <trkpt lat="46.05767" lon="4.57899">
        <ele>492.376159668</ele>
        <time>2016-02-04T11:24:09.67Z</time>
      </trkpt>
      <trkpt lat="46.05768" lon="4.57901">
        <ele>492.247802734</ele>
        <time>2016-02-04T11:24:10.65Z</time>
      </trkpt>
      <trkpt lat="46.05772" lon="4.57911">
        <ele>491.680480957</ele>
        <time>2016-02-04T11:24:15.713Z</time>
      </trkpt>
      <trkpt lat="46.05773" lon="4.57914">
        <ele>491.54901123</ele>
        <time>2016-02-04T11:24:16.652Z</time>
      </trkpt>
      <trkpt lat="46.05775" lon="4.57926">
        <ele>490.646087646</ele>
        <time>2016-02-04T11:24:23.642Z</time>
      </trkpt>
      <trkpt lat="46.05775" lon="4.57927">
        <ele>490.5625</ele>
        <time>2016-02-04T11:24:24.616Z</time>
      </trkpt>
      <trkpt lat="46.05772" lon="4.57938">
        <ele>491.228271484</ele>
        <time>2016-02-04T11:24:34.647Z</time>
      </trkpt>
      <trkpt lat="46.05771" lon="4.57938">
        <ele>491.329467773</ele>
        <time>2016-02-04T11:24:35.67Z</time>
      </trkpt>
      <trkpt lat="46.05762" lon="4.57936">
        <ele>491.067047119</ele>
        <time>2016-02-04T11:24:44.65Z</time>
      </trkpt>
      <trkpt lat="46.05761" lon="4.57936">
        <ele>491.067260742</ele>
        <time>2016-02-04T11:24:45.635Z</time>
      </trkpt>
      <trkpt lat="46.05754" lon="4.57931">
        <ele>491.351593018</ele>
        <time>2016-02-04T11:24:54.645Z</time>
      </trkpt>
      <trkpt lat="46.05753" lon="4.57931">
        <ele>491.366333008</ele>
        <time>2016-02-04T11:24:55.625Z</time>
      </trkpt>
      <trkpt lat="46.05745" lon="4.57926">
        <ele>491.895050049</ele>
        <time>2016-02-04T11:25:06.636Z</time>
      </trkpt>
      <trkpt lat="46.05744" lon="4.57925">
        <ele>491.938354492</ele>
        <time>2016-02-04T11:25:07.622Z</time>
      </trkpt>
      <trkpt lat="46.05735" lon="4.57922">
        <ele>492.809936523</ele>
        <time>2016-02-04T11:25:17.645Z</time>
      </trkpt>
      <trkpt lat="46.05735" lon="4.57922">
        <ele>492.880432129</ele>
        <time>2016-02-04T11:25:18.616Z</time>
      </trkpt>
      <trkpt lat="46.05727" lon="4.57928">
        <ele>493.805145264</ele>
        <time>2016-02-04T11:26:21.673Z</time>
      </trkpt>
      <trkpt lat="46.05727" lon="4.5793">
        <ele>493.915496826</ele>
        <time>2016-02-04T11:26:22.638Z</time>
      </trkpt>
      <trkpt lat="46.05725" lon="4.57942">
        <ele>494.495697021</ele>
        <time>2016-02-04T11:26:30.669Z</time>
      </trkpt>
      <trkpt lat="46.05724" lon="4.57943">
        <ele>494.601318359</ele>
        <time>2016-02-04T11:26:31.626Z</time>
      </trkpt>
      <trkpt lat="46.0572" lon="4.57952">
        <ele>495.296813965</ele>
        <time>2016-02-04T11:26:36.662Z</time>
      </trkpt>
      <trkpt lat="46.05719" lon="4.57954">
        <ele>495.441162109</ele>
        <time>2016-02-04T11:26:37.636Z</time>
      </trkpt>
      <trkpt lat="46.05714" lon="4.57963">
        <ele>495.979888916</ele>
        <time>2016-02-04T11:26:45.691Z</time>
      </trkpt>
      <trkpt lat="46.05713" lon="4.57964">
        <ele>495.965698242</ele>
        <time>2016-02-04T11:26:46.638Z</time>
      </trkpt>
      <trkpt lat="46.05707" lon="4.57973">
        <ele>496.092468262</ele>
        <time>2016-02-04T11:26:54.682Z</time>
      </trkpt>
      <trkpt lat="46.05706" lon="4.57974">
        <ele>496.144714355</ele>
        <time>2016-02-04T11:26:55.637Z</time>
      </trkpt>
      <trkpt lat="46.057" lon="4.57984">
        <ele>496.415679932</ele>
        <time>2016-02-04T11:27:02.68Z</time>
      </trkpt>
      <trkpt lat="46.05699" lon="4.57985">
        <ele>496.501739502</ele>
        <time>2016-02-04T11:27:03.646Z</time>
      </trkpt>
      <trkpt lat="46.05693" lon="4.57993">
        <ele>496.493255615</ele>
        <time>2016-02-04T11:27:09.669Z</time>
      </trkpt>
      <trkpt lat="46.05692" lon="4.57995">
        <ele>496.395050049</ele>
        <time>2016-02-04T11:27:10.643Z</time>
      </trkpt>
      <trkpt lat="46.05685" lon="4.58002">
        <ele>496.727050781</ele>
        <time>2016-02-04T11:27:18.66Z</time>
      </trkpt>
      <trkpt lat="46.05684" lon="4.58003">
        <ele>496.765655518</ele>
        <time>2016-02-04T11:27:19.638Z</time>
      </trkpt>
      <trkpt lat="46.05678" lon="4.58011">
        <ele>496.90246582</ele>
        <time>2016-02-04T11:27:24.668Z</time>
      </trkpt>
      <trkpt lat="46.05677" lon="4.58012">
        <ele>496.863525391</ele>
        <time>2016-02-04T11:27:25.64Z</time>
      </trkpt>
      <trkpt lat="46.05671" lon="4.5802">
        <ele>496.490966797</ele>
        <time>2016-02-04T11:27:32.678Z</time>
      </trkpt>
      <trkpt lat="46.0567" lon="4.58021">
        <ele>496.529174805</ele>
        <time>2016-02-04T11:27:33.64Z</time>
      </trkpt>
      <trkpt lat="46.05663" lon="4.58028">
        <ele>496.637115479</ele>
        <time>2016-02-04T11:27:42.655Z</time>
      </trkpt>
      <trkpt lat="46.05662" lon="4.58029">
        <ele>496.633239746</ele>
        <time>2016-02-04T11:27:43.636Z</time>
      </trkpt>
      <trkpt lat="46.05655" lon="4.58035">
        <ele>496.527069092</ele>
        <time>2016-02-04T11:27:51.664Z</time>
      </trkpt>
      <trkpt lat="46.05654" lon="4.58035">
        <ele>496.526672363</ele>
        <time>2016-02-04T11:27:52.629Z</time>
      </trkpt>
      <trkpt lat="46.05646" lon="4.58041">
        <ele>497.393890381</ele>
        <time>2016-02-04T11:28:00.665Z</time>
      </trkpt>
      <trkpt lat="46.05645" lon="4.58042">
        <ele>497.574981689</ele>
        <time>2016-02-04T11:28:01.644Z</time>
      </trkpt>
      <trkpt lat="46.05638" lon="4.58047">
        <ele>497.937713623</ele>
        <time>2016-02-04T11:28:07.662Z</time>
      </trkpt>
      <trkpt lat="46.05637" lon="4.58048">
        <ele>497.990966797</ele>
        <time>2016-02-04T11:28:08.648Z</time>
      </trkpt>
      <trkpt lat="46.05629" lon="4.58055">
        <ele>498.54675293</ele>
        <time>2016-02-04T11:28:15.682Z</time>
      </trkpt>
      <trkpt lat="46.05628" lon="4.58057">
        <ele>498.666625977</ele>
        <time>2016-02-04T11:28:16.642Z</time>
      </trkpt>
      <trkpt lat="46.05621" lon="4.58062">
        <ele>499.000701904</ele>
        <time>2016-02-04T11:28:20.667Z</time>
      </trkpt>
      <trkpt lat="46.0562" lon="4.58062">
        <ele>499.10333252</ele>
        <time>2016-02-04T11:28:21.655Z</time>
      </trkpt>
      <trkpt lat="46.05613" lon="4.5807">
        <ele>499.957824707</ele>
        <time>2016-02-04T11:28:29.679Z</time>
      </trkpt>
      <trkpt lat="46.05612" lon="4.58071">
        <ele>500.096038818</ele>
        <time>2016-02-04T11:28:30.643Z</time>
      </trkpt>
      <trkpt lat="46.05606" lon="4.58079">
        <ele>500.622467041</ele>
        <time>2016-02-04T11:28:36.661Z</time>
      </trkpt>
      <trkpt lat="46.05605" lon="4.5808">
        <ele>500.695465088</ele>
        <time>2016-02-04T11:28:37.648Z</time>
      </trkpt>
      <trkpt lat="46.05598" lon="4.58088">
        <ele>501.148620605</ele>
        <time>2016-02-04T11:28:43.661Z</time>
      </trkpt>
      <trkpt lat="46.05597" lon="4.58089">
        <ele>501.188537598</ele>
        <time>2016-02-04T11:28:44.621Z</time>
      </trkpt>
      <trkpt lat="46.05591" lon="4.58095">
        <ele>501.36618042</ele>
        <time>2016-02-04T11:28:50.679Z</time>
      </trkpt>
      <trkpt lat="46.0559" lon="4.58097">
        <ele>501.39541626</ele>
        <time>2016-02-04T11:28:51.645Z</time>
      </trkpt>
      <trkpt lat="46.05585" lon="4.58105">
        <ele>501.400665283</ele>
        <time>2016-02-04T11:28:57.663Z</time>
      </trkpt>
      <trkpt lat="46.05584" lon="4.58107">
        <ele>501.401153564</ele>
        <time>2016-02-04T11:28:58.659Z</time>
      </trkpt>
      <trkpt lat="46.05579" lon="4.58116">
        <ele>501.446838379</ele>
        <time>2016-02-04T11:29:04.688Z</time>
      </trkpt>
      <trkpt lat="46.05578" lon="4.58117">
        <ele>501.397827148</ele>
        <time>2016-02-04T11:29:05.646Z</time>
      </trkpt>
      <trkpt lat="46.05571" lon="4.58124">
        <ele>501.563995361</ele>
        <time>2016-02-04T11:29:13.669Z</time>
      </trkpt>
      <trkpt lat="46.0557" lon="4.58124">
        <ele>501.629241943</ele>
        <time>2016-02-04T11:29:14.646Z</time>
      </trkpt>
      <trkpt lat="46.05562" lon="4.58129">
        <ele>502.123046875</ele>
        <time>2016-02-04T11:29:28.669Z</time>
      </trkpt>
      <trkpt lat="46.05562" lon="4.5813">
        <ele>502.188812256</ele>
        <time>2016-02-04T11:29:29.653Z</time>
      </trkpt>
      <trkpt lat="46.05567" lon="4.58141">
        <ele>502.3074646</ele>
        <time>2016-02-04T11:29:38.664Z</time>
      </trkpt>
      <trkpt lat="46.05567" lon="4.58142">
        <ele>502.257415771</ele>
        <time>2016-02-04T11:29:39.623Z</time>
      </trkpt>
      <trkpt lat="46.05571" lon="4.58153">
        <ele>501.911132812</ele>
        <time>2016-02-04T11:29:48.658Z</time>
      </trkpt>
      <trkpt lat="46.05571" lon="4.58155">
        <ele>501.791870117</ele>
        <time>2016-02-04T11:29:49.624Z</time>
      </trkpt>
      <trkpt lat="46.05567" lon="4.58165">
        <ele>501.190948486</ele>
        <time>2016-02-04T11:29:56.658Z</time>
      </trkpt>
      <trkpt lat="46.05566" lon="4.58166">
        <ele>501.121582031</ele>
        <time>2016-02-04T11:29:57.624Z</time>
      </trkpt>
      <trkpt lat="46.05561" lon="4.58176">
        <ele>500.664581299</ele>
        <time>2016-02-04T11:30:03.655Z</time>
      </trkpt>
      <trkpt lat="46.0556" lon="4.58177">
        <ele>500.578552246</ele>
        <time>2016-02-04T11:30:04.625Z</time>
      </trkpt>
      <trkpt lat="46.05554" lon="4.58187">
        <ele>499.714172363</ele>
        <time>2016-02-04T11:30:12.669Z</time>
      </trkpt>
      <trkpt lat="46.05553" lon="4.58189">
        <ele>499.547912598</ele>
        <time>2016-02-04T11:30:13.617Z</time>
      </trkpt>
      <trkpt lat="46.05548" lon="4.58199">
        <ele>498.24798584</ele>
        <time>2016-02-04T11:30:21.667Z</time>
      </trkpt>
      <trkpt lat="46.05548" lon="4.58201">
        <ele>498.137634277</ele>
        <time>2016-02-04T11:30:22.627Z</time>
      </trkpt>
      <trkpt lat="46.05551" lon="4.58211">
        <ele>497.419281006</ele>
        <time>2016-02-04T11:30:28.632Z</time>
      </trkpt>
      <trkpt lat="46.05552" lon="4.58213">
        <ele>497.307525635</ele>
        <time>2016-02-04T11:30:29.621Z</time>
      </trkpt>
      <trkpt lat="46.05556" lon="4.58224">
        <ele>496.477111816</ele>
        <time>2016-02-04T11:30:35.649Z</time>
      </trkpt>
      <trkpt lat="46.05556" lon="4.58226">
        <ele>496.350952148</ele>
        <time>2016-02-04T11:30:36.621Z</time>
      </trkpt>
      <trkpt lat="46.05559" lon="4.58237">
        <ele>495.536865234</ele>
        <time>2016-02-04T11:30:43.648Z</time>
      </trkpt>
      <trkpt lat="46.05559" lon="4.58238">
        <ele>495.457183838</ele>
        <time>2016-02-04T11:30:44.624Z</time>
      </trkpt>
      <trkpt lat="46.0556" lon="4.58251">
        <ele>494.588745117</ele>
        <time>2016-02-04T11:30:51.652Z</time>
      </trkpt>
      <trkpt lat="46.0556" lon="4.58253">
        <ele>494.448944092</ele>
        <time>2016-02-04T11:30:52.629Z</time>
      </trkpt>
      <trkpt lat="46.05563" lon="4.58264">
        <ele>493.665710449</ele>
        <time>2016-02-04T11:30:57.657Z</time>
      </trkpt>
      <trkpt lat="46.05563" lon="4.58267">
        <ele>493.42565918</ele>
        <time>2016-02-04T11:30:58.616Z</time>
      </trkpt>
      <trkpt lat="46.05566" lon="4.58279">
        <ele>492.41607666</ele>
        <time>2016-02-04T11:31:07.663Z</time>
      </trkpt>
      <trkpt lat="46.05567" lon="4.58281">
        <ele>492.371520996</ele>
        <time>2016-02-04T11:31:08.627Z</time>
      </trkpt>
      <trkpt lat="46.0557" lon="4.58292">
        <ele>492.216918945</ele>
        <time>2016-02-04T11:31:14.655Z</time>
      </trkpt>
      <trkpt lat="46.05571" lon="4.58294">
        <ele>492.15637207</ele>
        <time>2016-02-04T11:31:15.633Z</time>
      </trkpt>
      <trkpt lat="46.05573" lon="4.58304">
        <ele>491.808685303</ele>
        <time>2016-02-04T11:31:20.663Z</time>
      </trkpt>
      <trkpt lat="46.05573" lon="4.58307">
        <ele>491.727630615</ele>
        <time>2016-02-04T11:31:21.631Z</time>
      </trkpt>
      <trkpt lat="46.05575" lon="4.58317">
        <ele>491.286590576</ele>
        <time>2016-02-04T11:31:26.651Z</time>
      </trkpt>
      <trkpt lat="46.05576" lon="4.58319">
        <ele>491.18447876</ele>
        <time>2016-02-04T11:31:27.632Z</time>
      </trkpt>
      <trkpt lat="46.05577" lon="4.58329">
        <ele>490.651763916</ele>
        <time>2016-02-04T11:31:32.745Z</time>
      </trkpt>
      <trkpt lat="46.05578" lon="4.58332">
        <ele>490.552734375</ele>
        <time>2016-02-04T11:31:33.633Z</time>
      </trkpt>
      <trkpt lat="46.05579" lon="4.58344">
        <ele>489.60369873</ele>
        <time>2016-02-04T11:31:39.666Z</time>
      </trkpt>
      <trkpt lat="46.0558" lon="4.58346">
        <ele>489.415039062</ele>
        <time>2016-02-04T11:31:40.627Z</time>
      </trkpt>
      <trkpt lat="46.05581" lon="4.58357">
        <ele>488.518188477</ele>
        <time>2016-02-04T11:31:47.655Z</time>
      </trkpt>
      <trkpt lat="46.05581" lon="4.58359">
        <ele>488.313079834</ele>
        <time>2016-02-04T11:31:48.635Z</time>
      </trkpt>
      <trkpt lat="46.05581" lon="4.58371">
        <ele>486.873382568</ele>
        <time>2016-02-04T11:31:55.687Z</time>
      </trkpt>
      <trkpt lat="46.05582" lon="4.58373">
        <ele>486.698699951</ele>
        <time>2016-02-04T11:31:56.615Z</time>
      </trkpt>
      <trkpt lat="46.05582" lon="4.58384">
        <ele>485.843963623</ele>
        <time>2016-02-04T11:32:02.657Z</time>
      </trkpt>
      <trkpt lat="46.05583" lon="4.58386">
        <ele>485.677642822</ele>
        <time>2016-02-04T11:32:03.632Z</time>
      </trkpt>
      <trkpt lat="46.05584" lon="4.58399">
        <ele>484.781219482</ele>
        <time>2016-02-04T11:32:09.667Z</time>
      </trkpt>
      <trkpt lat="46.05584" lon="4.584">
        <ele>484.655151367</ele>
        <time>2016-02-04T11:32:10.627Z</time>
      </trkpt>
      <trkpt lat="46.05584" lon="4.58412">
        <ele>483.898620605</ele>
        <time>2016-02-04T11:32:16.75Z</time>
      </trkpt>
      <trkpt lat="46.05584" lon="4.58414">
        <ele>483.73538208</ele>
        <time>2016-02-04T11:32:17.641Z</time>
      </trkpt>
      <trkpt lat="46.05585" lon="4.58426">
        <ele>482.666503906</ele>
        <time>2016-02-04T11:32:24.663Z</time>
      </trkpt>
      <trkpt lat="46.05586" lon="4.58429">
        <ele>482.530883789</ele>
        <time>2016-02-04T11:32:25.632Z</time>
      </trkpt>
      <trkpt lat="46.05586" lon="4.58441">
        <ele>482.082794189</ele>
        <time>2016-02-04T11:32:32.712Z</time>
      </trkpt>
      <trkpt lat="46.05587" lon="4.58444">
        <ele>481.991546631</ele>
        <time>2016-02-04T11:32:33.637Z</time>
      </trkpt>
      <trkpt lat="46.05589" lon="4.58455">
        <ele>481.433624268</ele>
        <time>2016-02-04T11:32:40.667Z</time>
      </trkpt>
      <trkpt lat="46.05589" lon="4.58458">
        <ele>481.414093018</ele>
        <time>2016-02-04T11:32:41.637Z</time>
      </trkpt>
      <trkpt lat="46.05591" lon="4.5847">
        <ele>481.067993164</ele>
        <time>2016-02-04T11:32:48.67Z</time>
      </trkpt>
      <trkpt lat="46.05592" lon="4.58471">
        <ele>481.025390625</ele>
        <time>2016-02-04T11:32:49.641Z</time>
      </trkpt>
      <trkpt lat="46.05595" lon="4.58483">
        <ele>480.18927002</ele>
        <time>2016-02-04T11:32:55.636Z</time>
      </trkpt>
      <trkpt lat="46.05595" lon="4.58484">
        <ele>480.103363037</ele>
        <time>2016-02-04T11:32:56.643Z</time>
      </trkpt>
      <trkpt lat="46.05598" lon="4.58495">
        <ele>479.235595703</ele>
        <time>2016-02-04T11:33:02.668Z</time>
      </trkpt>
      <trkpt lat="46.05599" lon="4.58496">
        <ele>479.112792969</ele>
        <time>2016-02-04T11:33:03.639Z</time>
      </trkpt>
      <trkpt lat="46.05603" lon="4.58506">
        <ele>478.294616699</ele>
        <time>2016-02-04T11:33:09.652Z</time>
      </trkpt>
      <trkpt lat="46.05604" lon="4.58508">
        <ele>478.12109375</ele>
        <time>2016-02-04T11:33:10.639Z</time>
      </trkpt>
      <trkpt lat="46.05608" lon="4.58517">
        <ele>477.446289062</ele>
        <time>2016-02-04T11:33:15.66Z</time>
      </trkpt>
      <trkpt lat="46.05609" lon="4.58519">
        <ele>477.316467285</ele>
        <time>2016-02-04T11:33:16.632Z</time>
      </trkpt>
      <trkpt lat="46.05613" lon="4.5853">
        <ele>476.169952393</ele>
        <time>2016-02-04T11:33:24.664Z</time>
      </trkpt>
      <trkpt lat="46.05614" lon="4.58532">
        <ele>475.987945557</ele>
        <time>2016-02-04T11:33:25.639Z</time>
      </trkpt>
      <trkpt lat="46.05618" lon="4.58542">
        <ele>474.727050781</ele>
        <time>2016-02-04T11:33:31.743Z</time>
      </trkpt>
      <trkpt lat="46.05619" lon="4.58544">
        <ele>474.518035889</ele>
        <time>2016-02-04T11:33:32.642Z</time>
      </trkpt>
      <trkpt lat="46.05625" lon="4.58554">
        <ele>473.168243408</ele>
        <time>2016-02-04T11:33:39.676Z</time>
      </trkpt>
      <trkpt lat="46.05625" lon="4.58555">
        <ele>473.035522461</ele>
        <time>2016-02-04T11:33:40.649Z</time>
      </trkpt>
      <trkpt lat="46.05629" lon="4.58566">
        <ele>472.039855957</ele>
        <time>2016-02-04T11:33:46.72Z</time>
      </trkpt>
      <trkpt lat="46.05629" lon="4.58568">
        <ele>471.835266113</ele>
        <time>2016-02-04T11:33:47.642Z</time>
      </trkpt>
      <trkpt lat="46.05633" lon="4.58578">
        <ele>470.897766113</ele>
        <time>2016-02-04T11:33:53.653Z</time>
      </trkpt>
      <trkpt lat="46.05634" lon="4.5858">
        <ele>470.742614746</ele>
        <time>2016-02-04T11:33:54.624Z</time>
      </trkpt>
      <trkpt lat="46.05637" lon="4.58592">
        <ele>471.17388916</ele>
        <time>2016-02-04T11:34:05.667Z</time>
      </trkpt>
      <trkpt lat="46.05637" lon="4.58593">
        <ele>471.389831543</ele>
        <time>2016-02-04T11:34:06.657Z</time>
      </trkpt>
      <trkpt lat="46.05639" lon="4.58605">
        <ele>471.909759521</ele>
        <time>2016-02-04T11:34:11.669Z</time>
      </trkpt>
      <trkpt lat="46.05639" lon="4.58607">
        <ele>471.970306396</ele>
        <time>2016-02-04T11:34:12.642Z</time>
      </trkpt>
      <trkpt lat="46.0564" lon="4.58618">
        <ele>471.89855957</ele>
        <time>2016-02-04T11:34:17.673Z</time>
      </trkpt>
      <trkpt lat="46.0564" lon="4.5862">
        <ele>471.840057373</ele>
        <time>2016-02-04T11:34:18.646Z</time>
      </trkpt>
      <trkpt lat="46.05639" lon="4.58632">
        <ele>471.502624512</ele>
        <time>2016-02-04T11:34:24.668Z</time>
      </trkpt>
      <trkpt lat="46.05639" lon="4.58633">
        <ele>471.553161621</ele>
        <time>2016-02-04T11:34:25.646Z</time>
      </trkpt>
      <trkpt lat="46.05641" lon="4.58645">
        <ele>471.497924805</ele>
        <time>2016-02-04T11:34:32.768Z</time>
      </trkpt>
      <trkpt lat="46.05642" lon="4.58647">
        <ele>471.385192871</ele>
        <time>2016-02-04T11:34:33.642Z</time>
      </trkpt>
      <trkpt lat="46.05646" lon="4.58657">
        <ele>470.997009277</ele>
        <time>2016-02-04T11:34:37.683Z</time>
      </trkpt>
      <trkpt lat="46.05646" lon="4.58659">
        <ele>470.93536377</ele>
        <time>2016-02-04T11:34:38.65Z</time>
      </trkpt>
      <trkpt lat="46.05648" lon="4.58671">
        <ele>470.979187012</ele>
        <time>2016-02-04T11:34:47.679Z</time>
      </trkpt>
      <trkpt lat="46.05648" lon="4.58672">
        <ele>471.083129883</ele>
        <time>2016-02-04T11:34:48.648Z</time>
      </trkpt>
      <trkpt lat="46.05648" lon="4.58684">
        <ele>471.74508667</ele>
        <time>2016-02-04T11:34:54.617Z</time>
      </trkpt>
      <trkpt lat="46.05648" lon="4.58686">
        <ele>471.707305908</ele>
        <time>2016-02-04T11:34:55.624Z</time>
      </trkpt>
      <trkpt lat="46.05651" lon="4.58699">
        <ele>471.488464355</ele>
        <time>2016-02-04T11:35:04.639Z</time>
      </trkpt>
      <trkpt lat="46.05651" lon="4.58699">
        <ele>471.620300293</ele>
        <time>2016-02-04T11:35:05.627Z</time>
      </trkpt>
      <trkpt lat="46.05655" lon="4.5871">
        <ele>472.175292969</ele>
        <time>2016-02-04T11:35:09.637Z</time>
      </trkpt>
      <trkpt lat="46.05655" lon="4.58713">
        <ele>472.299926758</ele>
        <time>2016-02-04T11:35:10.613Z</time>
      </trkpt>
      <trkpt lat="46.05652" lon="4.58724">
        <ele>472.426055908</ele>
        <time>2016-02-04T11:35:17.65Z</time>
      </trkpt>
      <trkpt lat="46.05652" lon="4.58725">
        <ele>472.5440979</ele>
        <time>2016-02-04T11:35:18.625Z</time>
      </trkpt>
      <trkpt lat="46.05651" lon="4.58738">
        <ele>472.31362915</ele>
        <time>2016-02-04T11:35:23.648Z</time>
      </trkpt>
      <trkpt lat="46.05651" lon="4.58739">
        <ele>472.205444336</ele>
        <time>2016-02-04T11:35:24.625Z</time>
      </trkpt>
      <trkpt lat="46.05652" lon="4.58749">
        <ele>471.349731445</ele>
        <time>2016-02-04T11:35:29.658Z</time>
      </trkpt>
      <trkpt lat="46.05652" lon="4.58752">
        <ele>471.178771973</ele>
        <time>2016-02-04T11:35:30.625Z</time>
      </trkpt>
      <trkpt lat="46.05654" lon="4.58763">
        <ele>469.923156738</ele>
        <time>2016-02-04T11:35:36.656Z</time>
      </trkpt>
      <trkpt lat="46.05654" lon="4.58765">
        <ele>469.694488525</ele>
        <time>2016-02-04T11:35:37.625Z</time>
      </trkpt>
      <trkpt lat="46.05655" lon="4.58776">
        <ele>468.255126953</ele>
        <time>2016-02-04T11:35:44.649Z</time>
      </trkpt>
      <trkpt lat="46.05655" lon="4.58778">
        <ele>468.037536621</ele>
        <time>2016-02-04T11:35:45.629Z</time>
      </trkpt>
      <trkpt lat="46.05656" lon="4.58789">
        <ele>467.033752441</ele>
        <time>2016-02-04T11:35:50.644Z</time>
      </trkpt>
      <trkpt lat="46.05657" lon="4.58791">
        <ele>466.833312988</ele>
        <time>2016-02-04T11:35:51.628Z</time>
      </trkpt>
      <trkpt lat="46.05658" lon="4.58803">
        <ele>465.135955811</ele>
        <time>2016-02-04T11:35:59.65Z</time>
      </trkpt>
      <trkpt lat="46.05658" lon="4.58805">
        <ele>464.981719971</ele>
        <time>2016-02-04T11:36:00.629Z</time>
      </trkpt>
      <trkpt lat="46.05661" lon="4.58816">
        <ele>464.516937256</ele>
        <time>2016-02-04T11:36:07.718Z</time>
      </trkpt>
      <trkpt lat="46.05661" lon="4.58818">
        <ele>464.45223999</ele>
        <time>2016-02-04T11:36:08.63Z</time>
      </trkpt>
      <trkpt lat="46.05664" lon="4.58829">
        <ele>463.961669922</ele>
        <time>2016-02-04T11:36:15.655Z</time>
      </trkpt>
      <trkpt lat="46.05664" lon="4.58831">
        <ele>463.877868652</ele>
        <time>2016-02-04T11:36:16.608Z</time>
      </trkpt>
      <trkpt lat="46.05667" lon="4.58842">
        <ele>463.142822266</ele>
        <time>2016-02-04T11:36:22.659Z</time>
      </trkpt>
      <trkpt lat="46.05667" lon="4.58844">
        <ele>462.975128174</ele>
        <time>2016-02-04T11:36:23.618Z</time>
      </trkpt>
      <trkpt lat="46.0567" lon="4.58855">
        <ele>461.973876953</ele>
        <time>2016-02-04T11:36:29.655Z</time>
      </trkpt>
      <trkpt lat="46.0567" lon="4.58856">
        <ele>461.821044922</ele>
        <time>2016-02-04T11:36:30.633Z</time>
      </trkpt>
      <trkpt lat="46.05674" lon="4.58865">
        <ele>460.96383667</ele>
        <time>2016-02-04T11:36:36.77Z</time>
      </trkpt>
      <trkpt lat="46.05675" lon="4.58868">
        <ele>460.789764404</ele>
        <time>2016-02-04T11:36:37.628Z</time>
      </trkpt>
      <trkpt lat="46.05679" lon="4.58877">
        <ele>459.992370605</ele>
        <time>2016-02-04T11:36:43.658Z</time>
      </trkpt>
      <trkpt lat="46.05679" lon="4.58879">
        <ele>459.78805542</ele>
        <time>2016-02-04T11:36:44.637Z</time>
      </trkpt>
      <trkpt lat="46.05683" lon="4.5889">
        <ele>458.340026855</ele>
        <time>2016-02-04T11:36:52.664Z</time>
      </trkpt>
      <trkpt lat="46.05683" lon="4.58892">
        <ele>458.222991943</ele>
        <time>2016-02-04T11:36:53.639Z</time>
      </trkpt>
      <trkpt lat="46.05687" lon="4.58903">
        <ele>457.47857666</ele>
        <time>2016-02-04T11:36:58.672Z</time>
      </trkpt>
      <trkpt lat="46.05687" lon="4.58905">
        <ele>457.288970947</ele>
        <time>2016-02-04T11:36:59.639Z</time>
      </trkpt>
      <trkpt lat="46.05691" lon="4.58914">
        <ele>456.098358154</ele>
        <time>2016-02-04T11:37:06.661Z</time>
      </trkpt>
      <trkpt lat="46.05692" lon="4.58916">
        <ele>455.935913086</ele>
        <time>2016-02-04T11:37:07.634Z</time>
      </trkpt>
      <trkpt lat="46.05697" lon="4.58924">
        <ele>455.404754639</ele>
        <time>2016-02-04T11:37:12.653Z</time>
      </trkpt>
      <trkpt lat="46.05699" lon="4.58926">
        <ele>455.316864014</ele>
        <time>2016-02-04T11:37:13.632Z</time>
      </trkpt>
      <trkpt lat="46.05702" lon="4.58938">
        <ele>454.643768311</ele>
        <time>2016-02-04T11:37:20.664Z</time>
      </trkpt>
      <trkpt lat="46.05701" lon="4.58939">
        <ele>454.445343018</ele>
        <time>2016-02-04T11:37:21.626Z</time>
      </trkpt>
      <trkpt lat="46.05696" lon="4.58949">
        <ele>453.284301758</ele>
        <time>2016-02-04T11:37:29.653Z</time>
      </trkpt>
      <trkpt lat="46.05695" lon="4.58951">
        <ele>453.121673584</ele>
        <time>2016-02-04T11:37:30.636Z</time>
      </trkpt>
      <trkpt lat="46.05689" lon="4.58959">
        <ele>452.721191406</ele>
        <time>2016-02-04T11:37:37.66Z</time>
      </trkpt>
      <trkpt lat="46.05688" lon="4.58961">
        <ele>452.648071289</ele>
        <time>2016-02-04T11:37:38.636Z</time>
      </trkpt>
      <trkpt lat="46.05683" lon="4.58971">
        <ele>451.599121094</ele>
        <time>2016-02-04T11:37:44.652Z</time>
      </trkpt>
      <trkpt lat="46.05682" lon="4.58972">
        <ele>451.407928467</ele>
        <time>2016-02-04T11:37:45.636Z</time>
      </trkpt>
      <trkpt lat="46.05677" lon="4.58981">
        <ele>450.285400391</ele>
        <time>2016-02-04T11:37:52.669Z</time>
      </trkpt>
      <trkpt lat="46.05676" lon="4.58982">
        <ele>450.132385254</ele>
        <time>2016-02-04T11:37:53.613Z</time>
      </trkpt>
      <trkpt lat="46.05671" lon="4.58991">
        <ele>449.087738037</ele>
        <time>2016-02-04T11:38:00.625Z</time>
      </trkpt>
      <trkpt lat="46.0567" lon="4.58993">
        <ele>448.939849854</ele>
        <time>2016-02-04T11:38:01.638Z</time>
      </trkpt>
      <trkpt lat="46.05667" lon="4.59005">
        <ele>447.96307373</ele>
        <time>2016-02-04T11:38:07.691Z</time>
      </trkpt>
      <trkpt lat="46.05666" lon="4.59006">
        <ele>447.769317627</ele>
        <time>2016-02-04T11:38:08.633Z</time>
      </trkpt>
      <trkpt lat="46.05664" lon="4.59017">
        <ele>446.698242188</ele>
        <time>2016-02-04T11:38:14.656Z</time>
      </trkpt>
      <trkpt lat="46.05664" lon="4.5902">
        <ele>446.473083496</ele>
        <time>2016-02-04T11:38:15.637Z</time>
      </trkpt>
      <trkpt lat="46.05662" lon="4.59031">
        <ele>444.88092041</ele>
        <time>2016-02-04T11:38:21.661Z</time>
      </trkpt>
      <trkpt lat="46.05662" lon="4.59033">
        <ele>444.62020874</ele>
        <time>2016-02-04T11:38:22.638Z</time>
      </trkpt>
      <trkpt lat="46.05661" lon="4.59046">
        <ele>442.70223999</ele>
        <time>2016-02-04T11:38:29.658Z</time>
      </trkpt>
      <trkpt lat="46.05661" lon="4.59047">
        <ele>442.497131348</ele>
        <time>2016-02-04T11:38:30.639Z</time>
      </trkpt>
      <trkpt lat="46.05661" lon="4.5906">
        <ele>441.122344971</ele>
        <time>2016-02-04T11:38:36.672Z</time>
      </trkpt>
      <trkpt lat="46.05661" lon="4.59062">
        <ele>440.835571289</ele>
        <time>2016-02-04T11:38:37.641Z</time>
      </trkpt>
      <trkpt lat="46.05659" lon="4.59073">
        <ele>439.378601074</ele>
        <time>2016-02-04T11:38:45.669Z</time>
      </trkpt>
      <trkpt lat="46.05659" lon="4.59075">
        <ele>439.310943604</ele>
        <time>2016-02-04T11:38:46.642Z</time>
      </trkpt>
      <trkpt lat="46.05658" lon="4.59086">
        <ele>438.798370361</ele>
        <time>2016-02-04T11:38:54.672Z</time>
      </trkpt>
      <trkpt lat="46.05658" lon="4.59088">
        <ele>438.69631958</ele>
        <time>2016-02-04T11:38:55.651Z</time>
      </trkpt>
      <trkpt lat="46.05659" lon="4.591">
        <ele>438.996948242</ele>
        <time>2016-02-04T11:39:02.668Z</time>
      </trkpt>
      <trkpt lat="46.05659" lon="4.59102">
        <ele>438.974975586</ele>
        <time>2016-02-04T11:39:03.65Z</time>
      </trkpt>
      <trkpt lat="46.05657" lon="4.59114">
        <ele>438.926208496</ele>
        <time>2016-02-04T11:39:09.781Z</time>
      </trkpt>
      <trkpt lat="46.05657" lon="4.59115">
        <ele>438.863433838</ele>
        <time>2016-02-04T11:39:10.648Z</time>
      </trkpt>
      <trkpt lat="46.05656" lon="4.59128">
        <ele>437.506317139</ele>
        <time>2016-02-04T11:39:19.678Z</time>
      </trkpt>
      <trkpt lat="46.05656" lon="4.59129">
        <ele>437.461883545</ele>
        <time>2016-02-04T11:39:20.646Z</time>
      </trkpt>
      <trkpt lat="46.05656" lon="4.59141">
        <ele>437.145996094</ele>
        <time>2016-02-04T11:39:32.686Z</time>
      </trkpt>
      <trkpt lat="46.05656" lon="4.59143">
        <ele>437.210327148</ele>
        <time>2016-02-04T11:39:33.643Z</time>
      </trkpt>
      <trkpt lat="46.05655" lon="4.59155">
        <ele>437.31930542</ele>
        <time>2016-02-04T11:39:37.676Z</time>
      </trkpt>
      <trkpt lat="46.05656" lon="4.59159">
        <ele>437.133636475</ele>
        <time>2016-02-04T11:39:38.645Z</time>
      </trkpt>
      <trkpt lat="46.05652" lon="4.5917">
        <ele>434.904571533</ele>
        <time>2016-02-04T11:39:50.722Z</time>
      </trkpt>
      <trkpt lat="46.05651" lon="4.59171">
        <ele>435.038024902</ele>
        <time>2016-02-04T11:39:51.649Z</time>
      </trkpt>
      <trkpt lat="46.05647" lon="4.59182">
        <ele>435.580810547</ele>
        <time>2016-02-04T11:39:56.661Z</time>
      </trkpt>
      <trkpt lat="46.05647" lon="4.59184">
        <ele>435.583770752</ele>
        <time>2016-02-04T11:39:57.643Z</time>
      </trkpt>
      <trkpt lat="46.05645" lon="4.59195">
        <ele>435.595947266</ele>
        <time>2016-02-04T11:40:05.666Z</time>
      </trkpt>
      <trkpt lat="46.05645" lon="4.59198">
        <ele>435.420623779</ele>
        <time>2016-02-04T11:40:06.643Z</time>
      </trkpt>
      <trkpt lat="46.05637" lon="4.592">
        <ele>430.152587891</ele>
        <time>2016-02-04T11:40:23.655Z</time>
      </trkpt>
      <trkpt lat="46.05636" lon="4.59198">
        <ele>429.919616699</ele>
        <time>2016-02-04T11:40:24.63Z</time>
      </trkpt>
      <trkpt lat="46.05631" lon="4.59188">
        <ele>428.465209961</ele>
        <time>2016-02-04T11:40:32.664Z</time>
      </trkpt>
      <trkpt lat="46.05629" lon="4.59186">
        <ele>428.253570557</ele>
        <time>2016-02-04T11:40:33.622Z</time>
      </trkpt>
      <trkpt lat="46.05622" lon="4.59184">
        <ele>425.499694824</ele>
        <time>2016-02-04T11:40:45.651Z</time>
      </trkpt>
      <trkpt lat="46.0562" lon="4.59184">
        <ele>425.249816895</ele>
        <time>2016-02-04T11:40:46.608Z</time>
      </trkpt>
      <trkpt lat="46.05616" lon="4.59195">
        <ele>424.993896484</ele>
        <time>2016-02-04T11:41:02.662Z</time>
      </trkpt>
      <trkpt lat="46.05616" lon="4.59197">
        <ele>425.034423828</ele>
        <time>2016-02-04T11:41:03.631Z</time>
      </trkpt>
      <trkpt lat="46.05618" lon="4.59208">
        <ele>426.483093262</ele>
        <time>2016-02-04T11:41:12.66Z</time>
      </trkpt>
      <trkpt lat="46.05619" lon="4.59209">
        <ele>426.667877197</ele>
        <time>2016-02-04T11:41:13.627Z</time>
      </trkpt>
      <trkpt lat="46.05621" lon="4.59221">
        <ele>427.675170898</ele>
        <time>2016-02-04T11:41:21.665Z</time>
      </trkpt>
      <trkpt lat="46.05621" lon="4.59224">
        <ele>427.591156006</ele>
        <time>2016-02-04T11:41:22.628Z</time>
      </trkpt>
      <trkpt lat="46.05623" lon="4.59235">
        <ele>427.176025391</ele>
        <time>2016-02-04T11:41:27.697Z</time>
      </trkpt>
      <trkpt lat="46.05624" lon="4.59236">
        <ele>427.031158447</ele>
        <time>2016-02-04T11:41:28.631Z</time>
      </trkpt>
      <trkpt lat="46.05622" lon="4.59249">
        <ele>423.701629639</ele>
        <time>2016-02-04T11:41:50.652Z</time>
      </trkpt>
      <trkpt lat="46.05622" lon="4.59249">
        <ele>423.57800293</ele>
        <time>2016-02-04T11:41:51.63Z</time>
      </trkpt>
      <trkpt lat="46.05621" lon="4.59253">
        <ele>423.425292969</ele>
        <time>2016-02-04T11:41:53.666Z</time>
      </trkpt>
      <trkpt lat="46.05616" lon="4.59261">
        <ele>423.285797119</ele>
        <time>2016-02-04T11:41:54.627Z</time>
      </trkpt>
      <trkpt lat="46.05608" lon="4.59256">
        <ele>422.660095215</ele>
        <time>2016-02-04T11:42:06.644Z</time>
      </trkpt>
      <trkpt lat="46.05607" lon="4.59255">
        <ele>422.628845215</ele>
        <time>2016-02-04T11:42:07.624Z</time>
      </trkpt>
      <trkpt lat="46.05603" lon="4.59267">
        <ele>418.59463501</ele>
        <time>2016-02-04T11:42:26.649Z</time>
      </trkpt>
      <trkpt lat="46.05604" lon="4.59269">
        <ele>418.360992432</ele>
        <time>2016-02-04T11:42:27.634Z</time>
      </trkpt>
      <trkpt lat="46.05603" lon="4.59282">
        <ele>417.579589844</ele>
        <time>2016-02-04T11:42:36.661Z</time>
      </trkpt>
      <trkpt lat="46.05603" lon="4.59283">
        <ele>417.458618164</ele>
        <time>2016-02-04T11:42:37.634Z</time>
      </trkpt>
      <trkpt lat="46.05605" lon="4.59293">
        <ele>416.347900391</ele>
        <time>2016-02-04T11:42:42.768Z</time>
      </trkpt>
      <trkpt lat="46.05606" lon="4.59296">
        <ele>416.083251953</ele>
        <time>2016-02-04T11:42:43.635Z</time>
      </trkpt>
      <trkpt lat="46.05607" lon="4.59307">
        <ele>413.966125488</ele>
        <time>2016-02-04T11:42:49.66Z</time>
      </trkpt>
      <trkpt lat="46.05607" lon="4.59309">
        <ele>413.599975586</ele>
        <time>2016-02-04T11:42:50.636Z</time>
      </trkpt>
      <trkpt lat="46.05615" lon="4.59317">
        <ele>409.057006836</ele>
        <time>2016-02-04T11:43:24.68Z</time>
      </trkpt>
      <trkpt lat="46.05615" lon="4.59317">
        <ele>409.057159424</ele>
        <time>2016-02-04T11:43:25.635Z</time>
      </trkpt>
      <trkpt lat="46.05621" lon="4.59326">
        <ele>408.448669434</ele>
        <time>2016-02-04T11:44:07.666Z</time>
      </trkpt>
      <trkpt lat="46.05621" lon="4.59327">
        <ele>408.466033936</ele>
        <time>2016-02-04T11:44:08.623Z</time>
      </trkpt>
      <trkpt lat="46.0562" lon="4.5934">
        <ele>400.043518066</ele>
        <time>2016-02-04T11:44:46.666Z</time>
      </trkpt>
      <trkpt lat="46.05622" lon="4.59352">
        <ele>384.899719238</ele>
        <time>2016-02-04T11:46:07.604Z</time>
      </trkpt>
      <trkpt lat="46.05623" lon="4.59347">
        <ele>384.901733398</ele>
        <time>2016-02-04T11:46:57.655Z</time>
      </trkpt>
      <trkpt lat="46.05655" lon="4.59269">
        <ele>385.708892822</ele>
        <time>2016-02-04T12:30:41.615Z</time>
      </trkpt>
      <trkpt lat="46.05652" lon="4.59271">
        <ele>385.706878662</ele>
        <time>2016-02-04T12:31:12.641Z</time>
      </trkpt>
      <trkpt lat="46.05627" lon="4.59324">
        <ele>385.611785889</ele>
        <time>2016-02-04T12:32:48.611Z</time>
      </trkpt>
      <trkpt lat="46.05629" lon="4.59327">
        <ele>385.612426758</ele>
        <time>2016-02-04T12:33:16.654Z</time>
      </trkpt>
      <trkpt lat="46.05642" lon="4.59326">
        <ele>385.635345459</ele>
        <time>2016-02-04T12:34:36.624Z</time>
      </trkpt>
      <trkpt lat="46.05633" lon="4.59328">
        <ele>390.839752197</ele>
        <time>2016-02-04T12:36:03.767Z</time>
      </trkpt>
      <trkpt lat="46.0563" lon="4.59329">
        <ele>391.08291626</ele>
        <time>2016-02-04T12:36:04.6Z</time>
      </trkpt>
      <trkpt lat="46.05622" lon="4.59333">
        <ele>391.97479248</ele>
        <time>2016-02-04T12:36:08.619Z</time>
      </trkpt>
      <trkpt lat="46.05619" lon="4.59332">
        <ele>392.157440186</ele>
        <time>2016-02-04T12:36:09.597Z</time>
      </trkpt>
      <trkpt lat="46.05611" lon="4.59337">
        <ele>395.221740723</ele>
        <time>2016-02-04T12:36:22.63Z</time>
      </trkpt>
      <trkpt lat="46.05611" lon="4.59339">
        <ele>395.371398926</ele>
        <time>2016-02-04T12:36:23.598Z</time>
      </trkpt>
      <trkpt lat="46.05609" lon="4.5935">
        <ele>395.6378479</ele>
        <time>2016-02-04T12:36:30.649Z</time>
      </trkpt>
      <trkpt lat="46.05609" lon="4.59351">
        <ele>395.661865234</ele>
        <time>2016-02-04T12:36:31.603Z</time>
      </trkpt>
      <trkpt lat="46.05608" lon="4.59364">
        <ele>396.19152832</ele>
        <time>2016-02-04T12:36:45.636Z</time>
      </trkpt>
      <trkpt lat="46.05609" lon="4.59365">
        <ele>396.197113037</ele>
        <time>2016-02-04T12:36:46.6Z</time>
      </trkpt>
      <trkpt lat="46.0561" lon="4.59377">
        <ele>396.205078125</ele>
        <time>2016-02-04T12:36:52.63Z</time>
      </trkpt>
      <trkpt lat="46.0561" lon="4.59379">
        <ele>396.189697266</ele>
        <time>2016-02-04T12:36:53.607Z</time>
      </trkpt>
      <trkpt lat="46.05612" lon="4.59391">
        <ele>396.012756348</ele>
        <time>2016-02-04T12:37:02.626Z</time>
      </trkpt>
      <trkpt lat="46.05613" lon="4.59392">
        <ele>395.967987061</ele>
        <time>2016-02-04T12:37:03.603Z</time>
      </trkpt>
      <trkpt lat="46.05616" lon="4.59402">
        <ele>396.263061523</ele>
        <time>2016-02-04T12:37:11.636Z</time>
      </trkpt>
      <trkpt lat="46.05617" lon="4.59403">
        <ele>396.348358154</ele>
        <time>2016-02-04T12:37:12.605Z</time>
      </trkpt>
      <trkpt lat="46.05621" lon="4.59414">
        <ele>397.913879395</ele>
        <time>2016-02-04T12:37:32.649Z</time>
      </trkpt>
      <trkpt lat="46.05622" lon="4.59415">
        <ele>397.99508667</ele>
        <time>2016-02-04T12:37:33.617Z</time>
      </trkpt>
      <trkpt lat="46.0563" lon="4.59418">
        <ele>398.433074951</ele>
        <time>2016-02-04T12:37:42.644Z</time>
      </trkpt>
      <trkpt lat="46.05631" lon="4.59418">
        <ele>398.478759766</ele>
        <time>2016-02-04T12:37:43.606Z</time>
      </trkpt>
      <trkpt lat="46.0564" lon="4.59421">
        <ele>398.673339844</ele>
        <time>2016-02-04T12:37:54.644Z</time>
      </trkpt>
      <trkpt lat="46.0564" lon="4.59422">
        <ele>398.685058594</ele>
        <time>2016-02-04T12:37:55.617Z</time>
      </trkpt>
      <trkpt lat="46.05647" lon="4.59426">
        <ele>398.840606689</ele>
        <time>2016-02-04T12:38:05.659Z</time>
      </trkpt>
      <trkpt lat="46.05648" lon="4.59429">
        <ele>398.836700439</ele>
        <time>2016-02-04T12:38:06.639Z</time>
      </trkpt>
      <trkpt lat="46.05653" lon="4.59439">
        <ele>398.915374756</ele>
        <time>2016-02-04T12:38:15.649Z</time>
      </trkpt>
      <trkpt lat="46.05653" lon="4.5944">
        <ele>398.96295166</ele>
        <time>2016-02-04T12:38:16.652Z</time>
      </trkpt>
      <trkpt lat="46.05655" lon="4.59452">
        <ele>398.954681396</ele>
        <time>2016-02-04T12:38:24.633Z</time>
      </trkpt>
      <trkpt lat="46.05655" lon="4.59454">
        <ele>398.933898926</ele>
        <time>2016-02-04T12:38:25.626Z</time>
      </trkpt>
      <trkpt lat="46.05656" lon="4.59465">
        <ele>399.034729004</ele>
        <time>2016-02-04T12:38:32.642Z</time>
      </trkpt>
      <trkpt lat="46.05656" lon="4.59467">
        <ele>399.038299561</ele>
        <time>2016-02-04T12:38:33.613Z</time>
      </trkpt>
      <trkpt lat="46.05658" lon="4.59478">
        <ele>399.231048584</ele>
        <time>2016-02-04T12:38:41.676Z</time>
      </trkpt>
      <trkpt lat="46.05659" lon="4.5948">
        <ele>399.24307251</ele>
        <time>2016-02-04T12:38:42.612Z</time>
      </trkpt>
      <trkpt lat="46.05664" lon="4.59489">
        <ele>399.485717773</ele>
        <time>2016-02-04T12:38:50.746Z</time>
      </trkpt>
      <trkpt lat="46.05665" lon="4.5949">
        <ele>399.48046875</ele>
        <time>2016-02-04T12:38:51.621Z</time>
      </trkpt>
      <trkpt lat="46.05671" lon="4.59499">
        <ele>400.139892578</ele>
        <time>2016-02-04T12:39:00.617Z</time>
      </trkpt>
      <trkpt lat="46.05671" lon="4.595">
        <ele>400.196716309</ele>
        <time>2016-02-04T12:39:01.644Z</time>
      </trkpt>
      <trkpt lat="46.05678" lon="4.59506">
        <ele>401.814025879</ele>
        <time>2016-02-04T12:39:18.627Z</time>
      </trkpt>
      <trkpt lat="46.05679" lon="4.59507">
        <ele>401.922698975</ele>
        <time>2016-02-04T12:39:19.614Z</time>
      </trkpt>
      <trkpt lat="46.05686" lon="4.595">
        <ele>404.410888672</ele>
        <time>2016-02-04T12:39:50.661Z</time>
      </trkpt>
      <trkpt lat="46.05687" lon="4.595">
        <ele>404.49621582</ele>
        <time>2016-02-04T12:39:51.614Z</time>
      </trkpt>
      <trkpt lat="46.05695" lon="4.59504">
        <ele>407.028869629</ele>
        <time>2016-02-04T12:40:06.756Z</time>
      </trkpt>
      <trkpt lat="46.05696" lon="4.59504">
        <ele>407.246887207</ele>
        <time>2016-02-04T12:40:07.603Z</time>
      </trkpt>
      <trkpt lat="46.05705" lon="4.59505">
        <ele>409.293670654</ele>
        <time>2016-02-04T12:40:18.648Z</time>
      </trkpt>
      <trkpt lat="46.05706" lon="4.59505">
        <ele>409.467132568</ele>
        <time>2016-02-04T12:40:19.624Z</time>
      </trkpt>
      <trkpt lat="46.05714" lon="4.59502">
        <ele>411.554992676</ele>
        <time>2016-02-04T12:40:41.659Z</time>
      </trkpt>
      <trkpt lat="46.05715" lon="4.59502">
        <ele>411.55770874</ele>
        <time>2016-02-04T12:40:42.629Z</time>
      </trkpt>
      <trkpt lat="46.05723" lon="4.59504">
        <ele>411.380218506</ele>
        <time>2016-02-04T12:40:54.617Z</time>
      </trkpt>
      <trkpt lat="46.05724" lon="4.59505">
        <ele>411.487213135</ele>
        <time>2016-02-04T12:40:55.596Z</time>
      </trkpt>
      <trkpt lat="46.05732" lon="4.59509">
        <ele>412.291900635</ele>
        <time>2016-02-04T12:41:10.623Z</time>
      </trkpt>
      <trkpt lat="46.05733" lon="4.59509">
        <ele>412.358764648</ele>
        <time>2016-02-04T12:41:11.637Z</time>
      </trkpt>
      <trkpt lat="46.05741" lon="4.59509">
        <ele>413.341918945</ele>
        <time>2016-02-04T12:41:19.642Z</time>
      </trkpt>
      <trkpt lat="46.05743" lon="4.59509">
        <ele>413.477752686</ele>
        <time>2016-02-04T12:41:20.616Z</time>
      </trkpt>
      <trkpt lat="46.05751" lon="4.59511">
        <ele>415.204711914</ele>
        <time>2016-02-04T12:41:32.62Z</time>
      </trkpt>
      <trkpt lat="46.05752" lon="4.59511">
        <ele>415.365356445</ele>
        <time>2016-02-04T12:41:33.602Z</time>
      </trkpt>
      <trkpt lat="46.0576" lon="4.59512">
        <ele>416.647186279</ele>
        <time>2016-02-04T12:41:43.627Z</time>
      </trkpt>
      <trkpt lat="46.05761" lon="4.59512">
        <ele>416.7265625</ele>
        <time>2016-02-04T12:41:44.602Z</time>
      </trkpt>
      <trkpt lat="46.0577" lon="4.59514">
        <ele>418.87411499</ele>
        <time>2016-02-04T12:41:57.637Z</time>
      </trkpt>
      <trkpt lat="46.05771" lon="4.59514">
        <ele>419.096038818</ele>
        <time>2016-02-04T12:41:58.613Z</time>
      </trkpt>
      <trkpt lat="46.05779" lon="4.5951">
        <ele>421.364227295</ele>
        <time>2016-02-04T12:42:06.655Z</time>
      </trkpt>
      <trkpt lat="46.0578" lon="4.5951">
        <ele>421.621032715</ele>
        <time>2016-02-04T12:42:07.61Z</time>
      </trkpt>
      <trkpt lat="46.05788" lon="4.59508">
        <ele>423.589141846</ele>
        <time>2016-02-04T12:42:17.642Z</time>
      </trkpt>
      <trkpt lat="46.05789" lon="4.59508">
        <ele>423.819885254</ele>
        <time>2016-02-04T12:42:18.604Z</time>
      </trkpt>
      <trkpt lat="46.05797" lon="4.59502">
        <ele>426.60925293</ele>
        <time>2016-02-04T12:42:37.624Z</time>
      </trkpt>
      <trkpt lat="46.05798" lon="4.59502">
        <ele>426.72076416</ele>
        <time>2016-02-04T12:42:38.605Z</time>
      </trkpt>
      <trkpt lat="46.05806" lon="4.59503">
        <ele>427.980957031</ele>
        <time>2016-02-04T12:42:51.627Z</time>
      </trkpt>
      <trkpt lat="46.05807" lon="4.59504">
        <ele>428.070678711</ele>
        <time>2016-02-04T12:42:52.605Z</time>
      </trkpt>
      <trkpt lat="46.05813" lon="4.59513">
        <ele>428.575164795</ele>
        <time>2016-02-04T12:43:01.64Z</time>
      </trkpt>
      <trkpt lat="46.05814" lon="4.59514">
        <ele>428.616210938</ele>
        <time>2016-02-04T12:43:02.617Z</time>
      </trkpt>
      <trkpt lat="46.05818" lon="4.59523">
        <ele>428.51550293</ele>
        <time>2016-02-04T12:43:09.63Z</time>
      </trkpt>
      <trkpt lat="46.05819" lon="4.59524">
        <ele>428.466369629</ele>
        <time>2016-02-04T12:43:10.607Z</time>
      </trkpt>
      <trkpt lat="46.05824" lon="4.59534">
        <ele>427.963439941</ele>
        <time>2016-02-04T12:43:18.626Z</time>
      </trkpt>
      <trkpt lat="46.05824" lon="4.59536">
        <ele>427.870910645</ele>
        <time>2016-02-04T12:43:19.607Z</time>
      </trkpt>
      <trkpt lat="46.05828" lon="4.59547">
        <ele>427.508117676</ele>
        <time>2016-02-04T12:43:30.651Z</time>
      </trkpt>
      <trkpt lat="46.05828" lon="4.59547">
        <ele>427.477478027</ele>
        <time>2016-02-04T12:43:31.608Z</time>
      </trkpt>
      <trkpt lat="46.05832" lon="4.59559">
        <ele>427.248626709</ele>
        <time>2016-02-04T12:43:43.628Z</time>
      </trkpt>
      <trkpt lat="46.05832" lon="4.5956">
        <ele>427.232666016</ele>
        <time>2016-02-04T12:43:44.612Z</time>
      </trkpt>
      <trkpt lat="46.05834" lon="4.59572">
        <ele>426.83303833</ele>
        <time>2016-02-04T12:43:52.649Z</time>
      </trkpt>
      <trkpt lat="46.05834" lon="4.59574">
        <ele>426.766540527</ele>
        <time>2016-02-04T12:43:53.612Z</time>
      </trkpt>
      <trkpt lat="46.05837" lon="4.59585">
        <ele>426.417480469</ele>
        <time>2016-02-04T12:44:01.649Z</time>
      </trkpt>
      <trkpt lat="46.05838" lon="4.59586">
        <ele>426.391540527</ele>
        <time>2016-02-04T12:44:02.613Z</time>
      </trkpt>
      <trkpt lat="46.05841" lon="4.59597">
        <ele>425.906921387</ele>
        <time>2016-02-04T12:44:08.66Z</time>
      </trkpt>
      <trkpt lat="46.05842" lon="4.59598">
        <ele>425.845550537</ele>
        <time>2016-02-04T12:44:09.623Z</time>
      </trkpt>
      <trkpt lat="46.05846" lon="4.59607">
        <ele>425.420715332</ele>
        <time>2016-02-04T12:44:16.646Z</time>
      </trkpt>
      <trkpt lat="46.05847" lon="4.59609">
        <ele>425.373291016</ele>
        <time>2016-02-04T12:44:17.618Z</time>
      </trkpt>
      <trkpt lat="46.0585" lon="4.59619">
        <ele>424.922027588</ele>
        <time>2016-02-04T12:44:24.735Z</time>
      </trkpt>
      <trkpt lat="46.0585" lon="4.59621">
        <ele>424.795806885</ele>
        <time>2016-02-04T12:44:25.62Z</time>
      </trkpt>
      <trkpt lat="46.05851" lon="4.59633">
        <ele>424.277679443</ele>
        <time>2016-02-04T12:44:31.644Z</time>
      </trkpt>
      <trkpt lat="46.05851" lon="4.59635">
        <ele>424.186920166</ele>
        <time>2016-02-04T12:44:32.614Z</time>
      </trkpt>
      <trkpt lat="46.05853" lon="4.59646">
        <ele>423.618499756</ele>
        <time>2016-02-04T12:44:38.646Z</time>
      </trkpt>
      <trkpt lat="46.05853" lon="4.59648">
        <ele>423.508911133</ele>
        <time>2016-02-04T12:44:39.614Z</time>
      </trkpt>
      <trkpt lat="46.05856" lon="4.5966">
        <ele>422.845367432</ele>
        <time>2016-02-04T12:44:46.631Z</time>
      </trkpt>
      <trkpt lat="46.05856" lon="4.59662">
        <ele>422.770782471</ele>
        <time>2016-02-04T12:44:47.624Z</time>
      </trkpt>
      <trkpt lat="46.05858" lon="4.59672">
        <ele>422.218353271</ele>
        <time>2016-02-04T12:44:53.647Z</time>
      </trkpt>
      <trkpt lat="46.05859" lon="4.59674">
        <ele>422.101776123</ele>
        <time>2016-02-04T12:44:54.618Z</time>
      </trkpt>
      <trkpt lat="46.05861" lon="4.59685">
        <ele>421.553894043</ele>
        <time>2016-02-04T12:45:00.647Z</time>
      </trkpt>
      <trkpt lat="46.05862" lon="4.59686">
        <ele>421.493255615</ele>
        <time>2016-02-04T12:45:01.614Z</time>
      </trkpt>
      <trkpt lat="46.05865" lon="4.59698">
        <ele>420.83972168</ele>
        <time>2016-02-04T12:45:07.638Z</time>
      </trkpt>
      <trkpt lat="46.05865" lon="4.597">
        <ele>420.692718506</ele>
        <time>2016-02-04T12:45:08.623Z</time>
      </trkpt>
      <trkpt lat="46.05868" lon="4.59711">
        <ele>419.840209961</ele>
        <time>2016-02-04T12:45:15.648Z</time>
      </trkpt>
      <trkpt lat="46.05869" lon="4.59713">
        <ele>419.745605469</ele>
        <time>2016-02-04T12:45:16.627Z</time>
      </trkpt>
      <trkpt lat="46.05871" lon="4.59724">
        <ele>419.454864502</ele>
        <time>2016-02-04T12:45:21.642Z</time>
      </trkpt>
      <trkpt lat="46.05872" lon="4.59726">
        <ele>419.391723633</ele>
        <time>2016-02-04T12:45:22.619Z</time>
      </trkpt>
      <trkpt lat="46.05874" lon="4.59738">
        <ele>418.963378906</ele>
        <time>2016-02-04T12:45:29.655Z</time>
      </trkpt>
      <trkpt lat="46.05875" lon="4.5974">
        <ele>418.900115967</ele>
        <time>2016-02-04T12:45:30.62Z</time>
      </trkpt>
      <trkpt lat="46.05879" lon="4.59751">
        <ele>418.426025391</ele>
        <time>2016-02-04T12:45:36.641Z</time>
      </trkpt>
      <trkpt lat="46.05879" lon="4.59753">
        <ele>418.314788818</ele>
        <time>2016-02-04T12:45:37.621Z</time>
      </trkpt>
      <trkpt lat="46.05882" lon="4.59764">
        <ele>417.696289062</ele>
        <time>2016-02-04T12:45:43.643Z</time>
      </trkpt>
      <trkpt lat="46.05883" lon="4.59766">
        <ele>417.612335205</ele>
        <time>2016-02-04T12:45:44.621Z</time>
      </trkpt>
      <trkpt lat="46.05884" lon="4.59778">
        <ele>417.1668396</ele>
        <time>2016-02-04T12:45:50.639Z</time>
      </trkpt>
      <trkpt lat="46.05885" lon="4.59779">
        <ele>417.108856201</ele>
        <time>2016-02-04T12:45:51.621Z</time>
      </trkpt>
      <trkpt lat="46.05886" lon="4.59791">
        <ele>416.813415527</ele>
        <time>2016-02-04T12:45:57.642Z</time>
      </trkpt>
      <trkpt lat="46.05886" lon="4.59792">
        <ele>416.750549316</ele>
        <time>2016-02-04T12:45:58.628Z</time>
      </trkpt>
      <trkpt lat="46.05887" lon="4.59804">
        <ele>416.403686523</ele>
        <time>2016-02-04T12:46:04.644Z</time>
      </trkpt>
      <trkpt lat="46.05887" lon="4.59806">
        <ele>416.351623535</ele>
        <time>2016-02-04T12:46:05.633Z</time>
      </trkpt>
      <trkpt lat="46.05887" lon="4.59817">
        <ele>415.400024414</ele>
        <time>2016-02-04T12:46:37.622Z</time>
      </trkpt>
      <trkpt lat="46.05887" lon="4.59819">
        <ele>415.368255615</ele>
        <time>2016-02-04T12:46:38.608Z</time>
      </trkpt>
      <trkpt lat="46.05887" lon="4.5983">
        <ele>415.082702637</ele>
        <time>2016-02-04T12:46:44.629Z</time>
      </trkpt>
      <trkpt lat="46.05887" lon="4.59832">
        <ele>415.014526367</ele>
        <time>2016-02-04T12:46:45.616Z</time>
      </trkpt>
      <trkpt lat="46.05888" lon="4.59845">
        <ele>414.414337158</ele>
        <time>2016-02-04T12:46:52.621Z</time>
      </trkpt>
      <trkpt lat="46.05888" lon="4.59846">
        <ele>414.309967041</ele>
        <time>2016-02-04T12:46:53.608Z</time>
      </trkpt>
      <trkpt lat="46.05888" lon="4.59858">
        <ele>413.625671387</ele>
        <time>2016-02-04T12:46:59.627Z</time>
      </trkpt>
      <trkpt lat="46.05888" lon="4.5986">
        <ele>413.462799072</ele>
        <time>2016-02-04T12:47:00.608Z</time>
      </trkpt>
      <trkpt lat="46.05891" lon="4.59872">
        <ele>412.291107178</ele>
        <time>2016-02-04T12:47:07.641Z</time>
      </trkpt>
      <trkpt lat="46.05891" lon="4.59874">
        <ele>412.100799561</ele>
        <time>2016-02-04T12:47:08.618Z</time>
      </trkpt>
      <trkpt lat="46.05891" lon="4.59886">
        <ele>410.867584229</ele>
        <time>2016-02-04T12:47:15.622Z</time>
      </trkpt>
      <trkpt lat="46.05891" lon="4.59888">
        <ele>410.717254639</ele>
        <time>2016-02-04T12:47:16.612Z</time>
      </trkpt>
      <trkpt lat="46.05891" lon="4.59899">
        <ele>409.988311768</ele>
        <time>2016-02-04T12:47:23.628Z</time>
      </trkpt>
      <trkpt lat="46.05891" lon="4.59902">
        <ele>409.895935059</ele>
        <time>2016-02-04T12:47:24.608Z</time>
      </trkpt>
      <trkpt lat="46.05892" lon="4.59912">
        <ele>408.951080322</ele>
        <time>2016-02-04T12:47:31.62Z</time>
      </trkpt>
      <trkpt lat="46.05893" lon="4.59915">
        <ele>408.773223877</ele>
        <time>2016-02-04T12:47:32.611Z</time>
      </trkpt>
      <trkpt lat="46.05893" lon="4.59926">
        <ele>407.284545898</ele>
        <time>2016-02-04T12:47:40.628Z</time>
      </trkpt>
      <trkpt lat="46.05893" lon="4.59927">
        <ele>407.109222412</ele>
        <time>2016-02-04T12:47:41.615Z</time>
      </trkpt>
      <trkpt lat="46.05893" lon="4.5994">
        <ele>405.772857666</ele>
        <time>2016-02-04T12:47:49.638Z</time>
      </trkpt>
      <trkpt lat="46.05893" lon="4.59942">
        <ele>405.624328613</ele>
        <time>2016-02-04T12:47:50.613Z</time>
      </trkpt>
      <trkpt lat="46.05893" lon="4.59954">
        <ele>404.33303833</ele>
        <time>2016-02-04T12:47:59.632Z</time>
      </trkpt>
      <trkpt lat="46.05893" lon="4.59955">
        <ele>404.225097656</ele>
        <time>2016-02-04T12:48:00.602Z</time>
      </trkpt>
      <trkpt lat="46.05893" lon="4.59967">
        <ele>402.985137939</ele>
        <time>2016-02-04T12:48:17.636Z</time>
      </trkpt>
      <trkpt lat="46.05893" lon="4.59968">
        <ele>402.898620605</ele>
        <time>2016-02-04T12:48:18.615Z</time>
      </trkpt>
      <trkpt lat="46.05893" lon="4.5998">
        <ele>401.93057251</ele>
        <time>2016-02-04T12:48:26.644Z</time>
      </trkpt>
      <trkpt lat="46.05894" lon="4.59982">
        <ele>401.779663086</ele>
        <time>2016-02-04T12:48:27.618Z</time>
      </trkpt>
      <trkpt lat="46.05895" lon="4.59995">
        <ele>400.859619141</ele>
        <time>2016-02-04T12:48:34.645Z</time>
      </trkpt>
      <trkpt lat="46.05896" lon="4.59996">
        <ele>400.717590332</ele>
        <time>2016-02-04T12:48:35.616Z</time>
      </trkpt>
      <trkpt lat="46.05898" lon="4.60008">
        <ele>399.408416748</ele>
        <time>2016-02-04T12:48:43.639Z</time>
      </trkpt>
      <trkpt lat="46.05899" lon="4.60009">
        <ele>399.2237854</ele>
        <time>2016-02-04T12:48:44.617Z</time>
      </trkpt>
      <trkpt lat="46.05902" lon="4.60021">
        <ele>397.586730957</ele>
        <time>2016-02-04T12:48:53.648Z</time>
      </trkpt>
      <trkpt lat="46.05902" lon="4.60022">
        <ele>397.469909668</ele>
        <time>2016-02-04T12:48:54.605Z</time>
      </trkpt>
      <trkpt lat="46.05905" lon="4.60034">
        <ele>396.205871582</ele>
        <time>2016-02-04T12:49:02.652Z</time>
      </trkpt>
      <trkpt lat="46.05905" lon="4.60036">
        <ele>396.041595459</ele>
        <time>2016-02-04T12:49:03.614Z</time>
      </trkpt>
      <trkpt lat="46.05908" lon="4.60048">
        <ele>394.603485107</ele>
        <time>2016-02-04T12:49:11.648Z</time>
      </trkpt>
      <trkpt lat="46.05908" lon="4.60049">
        <ele>394.351013184</ele>
        <time>2016-02-04T12:49:12.619Z</time>
      </trkpt>
      <trkpt lat="46.0591" lon="4.60061">
        <ele>393.03237915</ele>
        <time>2016-02-04T12:49:18.669Z</time>
      </trkpt>
      <trkpt lat="46.0591" lon="4.60062">
        <ele>392.79397583</ele>
        <time>2016-02-04T12:49:19.614Z</time>
      </trkpt>
      <trkpt lat="46.05911" lon="4.60073">
        <ele>391.465576172</ele>
        <time>2016-02-04T12:49:26.649Z</time>
      </trkpt>
      <trkpt lat="46.05911" lon="4.60075">
        <ele>391.267974854</ele>
        <time>2016-02-04T12:49:27.62Z</time>
      </trkpt>
      <trkpt lat="46.05912" lon="4.60087">
        <ele>389.866943359</ele>
        <time>2016-02-04T12:49:33.648Z</time>
      </trkpt>
      <trkpt lat="46.05912" lon="4.60089">
        <ele>389.635192871</ele>
        <time>2016-02-04T12:49:34.621Z</time>
      </trkpt>
      <trkpt lat="46.05914" lon="4.601">
        <ele>387.688537598</ele>
        <time>2016-02-04T12:49:42.637Z</time>
      </trkpt>
      <trkpt lat="46.05915" lon="4.60102">
        <ele>387.446777344</ele>
        <time>2016-02-04T12:49:43.616Z</time>
      </trkpt>
      <trkpt lat="46.05918" lon="4.60114">
        <ele>385.72442627</ele>
        <time>2016-02-04T12:49:51.657Z</time>
      </trkpt>
      <trkpt lat="46.05918" lon="4.60115">
        <ele>385.518463135</ele>
        <time>2016-02-04T12:49:52.625Z</time>
      </trkpt>
      <trkpt lat="46.0592" lon="4.60127">
        <ele>384.136474609</ele>
        <time>2016-02-04T12:49:59.651Z</time>
      </trkpt>
      <trkpt lat="46.0592" lon="4.60128">
        <ele>383.931243896</ele>
        <time>2016-02-04T12:50:00.623Z</time>
      </trkpt>
      <trkpt lat="46.05923" lon="4.6014">
        <ele>382.412200928</ele>
        <time>2016-02-04T12:50:08.65Z</time>
      </trkpt>
      <trkpt lat="46.05924" lon="4.60142">
        <ele>382.220825195</ele>
        <time>2016-02-04T12:50:09.624Z</time>
      </trkpt>
      <trkpt lat="46.05925" lon="4.60154">
        <ele>380.670349121</ele>
        <time>2016-02-04T12:50:17.658Z</time>
      </trkpt>
      <trkpt lat="46.05926" lon="4.60156">
        <ele>380.471893311</ele>
        <time>2016-02-04T12:50:18.624Z</time>
      </trkpt>
      <trkpt lat="46.05928" lon="4.60167">
        <ele>379.015930176</ele>
        <time>2016-02-04T12:50:25.649Z</time>
      </trkpt>
      <trkpt lat="46.05928" lon="4.60169">
        <ele>378.798583984</ele>
        <time>2016-02-04T12:50:26.632Z</time>
      </trkpt>
      <trkpt lat="46.0593" lon="4.60181">
        <ele>377.487213135</ele>
        <time>2016-02-04T12:50:32.663Z</time>
      </trkpt>
      <trkpt lat="46.05931" lon="4.60182">
        <ele>377.250244141</ele>
        <time>2016-02-04T12:50:33.627Z</time>
      </trkpt>
      <trkpt lat="46.05933" lon="4.60194">
        <ele>375.84979248</ele>
        <time>2016-02-04T12:50:40.618Z</time>
      </trkpt>
      <trkpt lat="46.05934" lon="4.60196">
        <ele>375.647583008</ele>
        <time>2016-02-04T12:50:41.633Z</time>
      </trkpt>
      <trkpt lat="46.05936" lon="4.60207">
        <ele>374.089630127</ele>
        <time>2016-02-04T12:50:48.694Z</time>
      </trkpt>
      <trkpt lat="46.05936" lon="4.60209">
        <ele>373.880218506</ele>
        <time>2016-02-04T12:50:49.616Z</time>
      </trkpt>
      <trkpt lat="46.05938" lon="4.60221">
        <ele>372.615966797</ele>
        <time>2016-02-04T12:50:57.677Z</time>
      </trkpt>
      <trkpt lat="46.05938" lon="4.60223">
        <ele>372.447479248</ele>
        <time>2016-02-04T12:50:58.623Z</time>
      </trkpt>
      <trkpt lat="46.05936" lon="4.60233">
        <ele>371.069976807</ele>
        <time>2016-02-04T12:51:06.65Z</time>
      </trkpt>
      <trkpt lat="46.05935" lon="4.60235">
        <ele>370.847808838</ele>
        <time>2016-02-04T12:51:07.628Z</time>
      </trkpt>
      <trkpt lat="46.05931" lon="4.60247">
        <ele>369.107940674</ele>
        <time>2016-02-04T12:51:14.634Z</time>
      </trkpt>
      <trkpt lat="46.0593" lon="4.60248">
        <ele>368.842681885</ele>
        <time>2016-02-04T12:51:15.627Z</time>
      </trkpt>
      <trkpt lat="46.05926" lon="4.60259">
        <ele>367.301513672</ele>
        <time>2016-02-04T12:51:22.648Z</time>
      </trkpt>
      <trkpt lat="46.05926" lon="4.6026">
        <ele>367.084228516</ele>
        <time>2016-02-04T12:51:23.605Z</time>
      </trkpt>
      <trkpt lat="46.05919" lon="4.60267">
        <ele>364.988647461</ele>
        <time>2016-02-04T12:51:35.628Z</time>
      </trkpt>
      <trkpt lat="46.05918" lon="4.60267">
        <ele>364.967376709</ele>
        <time>2016-02-04T12:51:36.606Z</time>
      </trkpt>
      <trkpt lat="46.05912" lon="4.60276">
        <ele>363.391052246</ele>
        <time>2016-02-04T12:51:52.672Z</time>
      </trkpt>
      <trkpt lat="46.05912" lon="4.60277">
        <ele>363.269500732</ele>
        <time>2016-02-04T12:51:53.608Z</time>
      </trkpt>
      <trkpt lat="46.05912" lon="4.6029">
        <ele>362.072479248</ele>
        <time>2016-02-04T12:52:03.633Z</time>
      </trkpt>
      <trkpt lat="46.05912" lon="4.60292">
        <ele>361.927459717</ele>
        <time>2016-02-04T12:52:04.625Z</time>
      </trkpt>
      <trkpt lat="46.05913" lon="4.60305">
        <ele>360.700622559</ele>
        <time>2016-02-04T12:52:12.637Z</time>
      </trkpt>
      <trkpt lat="46.05913" lon="4.60307">
        <ele>360.553039551</ele>
        <time>2016-02-04T12:52:13.608Z</time>
      </trkpt>
      <trkpt lat="46.05912" lon="4.60319">
        <ele>359.854522705</ele>
        <time>2016-02-04T12:52:19.627Z</time>
      </trkpt>
      <trkpt lat="46.05912" lon="4.60321">
        <ele>359.714630127</ele>
        <time>2016-02-04T12:52:20.599Z</time>
      </trkpt>
      <trkpt lat="46.05913" lon="4.60332">
        <ele>358.779510498</ele>
        <time>2016-02-04T12:52:26.643Z</time>
      </trkpt>
      <trkpt lat="46.05913" lon="4.60334">
        <ele>358.603942871</ele>
        <time>2016-02-04T12:52:27.601Z</time>
      </trkpt>
      <trkpt lat="46.05914" lon="4.60346">
        <ele>357.446929932</ele>
        <time>2016-02-04T12:52:33.615Z</time>
      </trkpt>
      <trkpt lat="46.05914" lon="4.60347">
        <ele>357.275939941</ele>
        <time>2016-02-04T12:52:34.612Z</time>
      </trkpt>
      <trkpt lat="46.05913" lon="4.6036">
        <ele>356.306671143</ele>
        <time>2016-02-04T12:52:42.618Z</time>
      </trkpt>
      <trkpt lat="46.05913" lon="4.60362">
        <ele>356.181030273</ele>
        <time>2016-02-04T12:52:43.602Z</time>
      </trkpt>
      <trkpt lat="46.05911" lon="4.60374">
        <ele>355.382354736</ele>
        <time>2016-02-04T12:52:48.634Z</time>
      </trkpt>
      <trkpt lat="46.05911" lon="4.60375">
        <ele>355.209564209</ele>
        <time>2016-02-04T12:52:49.611Z</time>
      </trkpt>
      <trkpt lat="46.05909" lon="4.60386">
        <ele>354.514221191</ele>
        <time>2016-02-04T12:52:55.63Z</time>
      </trkpt>
      <trkpt lat="46.05909" lon="4.60389">
        <ele>354.398590088</ele>
        <time>2016-02-04T12:52:56.609Z</time>
      </trkpt>
      <trkpt lat="46.05907" lon="4.604">
        <ele>353.293792725</ele>
        <time>2016-02-04T12:53:02.625Z</time>
      </trkpt>
      <trkpt lat="46.05906" lon="4.60402">
        <ele>353.069396973</ele>
        <time>2016-02-04T12:53:03.599Z</time>
      </trkpt>
      <trkpt lat="46.05902" lon="4.60411">
        <ele>351.741424561</ele>
        <time>2016-02-04T12:53:10.649Z</time>
      </trkpt>
      <trkpt lat="46.05901" lon="4.60414">
        <ele>351.600128174</ele>
        <time>2016-02-04T12:53:11.615Z</time>
      </trkpt>
      <trkpt lat="46.05895" lon="4.60421">
        <ele>350.500671387</ele>
        <time>2016-02-04T12:53:17.642Z</time>
      </trkpt>
      <trkpt lat="46.05894" lon="4.60423">
        <ele>350.313873291</ele>
        <time>2016-02-04T12:53:18.615Z</time>
      </trkpt>
      <trkpt lat="46.05888" lon="4.60432">
        <ele>348.841217041</ele>
        <time>2016-02-04T12:53:25.649Z</time>
      </trkpt>
      <trkpt lat="46.05888" lon="4.60433">
        <ele>348.728729248</ele>
        <time>2016-02-04T12:53:26.603Z</time>
      </trkpt>
      <trkpt lat="46.0588" lon="4.60435">
        <ele>347.787261963</ele>
        <time>2016-02-04T12:53:34.64Z</time>
      </trkpt>
      <trkpt lat="46.05878" lon="4.60435">
        <ele>347.618286133</ele>
        <time>2016-02-04T12:53:35.605Z</time>
      </trkpt>
      <trkpt lat="46.05871" lon="4.60432">
        <ele>346.620941162</ele>
        <time>2016-02-04T12:53:41.645Z</time>
      </trkpt>
      <trkpt lat="46.0587" lon="4.60431">
        <ele>346.485626221</ele>
        <time>2016-02-04T12:53:42.616Z</time>
      </trkpt>
      <trkpt lat="46.05863" lon="4.60425">
        <ele>345.502929688</ele>
        <time>2016-02-04T12:53:48.657Z</time>
      </trkpt>
      <trkpt lat="46.05862" lon="4.60423">
        <ele>345.364685059</ele>
        <time>2016-02-04T12:53:49.613Z</time>
      </trkpt>
      <trkpt lat="46.05855" lon="4.60415">
        <ele>344.075531006</ele>
        <time>2016-02-04T12:53:58.648Z</time>
      </trkpt>
      <trkpt lat="46.05855" lon="4.60414">
        <ele>344.007141113</ele>
        <time>2016-02-04T12:53:59.604Z</time>
      </trkpt>
      <trkpt lat="46.05849" lon="4.60408">
        <ele>343.3777771</ele>
        <time>2016-02-04T12:54:06.628Z</time>
      </trkpt>
      <trkpt lat="46.05847" lon="4.60406">
        <ele>343.193908691</ele>
        <time>2016-02-04T12:54:07.593Z</time>
      </trkpt>
      <trkpt lat="46.05839" lon="4.604">
        <ele>342.089477539</ele>
        <time>2016-02-04T12:54:14.634Z</time>
      </trkpt>
      <trkpt lat="46.05839" lon="4.60399">
        <ele>341.948608398</ele>
        <time>2016-02-04T12:54:15.606Z</time>
      </trkpt>
      <trkpt lat="46.05831" lon="4.60392">
        <ele>341.068054199</ele>
        <time>2016-02-04T12:54:22.654Z</time>
      </trkpt>
      <trkpt lat="46.0583" lon="4.60391">
        <ele>340.924682617</ele>
        <time>2016-02-04T12:54:23.619Z</time>
      </trkpt>
      <trkpt lat="46.05822" lon="4.60387">
        <ele>340.443756104</ele>
        <time>2016-02-04T12:54:29.632Z</time>
      </trkpt>
      <trkpt lat="46.05821" lon="4.60386">
        <ele>340.390197754</ele>
        <time>2016-02-04T12:54:30.598Z</time>
      </trkpt>
      <trkpt lat="46.05814" lon="4.6038">
        <ele>339.924285889</ele>
        <time>2016-02-04T12:54:39.649Z</time>
      </trkpt>
      <trkpt lat="46.05813" lon="4.6038">
        <ele>339.931213379</ele>
        <time>2016-02-04T12:54:40.61Z</time>
      </trkpt>
      <trkpt lat="46.05807" lon="4.60371">
        <ele>339.088256836</ele>
        <time>2016-02-04T12:54:47.692Z</time>
      </trkpt>
      <trkpt lat="46.05806" lon="4.60371">
        <ele>338.898712158</ele>
        <time>2016-02-04T12:54:48.621Z</time>
      </trkpt>
      <trkpt lat="46.05798" lon="4.6037">
        <ele>338.405853271</ele>
        <time>2016-02-04T12:54:52.655Z</time>
      </trkpt>
      <trkpt lat="46.05795" lon="4.60368">
        <ele>338.314453125</ele>
        <time>2016-02-04T12:54:53.62Z</time>
      </trkpt>
      <trkpt lat="46.05787" lon="4.60364">
        <ele>337.646911621</ele>
        <time>2016-02-04T12:55:01.666Z</time>
      </trkpt>
      <trkpt lat="46.05785" lon="4.60365">
        <ele>337.577301025</ele>
        <time>2016-02-04T12:55:02.621Z</time>
      </trkpt>
      <trkpt lat="46.05776" lon="4.60365">
        <ele>336.761047363</ele>
        <time>2016-02-04T12:55:07.648Z</time>
      </trkpt>
      <trkpt lat="46.05775" lon="4.60365">
        <ele>336.534973145</ele>
        <time>2016-02-04T12:55:08.624Z</time>
      </trkpt>
      <trkpt lat="46.05768" lon="4.60367">
        <ele>335.681396484</ele>
        <time>2016-02-04T12:55:12.659Z</time>
      </trkpt>
      <trkpt lat="46.05766" lon="4.60368">
        <ele>335.458404541</ele>
        <time>2016-02-04T12:55:13.623Z</time>
      </trkpt>
      <trkpt lat="46.05757" lon="4.60371">
        <ele>334.526611328</ele>
        <time>2016-02-04T12:55:18.664Z</time>
      </trkpt>
      <trkpt lat="46.05757" lon="4.60372">
        <ele>334.326477051</ele>
        <time>2016-02-04T12:55:19.629Z</time>
      </trkpt>
      <trkpt lat="46.05749" lon="4.60378">
        <ele>333.700775146</ele>
        <time>2016-02-04T12:55:24.645Z</time>
      </trkpt>
      <trkpt lat="46.05747" lon="4.6038">
        <ele>333.587341309</ele>
        <time>2016-02-04T12:55:25.625Z</time>
      </trkpt>
      <trkpt lat="46.05739" lon="4.60384">
        <ele>332.316680908</ele>
        <time>2016-02-04T12:55:32.663Z</time>
      </trkpt>
      <trkpt lat="46.05738" lon="4.60384">
        <ele>332.061950684</ele>
        <time>2016-02-04T12:55:33.625Z</time>
      </trkpt>
      <trkpt lat="46.05729" lon="4.60386">
        <ele>331.022674561</ele>
        <time>2016-02-04T12:55:38.664Z</time>
      </trkpt>
      <trkpt lat="46.05727" lon="4.60386">
        <ele>330.839233398</ele>
        <time>2016-02-04T12:55:39.626Z</time>
      </trkpt>
      <trkpt lat="46.05719" lon="4.60387">
        <ele>330.417938232</ele>
        <time>2016-02-04T12:55:45.65Z</time>
      </trkpt>
      <trkpt lat="46.05718" lon="4.60388">
        <ele>330.310638428</ele>
        <time>2016-02-04T12:55:46.626Z</time>
      </trkpt>
      <trkpt lat="46.05713" lon="4.60398">
        <ele>329.901672363</ele>
        <time>2016-02-04T12:55:56.654Z</time>
      </trkpt>
      <trkpt lat="46.05712" lon="4.60399">
        <ele>329.863006592</ele>
        <time>2016-02-04T12:55:57.627Z</time>
      </trkpt>
      <trkpt lat="46.05709" lon="4.6041">
        <ele>329.652069092</ele>
        <time>2016-02-04T12:56:03.657Z</time>
      </trkpt>
      <trkpt lat="46.05709" lon="4.60412">
        <ele>329.696472168</ele>
        <time>2016-02-04T12:56:04.628Z</time>
      </trkpt>
      <trkpt lat="46.05709" lon="4.60425">
        <ele>330.249542236</ele>
        <time>2016-02-04T12:56:11.664Z</time>
      </trkpt>
      <trkpt lat="46.05709" lon="4.60426">
        <ele>330.443634033</ele>
        <time>2016-02-04T12:56:12.629Z</time>
      </trkpt>
      <trkpt lat="46.05711" lon="4.60439">
        <ele>331.317474365</ele>
        <time>2016-02-04T12:56:20.652Z</time>
      </trkpt>
      <trkpt lat="46.05712" lon="4.6044">
        <ele>331.348510742</ele>
        <time>2016-02-04T12:56:21.629Z</time>
      </trkpt>
      <trkpt lat="46.05716" lon="4.60451">
        <ele>331.601898193</ele>
        <time>2016-02-04T12:56:28.666Z</time>
      </trkpt>
      <trkpt lat="46.05716" lon="4.60452">
        <ele>331.762359619</ele>
        <time>2016-02-04T12:56:29.632Z</time>
      </trkpt>
      <trkpt lat="46.05721" lon="4.60463">
        <ele>332.601531982</ele>
        <time>2016-02-04T12:56:37.651Z</time>
      </trkpt>
      <trkpt lat="46.05721" lon="4.60464">
        <ele>332.72857666</ele>
        <time>2016-02-04T12:56:38.595Z</time>
      </trkpt>
      <trkpt lat="46.05725" lon="4.60474">
        <ele>333.843811035</ele>
        <time>2016-02-04T12:56:45.623Z</time>
      </trkpt>
      <trkpt lat="46.05726" lon="4.60475">
        <ele>333.942077637</ele>
        <time>2016-02-04T12:56:46.604Z</time>
      </trkpt>
      <trkpt lat="46.0573" lon="4.60486">
        <ele>334.28527832</ele>
        <time>2016-02-04T12:56:52.627Z</time>
      </trkpt>
      <trkpt lat="46.0573" lon="4.60488">
        <ele>334.299468994</ele>
        <time>2016-02-04T12:56:53.602Z</time>
      </trkpt>
      <trkpt lat="46.05731" lon="4.60499">
        <ele>334.353851318</ele>
        <time>2016-02-04T12:56:59.617Z</time>
      </trkpt>
      <trkpt lat="46.05731" lon="4.60502">
        <ele>334.362091064</ele>
        <time>2016-02-04T12:57:00.596Z</time>
      </trkpt>
      <trkpt lat="46.05733" lon="4.60514">
        <ele>334.10949707</ele>
        <time>2016-02-04T12:57:07.627Z</time>
      </trkpt>
      <trkpt lat="46.05733" lon="4.60515">
        <ele>334.110137939</ele>
        <time>2016-02-04T12:57:08.596Z</time>
      </trkpt>
      <trkpt lat="46.05731" lon="4.60528">
        <ele>333.957122803</ele>
        <time>2016-02-04T12:57:17.615Z</time>
      </trkpt>
      <trkpt lat="46.05731" lon="4.60529">
        <ele>333.931304932</ele>
        <time>2016-02-04T12:57:18.607Z</time>
      </trkpt>
      <trkpt lat="46.05728" lon="4.6054">
        <ele>334.244110107</ele>
        <time>2016-02-04T12:57:25.615Z</time>
      </trkpt>
      <trkpt lat="46.05727" lon="4.60542">
        <ele>334.277038574</ele>
        <time>2016-02-04T12:57:26.6Z</time>
      </trkpt>
      <trkpt lat="46.0572" lon="4.6055">
        <ele>334.333618164</ele>
        <time>2016-02-04T12:57:32.623Z</time>
      </trkpt>
      <trkpt lat="46.05719" lon="4.60551">
        <ele>334.329467773</ele>
        <time>2016-02-04T12:57:33.6Z</time>
      </trkpt>
      <trkpt lat="46.05711" lon="4.60555">
        <ele>334.559875488</ele>
        <time>2016-02-04T12:57:43.627Z</time>
      </trkpt>
      <trkpt lat="46.0571" lon="4.60555">
        <ele>334.583099365</ele>
        <time>2016-02-04T12:57:44.6Z</time>
      </trkpt>
      <trkpt lat="46.05702" lon="4.60551">
        <ele>335.432891846</ele>
        <time>2016-02-04T12:57:53.63Z</time>
      </trkpt>
      <trkpt lat="46.057" lon="4.60551">
        <ele>335.608612061</ele>
        <time>2016-02-04T12:57:54.602Z</time>
      </trkpt>
      <trkpt lat="46.05692" lon="4.60547">
        <ele>336.567962646</ele>
        <time>2016-02-04T12:58:01.627Z</time>
      </trkpt>
      <trkpt lat="46.05691" lon="4.60547">
        <ele>336.727905273</ele>
        <time>2016-02-04T12:58:02.599Z</time>
      </trkpt>
      <trkpt lat="46.05683" lon="4.60545">
        <ele>338.008056641</ele>
        <time>2016-02-04T12:58:10.636Z</time>
      </trkpt>
      <trkpt lat="46.05682" lon="4.60545">
        <ele>338.147338867</ele>
        <time>2016-02-04T12:58:11.602Z</time>
      </trkpt>
      <trkpt lat="46.05673" lon="4.60542">
        <ele>339.350616455</ele>
        <time>2016-02-04T12:58:20.62Z</time>
      </trkpt>
      <trkpt lat="46.05672" lon="4.60542">
        <ele>339.447265625</ele>
        <time>2016-02-04T12:58:21.592Z</time>
      </trkpt>
      <trkpt lat="46.05664" lon="4.6054">
        <ele>340.003845215</ele>
        <time>2016-02-04T12:58:27.635Z</time>
      </trkpt>
      <trkpt lat="46.05663" lon="4.6054">
        <ele>340.109680176</ele>
        <time>2016-02-04T12:58:28.612Z</time>
      </trkpt>
      <trkpt lat="46.05655" lon="4.60539">
        <ele>340.84173584</ele>
        <time>2016-02-04T12:58:35.621Z</time>
      </trkpt>
      <trkpt lat="46.05654" lon="4.60539">
        <ele>340.911621094</ele>
        <time>2016-02-04T12:58:36.61Z</time>
      </trkpt>
      <trkpt lat="46.05645" lon="4.60537">
        <ele>341.607788086</ele>
        <time>2016-02-04T12:58:44.646Z</time>
      </trkpt>
      <trkpt lat="46.05644" lon="4.60537">
        <ele>341.724639893</ele>
        <time>2016-02-04T12:58:45.612Z</time>
      </trkpt>
      <trkpt lat="46.05636" lon="4.60534">
        <ele>342.65713501</ele>
        <time>2016-02-04T12:58:53.645Z</time>
      </trkpt>
      <trkpt lat="46.05635" lon="4.60533">
        <ele>342.755523682</ele>
        <time>2016-02-04T12:58:54.615Z</time>
      </trkpt>
      <trkpt lat="46.05627" lon="4.6053">
        <ele>343.560546875</ele>
        <time>2016-02-04T12:59:01.641Z</time>
      </trkpt>
      <trkpt lat="46.05626" lon="4.60529">
        <ele>343.685180664</ele>
        <time>2016-02-04T12:59:02.603Z</time>
      </trkpt>
      <trkpt lat="46.05618" lon="4.60526">
        <ele>344.622283936</ele>
        <time>2016-02-04T12:59:10.629Z</time>
      </trkpt>
      <trkpt lat="46.05617" lon="4.60525">
        <ele>344.72555542</ele>
        <time>2016-02-04T12:59:11.604Z</time>
      </trkpt>
      <trkpt lat="46.05609" lon="4.6052">
        <ele>346.052124023</ele>
        <time>2016-02-04T12:59:19.641Z</time>
      </trkpt>
      <trkpt lat="46.05609" lon="4.6052">
        <ele>346.180755615</ele>
        <time>2016-02-04T12:59:20.611Z</time>
      </trkpt>
      <trkpt lat="46.05601" lon="4.60514">
        <ele>347.262756348</ele>
        <time>2016-02-04T12:59:26.629Z</time>
      </trkpt>
      <trkpt lat="46.05599" lon="4.60514">
        <ele>347.460083008</ele>
        <time>2016-02-04T12:59:27.606Z</time>
      </trkpt>
      <trkpt lat="46.05591" lon="4.60508">
        <ele>348.970306396</ele>
        <time>2016-02-04T12:59:36.637Z</time>
      </trkpt>
      <trkpt lat="46.05591" lon="4.60508">
        <ele>349.143249512</ele>
        <time>2016-02-04T12:59:37.625Z</time>
      </trkpt>
      <trkpt lat="46.05583" lon="4.60503">
        <ele>350.4765625</ele>
        <time>2016-02-04T12:59:44.64Z</time>
      </trkpt>
      <trkpt lat="46.05582" lon="4.60502">
        <ele>350.576263428</ele>
        <time>2016-02-04T12:59:45.618Z</time>
      </trkpt>
      <trkpt lat="46.05574" lon="4.60496">
        <ele>351.364227295</ele>
        <time>2016-02-04T12:59:52.666Z</time>
      </trkpt>
      <trkpt lat="46.05573" lon="4.60495">
        <ele>351.480041504</ele>
        <time>2016-02-04T12:59:53.618Z</time>
      </trkpt>
      <trkpt lat="46.05565" lon="4.6049">
        <ele>352.272918701</ele>
        <time>2016-02-04T13:00:02.658Z</time>
      </trkpt>
      <trkpt lat="46.05564" lon="4.60489">
        <ele>352.370849609</ele>
        <time>2016-02-04T13:00:03.619Z</time>
      </trkpt>
      <trkpt lat="46.05556" lon="4.60483">
        <ele>353.163879395</ele>
        <time>2016-02-04T13:00:10.647Z</time>
      </trkpt>
      <trkpt lat="46.05555" lon="4.60483">
        <ele>353.260955811</ele>
        <time>2016-02-04T13:00:11.631Z</time>
      </trkpt>
      <trkpt lat="46.05547" lon="4.60476">
        <ele>354.313537598</ele>
        <time>2016-02-04T13:00:19.777Z</time>
      </trkpt>
      <trkpt lat="46.05546" lon="4.60475">
        <ele>354.394714355</ele>
        <time>2016-02-04T13:00:20.625Z</time>
      </trkpt>
      <trkpt lat="46.05539" lon="4.60469">
        <ele>355.400360107</ele>
        <time>2016-02-04T13:00:29.651Z</time>
      </trkpt>
      <trkpt lat="46.05538" lon="4.60468">
        <ele>355.539459229</ele>
        <time>2016-02-04T13:00:30.62Z</time>
      </trkpt>
      <trkpt lat="46.0553" lon="4.60462">
        <ele>356.204376221</ele>
        <time>2016-02-04T13:00:36.646Z</time>
      </trkpt>
      <trkpt lat="46.05529" lon="4.60461">
        <ele>356.274291992</ele>
        <time>2016-02-04T13:00:37.622Z</time>
      </trkpt>
      <trkpt lat="46.05521" lon="4.60455">
        <ele>356.712371826</ele>
        <time>2016-02-04T13:00:45.644Z</time>
      </trkpt>
      <trkpt lat="46.05521" lon="4.60454">
        <ele>356.736877441</ele>
        <time>2016-02-04T13:00:46.63Z</time>
      </trkpt>
      <trkpt lat="46.05514" lon="4.60446">
        <ele>357.141387939</ele>
        <time>2016-02-04T13:00:55.652Z</time>
      </trkpt>
      <trkpt lat="46.05514" lon="4.60445">
        <ele>357.211364746</ele>
        <time>2016-02-04T13:00:56.599Z</time>
      </trkpt>
      <trkpt lat="46.05507" lon="4.60437">
        <ele>357.661437988</ele>
        <time>2016-02-04T13:01:02.641Z</time>
      </trkpt>
      <trkpt lat="46.05506" lon="4.60435">
        <ele>357.737487793</ele>
        <time>2016-02-04T13:01:03.625Z</time>
      </trkpt>
      <trkpt lat="46.055" lon="4.60428">
        <ele>358.369506836</ele>
        <time>2016-02-04T13:01:10.76Z</time>
      </trkpt>
      <trkpt lat="46.05499" lon="4.60426">
        <ele>358.465087891</ele>
        <time>2016-02-04T13:01:11.621Z</time>
      </trkpt>
      <trkpt lat="46.05491" lon="4.60421">
        <ele>359.193725586</ele>
        <time>2016-02-04T13:01:47.736Z</time>
      </trkpt>
      <trkpt lat="46.0549" lon="4.60421">
        <ele>359.194244385</ele>
        <time>2016-02-04T13:01:48.629Z</time>
      </trkpt>
      <trkpt lat="46.05485" lon="4.60412">
        <ele>359.618255615</ele>
        <time>2016-02-04T13:02:13.627Z</time>
      </trkpt>
      <trkpt lat="46.05484" lon="4.6041">
        <ele>359.699523926</ele>
        <time>2016-02-04T13:02:14.585Z</time>
      </trkpt>
      <trkpt lat="46.05478" lon="4.60402">
        <ele>360.317687988</ele>
        <time>2016-02-04T13:02:21.63Z</time>
      </trkpt>
      <trkpt lat="46.05477" lon="4.60401">
        <ele>360.408782959</ele>
        <time>2016-02-04T13:02:22.605Z</time>
      </trkpt>
      <trkpt lat="46.0547" lon="4.60395">
        <ele>361.216156006</ele>
        <time>2016-02-04T13:02:31.626Z</time>
      </trkpt>
      <trkpt lat="46.05468" lon="4.60393">
        <ele>361.338500977</ele>
        <time>2016-02-04T13:02:32.606Z</time>
      </trkpt>
      <trkpt lat="46.05461" lon="4.60385">
        <ele>362.023590088</ele>
        <time>2016-02-04T13:02:39.668Z</time>
      </trkpt>
      <trkpt lat="46.05461" lon="4.60385">
        <ele>362.091156006</ele>
        <time>2016-02-04T13:02:40.609Z</time>
      </trkpt>
      <trkpt lat="46.05454" lon="4.60378">
        <ele>362.78704834</ele>
        <time>2016-02-04T13:02:47.633Z</time>
      </trkpt>
      <trkpt lat="46.05453" lon="4.60377">
        <ele>362.896209717</ele>
        <time>2016-02-04T13:02:48.624Z</time>
      </trkpt>
      <trkpt lat="46.05445" lon="4.60371">
        <ele>363.805297852</ele>
        <time>2016-02-04T13:02:56.631Z</time>
      </trkpt>
      <trkpt lat="46.05444" lon="4.6037">
        <ele>363.97064209</ele>
        <time>2016-02-04T13:02:57.6Z</time>
      </trkpt>
      <trkpt lat="46.05437" lon="4.60365">
        <ele>364.702087402</ele>
        <time>2016-02-04T13:03:05.631Z</time>
      </trkpt>
      <trkpt lat="46.05436" lon="4.60364">
        <ele>364.775726318</ele>
        <time>2016-02-04T13:03:06.633Z</time>
      </trkpt>
      <trkpt lat="46.05428" lon="4.60358">
        <ele>365.584686279</ele>
        <time>2016-02-04T13:03:14.634Z</time>
      </trkpt>
      <trkpt lat="46.05428" lon="4.60358">
        <ele>365.616851807</ele>
        <time>2016-02-04T13:03:15.612Z</time>
      </trkpt>
      <trkpt lat="46.0542" lon="4.60353">
        <ele>366.295501709</ele>
        <time>2016-02-04T13:03:22.629Z</time>
      </trkpt>
      <trkpt lat="46.05418" lon="4.60352">
        <ele>366.39956665</ele>
        <time>2016-02-04T13:03:23.609Z</time>
      </trkpt>
      <trkpt lat="46.0541" lon="4.60348">
        <ele>367.192443848</ele>
        <time>2016-02-04T13:03:31.639Z</time>
      </trkpt>
      <trkpt lat="46.05408" lon="4.60347">
        <ele>367.285217285</ele>
        <time>2016-02-04T13:03:32.61Z</time>
      </trkpt>
      <trkpt lat="46.05401" lon="4.60344">
        <ele>367.766571045</ele>
        <time>2016-02-04T13:03:39.599Z</time>
      </trkpt>
      <trkpt lat="46.05399" lon="4.60343">
        <ele>367.917510986</ele>
        <time>2016-02-04T13:03:40.619Z</time>
      </trkpt>
      <trkpt lat="46.05391" lon="4.60338">
        <ele>369.190765381</ele>
        <time>2016-02-04T13:03:48.63Z</time>
      </trkpt>
      <trkpt lat="46.05391" lon="4.60338">
        <ele>369.315612793</ele>
        <time>2016-02-04T13:03:49.619Z</time>
      </trkpt>
      <trkpt lat="46.05383" lon="4.60333">
        <ele>370.049743652</ele>
        <time>2016-02-04T13:03:57.727Z</time>
      </trkpt>
      <trkpt lat="46.05382" lon="4.60333">
        <ele>370.167602539</ele>
        <time>2016-02-04T13:03:58.605Z</time>
      </trkpt>
      <trkpt lat="46.05374" lon="4.60328">
        <ele>371.106506348</ele>
        <time>2016-02-04T13:04:06.638Z</time>
      </trkpt>
      <trkpt lat="46.05373" lon="4.60327">
        <ele>371.275024414</ele>
        <time>2016-02-04T13:04:07.616Z</time>
      </trkpt>
      <trkpt lat="46.05365" lon="4.60323">
        <ele>372.355621338</ele>
        <time>2016-02-04T13:04:15.649Z</time>
      </trkpt>
      <trkpt lat="46.05364" lon="4.60322">
        <ele>372.458251953</ele>
        <time>2016-02-04T13:04:16.614Z</time>
      </trkpt>
      <trkpt lat="46.05356" lon="4.60318">
        <ele>373.316375732</ele>
        <time>2016-02-04T13:04:23.751Z</time>
      </trkpt>
      <trkpt lat="46.05355" lon="4.60317">
        <ele>373.421295166</ele>
        <time>2016-02-04T13:04:24.616Z</time>
      </trkpt>
      <trkpt lat="46.05347" lon="4.60313">
        <ele>374.191558838</ele>
        <time>2016-02-04T13:04:32.644Z</time>
      </trkpt>
      <trkpt lat="46.05346" lon="4.60312">
        <ele>374.255401611</ele>
        <time>2016-02-04T13:04:33.629Z</time>
      </trkpt>
      <trkpt lat="46.05339" lon="4.60308">
        <ele>374.912658691</ele>
        <time>2016-02-04T13:04:40.643Z</time>
      </trkpt>
      <trkpt lat="46.05337" lon="4.60307">
        <ele>375.03137207</ele>
        <time>2016-02-04T13:04:41.616Z</time>
      </trkpt>
      <trkpt lat="46.0533" lon="4.60302">
        <ele>376.022521973</ele>
        <time>2016-02-04T13:04:49.751Z</time>
      </trkpt>
      <trkpt lat="46.05329" lon="4.60301">
        <ele>376.151397705</ele>
        <time>2016-02-04T13:04:50.627Z</time>
      </trkpt>
      <trkpt lat="46.05321" lon="4.60296">
        <ele>377.124359131</ele>
        <time>2016-02-04T13:04:57.641Z</time>
      </trkpt>
      <trkpt lat="46.0532" lon="4.60296">
        <ele>377.224090576</ele>
        <time>2016-02-04T13:04:58.613Z</time>
      </trkpt>
      <trkpt lat="46.05312" lon="4.60291">
        <ele>378.022186279</ele>
        <time>2016-02-04T13:05:06.642Z</time>
      </trkpt>
      <trkpt lat="46.0531" lon="4.6029">
        <ele>378.122161865</ele>
        <time>2016-02-04T13:05:07.611Z</time>
      </trkpt>
      <trkpt lat="46.05302" lon="4.60284">
        <ele>379.578155518</ele>
        <time>2016-02-04T13:05:17.649Z</time>
      </trkpt>
      <trkpt lat="46.05301" lon="4.60283">
        <ele>379.705627441</ele>
        <time>2016-02-04T13:05:18.618Z</time>
      </trkpt>
      <trkpt lat="46.05295" lon="4.60277">
        <ele>380.221282959</ele>
        <time>2016-02-04T13:05:22.652Z</time>
      </trkpt>
      <trkpt lat="46.05293" lon="4.60276">
        <ele>380.354187012</ele>
        <time>2016-02-04T13:05:23.618Z</time>
      </trkpt>
      <trkpt lat="46.05286" lon="4.6027">
        <ele>381.096069336</ele>
        <time>2016-02-04T13:05:31.643Z</time>
      </trkpt>
      <trkpt lat="46.05285" lon="4.60268">
        <ele>381.193084717</ele>
        <time>2016-02-04T13:05:32.619Z</time>
      </trkpt>
      <trkpt lat="46.05278" lon="4.60263">
        <ele>382.113861084</ele>
        <time>2016-02-04T13:05:41.643Z</time>
      </trkpt>
      <trkpt lat="46.05277" lon="4.60262">
        <ele>382.179412842</ele>
        <time>2016-02-04T13:05:42.62Z</time>
      </trkpt>
      <trkpt lat="46.0527" lon="4.60255">
        <ele>382.787506104</ele>
        <time>2016-02-04T13:05:49.711Z</time>
      </trkpt>
      <trkpt lat="46.05269" lon="4.60253">
        <ele>382.869659424</ele>
        <time>2016-02-04T13:05:50.62Z</time>
      </trkpt>
      <trkpt lat="46.05263" lon="4.60246">
        <ele>383.378204346</ele>
        <time>2016-02-04T13:05:55.649Z</time>
      </trkpt>
      <trkpt lat="46.05262" lon="4.60245">
        <ele>383.493255615</ele>
        <time>2016-02-04T13:05:56.629Z</time>
      </trkpt>
      <trkpt lat="46.05255" lon="4.6024">
        <ele>384.63684082</ele>
        <time>2016-02-04T13:06:07.662Z</time>
      </trkpt>
      <trkpt lat="46.05254" lon="4.60238">
        <ele>384.748291016</ele>
        <time>2016-02-04T13:06:08.621Z</time>
      </trkpt>
      <trkpt lat="46.05247" lon="4.6023">
        <ele>385.630310059</ele>
        <time>2016-02-04T13:06:14.678Z</time>
      </trkpt>
      <trkpt lat="46.05246" lon="4.60229">
        <ele>385.79473877</ele>
        <time>2016-02-04T13:06:15.622Z</time>
      </trkpt>
      <trkpt lat="46.05239" lon="4.60222">
        <ele>387.053131104</ele>
        <time>2016-02-04T13:06:25.648Z</time>
      </trkpt>
      <trkpt lat="46.05238" lon="4.60221">
        <ele>387.156768799</ele>
        <time>2016-02-04T13:06:26.611Z</time>
      </trkpt>
      <trkpt lat="46.05232" lon="4.60212">
        <ele>388.410247803</ele>
        <time>2016-02-04T13:06:38.653Z</time>
      </trkpt>
      <trkpt lat="46.05231" lon="4.60211">
        <ele>388.460479736</ele>
        <time>2016-02-04T13:06:39.624Z</time>
      </trkpt>
      <trkpt lat="46.05225" lon="4.60207">
        <ele>389.464324951</ele>
        <time>2016-02-04T13:06:46.648Z</time>
      </trkpt>
      <trkpt lat="46.05222" lon="4.60205">
        <ele>389.555267334</ele>
        <time>2016-02-04T13:06:47.626Z</time>
      </trkpt>
      <trkpt lat="46.05216" lon="4.60196">
        <ele>389.863952637</ele>
        <time>2016-02-04T13:06:51.66Z</time>
      </trkpt>
      <trkpt lat="46.05215" lon="4.60195">
        <ele>389.952758789</ele>
        <time>2016-02-04T13:06:52.637Z</time>
      </trkpt>
      <trkpt lat="46.05207" lon="4.60189">
        <ele>391.25213623</ele>
        <time>2016-02-04T13:07:00.646Z</time>
      </trkpt>
      <trkpt lat="46.05206" lon="4.60188">
        <ele>391.408233643</ele>
        <time>2016-02-04T13:07:01.627Z</time>
      </trkpt>
      <trkpt lat="46.05199" lon="4.60182">
        <ele>393.036651611</ele>
        <time>2016-02-04T13:07:12.636Z</time>
      </trkpt>
      <trkpt lat="46.05197" lon="4.60181">
        <ele>393.144989014</ele>
        <time>2016-02-04T13:07:13.602Z</time>
      </trkpt>
      <trkpt lat="46.05191" lon="4.60174">
        <ele>394.470184326</ele>
        <time>2016-02-04T13:07:24.635Z</time>
      </trkpt>
      <trkpt lat="46.05189" lon="4.60173">
        <ele>394.572265625</ele>
        <time>2016-02-04T13:07:25.605Z</time>
      </trkpt>
      <trkpt lat="46.05181" lon="4.60167">
        <ele>395.313201904</ele>
        <time>2016-02-04T13:07:34.656Z</time>
      </trkpt>
      <trkpt lat="46.0518" lon="4.60167">
        <ele>395.43737793</ele>
        <time>2016-02-04T13:07:35.607Z</time>
      </trkpt>
      <trkpt lat="46.05174" lon="4.60161">
        <ele>396.09161377</ele>
        <time>2016-02-04T13:07:43.693Z</time>
      </trkpt>
      <trkpt lat="46.05172" lon="4.6016">
        <ele>396.168762207</ele>
        <time>2016-02-04T13:07:44.599Z</time>
      </trkpt>
      <trkpt lat="46.05165" lon="4.60155">
        <ele>397.223449707</ele>
        <time>2016-02-04T13:07:54.628Z</time>
      </trkpt>
      <trkpt lat="46.05164" lon="4.60154">
        <ele>397.330505371</ele>
        <time>2016-02-04T13:07:55.605Z</time>
      </trkpt>
      <trkpt lat="46.05157" lon="4.60146">
        <ele>398.325592041</ele>
        <time>2016-02-04T13:08:05.596Z</time>
      </trkpt>
      <trkpt lat="46.05157" lon="4.60146">
        <ele>398.452819824</ele>
        <time>2016-02-04T13:08:06.598Z</time>
      </trkpt>
      <trkpt lat="46.0515" lon="4.60139">
        <ele>399.810119629</ele>
        <time>2016-02-04T13:08:13.626Z</time>
      </trkpt>
      <trkpt lat="46.05149" lon="4.60138">
        <ele>399.969085693</ele>
        <time>2016-02-04T13:08:14.607Z</time>
      </trkpt>
      <trkpt lat="46.05143" lon="4.6013">
        <ele>401.399383545</ele>
        <time>2016-02-04T13:08:22.641Z</time>
      </trkpt>
      <trkpt lat="46.05143" lon="4.60129">
        <ele>401.588653564</ele>
        <time>2016-02-04T13:08:23.604Z</time>
      </trkpt>
      <trkpt lat="46.05137" lon="4.6012">
        <ele>403.572998047</ele>
        <time>2016-02-04T13:08:36.635Z</time>
      </trkpt>
      <trkpt lat="46.05136" lon="4.60118">
        <ele>403.747680664</ele>
        <time>2016-02-04T13:08:37.609Z</time>
      </trkpt>
      <trkpt lat="46.0513" lon="4.60109">
        <ele>405.676208496</ele>
        <time>2016-02-04T13:08:47.633Z</time>
      </trkpt>
      <trkpt lat="46.0513" lon="4.60109">
        <ele>405.880218506</ele>
        <time>2016-02-04T13:08:48.61Z</time>
      </trkpt>
      <trkpt lat="46.05126" lon="4.60097">
        <ele>407.83493042</ele>
        <time>2016-02-04T13:09:00.638Z</time>
      </trkpt>
      <trkpt lat="46.05126" lon="4.60096">
        <ele>407.934814453</ele>
        <time>2016-02-04T13:09:01.61Z</time>
      </trkpt>
      <trkpt lat="46.05126" lon="4.60084">
        <ele>408.847961426</ele>
        <time>2016-02-04T13:09:11.637Z</time>
      </trkpt>
      <trkpt lat="46.05126" lon="4.60083">
        <ele>408.955200195</ele>
        <time>2016-02-04T13:09:12.612Z</time>
      </trkpt>
      <trkpt lat="46.05124" lon="4.60071">
        <ele>410.40625</ele>
        <time>2016-02-04T13:09:24.64Z</time>
      </trkpt>
      <trkpt lat="46.05124" lon="4.6007">
        <ele>410.563934326</ele>
        <time>2016-02-04T13:09:25.619Z</time>
      </trkpt>
      <trkpt lat="46.05121" lon="4.60058">
        <ele>412.162200928</ele>
        <time>2016-02-04T13:09:36.648Z</time>
      </trkpt>
      <trkpt lat="46.05121" lon="4.60056">
        <ele>412.335845947</ele>
        <time>2016-02-04T13:09:37.613Z</time>
      </trkpt>
      <trkpt lat="46.05118" lon="4.60045">
        <ele>413.697479248</ele>
        <time>2016-02-04T13:09:46.644Z</time>
      </trkpt>
      <trkpt lat="46.05117" lon="4.60044">
        <ele>413.817077637</ele>
        <time>2016-02-04T13:09:47.627Z</time>
      </trkpt>
      <trkpt lat="46.05114" lon="4.60032">
        <ele>415.210144043</ele>
        <time>2016-02-04T13:09:59.633Z</time>
      </trkpt>
      <trkpt lat="46.05114" lon="4.60031">
        <ele>415.32623291</ele>
        <time>2016-02-04T13:10:00.616Z</time>
      </trkpt>
      <trkpt lat="46.05112" lon="4.60019">
        <ele>416.680938721</ele>
        <time>2016-02-04T13:10:11.645Z</time>
      </trkpt>
      <trkpt lat="46.05112" lon="4.60018">
        <ele>416.7862854</ele>
        <time>2016-02-04T13:10:12.617Z</time>
      </trkpt>
      <trkpt lat="46.05109" lon="4.60006">
        <ele>418.432525635</ele>
        <time>2016-02-04T13:10:24.641Z</time>
      </trkpt>
      <trkpt lat="46.05109" lon="4.60005">
        <ele>418.518859863</ele>
        <time>2016-02-04T13:10:25.594Z</time>
      </trkpt>
      <trkpt lat="46.05107" lon="4.59994">
        <ele>419.774688721</ele>
        <time>2016-02-04T13:10:35.647Z</time>
      </trkpt>
      <trkpt lat="46.05107" lon="4.59992">
        <ele>419.916381836</ele>
        <time>2016-02-04T13:10:36.618Z</time>
      </trkpt>
      <trkpt lat="46.05104" lon="4.59981">
        <ele>421.293945312</ele>
        <time>2016-02-04T13:10:46.631Z</time>
      </trkpt>
      <trkpt lat="46.05104" lon="4.5998">
        <ele>421.45526123</ele>
        <time>2016-02-04T13:10:47.62Z</time>
      </trkpt>
      <trkpt lat="46.05102" lon="4.59968">
        <ele>423.215484619</ele>
        <time>2016-02-04T13:10:56.645Z</time>
      </trkpt>
      <trkpt lat="46.05102" lon="4.59967">
        <ele>423.368133545</ele>
        <time>2016-02-04T13:10:57.629Z</time>
      </trkpt>
      <trkpt lat="46.05099" lon="4.59955">
        <ele>425.06930542</ele>
        <time>2016-02-04T13:11:09.647Z</time>
      </trkpt>
      <trkpt lat="46.05099" lon="4.59954">
        <ele>425.228057861</ele>
        <time>2016-02-04T13:11:10.621Z</time>
      </trkpt>
      <trkpt lat="46.05097" lon="4.59943">
        <ele>426.755310059</ele>
        <time>2016-02-04T13:11:20.657Z</time>
      </trkpt>
      <trkpt lat="46.05097" lon="4.59941">
        <ele>426.90838623</ele>
        <time>2016-02-04T13:11:21.619Z</time>
      </trkpt>
      <trkpt lat="46.05092" lon="4.59931">
        <ele>428.101287842</ele>
        <time>2016-02-04T13:11:29.807Z</time>
      </trkpt>
      <trkpt lat="46.05092" lon="4.5993">
        <ele>428.270324707</ele>
        <time>2016-02-04T13:11:30.622Z</time>
      </trkpt>
      <trkpt lat="46.0509" lon="4.59919">
        <ele>430.09967041</ele>
        <time>2016-02-04T13:11:41.645Z</time>
      </trkpt>
      <trkpt lat="46.0509" lon="4.59917">
        <ele>430.227111816</ele>
        <time>2016-02-04T13:11:42.624Z</time>
      </trkpt>
      <trkpt lat="46.05088" lon="4.59905">
        <ele>431.275177002</ele>
        <time>2016-02-04T13:11:50.644Z</time>
      </trkpt>
      <trkpt lat="46.05087" lon="4.59904">
        <ele>431.400970459</ele>
        <time>2016-02-04T13:11:51.625Z</time>
      </trkpt>
      <trkpt lat="46.05085" lon="4.59892">
        <ele>432.843414307</ele>
        <time>2016-02-04T13:12:02.645Z</time>
      </trkpt>
      <trkpt lat="46.05085" lon="4.59891">
        <ele>432.97454834</ele>
        <time>2016-02-04T13:12:03.605Z</time>
      </trkpt>
      <trkpt lat="46.05082" lon="4.59879">
        <ele>434.415252686</ele>
        <time>2016-02-04T13:12:11.644Z</time>
      </trkpt>
      <trkpt lat="46.05081" lon="4.59878">
        <ele>434.604309082</ele>
        <time>2016-02-04T13:12:12.623Z</time>
      </trkpt>
      <trkpt lat="46.05074" lon="4.5987">
        <ele>436.292022705</ele>
        <time>2016-02-04T13:12:24.619Z</time>
      </trkpt>
      <trkpt lat="46.05073" lon="4.59869">
        <ele>436.462554932</ele>
        <time>2016-02-04T13:12:25.592Z</time>
      </trkpt>
      <trkpt lat="46.05067" lon="4.59862">
        <ele>437.314971924</ele>
        <time>2016-02-04T13:12:30.635Z</time>
      </trkpt>
      <trkpt lat="46.05066" lon="4.5986">
        <ele>437.467803955</ele>
        <time>2016-02-04T13:12:31.601Z</time>
      </trkpt>
      <trkpt lat="46.05058" lon="4.59855">
        <ele>438.328887939</ele>
        <time>2016-02-04T13:12:39.642Z</time>
      </trkpt>
      <trkpt lat="46.05057" lon="4.59854">
        <ele>438.344055176</ele>
        <time>2016-02-04T13:12:40.602Z</time>
      </trkpt>
      <trkpt lat="46.0505" lon="4.5985">
        <ele>438.862426758</ele>
        <time>2016-02-04T13:12:46.624Z</time>
      </trkpt>
      <trkpt lat="46.05048" lon="4.59848">
        <ele>438.988739014</ele>
        <time>2016-02-04T13:12:47.591Z</time>
      </trkpt>
      <trkpt lat="46.0504" lon="4.59842">
        <ele>439.504608154</ele>
        <time>2016-02-04T13:12:54.635Z</time>
      </trkpt>
      <trkpt lat="46.0504" lon="4.59841">
        <ele>439.557250977</ele>
        <time>2016-02-04T13:12:55.593Z</time>
      </trkpt>
      <trkpt lat="46.05032" lon="4.59836">
        <ele>439.920227051</ele>
        <time>2016-02-04T13:13:02.633Z</time>
      </trkpt>
      <trkpt lat="46.05031" lon="4.59835">
        <ele>439.98324585</ele>
        <time>2016-02-04T13:13:03.61Z</time>
      </trkpt>
      <trkpt lat="46.05024" lon="4.59829">
        <ele>440.3387146</ele>
        <time>2016-02-04T13:13:09.631Z</time>
      </trkpt>
      <trkpt lat="46.05023" lon="4.59828">
        <ele>440.354034424</ele>
        <time>2016-02-04T13:13:10.605Z</time>
      </trkpt>
      <trkpt lat="46.05016" lon="4.59822">
        <ele>440.581390381</ele>
        <time>2016-02-04T13:13:18.634Z</time>
      </trkpt>
      <trkpt lat="46.05014" lon="4.5982">
        <ele>440.581420898</ele>
        <time>2016-02-04T13:13:19.606Z</time>
      </trkpt>
      <trkpt lat="46.05008" lon="4.59811">
        <ele>440.414855957</ele>
        <time>2016-02-04T13:13:26.64Z</time>
      </trkpt>
      <trkpt lat="46.05007" lon="4.5981">
        <ele>440.372528076</ele>
        <time>2016-02-04T13:13:27.624Z</time>
      </trkpt>
      <trkpt lat="46.05002" lon="4.59803">
        <ele>440.291107178</ele>
        <time>2016-02-04T13:13:31.637Z</time>
      </trkpt>
      <trkpt lat="46.05" lon="4.59801">
        <ele>440.271759033</ele>
        <time>2016-02-04T13:13:32.606Z</time>
      </trkpt>
      <trkpt lat="46.04993" lon="4.59795">
        <ele>440.104309082</ele>
        <time>2016-02-04T13:13:41.622Z</time>
      </trkpt>
      <trkpt lat="46.04992" lon="4.59794">
        <ele>440.096313477</ele>
        <time>2016-02-04T13:13:42.608Z</time>
      </trkpt>
      <trkpt lat="46.04986" lon="4.59786">
        <ele>440.10635376</ele>
        <time>2016-02-04T13:13:47.636Z</time>
      </trkpt>
      <trkpt lat="46.04986" lon="4.59785">
        <ele>440.157745361</ele>
        <time>2016-02-04T13:13:48.609Z</time>
      </trkpt>
      <trkpt lat="46.04979" lon="4.59777">
        <ele>440.479278564</ele>
        <time>2016-02-04T13:13:56.637Z</time>
      </trkpt>
      <trkpt lat="46.04979" lon="4.59776">
        <ele>440.504943848</ele>
        <time>2016-02-04T13:13:57.589Z</time>
      </trkpt>
      <trkpt lat="46.04973" lon="4.59768">
        <ele>440.674682617</ele>
        <time>2016-02-04T13:14:02.751Z</time>
      </trkpt>
      <trkpt lat="46.04972" lon="4.59767">
        <ele>440.711364746</ele>
        <time>2016-02-04T13:14:03.609Z</time>
      </trkpt>
      <trkpt lat="46.04965" lon="4.59759">
        <ele>440.976287842</ele>
        <time>2016-02-04T13:14:11.63Z</time>
      </trkpt>
      <trkpt lat="46.04964" lon="4.59758">
        <ele>441.020935059</ele>
        <time>2016-02-04T13:14:12.609Z</time>
      </trkpt>
      <trkpt lat="46.04958" lon="4.5975">
        <ele>441.172790527</ele>
        <time>2016-02-04T13:14:19.633Z</time>
      </trkpt>
      <trkpt lat="46.04957" lon="4.59749">
        <ele>441.218688965</ele>
        <time>2016-02-04T13:14:20.611Z</time>
      </trkpt>
      <trkpt lat="46.0495" lon="4.59741">
        <ele>441.197509766</ele>
        <time>2016-02-04T13:14:27.637Z</time>
      </trkpt>
      <trkpt lat="46.04949" lon="4.59739">
        <ele>441.194610596</ele>
        <time>2016-02-04T13:14:28.609Z</time>
      </trkpt>
      <trkpt lat="46.04943" lon="4.59731">
        <ele>441.232910156</ele>
        <time>2016-02-04T13:14:35.635Z</time>
      </trkpt>
      <trkpt lat="46.04942" lon="4.5973">
        <ele>441.248565674</ele>
        <time>2016-02-04T13:14:36.617Z</time>
      </trkpt>
      <trkpt lat="46.04936" lon="4.59721">
        <ele>441.397521973</ele>
        <time>2016-02-04T13:14:44.641Z</time>
      </trkpt>
      <trkpt lat="46.04935" lon="4.5972">
        <ele>441.421875</ele>
        <time>2016-02-04T13:14:45.614Z</time>
      </trkpt>
      <trkpt lat="46.04927" lon="4.59718">
        <ele>441.577880859</ele>
        <time>2016-02-04T13:14:53.636Z</time>
      </trkpt>
      <trkpt lat="46.04926" lon="4.59719">
        <ele>441.611572266</ele>
        <time>2016-02-04T13:14:54.614Z</time>
      </trkpt>
      <trkpt lat="46.04919" lon="4.59727">
        <ele>441.545898438</ele>
        <time>2016-02-04T13:15:03.638Z</time>
      </trkpt>
      <trkpt lat="46.04919" lon="4.59728">
        <ele>441.587799072</ele>
        <time>2016-02-04T13:15:04.601Z</time>
      </trkpt>
      <trkpt lat="46.04912" lon="4.59735">
        <ele>441.970428467</ele>
        <time>2016-02-04T13:15:13.638Z</time>
      </trkpt>
      <trkpt lat="46.04911" lon="4.59736">
        <ele>442.010650635</ele>
        <time>2016-02-04T13:15:14.613Z</time>
      </trkpt>
      <trkpt lat="46.04904" lon="4.59744">
        <ele>442.573760986</ele>
        <time>2016-02-04T13:15:23.638Z</time>
      </trkpt>
      <trkpt lat="46.04904" lon="4.59745">
        <ele>442.676208496</ele>
        <time>2016-02-04T13:15:24.627Z</time>
      </trkpt>
      <trkpt lat="46.04896" lon="4.59751">
        <ele>443.477752686</ele>
        <time>2016-02-04T13:15:34.759Z</time>
      </trkpt>
      <trkpt lat="46.04895" lon="4.59751">
        <ele>443.539611816</ele>
        <time>2016-02-04T13:15:35.653Z</time>
      </trkpt>
      <trkpt lat="46.04888" lon="4.59743">
        <ele>444.880737305</ele>
        <time>2016-02-04T13:15:45.632Z</time>
      </trkpt>
      <trkpt lat="46.04888" lon="4.59742">
        <ele>445.055419922</ele>
        <time>2016-02-04T13:15:46.617Z</time>
      </trkpt>
      <trkpt lat="46.04884" lon="4.59733">
        <ele>446.730926514</ele>
        <time>2016-02-04T13:15:57.631Z</time>
      </trkpt>
      <trkpt lat="46.04883" lon="4.59731">
        <ele>446.889404297</ele>
        <time>2016-02-04T13:15:58.606Z</time>
      </trkpt>
      <trkpt lat="46.04878" lon="4.5972">
        <ele>448.555267334</ele>
        <time>2016-02-04T13:16:10.651Z</time>
      </trkpt>
      <trkpt lat="46.04878" lon="4.5972">
        <ele>448.658111572</ele>
        <time>2016-02-04T13:16:11.619Z</time>
      </trkpt>
      <trkpt lat="46.04873" lon="4.5971">
        <ele>449.793182373</ele>
        <time>2016-02-04T13:16:19.65Z</time>
      </trkpt>
      <trkpt lat="46.04872" lon="4.59708">
        <ele>449.932495117</ele>
        <time>2016-02-04T13:16:20.618Z</time>
      </trkpt>
      <trkpt lat="46.04865" lon="4.597">
        <ele>451.111450195</ele>
        <time>2016-02-04T13:16:29.64Z</time>
      </trkpt>
      <trkpt lat="46.04864" lon="4.59699">
        <ele>451.245788574</ele>
        <time>2016-02-04T13:16:30.644Z</time>
      </trkpt>
      <trkpt lat="46.04858" lon="4.5969">
        <ele>454.896514893</ele>
        <time>2016-02-04T13:16:50.647Z</time>
      </trkpt>
      <trkpt lat="46.04857" lon="4.5969">
        <ele>455.186126709</ele>
        <time>2016-02-04T13:16:51.623Z</time>
      </trkpt>
      <trkpt lat="46.0485" lon="4.59684">
        <ele>457.239379883</ele>
        <time>2016-02-04T13:17:02.609Z</time>
      </trkpt>
      <trkpt lat="46.04849" lon="4.59683">
        <ele>457.481506348</ele>
        <time>2016-02-04T13:17:03.624Z</time>
      </trkpt>
      <trkpt lat="46.04841" lon="4.59682">
        <ele>459.778778076</ele>
        <time>2016-02-04T13:17:15.644Z</time>
      </trkpt>
      <trkpt lat="46.04839" lon="4.59682">
        <ele>459.961395264</ele>
        <time>2016-02-04T13:17:16.63Z</time>
      </trkpt>
      <trkpt lat="46.04831" lon="4.5968">
        <ele>462.343719482</ele>
        <time>2016-02-04T13:17:29.648Z</time>
      </trkpt>
      <trkpt lat="46.04829" lon="4.59679">
        <ele>462.471008301</ele>
        <time>2016-02-04T13:17:30.624Z</time>
      </trkpt>
      <trkpt lat="46.04821" lon="4.59678">
        <ele>464.37399292</ele>
        <time>2016-02-04T13:17:43.636Z</time>
      </trkpt>
      <trkpt lat="46.04819" lon="4.59679">
        <ele>464.488250732</ele>
        <time>2016-02-04T13:17:44.592Z</time>
      </trkpt>
      <trkpt lat="46.0481" lon="4.59676">
        <ele>465.098754883</ele>
        <time>2016-02-04T13:17:48.627Z</time>
      </trkpt>
      <trkpt lat="46.04808" lon="4.59676">
        <ele>465.257995605</ele>
        <time>2016-02-04T13:17:49.663Z</time>
      </trkpt>
      <trkpt lat="46.048" lon="4.59674">
        <ele>466.808288574</ele>
        <time>2016-02-04T13:17:57.633Z</time>
      </trkpt>
      <trkpt lat="46.04799" lon="4.59674">
        <ele>467.078704834</ele>
        <time>2016-02-04T13:17:58.594Z</time>
      </trkpt>
      <trkpt lat="46.04791" lon="4.59674">
        <ele>468.60168457</ele>
        <time>2016-02-04T13:18:08.639Z</time>
      </trkpt>
      <trkpt lat="46.04786" lon="4.59674">
        <ele>468.747070312</ele>
        <time>2016-02-04T13:18:09.616Z</time>
      </trkpt>
      <trkpt lat="46.04778" lon="4.59671">
        <ele>469.19934082</ele>
        <time>2016-02-04T13:18:12.635Z</time>
      </trkpt>
      <trkpt lat="46.04775" lon="4.5967">
        <ele>469.309661865</ele>
        <time>2016-02-04T13:18:13.607Z</time>
      </trkpt>
      <trkpt lat="46.04767" lon="4.59664">
        <ele>470.115356445</ele>
        <time>2016-02-04T13:18:21.627Z</time>
      </trkpt>
      <trkpt lat="46.04767" lon="4.59664">
        <ele>470.166351318</ele>
        <time>2016-02-04T13:18:22.607Z</time>
      </trkpt>
      <trkpt lat="46.04759" lon="4.59658">
        <ele>471.935150146</ele>
        <time>2016-02-04T13:18:34.597Z</time>
      </trkpt>
      <trkpt lat="46.04759" lon="4.59658">
        <ele>472.047363281</ele>
        <time>2016-02-04T13:18:35.599Z</time>
      </trkpt>
      <trkpt lat="46.04753" lon="4.59651">
        <ele>474.015899658</ele>
        <time>2016-02-04T13:18:49.637Z</time>
      </trkpt>
      <trkpt lat="46.04752" lon="4.59649">
        <ele>474.225219727</ele>
        <time>2016-02-04T13:18:50.606Z</time>
      </trkpt>
      <trkpt lat="46.04746" lon="4.59641">
        <ele>475.66003418</ele>
        <time>2016-02-04T13:19:03.629Z</time>
      </trkpt>
      <trkpt lat="46.04745" lon="4.59641">
        <ele>475.738677979</ele>
        <time>2016-02-04T13:19:04.607Z</time>
      </trkpt>
      <trkpt lat="46.04738" lon="4.59633">
        <ele>477.113983154</ele>
        <time>2016-02-04T13:19:13.635Z</time>
      </trkpt>
      <trkpt lat="46.04737" lon="4.59632">
        <ele>477.3253479</ele>
        <time>2016-02-04T13:19:14.585Z</time>
      </trkpt>
      <trkpt lat="46.04731" lon="4.59623">
        <ele>479.266082764</ele>
        <time>2016-02-04T13:19:21.633Z</time>
      </trkpt>
      <trkpt lat="46.0473" lon="4.59621">
        <ele>479.519042969</ele>
        <time>2016-02-04T13:19:22.607Z</time>
      </trkpt>
      <trkpt lat="46.04733" lon="4.59609">
        <ele>483.374023438</ele>
        <time>2016-02-04T13:19:46.63Z</time>
      </trkpt>
      <trkpt lat="46.04734" lon="4.59608">
        <ele>483.519073486</ele>
        <time>2016-02-04T13:19:47.602Z</time>
      </trkpt>
      <trkpt lat="46.04741" lon="4.59604">
        <ele>485.587005615</ele>
        <time>2016-02-04T13:19:58.627Z</time>
      </trkpt>
      <trkpt lat="46.04742" lon="4.59603">
        <ele>485.719848633</ele>
        <time>2016-02-04T13:19:59.613Z</time>
      </trkpt>
      <trkpt lat="46.04749" lon="4.59598">
        <ele>487.352844238</ele>
        <time>2016-02-04T13:20:08.635Z</time>
      </trkpt>
      <trkpt lat="46.0475" lon="4.59598">
        <ele>487.538909912</ele>
        <time>2016-02-04T13:20:09.615Z</time>
      </trkpt>
      <trkpt lat="46.04758" lon="4.59593">
        <ele>488.433044434</ele>
        <time>2016-02-04T13:20:18.639Z</time>
      </trkpt>
      <trkpt lat="46.04759" lon="4.59592">
        <ele>488.651794434</ele>
        <time>2016-02-04T13:20:19.596Z</time>
      </trkpt>
      <trkpt lat="46.04756" lon="4.59581">
        <ele>490.514892578</ele>
        <time>2016-02-04T13:20:35.639Z</time>
      </trkpt>
      <trkpt lat="46.04755" lon="4.5958">
        <ele>490.666320801</ele>
        <time>2016-02-04T13:20:36.614Z</time>
      </trkpt>
      <trkpt lat="46.04749" lon="4.59571">
        <ele>492.415740967</ele>
        <time>2016-02-04T13:20:45.638Z</time>
      </trkpt>
      <trkpt lat="46.04749" lon="4.59569">
        <ele>492.671264648</ele>
        <time>2016-02-04T13:20:46.618Z</time>
      </trkpt>
      <trkpt lat="46.04744" lon="4.5956">
        <ele>494.0625</ele>
        <time>2016-02-04T13:20:55.64Z</time>
      </trkpt>
      <trkpt lat="46.04744" lon="4.59558">
        <ele>494.170898438</ele>
        <time>2016-02-04T13:20:56.616Z</time>
      </trkpt>
      <trkpt lat="46.04738" lon="4.59549">
        <ele>495.534393311</ele>
        <time>2016-02-04T13:21:06.636Z</time>
      </trkpt>
      <trkpt lat="46.04737" lon="4.59547">
        <ele>495.619171143</ele>
        <time>2016-02-04T13:21:07.641Z</time>
      </trkpt>
      <trkpt lat="46.04732" lon="4.59538">
        <ele>496.597473145</ele>
        <time>2016-02-04T13:21:13.646Z</time>
      </trkpt>
      <trkpt lat="46.04731" lon="4.59537">
        <ele>496.722991943</ele>
        <time>2016-02-04T13:21:14.623Z</time>
      </trkpt>
      <trkpt lat="46.04725" lon="4.59528">
        <ele>497.662139893</ele>
        <time>2016-02-04T13:21:25.646Z</time>
      </trkpt>
      <trkpt lat="46.04725" lon="4.59527">
        <ele>497.672515869</ele>
        <time>2016-02-04T13:21:26.622Z</time>
      </trkpt>
      <trkpt lat="46.04717" lon="4.59521">
        <ele>498.384246826</ele>
        <time>2016-02-04T13:21:34.638Z</time>
      </trkpt>
      <trkpt lat="46.04716" lon="4.5952">
        <ele>498.499786377</ele>
        <time>2016-02-04T13:21:35.63Z</time>
      </trkpt>
      <trkpt lat="46.04709" lon="4.59513">
        <ele>499.833831787</ele>
        <time>2016-02-04T13:21:43.613Z</time>
      </trkpt>
      <trkpt lat="46.04709" lon="4.59512">
        <ele>499.961517334</ele>
        <time>2016-02-04T13:21:44.62Z</time>
      </trkpt>
      <trkpt lat="46.04701" lon="4.59505">
        <ele>501.503234863</ele>
        <time>2016-02-04T13:21:55.641Z</time>
      </trkpt>
      <trkpt lat="46.04701" lon="4.59505">
        <ele>501.647064209</ele>
        <time>2016-02-04T13:21:56.623Z</time>
      </trkpt>
      <trkpt lat="46.04693" lon="4.59499">
        <ele>503.218414307</ele>
        <time>2016-02-04T13:22:07.648Z</time>
      </trkpt>
      <trkpt lat="46.04692" lon="4.59498">
        <ele>503.383972168</ele>
        <time>2016-02-04T13:22:08.622Z</time>
      </trkpt>
      <trkpt lat="46.04686" lon="4.59491">
        <ele>504.352813721</ele>
        <time>2016-02-04T13:22:16.645Z</time>
      </trkpt>
      <trkpt lat="46.04685" lon="4.59489">
        <ele>504.51361084</ele>
        <time>2016-02-04T13:22:17.623Z</time>
      </trkpt>
      <trkpt lat="46.04678" lon="4.59483">
        <ele>506.342407227</ele>
        <time>2016-02-04T13:22:26.644Z</time>
      </trkpt>
      <trkpt lat="46.04677" lon="4.59482">
        <ele>506.538421631</ele>
        <time>2016-02-04T13:22:27.622Z</time>
      </trkpt>
      <trkpt lat="46.04669" lon="4.59476">
        <ele>508.569488525</ele>
        <time>2016-02-04T13:22:40.69Z</time>
      </trkpt>
      <trkpt lat="46.04668" lon="4.59476">
        <ele>508.768188477</ele>
        <time>2016-02-04T13:22:41.626Z</time>
      </trkpt>
      <trkpt lat="46.04661" lon="4.59469">
        <ele>510.737701416</ele>
        <time>2016-02-04T13:22:51.648Z</time>
      </trkpt>
      <trkpt lat="46.04661" lon="4.59469">
        <ele>510.863189697</ele>
        <time>2016-02-04T13:22:52.624Z</time>
      </trkpt>
      <trkpt lat="46.04654" lon="4.59462">
        <ele>512.443664551</ele>
        <time>2016-02-04T13:23:01.628Z</time>
      </trkpt>
      <trkpt lat="46.04653" lon="4.59462">
        <ele>512.554992676</ele>
        <time>2016-02-04T13:23:02.593Z</time>
      </trkpt>
      <trkpt lat="46.04647" lon="4.59455">
        <ele>513.924621582</ele>
        <time>2016-02-04T13:23:09.626Z</time>
      </trkpt>
      <trkpt lat="46.04646" lon="4.59454">
        <ele>514.187133789</ele>
        <time>2016-02-04T13:23:10.596Z</time>
      </trkpt>
      <trkpt lat="46.0464" lon="4.59445">
        <ele>515.254943848</ele>
        <time>2016-02-04T13:23:17.627Z</time>
      </trkpt>
      <trkpt lat="46.04639" lon="4.59444">
        <ele>515.29888916</ele>
        <time>2016-02-04T13:23:18.592Z</time>
      </trkpt>
      <trkpt lat="46.04633" lon="4.59437">
        <ele>516.067565918</ele>
        <time>2016-02-04T13:23:27.637Z</time>
      </trkpt>
      <trkpt lat="46.04632" lon="4.59437">
        <ele>516.171020508</ele>
        <time>2016-02-04T13:23:28.591Z</time>
      </trkpt>
      <trkpt lat="46.04624" lon="4.59431">
        <ele>517.077392578</ele>
        <time>2016-02-04T13:23:38.614Z</time>
      </trkpt>
      <trkpt lat="46.04623" lon="4.59431">
        <ele>517.193054199</ele>
        <time>2016-02-04T13:23:39.596Z</time>
      </trkpt>
      <trkpt lat="46.04615" lon="4.59426">
        <ele>518.659790039</ele>
        <time>2016-02-04T13:23:49.613Z</time>
      </trkpt>
      <trkpt lat="46.04614" lon="4.59426">
        <ele>518.76159668</ele>
        <time>2016-02-04T13:23:50.594Z</time>
      </trkpt>
      <trkpt lat="46.04606" lon="4.59421">
        <ele>519.764099121</ele>
        <time>2016-02-04T13:23:58.613Z</time>
      </trkpt>
      <trkpt lat="46.04605" lon="4.5942">
        <ele>519.857421875</ele>
        <time>2016-02-04T13:23:59.593Z</time>
      </trkpt>
      <trkpt lat="46.04596" lon="4.59417">
        <ele>520.626708984</ele>
        <time>2016-02-04T13:24:07.636Z</time>
      </trkpt>
      <trkpt lat="46.04595" lon="4.59416">
        <ele>520.68560791</ele>
        <time>2016-02-04T13:24:08.599Z</time>
      </trkpt>
      <trkpt lat="46.04587" lon="4.59414">
        <ele>521.668762207</ele>
        <time>2016-02-04T13:24:18.648Z</time>
      </trkpt>
      <trkpt lat="46.04586" lon="4.59414">
        <ele>521.699279785</ele>
        <time>2016-02-04T13:24:19.604Z</time>
      </trkpt>
      <trkpt lat="46.04578" lon="4.59412">
        <ele>522.233215332</ele>
        <time>2016-02-04T13:25:00.64Z</time>
      </trkpt>
      <trkpt lat="46.04577" lon="4.59411">
        <ele>522.31463623</ele>
        <time>2016-02-04T13:25:01.6Z</time>
      </trkpt>
      <trkpt lat="46.04569" lon="4.59406">
        <ele>524.766357422</ele>
        <time>2016-02-04T13:25:41.635Z</time>
      </trkpt>
      <trkpt lat="46.04568" lon="4.59405">
        <ele>524.842956543</ele>
        <time>2016-02-04T13:25:42.609Z</time>
      </trkpt>
      <trkpt lat="46.04561" lon="4.59402">
        <ele>525.120788574</ele>
        <time>2016-02-04T13:25:46.637Z</time>
      </trkpt>
      <trkpt lat="46.04559" lon="4.59402">
        <ele>525.162353516</ele>
        <time>2016-02-04T13:25:47.613Z</time>
      </trkpt>
      <trkpt lat="46.04551" lon="4.59399">
        <ele>525.278747559</ele>
        <time>2016-02-04T13:25:54.636Z</time>
      </trkpt>
      <trkpt lat="46.0455" lon="4.59399">
        <ele>525.283569336</ele>
        <time>2016-02-04T13:25:55.613Z</time>
      </trkpt>
      <trkpt lat="46.04541" lon="4.59395">
        <ele>525.195617676</ele>
        <time>2016-02-04T13:26:04.637Z</time>
      </trkpt>
      <trkpt lat="46.04541" lon="4.59395">
        <ele>525.178344727</ele>
        <time>2016-02-04T13:26:05.614Z</time>
      </trkpt>
      <trkpt lat="46.04532" lon="4.59391">
        <ele>525.295959473</ele>
        <time>2016-02-04T13:26:13.65Z</time>
      </trkpt>
      <trkpt lat="46.04531" lon="4.5939">
        <ele>525.348876953</ele>
        <time>2016-02-04T13:26:14.591Z</time>
      </trkpt>
      <trkpt lat="46.04523" lon="4.59386">
        <ele>525.568115234</ele>
        <time>2016-02-04T13:26:20.655Z</time>
      </trkpt>
      <trkpt lat="46.04522" lon="4.59385">
        <ele>525.598022461</ele>
        <time>2016-02-04T13:26:21.664Z</time>
      </trkpt>
      <trkpt lat="46.04514" lon="4.59381">
        <ele>525.655029297</ele>
        <time>2016-02-04T13:26:30.644Z</time>
      </trkpt>
      <trkpt lat="46.04513" lon="4.5938">
        <ele>525.608825684</ele>
        <time>2016-02-04T13:26:31.614Z</time>
      </trkpt>
      <trkpt lat="46.04505" lon="4.59376">
        <ele>525.473815918</ele>
        <time>2016-02-04T13:26:38.646Z</time>
      </trkpt>
      <trkpt lat="46.04504" lon="4.59376">
        <ele>525.494262695</ele>
        <time>2016-02-04T13:26:39.616Z</time>
      </trkpt>
      <trkpt lat="46.04496" lon="4.59373">
        <ele>525.22668457</ele>
        <time>2016-02-04T13:26:47.716Z</time>
      </trkpt>
      <trkpt lat="46.04495" lon="4.59373">
        <ele>525.206970215</ele>
        <time>2016-02-04T13:26:48.617Z</time>
      </trkpt>
      <trkpt lat="46.04487" lon="4.59371">
        <ele>525.319335938</ele>
        <time>2016-02-04T13:26:54.652Z</time>
      </trkpt>
      <trkpt lat="46.04486" lon="4.59371">
        <ele>525.280761719</ele>
        <time>2016-02-04T13:26:55.618Z</time>
      </trkpt>
      <trkpt lat="46.04479" lon="4.59371">
        <ele>525.241394043</ele>
        <time>2016-02-04T13:27:02.644Z</time>
      </trkpt>
      <trkpt lat="46.04477" lon="4.5937">
        <ele>525.24041748</ele>
        <time>2016-02-04T13:27:03.621Z</time>
      </trkpt>
      <trkpt lat="46.04468" lon="4.59367">
        <ele>525.606079102</ele>
        <time>2016-02-04T13:27:10.641Z</time>
      </trkpt>
      <trkpt lat="46.04466" lon="4.59367">
        <ele>525.674133301</ele>
        <time>2016-02-04T13:27:11.62Z</time>
      </trkpt>
      <trkpt lat="46.04458" lon="4.59362">
        <ele>526.138305664</ele>
        <time>2016-02-04T13:27:16.646Z</time>
      </trkpt>
      <trkpt lat="46.04457" lon="4.59361">
        <ele>526.18145752</ele>
        <time>2016-02-04T13:27:17.627Z</time>
      </trkpt>
      <trkpt lat="46.04449" lon="4.59357">
        <ele>526.218444824</ele>
        <time>2016-02-04T13:27:25.639Z</time>
      </trkpt>
      <trkpt lat="46.04448" lon="4.59356">
        <ele>526.208374023</ele>
        <time>2016-02-04T13:27:26.619Z</time>
      </trkpt>
      <trkpt lat="46.04441" lon="4.59354">
        <ele>526.140869141</ele>
        <time>2016-02-04T13:27:33.642Z</time>
      </trkpt>
      <trkpt lat="46.04439" lon="4.59352">
        <ele>526.125549316</ele>
        <time>2016-02-04T13:27:34.626Z</time>
      </trkpt>
      <trkpt lat="46.04432" lon="4.59347">
        <ele>525.607971191</ele>
        <time>2016-02-04T13:27:42.643Z</time>
      </trkpt>
      <trkpt lat="46.0443" lon="4.59347">
        <ele>525.510314941</ele>
        <time>2016-02-04T13:27:43.627Z</time>
      </trkpt>
      <trkpt lat="46.04423" lon="4.59343">
        <ele>525.124084473</ele>
        <time>2016-02-04T13:27:49.65Z</time>
      </trkpt>
      <trkpt lat="46.04422" lon="4.59343">
        <ele>525.07208252</ele>
        <time>2016-02-04T13:27:50.623Z</time>
      </trkpt>
      <trkpt lat="46.04415" lon="4.59338">
        <ele>524.936523438</ele>
        <time>2016-02-04T13:27:57.665Z</time>
      </trkpt>
      <trkpt lat="46.04414" lon="4.59337">
        <ele>524.898742676</ele>
        <time>2016-02-04T13:27:58.628Z</time>
      </trkpt>
      <trkpt lat="46.04405" lon="4.59334">
        <ele>524.563537598</ele>
        <time>2016-02-04T13:28:04.657Z</time>
      </trkpt>
      <trkpt lat="46.04404" lon="4.59334">
        <ele>524.511230469</ele>
        <time>2016-02-04T13:28:05.671Z</time>
      </trkpt>
      <trkpt lat="46.04395" lon="4.59331">
        <ele>524.354309082</ele>
        <time>2016-02-04T13:28:10.628Z</time>
      </trkpt>
      <trkpt lat="46.04394" lon="4.59331">
        <ele>524.34753418</ele>
        <time>2016-02-04T13:28:11.6Z</time>
      </trkpt>
      <trkpt lat="46.04386" lon="4.59325">
        <ele>525.490600586</ele>
        <time>2016-02-04T13:28:22.629Z</time>
      </trkpt>
      <trkpt lat="46.04385" lon="4.59324">
        <ele>525.627563477</ele>
        <time>2016-02-04T13:28:23.596Z</time>
      </trkpt>
      <trkpt lat="46.04377" lon="4.59319">
        <ele>525.69342041</ele>
        <time>2016-02-04T13:28:28.615Z</time>
      </trkpt>
      <trkpt lat="46.04373" lon="4.59318">
        <ele>525.711303711</ele>
        <time>2016-02-04T13:28:29.591Z</time>
      </trkpt>
      <trkpt lat="46.04365" lon="4.59315">
        <ele>525.843994141</ele>
        <time>2016-02-04T13:28:37.642Z</time>
      </trkpt>
      <trkpt lat="46.04364" lon="4.59314">
        <ele>525.916931152</ele>
        <time>2016-02-04T13:28:38.604Z</time>
      </trkpt>
      <trkpt lat="46.04356" lon="4.59309">
        <ele>526.460998535</ele>
        <time>2016-02-04T13:28:45.633Z</time>
      </trkpt>
      <trkpt lat="46.04355" lon="4.59309">
        <ele>526.455200195</ele>
        <time>2016-02-04T13:28:46.606Z</time>
      </trkpt>
      <trkpt lat="46.04348" lon="4.59303">
        <ele>526.696166992</ele>
        <time>2016-02-04T13:28:53.64Z</time>
      </trkpt>
      <trkpt lat="46.04347" lon="4.59303">
        <ele>526.698547363</ele>
        <time>2016-02-04T13:28:54.602Z</time>
      </trkpt>
      <trkpt lat="46.0434" lon="4.59297">
        <ele>527.093811035</ele>
        <time>2016-02-04T13:29:04.631Z</time>
      </trkpt>
      <trkpt lat="46.04339" lon="4.59297">
        <ele>527.056640625</ele>
        <time>2016-02-04T13:29:05.605Z</time>
      </trkpt>
      <trkpt lat="46.0433" lon="4.59293">
        <ele>526.805603027</ele>
        <time>2016-02-04T13:29:12.624Z</time>
      </trkpt>
      <trkpt lat="46.04329" lon="4.59292">
        <ele>526.713867188</ele>
        <time>2016-02-04T13:29:13.598Z</time>
      </trkpt>
      <trkpt lat="46.04321" lon="4.5929">
        <ele>526.191345215</ele>
        <time>2016-02-04T13:29:22.621Z</time>
      </trkpt>
      <trkpt lat="46.0432" lon="4.59289">
        <ele>526.205993652</ele>
        <time>2016-02-04T13:29:23.595Z</time>
      </trkpt>
      <trkpt lat="46.04311" lon="4.59288">
        <ele>525.49005127</ele>
        <time>2016-02-04T13:29:36.646Z</time>
      </trkpt>
      <trkpt lat="46.0431" lon="4.59288">
        <ele>525.424438477</ele>
        <time>2016-02-04T13:29:37.607Z</time>
      </trkpt>
      <trkpt lat="46.04302" lon="4.59288">
        <ele>525.226135254</ele>
        <time>2016-02-04T13:29:45.63Z</time>
      </trkpt>
      <trkpt lat="46.04301" lon="4.59288">
        <ele>525.28314209</ele>
        <time>2016-02-04T13:29:46.6Z</time>
      </trkpt>
      <trkpt lat="46.04292" lon="4.59287">
        <ele>526.579223633</ele>
        <time>2016-02-04T13:29:57.627Z</time>
      </trkpt>
      <trkpt lat="46.0429" lon="4.59287">
        <ele>526.729003906</ele>
        <time>2016-02-04T13:29:58.608Z</time>
      </trkpt>
      <trkpt lat="46.04282" lon="4.5929">
        <ele>527.300109863</ele>
        <time>2016-02-04T13:30:06.631Z</time>
      </trkpt>
      <trkpt lat="46.0428" lon="4.5929">
        <ele>527.252502441</ele>
        <time>2016-02-04T13:30:07.596Z</time>
      </trkpt>
      <trkpt lat="46.04272" lon="4.59294">
        <ele>527.425292969</ele>
        <time>2016-02-04T13:30:15.632Z</time>
      </trkpt>
      <trkpt lat="46.04272" lon="4.59295">
        <ele>527.545532227</ele>
        <time>2016-02-04T13:30:16.599Z</time>
      </trkpt>
      <trkpt lat="46.04269" lon="4.59306">
        <ele>529.48248291</ele>
        <time>2016-02-04T13:30:27.64Z</time>
      </trkpt>
      <trkpt lat="46.04269" lon="4.59307">
        <ele>529.617919922</ele>
        <time>2016-02-04T13:30:28.613Z</time>
      </trkpt>
      <trkpt lat="46.0427" lon="4.59319">
        <ele>530.881286621</ele>
        <time>2016-02-04T13:30:37.632Z</time>
      </trkpt>
      <trkpt lat="46.0427" lon="4.5932">
        <ele>530.978088379</ele>
        <time>2016-02-04T13:30:38.617Z</time>
      </trkpt>
      <trkpt lat="46.04269" lon="4.59332">
        <ele>532.358093262</ele>
        <time>2016-02-04T13:30:45.638Z</time>
      </trkpt>
      <trkpt lat="46.04269" lon="4.59333">
        <ele>532.474182129</ele>
        <time>2016-02-04T13:30:46.609Z</time>
      </trkpt>
      <trkpt lat="46.04268" lon="4.59346">
        <ele>533.601074219</ele>
        <time>2016-02-04T13:30:56.657Z</time>
      </trkpt>
      <trkpt lat="46.04268" lon="4.59347">
        <ele>533.737976074</ele>
        <time>2016-02-04T13:30:57.666Z</time>
      </trkpt>
      <trkpt lat="46.04267" lon="4.5936">
        <ele>535.397460938</ele>
        <time>2016-02-04T13:31:08.641Z</time>
      </trkpt>
      <trkpt lat="46.04266" lon="4.59361">
        <ele>535.596740723</ele>
        <time>2016-02-04T13:31:09.615Z</time>
      </trkpt>
      <trkpt lat="46.04266" lon="4.59373">
        <ele>537.755737305</ele>
        <time>2016-02-04T13:31:19.639Z</time>
      </trkpt>
      <trkpt lat="46.04266" lon="4.59374">
        <ele>537.827270508</ele>
        <time>2016-02-04T13:31:20.614Z</time>
      </trkpt>
      <trkpt lat="46.04257" lon="4.59372">
        <ele>540.895141602</ele>
        <time>2016-02-04T13:31:51.644Z</time>
      </trkpt>
      <trkpt lat="46.04257" lon="4.59371">
        <ele>541.199462891</ele>
        <time>2016-02-04T13:31:52.597Z</time>
      </trkpt>
      <trkpt lat="46.04251" lon="4.59363">
        <ele>543.683044434</ele>
        <time>2016-02-04T13:32:01.644Z</time>
      </trkpt>
      <trkpt lat="46.0425" lon="4.59362">
        <ele>543.951171875</ele>
        <time>2016-02-04T13:32:02.619Z</time>
      </trkpt>
      <trkpt lat="46.04243" lon="4.59355">
        <ele>545.888366699</ele>
        <time>2016-02-04T13:32:09.648Z</time>
      </trkpt>
      <trkpt lat="46.04242" lon="4.59354">
        <ele>546.06829834</ele>
        <time>2016-02-04T13:32:10.619Z</time>
      </trkpt>
      <trkpt lat="46.04234" lon="4.59347">
        <ele>549.872497559</ele>
        <time>2016-02-04T13:32:31.647Z</time>
      </trkpt>
      <trkpt lat="46.04234" lon="4.59347">
        <ele>549.989196777</ele>
        <time>2016-02-04T13:32:32.619Z</time>
      </trkpt>
      <trkpt lat="46.04227" lon="4.5934">
        <ele>553.624206543</ele>
        <time>2016-02-04T13:32:47.651Z</time>
      </trkpt>
      <trkpt lat="46.04226" lon="4.59339">
        <ele>553.954711914</ele>
        <time>2016-02-04T13:32:48.623Z</time>
      </trkpt>
      <trkpt lat="46.04219" lon="4.59334">
        <ele>559.187988281</ele>
        <time>2016-02-04T13:33:01.659Z</time>
      </trkpt>
      <trkpt lat="46.04217" lon="4.59334">
        <ele>559.610534668</ele>
        <time>2016-02-04T13:33:02.624Z</time>
      </trkpt>
      <trkpt lat="46.0421" lon="4.59327">
        <ele>565.372558594</ele>
        <time>2016-02-04T13:33:17.658Z</time>
      </trkpt>
      <trkpt lat="46.04209" lon="4.59326">
        <ele>565.931213379</ele>
        <time>2016-02-04T13:33:18.625Z</time>
      </trkpt>
      <trkpt lat="46.04201" lon="4.59321">
        <ele>574.163085938</ele>
        <time>2016-02-04T13:33:36.62Z</time>
      </trkpt>
      <trkpt lat="46.042" lon="4.5932">
        <ele>574.620666504</ele>
        <time>2016-02-04T13:33:37.596Z</time>
      </trkpt>
      <trkpt lat="46.04191" lon="4.59317">
        <ele>580.680969238</ele>
        <time>2016-02-04T13:33:55.648Z</time>
      </trkpt>
      <trkpt lat="46.0419" lon="4.59317">
        <ele>580.830444336</ele>
        <time>2016-02-04T13:33:56.601Z</time>
      </trkpt>
      <trkpt lat="46.04183" lon="4.59315">
        <ele>582.380859375</ele>
        <time>2016-02-04T13:34:02.625Z</time>
      </trkpt>
      <trkpt lat="46.04181" lon="4.59315">
        <ele>582.641479492</ele>
        <time>2016-02-04T13:34:03.602Z</time>
      </trkpt>
      <trkpt lat="46.04174" lon="4.5931">
        <ele>583.425170898</ele>
        <time>2016-02-04T13:34:11.619Z</time>
      </trkpt>
      <trkpt lat="46.04172" lon="4.59309">
        <ele>583.590576172</ele>
        <time>2016-02-04T13:34:12.6Z</time>
      </trkpt>
      <trkpt lat="46.04165" lon="4.59305">
        <ele>584.734069824</ele>
        <time>2016-02-04T13:34:18.635Z</time>
      </trkpt>
      <trkpt lat="46.04164" lon="4.59304">
        <ele>584.815673828</ele>
        <time>2016-02-04T13:34:19.61Z</time>
      </trkpt>
      <trkpt lat="46.04156" lon="4.59298">
        <ele>586.693969727</ele>
        <time>2016-02-04T13:34:31.627Z</time>
      </trkpt>
      <trkpt lat="46.04156" lon="4.59297">
        <ele>587.036132812</ele>
        <time>2016-02-04T13:34:32.604Z</time>
      </trkpt>
      <trkpt lat="46.04149" lon="4.59292">
        <ele>589.690307617</ele>
        <time>2016-02-04T13:34:41.628Z</time>
      </trkpt>
      <trkpt lat="46.04148" lon="4.5929">
        <ele>589.807189941</ele>
        <time>2016-02-04T13:34:42.605Z</time>
      </trkpt>
      <trkpt lat="46.04141" lon="4.59283">
        <ele>590.230407715</ele>
        <time>2016-02-04T13:34:47.641Z</time>
      </trkpt>
      <trkpt lat="46.04141" lon="4.59282">
        <ele>590.316650391</ele>
        <time>2016-02-04T13:34:48.605Z</time>
      </trkpt>
      <trkpt lat="46.04134" lon="4.59279">
        <ele>590.325561523</ele>
        <time>2016-02-04T13:34:53.603Z</time>
      </trkpt>
      <trkpt lat="46.04132" lon="4.59278">
        <ele>590.216186523</ele>
        <time>2016-02-04T13:34:54.602Z</time>
      </trkpt>
      <trkpt lat="46.04126" lon="4.5927">
        <ele>589.054992676</ele>
        <time>2016-02-04T13:34:59.631Z</time>
      </trkpt>
      <trkpt lat="46.04125" lon="4.59269">
        <ele>588.712158203</ele>
        <time>2016-02-04T13:35:00.607Z</time>
      </trkpt>
      <trkpt lat="46.04121" lon="4.59258">
        <ele>582.830444336</ele>
        <time>2016-02-04T13:35:11.629Z</time>
      </trkpt>
      <trkpt lat="46.04121" lon="4.59257">
        <ele>582.369689941</ele>
        <time>2016-02-04T13:35:12.603Z</time>
      </trkpt>
      <trkpt lat="46.04116" lon="4.59246">
        <ele>578.832824707</ele>
        <time>2016-02-04T13:35:21.617Z</time>
      </trkpt>
      <trkpt lat="46.04116" lon="4.59245">
        <ele>578.287414551</ele>
        <time>2016-02-04T13:35:22.6Z</time>
      </trkpt>
      <trkpt lat="46.04119" lon="4.59234">
        <ele>575.219055176</ele>
        <time>2016-02-04T13:35:44.635Z</time>
      </trkpt>
      <trkpt lat="46.04121" lon="4.59232">
        <ele>575.139587402</ele>
        <time>2016-02-04T13:35:45.601Z</time>
      </trkpt>
      <trkpt lat="46.04127" lon="4.59225">
        <ele>574.975524902</ele>
        <time>2016-02-04T13:35:47.634Z</time>
      </trkpt>
      <trkpt lat="46.0413" lon="4.59221">
        <ele>574.90057373</ele>
        <time>2016-02-04T13:35:48.607Z</time>
      </trkpt>
      <trkpt lat="46.04136" lon="4.59213">
        <ele>574.785583496</ele>
        <time>2016-02-04T13:35:51.64Z</time>
      </trkpt>
      <trkpt lat="46.04137" lon="4.59211">
        <ele>574.776062012</ele>
        <time>2016-02-04T13:35:52.593Z</time>
      </trkpt>
      <trkpt lat="46.04144" lon="4.59206">
        <ele>574.778015137</ele>
        <time>2016-02-04T13:35:57.639Z</time>
      </trkpt>
      <trkpt lat="46.04145" lon="4.59204">
        <ele>574.777832031</ele>
        <time>2016-02-04T13:35:58.614Z</time>
      </trkpt>
      <trkpt lat="46.04151" lon="4.59195">
        <ele>574.958618164</ele>
        <time>2016-02-04T13:36:07.637Z</time>
      </trkpt>
      <trkpt lat="46.04151" lon="4.59194">
        <ele>574.928771973</ele>
        <time>2016-02-04T13:36:08.604Z</time>
      </trkpt>
      <trkpt lat="46.04155" lon="4.59182">
        <ele>574.443847656</ele>
        <time>2016-02-04T13:36:14.64Z</time>
      </trkpt>
      <trkpt lat="46.04156" lon="4.59181">
        <ele>574.416931152</ele>
        <time>2016-02-04T13:36:15.6Z</time>
      </trkpt>
      <trkpt lat="46.04164" lon="4.59175">
        <ele>574.75793457</ele>
        <time>2016-02-04T13:36:22.62Z</time>
      </trkpt>
      <trkpt lat="46.04165" lon="4.59175">
        <ele>574.861694336</ele>
        <time>2016-02-04T13:36:23.604Z</time>
      </trkpt>
      <trkpt lat="46.04173" lon="4.59177">
        <ele>575.038391113</ele>
        <time>2016-02-04T13:36:30.632Z</time>
      </trkpt>
      <trkpt lat="46.04174" lon="4.59178">
        <ele>574.971984863</ele>
        <time>2016-02-04T13:36:31.602Z</time>
      </trkpt>
      <trkpt lat="46.04182" lon="4.5918">
        <ele>575.190429688</ele>
        <time>2016-02-04T13:36:37.636Z</time>
      </trkpt>
      <trkpt lat="46.04183" lon="4.5918">
        <ele>575.272094727</ele>
        <time>2016-02-04T13:36:38.62Z</time>
      </trkpt>
      <trkpt lat="46.04191" lon="4.59183">
        <ele>576.883361816</ele>
        <time>2016-02-04T13:36:49.637Z</time>
      </trkpt>
      <trkpt lat="46.04192" lon="4.59184">
        <ele>576.996765137</ele>
        <time>2016-02-04T13:36:50.613Z</time>
      </trkpt>
      <trkpt lat="46.04199" lon="4.59188">
        <ele>578.065429688</ele>
        <time>2016-02-04T13:37:00.657Z</time>
      </trkpt>
      <trkpt lat="46.042" lon="4.59188">
        <ele>578.165527344</ele>
        <time>2016-02-04T13:37:01.617Z</time>
      </trkpt>
      <trkpt lat="46.04208" lon="4.59191">
        <ele>578.883789062</ele>
        <time>2016-02-04T13:37:06.644Z</time>
      </trkpt>
      <trkpt lat="46.0421" lon="4.59191">
        <ele>578.917541504</ele>
        <time>2016-02-04T13:37:07.597Z</time>
      </trkpt>
      <trkpt lat="46.04218" lon="4.59194">
        <ele>580.054016113</ele>
        <time>2016-02-04T13:37:14.621Z</time>
      </trkpt>
      <trkpt lat="46.04219" lon="4.59194">
        <ele>580.285217285</ele>
        <time>2016-02-04T13:37:15.606Z</time>
      </trkpt>
      <trkpt lat="46.04227" lon="4.59194">
        <ele>581.001525879</ele>
        <time>2016-02-04T13:37:21.648Z</time>
      </trkpt>
      <trkpt lat="46.04229" lon="4.59194">
        <ele>581.122009277</ele>
        <time>2016-02-04T13:37:22.609Z</time>
      </trkpt>
      <trkpt lat="46.04236" lon="4.59192">
        <ele>581.805541992</ele>
        <time>2016-02-04T13:37:30.647Z</time>
      </trkpt>
      <trkpt lat="46.04238" lon="4.59192">
        <ele>581.921813965</ele>
        <time>2016-02-04T13:37:31.62Z</time>
      </trkpt>
      <trkpt lat="46.04246" lon="4.59191">
        <ele>582.331848145</ele>
        <time>2016-02-04T13:37:38.64Z</time>
      </trkpt>
      <trkpt lat="46.04248" lon="4.5919">
        <ele>582.35357666</ele>
        <time>2016-02-04T13:37:39.618Z</time>
      </trkpt>
      <trkpt lat="46.04256" lon="4.59188">
        <ele>582.689758301</ele>
        <time>2016-02-04T13:37:46.612Z</time>
      </trkpt>
      <trkpt lat="46.04257" lon="4.59188">
        <ele>582.787353516</ele>
        <time>2016-02-04T13:37:47.622Z</time>
      </trkpt>
      <trkpt lat="46.04266" lon="4.59186">
        <ele>583.612670898</ele>
        <time>2016-02-04T13:37:56.667Z</time>
      </trkpt>
      <trkpt lat="46.04267" lon="4.59185">
        <ele>583.634460449</ele>
        <time>2016-02-04T13:37:57.621Z</time>
      </trkpt>
      <trkpt lat="46.04273" lon="4.59181">
        <ele>583.447143555</ele>
        <time>2016-02-04T13:38:03.634Z</time>
      </trkpt>
      <trkpt lat="46.04275" lon="4.5918">
        <ele>583.404724121</ele>
        <time>2016-02-04T13:38:04.619Z</time>
      </trkpt>
      <trkpt lat="46.04283" lon="4.59178">
        <ele>583.598022461</ele>
        <time>2016-02-04T13:38:11.646Z</time>
      </trkpt>
      <trkpt lat="46.04284" lon="4.59177">
        <ele>583.671020508</ele>
        <time>2016-02-04T13:38:12.633Z</time>
      </trkpt>
      <trkpt lat="46.04292" lon="4.59173">
        <ele>584.548950195</ele>
        <time>2016-02-04T13:38:20.645Z</time>
      </trkpt>
      <trkpt lat="46.04293" lon="4.59173">
        <ele>584.701477051</ele>
        <time>2016-02-04T13:38:21.636Z</time>
      </trkpt>
      <trkpt lat="46.043" lon="4.59167">
        <ele>584.968444824</ele>
        <time>2016-02-04T13:38:28.649Z</time>
      </trkpt>
      <trkpt lat="46.04301" lon="4.59167">
        <ele>584.983459473</ele>
        <time>2016-02-04T13:38:29.624Z</time>
      </trkpt>
      <trkpt lat="46.04309" lon="4.59164">
        <ele>585.397216797</ele>
        <time>2016-02-04T13:38:37.637Z</time>
      </trkpt>
      <trkpt lat="46.04311" lon="4.59164">
        <ele>585.430603027</ele>
        <time>2016-02-04T13:38:38.626Z</time>
      </trkpt>
      <trkpt lat="46.0432" lon="4.5916">
        <ele>586.524108887</ele>
        <time>2016-02-04T13:38:46.596Z</time>
      </trkpt>
      <trkpt lat="46.04321" lon="4.5916">
        <ele>586.7421875</ele>
        <time>2016-02-04T13:38:47.588Z</time>
      </trkpt>
      <trkpt lat="46.04328" lon="4.59158">
        <ele>587.625854492</ele>
        <time>2016-02-04T13:38:53.608Z</time>
      </trkpt>
      <trkpt lat="46.0433" lon="4.59158">
        <ele>587.702758789</ele>
        <time>2016-02-04T13:38:54.598Z</time>
      </trkpt>
      <trkpt lat="46.04338" lon="4.59156">
        <ele>589.162902832</ele>
        <time>2016-02-04T13:39:03.606Z</time>
      </trkpt>
      <trkpt lat="46.04339" lon="4.59156">
        <ele>589.303771973</ele>
        <time>2016-02-04T13:39:04.592Z</time>
      </trkpt>
      <trkpt lat="46.04348" lon="4.59154">
        <ele>589.797912598</ele>
        <time>2016-02-04T13:39:11.607Z</time>
      </trkpt>
      <trkpt lat="46.04349" lon="4.59154">
        <ele>589.781921387</ele>
        <time>2016-02-04T13:39:12.595Z</time>
      </trkpt>
      <trkpt lat="46.04358" lon="4.59153">
        <ele>589.723022461</ele>
        <time>2016-02-04T13:39:17.613Z</time>
      </trkpt>
      <trkpt lat="46.04359" lon="4.59154">
        <ele>589.708312988</ele>
        <time>2016-02-04T13:39:18.593Z</time>
      </trkpt>
      <trkpt lat="46.04367" lon="4.59152">
        <ele>590.104064941</ele>
        <time>2016-02-04T13:39:27.625Z</time>
      </trkpt>
      <trkpt lat="46.04368" lon="4.59151">
        <ele>590.097839355</ele>
        <time>2016-02-04T13:39:28.592Z</time>
      </trkpt>
      <trkpt lat="46.04377" lon="4.59151">
        <ele>590.345397949</ele>
        <time>2016-02-04T13:39:36.612Z</time>
      </trkpt>
      <trkpt lat="46.04379" lon="4.59152">
        <ele>590.362731934</ele>
        <time>2016-02-04T13:39:37.593Z</time>
      </trkpt>
      <trkpt lat="46.04387" lon="4.59154">
        <ele>590.929138184</ele>
        <time>2016-02-04T13:39:44.62Z</time>
      </trkpt>
      <trkpt lat="46.0439" lon="4.59154">
        <ele>591.001281738</ele>
        <time>2016-02-04T13:39:45.617Z</time>
      </trkpt>
      <trkpt lat="46.04396" lon="4.59156">
        <ele>591.937194824</ele>
        <time>2016-02-04T13:39:51.671Z</time>
      </trkpt>
      <trkpt lat="46.04399" lon="4.59156">
        <ele>592.111083984</ele>
        <time>2016-02-04T13:39:52.593Z</time>
      </trkpt>
      <trkpt lat="46.04407" lon="4.59157">
        <ele>592.996704102</ele>
        <time>2016-02-04T13:40:02.634Z</time>
      </trkpt>
      <trkpt lat="46.04409" lon="4.59157">
        <ele>593.006958008</ele>
        <time>2016-02-04T13:40:03.596Z</time>
      </trkpt>
      <trkpt lat="46.04416" lon="4.59158">
        <ele>593.101196289</ele>
        <time>2016-02-04T13:40:10.645Z</time>
      </trkpt>
      <trkpt lat="46.04418" lon="4.59158">
        <ele>593.19152832</ele>
        <time>2016-02-04T13:40:11.603Z</time>
      </trkpt>
      <trkpt lat="46.04426" lon="4.5916">
        <ele>593.372558594</ele>
        <time>2016-02-04T13:40:15.634Z</time>
      </trkpt>
      <trkpt lat="46.04428" lon="4.5916">
        <ele>593.403930664</ele>
        <time>2016-02-04T13:40:16.596Z</time>
      </trkpt>
      <trkpt lat="46.04436" lon="4.59159">
        <ele>593.237548828</ele>
        <time>2016-02-04T13:40:24.638Z</time>
      </trkpt>
      <trkpt lat="46.04438" lon="4.59159">
        <ele>593.146728516</ele>
        <time>2016-02-04T13:40:25.6Z</time>
      </trkpt>
      <trkpt lat="46.04446" lon="4.59155">
        <ele>592.53918457</ele>
        <time>2016-02-04T13:40:32.627Z</time>
      </trkpt>
      <trkpt lat="46.04447" lon="4.59155">
        <ele>592.491088867</ele>
        <time>2016-02-04T13:40:33.617Z</time>
      </trkpt>
      <trkpt lat="46.04454" lon="4.5915">
        <ele>592.148071289</ele>
        <time>2016-02-04T13:40:41.613Z</time>
      </trkpt>
      <trkpt lat="46.04455" lon="4.59149">
        <ele>592.092041016</ele>
        <time>2016-02-04T13:40:42.604Z</time>
      </trkpt>
      <trkpt lat="46.0446" lon="4.59139">
        <ele>591.748352051</ele>
        <time>2016-02-04T13:40:47.624Z</time>
      </trkpt>
      <trkpt lat="46.0446" lon="4.59136">
        <ele>591.668395996</ele>
        <time>2016-02-04T13:40:48.601Z</time>
      </trkpt>
      <trkpt lat="46.04459" lon="4.59124">
        <ele>591.856506348</ele>
        <time>2016-02-04T13:40:56.616Z</time>
      </trkpt>
      <trkpt lat="46.04458" lon="4.59123">
        <ele>591.926635742</ele>
        <time>2016-02-04T13:40:57.601Z</time>
      </trkpt>
      <trkpt lat="46.04455" lon="4.59112">
        <ele>592.694335938</ele>
        <time>2016-02-04T13:41:03.62Z</time>
      </trkpt>
      <trkpt lat="46.04455" lon="4.5911">
        <ele>592.853820801</ele>
        <time>2016-02-04T13:41:04.602Z</time>
      </trkpt>
      <trkpt lat="46.04452" lon="4.59099">
        <ele>594.693969727</ele>
        <time>2016-02-04T13:41:11.615Z</time>
      </trkpt>
      <trkpt lat="46.04452" lon="4.59098">
        <ele>594.911132812</ele>
        <time>2016-02-04T13:41:12.611Z</time>
      </trkpt>
      <trkpt lat="46.04448" lon="4.59087">
        <ele>595.669250488</ele>
        <time>2016-02-04T13:41:20.622Z</time>
      </trkpt>
      <trkpt lat="46.04448" lon="4.59086">
        <ele>595.785766602</ele>
        <time>2016-02-04T13:41:21.612Z</time>
      </trkpt>
      <trkpt lat="46.04444" lon="4.59074">
        <ele>596.776794434</ele>
        <time>2016-02-04T13:41:27.643Z</time>
      </trkpt>
      <trkpt lat="46.04444" lon="4.59074">
        <ele>596.944274902</ele>
        <time>2016-02-04T13:41:28.605Z</time>
      </trkpt>
      <trkpt lat="46.04441" lon="4.59064">
        <ele>597.929321289</ele>
        <time>2016-02-04T13:41:35.624Z</time>
      </trkpt>
      <trkpt lat="46.0444" lon="4.5906">
        <ele>597.968933105</ele>
        <time>2016-02-04T13:41:36.618Z</time>
      </trkpt>
      <trkpt lat="46.04441" lon="4.59048">
        <ele>598.686279297</ele>
        <time>2016-02-04T13:41:44.615Z</time>
      </trkpt>
      <trkpt lat="46.04441" lon="4.59046">
        <ele>598.817016602</ele>
        <time>2016-02-04T13:41:45.605Z</time>
      </trkpt>
      <trkpt lat="46.04437" lon="4.59035">
        <ele>599.248718262</ele>
        <time>2016-02-04T13:41:51.64Z</time>
      </trkpt>
      <trkpt lat="46.04437" lon="4.59033">
        <ele>599.314025879</ele>
        <time>2016-02-04T13:41:52.59Z</time>
      </trkpt>
      <trkpt lat="46.04433" lon="4.59024">
        <ele>599.390319824</ele>
        <time>2016-02-04T13:41:58.623Z</time>
      </trkpt>
      <trkpt lat="46.04431" lon="4.59023">
        <ele>599.467224121</ele>
        <time>2016-02-04T13:41:59.616Z</time>
      </trkpt>
      <trkpt lat="46.04427" lon="4.59013">
        <ele>599.041137695</ele>
        <time>2016-02-04T13:42:04.626Z</time>
      </trkpt>
      <trkpt lat="46.04426" lon="4.59011">
        <ele>598.806091309</ele>
        <time>2016-02-04T13:42:05.606Z</time>
      </trkpt>
      <trkpt lat="46.04421" lon="4.59">
        <ele>597.312805176</ele>
        <time>2016-02-04T13:42:11.638Z</time>
      </trkpt>
      <trkpt lat="46.04421" lon="4.58999">
        <ele>596.932434082</ele>
        <time>2016-02-04T13:42:12.604Z</time>
      </trkpt>
      <trkpt lat="46.04416" lon="4.5899">
        <ele>594.057373047</ele>
        <time>2016-02-04T13:42:19.653Z</time>
      </trkpt>
      <trkpt lat="46.04414" lon="4.58989">
        <ele>593.666564941</ele>
        <time>2016-02-04T13:42:20.607Z</time>
      </trkpt>
      <trkpt lat="46.04408" lon="4.5898">
        <ele>591.411621094</ele>
        <time>2016-02-04T13:42:26.639Z</time>
      </trkpt>
      <trkpt lat="46.04407" lon="4.58978">
        <ele>591.024597168</ele>
        <time>2016-02-04T13:42:27.605Z</time>
      </trkpt>
      <trkpt lat="46.04401" lon="4.58969">
        <ele>588.633544922</ele>
        <time>2016-02-04T13:42:34.746Z</time>
      </trkpt>
      <trkpt lat="46.04401" lon="4.58967">
        <ele>588.34576416</ele>
        <time>2016-02-04T13:42:35.607Z</time>
      </trkpt>
      <trkpt lat="46.04397" lon="4.58957">
        <ele>587.60723877</ele>
        <time>2016-02-04T13:42:42.661Z</time>
      </trkpt>
      <trkpt lat="46.04396" lon="4.58956">
        <ele>587.596435547</ele>
        <time>2016-02-04T13:42:43.618Z</time>
      </trkpt>
      <trkpt lat="46.0439" lon="4.58946">
        <ele>587.242919922</ele>
        <time>2016-02-04T13:42:51.633Z</time>
      </trkpt>
      <trkpt lat="46.0439" lon="4.58944">
        <ele>587.262207031</ele>
        <time>2016-02-04T13:42:52.608Z</time>
      </trkpt>
      <trkpt lat="46.04391" lon="4.58933">
        <ele>588.982971191</ele>
        <time>2016-02-04T13:42:58.658Z</time>
      </trkpt>
      <trkpt lat="46.0439" lon="4.58931">
        <ele>589.325927734</ele>
        <time>2016-02-04T13:42:59.613Z</time>
      </trkpt>
      <trkpt lat="46.04392" lon="4.58919">
        <ele>591.757324219</ele>
        <time>2016-02-04T13:43:04.634Z</time>
      </trkpt>
      <trkpt lat="46.04392" lon="4.58917">
        <ele>592.345336914</ele>
        <time>2016-02-04T13:43:05.631Z</time>
      </trkpt>
      <trkpt lat="46.04392" lon="4.58904">
        <ele>595.961120605</ele>
        <time>2016-02-04T13:43:11.629Z</time>
      </trkpt>
      <trkpt lat="46.04392" lon="4.58903">
        <ele>596.599243164</ele>
        <time>2016-02-04T13:43:12.62Z</time>
      </trkpt>
      <trkpt lat="46.044" lon="4.58896">
        <ele>600.071166992</ele>
        <time>2016-02-04T13:43:18.638Z</time>
      </trkpt>
      <trkpt lat="46.044" lon="4.58895">
        <ele>600.71673584</ele>
        <time>2016-02-04T13:43:19.61Z</time>
      </trkpt>
      <trkpt lat="46.044" lon="4.58885">
        <ele>604.396911621</ele>
        <time>2016-02-04T13:43:26.636Z</time>
      </trkpt>
      <trkpt lat="46.04399" lon="4.58881">
        <ele>604.847473145</ele>
        <time>2016-02-04T13:43:27.61Z</time>
      </trkpt>
      <trkpt lat="46.04399" lon="4.58869">
        <ele>607.171081543</ele>
        <time>2016-02-04T13:43:33.654Z</time>
      </trkpt>
      <trkpt lat="46.04398" lon="4.58867">
        <ele>607.411682129</ele>
        <time>2016-02-04T13:43:34.692Z</time>
      </trkpt>
      <trkpt lat="46.04395" lon="4.58857">
        <ele>609.780151367</ele>
        <time>2016-02-04T13:43:41.632Z</time>
      </trkpt>
      <trkpt lat="46.04395" lon="4.58855">
        <ele>610.163757324</ele>
        <time>2016-02-04T13:43:42.618Z</time>
      </trkpt>
      <trkpt lat="46.04392" lon="4.58844">
        <ele>611.745666504</ele>
        <time>2016-02-04T13:43:48.632Z</time>
      </trkpt>
      <trkpt lat="46.04392" lon="4.58842">
        <ele>611.807312012</ele>
        <time>2016-02-04T13:43:49.613Z</time>
      </trkpt>
      <trkpt lat="46.04392" lon="4.58831">
        <ele>612.383605957</ele>
        <time>2016-02-04T13:43:55.655Z</time>
      </trkpt>
      <trkpt lat="46.04393" lon="4.58828">
        <ele>612.458190918</ele>
        <time>2016-02-04T13:43:56.593Z</time>
      </trkpt>
      <trkpt lat="46.04397" lon="4.58817">
        <ele>612.753723145</ele>
        <time>2016-02-04T13:44:05.662Z</time>
      </trkpt>
      <trkpt lat="46.04397" lon="4.58816">
        <ele>612.787963867</ele>
        <time>2016-02-04T13:44:06.599Z</time>
      </trkpt>
      <trkpt lat="46.04402" lon="4.58806">
        <ele>613.133850098</ele>
        <time>2016-02-04T13:44:12.615Z</time>
      </trkpt>
      <trkpt lat="46.04402" lon="4.58805">
        <ele>613.180419922</ele>
        <time>2016-02-04T13:44:13.592Z</time>
      </trkpt>
      <trkpt lat="46.04407" lon="4.58795">
        <ele>612.792053223</ele>
        <time>2016-02-04T13:44:19.61Z</time>
      </trkpt>
      <trkpt lat="46.04408" lon="4.58794">
        <ele>612.838989258</ele>
        <time>2016-02-04T13:44:20.598Z</time>
      </trkpt>
      <trkpt lat="46.04414" lon="4.58785">
        <ele>612.247619629</ele>
        <time>2016-02-04T13:44:29.621Z</time>
      </trkpt>
      <trkpt lat="46.04414" lon="4.58784">
        <ele>612.11730957</ele>
        <time>2016-02-04T13:44:30.611Z</time>
      </trkpt>
      <trkpt lat="46.04419" lon="4.58775">
        <ele>611.653198242</ele>
        <time>2016-02-04T13:44:38.62Z</time>
      </trkpt>
      <trkpt lat="46.0442" lon="4.58774">
        <ele>611.5546875</ele>
        <time>2016-02-04T13:44:39.617Z</time>
      </trkpt>
      <trkpt lat="46.04421" lon="4.58761">
        <ele>610.71105957</ele>
        <time>2016-02-04T13:44:46.627Z</time>
      </trkpt>
      <trkpt lat="46.04421" lon="4.58759">
        <ele>610.695129395</ele>
        <time>2016-02-04T13:44:47.599Z</time>
      </trkpt>
      <trkpt lat="46.04423" lon="4.58746">
        <ele>610.671691895</ele>
        <time>2016-02-04T13:44:54.621Z</time>
      </trkpt>
      <trkpt lat="46.04424" lon="4.58745">
        <ele>610.654846191</ele>
        <time>2016-02-04T13:44:55.609Z</time>
      </trkpt>
      <trkpt lat="46.04418" lon="4.58737">
        <ele>610.176086426</ele>
        <time>2016-02-04T13:45:06.626Z</time>
      </trkpt>
      <trkpt lat="46.04417" lon="4.58736">
        <ele>610.051940918</ele>
        <time>2016-02-04T13:45:07.611Z</time>
      </trkpt>
      <trkpt lat="46.04412" lon="4.58725">
        <ele>609.313110352</ele>
        <time>2016-02-04T13:45:15.62Z</time>
      </trkpt>
      <trkpt lat="46.04412" lon="4.58724">
        <ele>609.333068848</ele>
        <time>2016-02-04T13:45:16.615Z</time>
      </trkpt>
      <trkpt lat="46.04408" lon="4.58713">
        <ele>609.944274902</ele>
        <time>2016-02-04T13:45:24.627Z</time>
      </trkpt>
      <trkpt lat="46.04407" lon="4.58712">
        <ele>610.051025391</ele>
        <time>2016-02-04T13:45:25.616Z</time>
      </trkpt>
      <trkpt lat="46.044" lon="4.58705">
        <ele>610.684082031</ele>
        <time>2016-02-04T13:45:34.627Z</time>
      </trkpt>
      <trkpt lat="46.04399" lon="4.58704">
        <ele>610.817443848</ele>
        <time>2016-02-04T13:45:35.608Z</time>
      </trkpt>
      <trkpt lat="46.04392" lon="4.58697">
        <ele>611.688232422</ele>
        <time>2016-02-04T13:45:44.639Z</time>
      </trkpt>
      <trkpt lat="46.0439" lon="4.58695">
        <ele>611.763427734</ele>
        <time>2016-02-04T13:45:45.619Z</time>
      </trkpt>
      <trkpt lat="46.04384" lon="4.58689">
        <ele>613.295837402</ele>
        <time>2016-02-04T13:45:54.633Z</time>
      </trkpt>
      <trkpt lat="46.04382" lon="4.58687">
        <ele>613.480285645</ele>
        <time>2016-02-04T13:45:55.617Z</time>
      </trkpt>
      <trkpt lat="46.04376" lon="4.5868">
        <ele>614.583557129</ele>
        <time>2016-02-04T13:46:02.668Z</time>
      </trkpt>
      <trkpt lat="46.04374" lon="4.5868">
        <ele>614.665527344</ele>
        <time>2016-02-04T13:46:03.608Z</time>
      </trkpt>
      <trkpt lat="46.04366" lon="4.58674">
        <ele>614.84197998</ele>
        <time>2016-02-04T13:46:09.642Z</time>
      </trkpt>
      <trkpt lat="46.04365" lon="4.58673">
        <ele>614.942016602</ele>
        <time>2016-02-04T13:46:10.607Z</time>
      </trkpt>
      <trkpt lat="46.04359" lon="4.58666">
        <ele>615.744628906</ele>
        <time>2016-02-04T13:46:16.622Z</time>
      </trkpt>
      <trkpt lat="46.04357" lon="4.58665">
        <ele>615.862182617</ele>
        <time>2016-02-04T13:46:17.609Z</time>
      </trkpt>
      <trkpt lat="46.04349" lon="4.58661">
        <ele>616.212158203</ele>
        <time>2016-02-04T13:46:24.618Z</time>
      </trkpt>
      <trkpt lat="46.04348" lon="4.5866">
        <ele>616.292114258</ele>
        <time>2016-02-04T13:46:25.599Z</time>
      </trkpt>
      <trkpt lat="46.0434" lon="4.58657">
        <ele>617.526306152</ele>
        <time>2016-02-04T13:46:36.636Z</time>
      </trkpt>
      <trkpt lat="46.04339" lon="4.58657">
        <ele>617.657775879</ele>
        <time>2016-02-04T13:46:37.601Z</time>
      </trkpt>
      <trkpt lat="46.0433" lon="4.58654">
        <ele>618.936645508</ele>
        <time>2016-02-04T13:46:47.64Z</time>
      </trkpt>
      <trkpt lat="46.0433" lon="4.58654">
        <ele>619.051147461</ele>
        <time>2016-02-04T13:46:48.616Z</time>
      </trkpt>
      <trkpt lat="46.04322" lon="4.5865">
        <ele>619.840698242</ele>
        <time>2016-02-04T13:46:55.623Z</time>
      </trkpt>
      <trkpt lat="46.04321" lon="4.5865">
        <ele>619.941772461</ele>
        <time>2016-02-04T13:46:56.603Z</time>
      </trkpt>
      <trkpt lat="46.04312" lon="4.58645">
        <ele>621.024353027</ele>
        <time>2016-02-04T13:47:04.636Z</time>
      </trkpt>
      <trkpt lat="46.04312" lon="4.58645">
        <ele>621.166625977</ele>
        <time>2016-02-04T13:47:05.604Z</time>
      </trkpt>
      <trkpt lat="46.04304" lon="4.5864">
        <ele>622.362548828</ele>
        <time>2016-02-04T13:47:12.647Z</time>
      </trkpt>
      <trkpt lat="46.04302" lon="4.58639">
        <ele>622.534545898</ele>
        <time>2016-02-04T13:47:13.605Z</time>
      </trkpt>
      <trkpt lat="46.04294" lon="4.58635">
        <ele>622.985107422</ele>
        <time>2016-02-04T13:47:21.618Z</time>
      </trkpt>
      <trkpt lat="46.04293" lon="4.58635">
        <ele>622.956420898</ele>
        <time>2016-02-04T13:47:22.604Z</time>
      </trkpt>
      <trkpt lat="46.04284" lon="4.58632">
        <ele>622.650146484</ele>
        <time>2016-02-04T13:47:28.628Z</time>
      </trkpt>
      <trkpt lat="46.04284" lon="4.58632">
        <ele>622.698059082</ele>
        <time>2016-02-04T13:47:29.604Z</time>
      </trkpt>
      <trkpt lat="46.04276" lon="4.5863">
        <ele>623.171630859</ele>
        <time>2016-02-04T13:47:34.636Z</time>
      </trkpt>
      <trkpt lat="46.04274" lon="4.58629">
        <ele>623.216918945</ele>
        <time>2016-02-04T13:47:35.618Z</time>
      </trkpt>
      <trkpt lat="46.04267" lon="4.58627">
        <ele>623.613525391</ele>
        <time>2016-02-04T13:47:42.625Z</time>
      </trkpt>
      <trkpt lat="46.04266" lon="4.58626">
        <ele>623.689880371</ele>
        <time>2016-02-04T13:47:43.61Z</time>
      </trkpt>
      <trkpt lat="46.04257" lon="4.58625">
        <ele>624.339904785</ele>
        <time>2016-02-04T13:47:49.621Z</time>
      </trkpt>
      <trkpt lat="46.04256" lon="4.58624">
        <ele>624.431335449</ele>
        <time>2016-02-04T13:47:50.61Z</time>
      </trkpt>
      <trkpt lat="46.04248" lon="4.58621">
        <ele>625.026245117</ele>
        <time>2016-02-04T13:47:59.624Z</time>
      </trkpt>
      <trkpt lat="46.04247" lon="4.5862">
        <ele>625.069824219</ele>
        <time>2016-02-04T13:48:00.61Z</time>
      </trkpt>
      <trkpt lat="46.04239" lon="4.58617">
        <ele>627.799316406</ele>
        <time>2016-02-04T13:48:14.656Z</time>
      </trkpt>
      <trkpt lat="46.04238" lon="4.58617">
        <ele>628.039550781</ele>
        <time>2016-02-04T13:48:15.619Z</time>
      </trkpt>
      <trkpt lat="46.0423" lon="4.58613">
        <ele>628.682739258</ele>
        <time>2016-02-04T13:48:19.647Z</time>
      </trkpt>
      <trkpt lat="46.04229" lon="4.58612">
        <ele>628.817871094</ele>
        <time>2016-02-04T13:48:20.618Z</time>
      </trkpt>
      <trkpt lat="46.0422" lon="4.58609">
        <ele>630.04284668</ele>
        <time>2016-02-04T13:48:35.646Z</time>
      </trkpt>
      <trkpt lat="46.0422" lon="4.58608">
        <ele>630.260314941</ele>
        <time>2016-02-04T13:48:36.618Z</time>
      </trkpt>
      <trkpt lat="46.04211" lon="4.58603">
        <ele>631.432800293</ele>
        <time>2016-02-04T13:48:43.646Z</time>
      </trkpt>
      <trkpt lat="46.04209" lon="4.58603">
        <ele>631.541503906</ele>
        <time>2016-02-04T13:48:44.613Z</time>
      </trkpt>
      <trkpt lat="46.04201" lon="4.586">
        <ele>631.554199219</ele>
        <time>2016-02-04T13:48:50.768Z</time>
      </trkpt>
      <trkpt lat="46.042" lon="4.58599">
        <ele>631.479125977</ele>
        <time>2016-02-04T13:48:51.629Z</time>
      </trkpt>
      <trkpt lat="46.04192" lon="4.58596">
        <ele>631.863098145</ele>
        <time>2016-02-04T13:48:57.641Z</time>
      </trkpt>
      <trkpt lat="46.0419" lon="4.58595">
        <ele>631.911315918</ele>
        <time>2016-02-04T13:48:58.622Z</time>
      </trkpt>
      <trkpt lat="46.04182" lon="4.58591">
        <ele>632.688293457</ele>
        <time>2016-02-04T13:49:07.649Z</time>
      </trkpt>
      <trkpt lat="46.04181" lon="4.5859">
        <ele>632.89465332</ele>
        <time>2016-02-04T13:49:08.624Z</time>
      </trkpt>
      <trkpt lat="46.04173" lon="4.58586">
        <ele>634.366699219</ele>
        <time>2016-02-04T13:49:20.62Z</time>
      </trkpt>
      <trkpt lat="46.04172" lon="4.58586">
        <ele>634.488708496</ele>
        <time>2016-02-04T13:49:21.59Z</time>
      </trkpt>
      <trkpt lat="46.04164" lon="4.58584">
        <ele>635.123962402</ele>
        <time>2016-02-04T13:49:29.629Z</time>
      </trkpt>
      <trkpt lat="46.04163" lon="4.58584">
        <ele>635.249633789</ele>
        <time>2016-02-04T13:49:30.606Z</time>
      </trkpt>
      <trkpt lat="46.04155" lon="4.58586">
        <ele>635.901794434</ele>
        <time>2016-02-04T13:49:37.638Z</time>
      </trkpt>
      <trkpt lat="46.04154" lon="4.58587">
        <ele>635.929870605</ele>
        <time>2016-02-04T13:49:38.607Z</time>
      </trkpt>
      <trkpt lat="46.04148" lon="4.58588">
        <ele>636.046020508</ele>
        <time>2016-02-04T13:49:42.612Z</time>
      </trkpt>
      <trkpt lat="46.04145" lon="4.58588">
        <ele>636.043457031</ele>
        <time>2016-02-04T13:49:43.61Z</time>
      </trkpt>
      <trkpt lat="46.04137" lon="4.58592">
        <ele>636.071594238</ele>
        <time>2016-02-04T13:49:53.62Z</time>
      </trkpt>
      <trkpt lat="46.04136" lon="4.58593">
        <ele>636.137023926</ele>
        <time>2016-02-04T13:49:54.608Z</time>
      </trkpt>
      <trkpt lat="46.04128" lon="4.58598">
        <ele>636.495300293</ele>
        <time>2016-02-04T13:50:03.625Z</time>
      </trkpt>
      <trkpt lat="46.04127" lon="4.58599">
        <ele>636.526306152</ele>
        <time>2016-02-04T13:50:04.607Z</time>
      </trkpt>
      <trkpt lat="46.0412" lon="4.58606">
        <ele>636.31640625</ele>
        <time>2016-02-04T13:50:19.618Z</time>
      </trkpt>
      <trkpt lat="46.04119" lon="4.58606">
        <ele>636.328796387</ele>
        <time>2016-02-04T13:50:20.594Z</time>
      </trkpt>
      <trkpt lat="46.04111" lon="4.58611">
        <ele>636.184326172</ele>
        <time>2016-02-04T13:50:26.638Z</time>
      </trkpt>
      <trkpt lat="46.0411" lon="4.58612">
        <ele>636.089172363</ele>
        <time>2016-02-04T13:50:27.596Z</time>
      </trkpt>
      <trkpt lat="46.04102" lon="4.58617">
        <ele>635.237121582</ele>
        <time>2016-02-04T13:50:38.632Z</time>
      </trkpt>
      <trkpt lat="46.04101" lon="4.58617">
        <ele>635.266784668</ele>
        <time>2016-02-04T13:50:39.582Z</time>
      </trkpt>
      <trkpt lat="46.04094" lon="4.58624">
        <ele>636.206420898</ele>
        <time>2016-02-04T13:50:52.622Z</time>
      </trkpt>
      <trkpt lat="46.04094" lon="4.58624">
        <ele>636.362426758</ele>
        <time>2016-02-04T13:50:53.606Z</time>
      </trkpt>
      <trkpt lat="46.04087" lon="4.5863">
        <ele>637.394470215</ele>
        <time>2016-02-04T13:51:06.625Z</time>
      </trkpt>
      <trkpt lat="46.04085" lon="4.58631">
        <ele>637.49206543</ele>
        <time>2016-02-04T13:51:07.607Z</time>
      </trkpt>
      <trkpt lat="46.04079" lon="4.58637">
        <ele>637.999633789</ele>
        <time>2016-02-04T13:51:13.732Z</time>
      </trkpt>
      <trkpt lat="46.04078" lon="4.58638">
        <ele>638.107971191</ele>
        <time>2016-02-04T13:51:14.6Z</time>
      </trkpt>
      <trkpt lat="46.04074" lon="4.58649">
        <ele>639.182312012</ele>
        <time>2016-02-04T13:51:28.634Z</time>
      </trkpt>
      <trkpt lat="46.04074" lon="4.5865">
        <ele>639.233825684</ele>
        <time>2016-02-04T13:51:29.599Z</time>
      </trkpt>
      <trkpt lat="46.04067" lon="4.58657">
        <ele>640.197265625</ele>
        <time>2016-02-04T13:51:39.612Z</time>
      </trkpt>
      <trkpt lat="46.04067" lon="4.58659">
        <ele>640.210449219</ele>
        <time>2016-02-04T13:51:40.608Z</time>
      </trkpt>
      <trkpt lat="46.04061" lon="4.58668">
        <ele>641.847839355</ele>
        <time>2016-02-04T13:51:53.624Z</time>
      </trkpt>
      <trkpt lat="46.04061" lon="4.58669">
        <ele>641.876281738</ele>
        <time>2016-02-04T13:51:54.601Z</time>
      </trkpt>
      <trkpt lat="46.04055" lon="4.58678">
        <ele>642.45904541</ele>
        <time>2016-02-04T13:52:09.641Z</time>
      </trkpt>
      <trkpt lat="46.04054" lon="4.58678">
        <ele>642.536865234</ele>
        <time>2016-02-04T13:52:10.61Z</time>
      </trkpt>
      <trkpt lat="46.04048" lon="4.58687">
        <ele>644.931518555</ele>
        <time>2016-02-04T13:52:25.637Z</time>
      </trkpt>
      <trkpt lat="46.04047" lon="4.58687">
        <ele>645.109191895</ele>
        <time>2016-02-04T13:52:26.603Z</time>
      </trkpt>
      <trkpt lat="46.04042" lon="4.58697">
        <ele>646.518615723</ele>
        <time>2016-02-04T13:52:39.622Z</time>
      </trkpt>
      <trkpt lat="46.04041" lon="4.58697">
        <ele>646.653381348</ele>
        <time>2016-02-04T13:52:40.604Z</time>
      </trkpt>
      <trkpt lat="46.04035" lon="4.58705">
        <ele>648.446899414</ele>
        <time>2016-02-04T13:52:55.637Z</time>
      </trkpt>
      <trkpt lat="46.04034" lon="4.58706">
        <ele>648.577514648</ele>
        <time>2016-02-04T13:52:56.609Z</time>
      </trkpt>
      <trkpt lat="46.0403" lon="4.58717">
        <ele>650.143554688</ele>
        <time>2016-02-04T13:53:06.638Z</time>
      </trkpt>
      <trkpt lat="46.0403" lon="4.58719">
        <ele>650.211669922</ele>
        <time>2016-02-04T13:53:07.599Z</time>
      </trkpt>
      <trkpt lat="46.04026" lon="4.5873">
        <ele>650.745361328</ele>
        <time>2016-02-04T13:53:16.636Z</time>
      </trkpt>
      <trkpt lat="46.04026" lon="4.58732">
        <ele>650.836303711</ele>
        <time>2016-02-04T13:53:17.622Z</time>
      </trkpt>
      <trkpt lat="46.0402" lon="4.58741">
        <ele>651.815124512</ele>
        <time>2016-02-04T13:53:32.641Z</time>
      </trkpt>
      <trkpt lat="46.04019" lon="4.58741">
        <ele>651.959594727</ele>
        <time>2016-02-04T13:53:33.606Z</time>
      </trkpt>
      <trkpt lat="46.04013" lon="4.5875">
        <ele>653.356628418</ele>
        <time>2016-02-04T13:53:44.643Z</time>
      </trkpt>
      <trkpt lat="46.04013" lon="4.58751">
        <ele>653.50177002</ele>
        <time>2016-02-04T13:53:45.603Z</time>
      </trkpt>
      <trkpt lat="46.04007" lon="4.58759">
        <ele>654.496520996</ele>
        <time>2016-02-04T13:53:57.65Z</time>
      </trkpt>
      <trkpt lat="46.04007" lon="4.58761">
        <ele>654.703552246</ele>
        <time>2016-02-04T13:53:58.619Z</time>
      </trkpt>
      <trkpt lat="46.04003" lon="4.58771">
        <ele>656.316040039</ele>
        <time>2016-02-04T13:54:09.644Z</time>
      </trkpt>
      <trkpt lat="46.04002" lon="4.58772">
        <ele>656.45324707</ele>
        <time>2016-02-04T13:54:10.624Z</time>
      </trkpt>
      <trkpt lat="46.03997" lon="4.58783">
        <ele>658.208984375</ele>
        <time>2016-02-04T13:54:22.646Z</time>
      </trkpt>
      <trkpt lat="46.03997" lon="4.58783">
        <ele>658.34362793</ele>
        <time>2016-02-04T13:54:23.62Z</time>
      </trkpt>
      <trkpt lat="46.03992" lon="4.58792">
        <ele>660.606323242</ele>
        <time>2016-02-04T13:54:34.63Z</time>
      </trkpt>
      <trkpt lat="46.0399" lon="4.58793">
        <ele>660.765014648</ele>
        <time>2016-02-04T13:54:35.596Z</time>
      </trkpt>
      <trkpt lat="46.03985" lon="4.58801">
        <ele>662.128662109</ele>
        <time>2016-02-04T13:54:43.59Z</time>
      </trkpt>
      <trkpt lat="46.03984" lon="4.58803">
        <ele>662.247497559</ele>
        <time>2016-02-04T13:54:44.625Z</time>
      </trkpt>
      <trkpt lat="46.0398" lon="4.58812">
        <ele>664.34197998</ele>
        <time>2016-02-04T13:54:56.624Z</time>
      </trkpt>
      <trkpt lat="46.03979" lon="4.58813">
        <ele>664.517883301</ele>
        <time>2016-02-04T13:54:57.591Z</time>
      </trkpt>
      <trkpt lat="46.03974" lon="4.58822">
        <ele>666.065368652</ele>
        <time>2016-02-04T13:55:04.627Z</time>
      </trkpt>
      <trkpt lat="46.03974" lon="4.58824">
        <ele>666.26361084</ele>
        <time>2016-02-04T13:55:05.601Z</time>
      </trkpt>
      <trkpt lat="46.0397" lon="4.58836">
        <ele>667.498596191</ele>
        <time>2016-02-04T13:55:14.662Z</time>
      </trkpt>
      <trkpt lat="46.03969" lon="4.58837">
        <ele>667.678710938</ele>
        <time>2016-02-04T13:55:15.608Z</time>
      </trkpt>
      <trkpt lat="46.03966" lon="4.58848">
        <ele>668.672607422</ele>
        <time>2016-02-04T13:55:23.66Z</time>
      </trkpt>
      <trkpt lat="46.03965" lon="4.58849">
        <ele>668.813171387</ele>
        <time>2016-02-04T13:55:24.608Z</time>
      </trkpt>
      <trkpt lat="46.03957" lon="4.58856">
        <ele>670.888183594</ele>
        <time>2016-02-04T13:55:57.632Z</time>
      </trkpt>
      <trkpt lat="46.03957" lon="4.58856">
        <ele>670.90838623</ele>
        <time>2016-02-04T13:55:58.598Z</time>
      </trkpt>
      <trkpt lat="46.03961" lon="4.58867">
        <ele>671.44519043</ele>
        <time>2016-02-04T13:56:15.627Z</time>
      </trkpt>
      <trkpt lat="46.03961" lon="4.58868">
        <ele>671.48248291</ele>
        <time>2016-02-04T13:56:16.599Z</time>
      </trkpt>
      <trkpt lat="46.03953" lon="4.58872">
        <ele>671.731445312</ele>
        <time>2016-02-04T13:56:25.618Z</time>
      </trkpt>
      <trkpt lat="46.03952" lon="4.58873">
        <ele>671.788513184</ele>
        <time>2016-02-04T13:56:26.607Z</time>
      </trkpt>
      <trkpt lat="46.03953" lon="4.58869">
        <ele>672.881713867</ele>
        <time>2016-02-04T13:57:01.619Z</time>
      </trkpt>
      <trkpt lat="46.03961" lon="4.58865">
        <ele>673.202087402</ele>
        <time>2016-02-04T13:57:02.586Z</time>
      </trkpt>
      <trkpt lat="46.03959" lon="4.58852">
        <ele>676.524414062</ele>
        <time>2016-02-04T13:58:11.689Z</time>
      </trkpt>
      <trkpt lat="46.0396" lon="4.58852">
        <ele>676.5390625</ele>
        <time>2016-02-04T13:58:12.618Z</time>
      </trkpt>
      <trkpt lat="46.03968" lon="4.58855">
        <ele>677.139770508</ele>
        <time>2016-02-04T13:59:02.656Z</time>
      </trkpt>
      <trkpt lat="46.03968" lon="4.58856">
        <ele>677.151306152</ele>
        <time>2016-02-04T13:59:03.614Z</time>
      </trkpt>
      <trkpt lat="46.03972" lon="4.58867">
        <ele>679.55645752</ele>
        <time>2016-02-04T13:59:28.643Z</time>
      </trkpt>
      <trkpt lat="46.03972" lon="4.58868">
        <ele>679.673706055</ele>
        <time>2016-02-04T13:59:29.607Z</time>
      </trkpt>
      <trkpt lat="46.03964" lon="4.58861">
        <ele>682.088989258</ele>
        <time>2016-02-04T14:00:54.616Z</time>
      </trkpt>
      <trkpt lat="46.03964" lon="4.58861">
        <ele>682.066223145</ele>
        <time>2016-02-04T14:00:55.599Z</time>
      </trkpt>
      <trkpt lat="46.03958" lon="4.58851">
        <ele>683.644165039</ele>
        <time>2016-02-04T14:01:21.617Z</time>
      </trkpt>
      <trkpt lat="46.03958" lon="4.5885">
        <ele>683.670959473</ele>
        <time>2016-02-04T14:01:22.589Z</time>
      </trkpt>
      <trkpt lat="46.03952" lon="4.58843">
        <ele>683.329833984</ele>
        <time>2016-02-04T14:01:29.646Z</time>
      </trkpt>
      <trkpt lat="46.03951" lon="4.58841">
        <ele>683.264343262</ele>
        <time>2016-02-04T14:01:30.595Z</time>
      </trkpt>
      <trkpt lat="46.03946" lon="4.58831">
        <ele>682.643493652</ele>
        <time>2016-02-04T14:01:37.685Z</time>
      </trkpt>
      <trkpt lat="46.03945" lon="4.5883">
        <ele>682.611206055</ele>
        <time>2016-02-04T14:01:38.619Z</time>
      </trkpt>
      <trkpt lat="46.03939" lon="4.58823">
        <ele>682.953674316</ele>
        <time>2016-02-04T14:01:46.627Z</time>
      </trkpt>
      <trkpt lat="46.03938" lon="4.58822">
        <ele>683.050354004</ele>
        <time>2016-02-04T14:01:47.6Z</time>
      </trkpt>
      <trkpt lat="46.03931" lon="4.58816">
        <ele>683.076904297</ele>
        <time>2016-02-04T14:01:53.638Z</time>
      </trkpt>
      <trkpt lat="46.03929" lon="4.58815">
        <ele>683.135253906</ele>
        <time>2016-02-04T14:01:54.601Z</time>
      </trkpt>
      <trkpt lat="46.03922" lon="4.5881">
        <ele>684.048522949</ele>
        <time>2016-02-04T14:02:02.638Z</time>
      </trkpt>
      <trkpt lat="46.0392" lon="4.5881">
        <ele>684.152282715</ele>
        <time>2016-02-04T14:02:03.6Z</time>
      </trkpt>
      <trkpt lat="46.03912" lon="4.58806">
        <ele>684.684936523</ele>
        <time>2016-02-04T14:02:09.643Z</time>
      </trkpt>
      <trkpt lat="46.0391" lon="4.58806">
        <ele>684.711242676</ele>
        <time>2016-02-04T14:02:10.601Z</time>
      </trkpt>
      <trkpt lat="46.03902" lon="4.58803">
        <ele>684.67376709</ele>
        <time>2016-02-04T14:02:15.622Z</time>
      </trkpt>
      <trkpt lat="46.039" lon="4.58802">
        <ele>684.654602051</ele>
        <time>2016-02-04T14:02:16.6Z</time>
      </trkpt>
      <trkpt lat="46.03892" lon="4.588">
        <ele>684.285461426</ele>
        <time>2016-02-04T14:02:23.629Z</time>
      </trkpt>
      <trkpt lat="46.03891" lon="4.58799">
        <ele>684.15020752</ele>
        <time>2016-02-04T14:02:24.609Z</time>
      </trkpt>
      <trkpt lat="46.03883" lon="4.58796">
        <ele>683.445373535</ele>
        <time>2016-02-04T14:02:29.63Z</time>
      </trkpt>
      <trkpt lat="46.03882" lon="4.58796">
        <ele>683.333435059</ele>
        <time>2016-02-04T14:02:30.6Z</time>
      </trkpt>
      <trkpt lat="46.03874" lon="4.58792">
        <ele>682.566711426</ele>
        <time>2016-02-04T14:02:36.64Z</time>
      </trkpt>
      <trkpt lat="46.03873" lon="4.58791">
        <ele>682.333312988</ele>
        <time>2016-02-04T14:02:37.606Z</time>
      </trkpt>
      <trkpt lat="46.03865" lon="4.58785">
        <ele>681.141235352</ele>
        <time>2016-02-04T14:02:43.635Z</time>
      </trkpt>
      <trkpt lat="46.03864" lon="4.58785">
        <ele>680.981811523</ele>
        <time>2016-02-04T14:02:44.612Z</time>
      </trkpt>
      <trkpt lat="46.03857" lon="4.58778">
        <ele>680.069030762</ele>
        <time>2016-02-04T14:02:51.629Z</time>
      </trkpt>
      <trkpt lat="46.03856" lon="4.58777">
        <ele>679.916442871</ele>
        <time>2016-02-04T14:02:52.61Z</time>
      </trkpt>
      <trkpt lat="46.0385" lon="4.58768">
        <ele>678.956604004</ele>
        <time>2016-02-04T14:02:59.62Z</time>
      </trkpt>
      <trkpt lat="46.03849" lon="4.58766">
        <ele>678.847106934</ele>
        <time>2016-02-04T14:03:00.6Z</time>
      </trkpt>
      <trkpt lat="46.03846" lon="4.58754">
        <ele>678.238464355</ele>
        <time>2016-02-04T14:03:07.62Z</time>
      </trkpt>
      <trkpt lat="46.03846" lon="4.58753">
        <ele>678.260314941</ele>
        <time>2016-02-04T14:03:08.602Z</time>
      </trkpt>
      <trkpt lat="46.03844" lon="4.58741">
        <ele>678.31640625</ele>
        <time>2016-02-04T14:03:14.652Z</time>
      </trkpt>
      <trkpt lat="46.03843" lon="4.58738">
        <ele>678.256591797</ele>
        <time>2016-02-04T14:03:15.603Z</time>
      </trkpt>
      <trkpt lat="46.03842" lon="4.58727">
        <ele>678.198852539</ele>
        <time>2016-02-04T14:03:20.715Z</time>
      </trkpt>
      <trkpt lat="46.03841" lon="4.58725">
        <ele>678.256103516</ele>
        <time>2016-02-04T14:03:21.614Z</time>
      </trkpt>
      <trkpt lat="46.03838" lon="4.58713">
        <ele>677.962402344</ele>
        <time>2016-02-04T14:03:28.638Z</time>
      </trkpt>
      <trkpt lat="46.03838" lon="4.58712">
        <ele>677.906616211</ele>
        <time>2016-02-04T14:03:29.605Z</time>
      </trkpt>
      <trkpt lat="46.03833" lon="4.58701">
        <ele>677.828613281</ele>
        <time>2016-02-04T14:03:36.63Z</time>
      </trkpt>
      <trkpt lat="46.03832" lon="4.587">
        <ele>677.801879883</ele>
        <time>2016-02-04T14:03:37.616Z</time>
      </trkpt>
      <trkpt lat="46.03825" lon="4.58691">
        <ele>677.549194336</ele>
        <time>2016-02-04T14:03:44.638Z</time>
      </trkpt>
      <trkpt lat="46.03825" lon="4.58689">
        <ele>677.443481445</ele>
        <time>2016-02-04T14:03:45.605Z</time>
      </trkpt>
      <trkpt lat="46.03818" lon="4.58682">
        <ele>677.080749512</ele>
        <time>2016-02-04T14:03:50.64Z</time>
      </trkpt>
      <trkpt lat="46.03816" lon="4.58681">
        <ele>677.021179199</ele>
        <time>2016-02-04T14:03:51.606Z</time>
      </trkpt>
      <trkpt lat="46.0381" lon="4.58676">
        <ele>676.856994629</ele>
        <time>2016-02-04T14:03:56.632Z</time>
      </trkpt>
      <trkpt lat="46.03808" lon="4.58675">
        <ele>676.873168945</ele>
        <time>2016-02-04T14:03:57.598Z</time>
      </trkpt>
      <trkpt lat="46.03802" lon="4.58669">
        <ele>676.760314941</ele>
        <time>2016-02-04T14:04:03.633Z</time>
      </trkpt>
      <trkpt lat="46.03801" lon="4.58668">
        <ele>676.900146484</ele>
        <time>2016-02-04T14:04:04.61Z</time>
      </trkpt>
      <trkpt lat="46.03793" lon="4.58661">
        <ele>677.901428223</ele>
        <time>2016-02-04T14:04:13.647Z</time>
      </trkpt>
      <trkpt lat="46.03792" lon="4.58661">
        <ele>678.039550781</ele>
        <time>2016-02-04T14:04:14.617Z</time>
      </trkpt>
      <trkpt lat="46.03783" lon="4.58658">
        <ele>678.753479004</ele>
        <time>2016-02-04T14:04:22.607Z</time>
      </trkpt>
      <trkpt lat="46.03782" lon="4.58657">
        <ele>678.933837891</ele>
        <time>2016-02-04T14:04:23.611Z</time>
      </trkpt>
      <trkpt lat="46.03773" lon="4.58655">
        <ele>680.176513672</ele>
        <time>2016-02-04T14:04:31.648Z</time>
      </trkpt>
      <trkpt lat="46.03773" lon="4.58655">
        <ele>680.304992676</ele>
        <time>2016-02-04T14:04:32.607Z</time>
      </trkpt>
      <trkpt lat="46.03764" lon="4.58653">
        <ele>681.318786621</ele>
        <time>2016-02-04T14:04:39.642Z</time>
      </trkpt>
      <trkpt lat="46.03763" lon="4.58653">
        <ele>681.565063477</ele>
        <time>2016-02-04T14:04:40.621Z</time>
      </trkpt>
      <trkpt lat="46.03754" lon="4.58653">
        <ele>682.665344238</ele>
        <time>2016-02-04T14:04:46.66Z</time>
      </trkpt>
      <trkpt lat="46.03753" lon="4.58653">
        <ele>682.83190918</ele>
        <time>2016-02-04T14:04:47.62Z</time>
      </trkpt>
      <trkpt lat="46.03745" lon="4.58653">
        <ele>683.87677002</ele>
        <time>2016-02-04T14:04:52.636Z</time>
      </trkpt>
      <trkpt lat="46.03743" lon="4.58652">
        <ele>683.981933594</ele>
        <time>2016-02-04T14:04:53.607Z</time>
      </trkpt>
      <trkpt lat="46.03736" lon="4.58652">
        <ele>684.247375488</ele>
        <time>2016-02-04T14:04:58.608Z</time>
      </trkpt>
      <trkpt lat="46.03734" lon="4.58652">
        <ele>684.258728027</ele>
        <time>2016-02-04T14:04:59.589Z</time>
      </trkpt>
      <trkpt lat="46.03726" lon="4.58653">
        <ele>684.23223877</ele>
        <time>2016-02-04T14:05:06.646Z</time>
      </trkpt>
      <trkpt lat="46.03723" lon="4.58654">
        <ele>684.17388916</ele>
        <time>2016-02-04T14:05:07.597Z</time>
      </trkpt>
      <trkpt lat="46.03716" lon="4.58657">
        <ele>684.025939941</ele>
        <time>2016-02-04T14:05:12.616Z</time>
      </trkpt>
      <trkpt lat="46.03714" lon="4.58657">
        <ele>683.877563477</ele>
        <time>2016-02-04T14:05:13.588Z</time>
      </trkpt>
      <trkpt lat="46.03706" lon="4.58661">
        <ele>683.360473633</ele>
        <time>2016-02-04T14:05:21.603Z</time>
      </trkpt>
      <trkpt lat="46.03705" lon="4.58662">
        <ele>683.30645752</ele>
        <time>2016-02-04T14:05:22.594Z</time>
      </trkpt>
      <trkpt lat="46.03699" lon="4.58664">
        <ele>683.116394043</ele>
        <time>2016-02-04T14:05:25.627Z</time>
      </trkpt>
      <trkpt lat="46.03696" lon="4.58666">
        <ele>683.015075684</ele>
        <time>2016-02-04T14:05:26.598Z</time>
      </trkpt>
      <trkpt lat="46.03689" lon="4.58672">
        <ele>682.421630859</ele>
        <time>2016-02-04T14:05:34.633Z</time>
      </trkpt>
      <trkpt lat="46.03687" lon="4.58672">
        <ele>682.408203125</ele>
        <time>2016-02-04T14:05:35.598Z</time>
      </trkpt>
      <trkpt lat="46.0368" lon="4.58675">
        <ele>682.639160156</ele>
        <time>2016-02-04T14:05:40.612Z</time>
      </trkpt>
      <trkpt lat="46.03678" lon="4.58675">
        <ele>682.678405762</ele>
        <time>2016-02-04T14:05:41.598Z</time>
      </trkpt>
      <trkpt lat="46.0367" lon="4.58678">
        <ele>682.673156738</ele>
        <time>2016-02-04T14:05:46.622Z</time>
      </trkpt>
      <trkpt lat="46.03669" lon="4.58678">
        <ele>682.6484375</ele>
        <time>2016-02-04T14:05:47.591Z</time>
      </trkpt>
      <trkpt lat="46.03661" lon="4.58684">
        <ele>682.239807129</ele>
        <time>2016-02-04T14:05:56.604Z</time>
      </trkpt>
      <trkpt lat="46.0366" lon="4.58684">
        <ele>682.347717285</ele>
        <time>2016-02-04T14:05:57.6Z</time>
      </trkpt>
      <trkpt lat="46.03652" lon="4.58688">
        <ele>682.635070801</ele>
        <time>2016-02-04T14:06:02.641Z</time>
      </trkpt>
      <trkpt lat="46.03651" lon="4.58689">
        <ele>682.611633301</ele>
        <time>2016-02-04T14:06:03.597Z</time>
      </trkpt>
      <trkpt lat="46.03645" lon="4.58698">
        <ele>682.258728027</ele>
        <time>2016-02-04T14:06:09.634Z</time>
      </trkpt>
      <trkpt lat="46.03645" lon="4.58699">
        <ele>682.153137207</ele>
        <time>2016-02-04T14:06:10.604Z</time>
      </trkpt>
      <trkpt lat="46.03639" lon="4.58708">
        <ele>681.720214844</ele>
        <time>2016-02-04T14:06:17.624Z</time>
      </trkpt>
      <trkpt lat="46.03638" lon="4.58708">
        <ele>681.663635254</ele>
        <time>2016-02-04T14:06:18.604Z</time>
      </trkpt>
      <trkpt lat="46.03631" lon="4.58712">
        <ele>681.298400879</ele>
        <time>2016-02-04T14:06:23.626Z</time>
      </trkpt>
      <trkpt lat="46.03629" lon="4.58713">
        <ele>681.249084473</ele>
        <time>2016-02-04T14:06:24.603Z</time>
      </trkpt>
      <trkpt lat="46.03621" lon="4.58718">
        <ele>681.423583984</ele>
        <time>2016-02-04T14:06:31.633Z</time>
      </trkpt>
      <trkpt lat="46.0362" lon="4.58719">
        <ele>681.459106445</ele>
        <time>2016-02-04T14:06:32.603Z</time>
      </trkpt>
      <trkpt lat="46.03612" lon="4.58723">
        <ele>681.519958496</ele>
        <time>2016-02-04T14:06:39.639Z</time>
      </trkpt>
      <trkpt lat="46.0361" lon="4.58724">
        <ele>681.516967773</ele>
        <time>2016-02-04T14:06:40.598Z</time>
      </trkpt>
      <trkpt lat="46.03603" lon="4.58728">
        <ele>681.573608398</ele>
        <time>2016-02-04T14:06:45.633Z</time>
      </trkpt>
      <trkpt lat="46.03602" lon="4.58729">
        <ele>681.549804688</ele>
        <time>2016-02-04T14:06:46.601Z</time>
      </trkpt>
      <trkpt lat="46.03594" lon="4.58733">
        <ele>680.995361328</ele>
        <time>2016-02-04T14:06:54.616Z</time>
      </trkpt>
      <trkpt lat="46.03593" lon="4.58734">
        <ele>680.943481445</ele>
        <time>2016-02-04T14:06:55.596Z</time>
      </trkpt>
      <trkpt lat="46.03585" lon="4.58739">
        <ele>680.676208496</ele>
        <time>2016-02-04T14:07:01.631Z</time>
      </trkpt>
      <trkpt lat="46.03584" lon="4.58739">
        <ele>680.650634766</ele>
        <time>2016-02-04T14:07:02.603Z</time>
      </trkpt>
      <trkpt lat="46.03576" lon="4.58744">
        <ele>680.41418457</ele>
        <time>2016-02-04T14:07:08.637Z</time>
      </trkpt>
      <trkpt lat="46.03575" lon="4.58744">
        <ele>680.398925781</ele>
        <time>2016-02-04T14:07:09.606Z</time>
      </trkpt>
      <trkpt lat="46.03568" lon="4.58748">
        <ele>680.645385742</ele>
        <time>2016-02-04T14:07:16.644Z</time>
      </trkpt>
      <trkpt lat="46.03566" lon="4.58749">
        <ele>680.696411133</ele>
        <time>2016-02-04T14:07:17.611Z</time>
      </trkpt>
      <trkpt lat="46.03558" lon="4.58754">
        <ele>680.780151367</ele>
        <time>2016-02-04T14:07:23.733Z</time>
      </trkpt>
      <trkpt lat="46.03557" lon="4.58756">
        <ele>680.724060059</ele>
        <time>2016-02-04T14:07:24.601Z</time>
      </trkpt>
      <trkpt lat="46.03549" lon="4.58761">
        <ele>680.461303711</ele>
        <time>2016-02-04T14:07:31.625Z</time>
      </trkpt>
      <trkpt lat="46.03548" lon="4.58761">
        <ele>680.473327637</ele>
        <time>2016-02-04T14:07:32.606Z</time>
      </trkpt>
      <trkpt lat="46.0354" lon="4.58767">
        <ele>680.481933594</ele>
        <time>2016-02-04T14:07:38.636Z</time>
      </trkpt>
      <trkpt lat="46.03539" lon="4.58767">
        <ele>680.562927246</ele>
        <time>2016-02-04T14:07:39.6Z</time>
      </trkpt>
      <trkpt lat="46.03532" lon="4.58772">
        <ele>680.706115723</ele>
        <time>2016-02-04T14:07:44.616Z</time>
      </trkpt>
      <trkpt lat="46.03531" lon="4.58773">
        <ele>680.737915039</ele>
        <time>2016-02-04T14:07:45.601Z</time>
      </trkpt>
      <trkpt lat="46.03523" lon="4.58777">
        <ele>681.237670898</ele>
        <time>2016-02-04T14:07:52.609Z</time>
      </trkpt>
      <trkpt lat="46.03522" lon="4.58778">
        <ele>681.259033203</ele>
        <time>2016-02-04T14:07:53.586Z</time>
      </trkpt>
      <trkpt lat="46.03513" lon="4.58782">
        <ele>681.50958252</ele>
        <time>2016-02-04T14:07:59.618Z</time>
      </trkpt>
      <trkpt lat="46.03513" lon="4.58783">
        <ele>681.58013916</ele>
        <time>2016-02-04T14:08:00.61Z</time>
      </trkpt>
      <trkpt lat="46.03506" lon="4.58788">
        <ele>681.741088867</ele>
        <time>2016-02-04T14:08:08.64Z</time>
      </trkpt>
      <trkpt lat="46.03505" lon="4.58788">
        <ele>681.859863281</ele>
        <time>2016-02-04T14:08:09.611Z</time>
      </trkpt>
      <trkpt lat="46.03497" lon="4.58791">
        <ele>682.752685547</ele>
        <time>2016-02-04T14:08:18.636Z</time>
      </trkpt>
      <trkpt lat="46.03496" lon="4.58792">
        <ele>682.88684082</ele>
        <time>2016-02-04T14:08:19.614Z</time>
      </trkpt>
      <trkpt lat="46.03487" lon="4.58793">
        <ele>683.62121582</ele>
        <time>2016-02-04T14:08:25.641Z</time>
      </trkpt>
      <trkpt lat="46.03485" lon="4.58793">
        <ele>683.743713379</ele>
        <time>2016-02-04T14:08:26.602Z</time>
      </trkpt>
      <trkpt lat="46.03477" lon="4.58796">
        <ele>685.217163086</ele>
        <time>2016-02-04T14:08:33.641Z</time>
      </trkpt>
      <trkpt lat="46.03476" lon="4.58796">
        <ele>685.452453613</ele>
        <time>2016-02-04T14:08:34.614Z</time>
      </trkpt>
      <trkpt lat="46.03468" lon="4.58798">
        <ele>686.112976074</ele>
        <time>2016-02-04T14:08:39.636Z</time>
      </trkpt>
      <trkpt lat="46.03466" lon="4.58798">
        <ele>686.297790527</ele>
        <time>2016-02-04T14:08:40.598Z</time>
      </trkpt>
      <trkpt lat="46.03459" lon="4.588">
        <ele>687.973144531</ele>
        <time>2016-02-04T14:08:48.634Z</time>
      </trkpt>
      <trkpt lat="46.03457" lon="4.588">
        <ele>688.066772461</ele>
        <time>2016-02-04T14:08:49.614Z</time>
      </trkpt>
      <trkpt lat="46.03449" lon="4.58804">
        <ele>688.46685791</ele>
        <time>2016-02-04T14:08:54.635Z</time>
      </trkpt>
      <trkpt lat="46.03448" lon="4.58804">
        <ele>688.603881836</ele>
        <time>2016-02-04T14:08:55.614Z</time>
      </trkpt>
      <trkpt lat="46.0344" lon="4.58806">
        <ele>690.089416504</ele>
        <time>2016-02-04T14:09:02.638Z</time>
      </trkpt>
      <trkpt lat="46.03439" lon="4.58806">
        <ele>690.320495605</ele>
        <time>2016-02-04T14:09:03.615Z</time>
      </trkpt>
      <trkpt lat="46.03431" lon="4.58805">
        <ele>691.512084961</ele>
        <time>2016-02-04T14:09:10.679Z</time>
      </trkpt>
      <trkpt lat="46.03429" lon="4.58805">
        <ele>691.717773438</ele>
        <time>2016-02-04T14:09:11.616Z</time>
      </trkpt>
      <trkpt lat="46.03421" lon="4.58805">
        <ele>692.455627441</ele>
        <time>2016-02-04T14:09:17.641Z</time>
      </trkpt>
      <trkpt lat="46.03419" lon="4.58805">
        <ele>692.640869141</ele>
        <time>2016-02-04T14:09:18.613Z</time>
      </trkpt>
      <trkpt lat="46.03411" lon="4.58806">
        <ele>693.38269043</ele>
        <time>2016-02-04T14:09:23.639Z</time>
      </trkpt>
      <trkpt lat="46.0341" lon="4.58806">
        <ele>693.503601074</ele>
        <time>2016-02-04T14:09:24.617Z</time>
      </trkpt>
      <trkpt lat="46.03401" lon="4.58806">
        <ele>694.121704102</ele>
        <time>2016-02-04T14:09:30.645Z</time>
      </trkpt>
      <trkpt lat="46.034" lon="4.58806">
        <ele>694.246032715</ele>
        <time>2016-02-04T14:09:31.617Z</time>
      </trkpt>
      <trkpt lat="46.03392" lon="4.58804">
        <ele>694.526245117</ele>
        <time>2016-02-04T14:09:37.658Z</time>
      </trkpt>
      <trkpt lat="46.0339" lon="4.58804">
        <ele>694.662231445</ele>
        <time>2016-02-04T14:09:38.619Z</time>
      </trkpt>
      <trkpt lat="46.03381" lon="4.58806">
        <ele>696.287902832</ele>
        <time>2016-02-04T14:09:47.654Z</time>
      </trkpt>
      <trkpt lat="46.0338" lon="4.58805">
        <ele>696.414428711</ele>
        <time>2016-02-04T14:09:48.611Z</time>
      </trkpt>
      <trkpt lat="46.03372" lon="4.58805">
        <ele>697.439453125</ele>
        <time>2016-02-04T14:09:55.64Z</time>
      </trkpt>
      <trkpt lat="46.0337" lon="4.58806">
        <ele>697.650146484</ele>
        <time>2016-02-04T14:09:56.621Z</time>
      </trkpt>
      <trkpt lat="46.03362" lon="4.58806">
        <ele>698.196594238</ele>
        <time>2016-02-04T14:10:01.643Z</time>
      </trkpt>
      <trkpt lat="46.03361" lon="4.58806">
        <ele>698.280517578</ele>
        <time>2016-02-04T14:10:02.619Z</time>
      </trkpt>
      <trkpt lat="46.03352" lon="4.58806">
        <ele>699.204040527</ele>
        <time>2016-02-04T14:10:11.648Z</time>
      </trkpt>
      <trkpt lat="46.03349" lon="4.58805">
        <ele>699.259887695</ele>
        <time>2016-02-04T14:10:12.601Z</time>
      </trkpt>
      <trkpt lat="46.03342" lon="4.58807">
        <ele>699.379882812</ele>
        <time>2016-02-04T14:10:16.61Z</time>
      </trkpt>
      <trkpt lat="46.03341" lon="4.58808">
        <ele>699.399353027</ele>
        <time>2016-02-04T14:10:17.572Z</time>
      </trkpt>
      <trkpt lat="46.03333" lon="4.58808">
        <ele>699.364746094</ele>
        <time>2016-02-04T14:10:23.614Z</time>
      </trkpt>
      <trkpt lat="46.03331" lon="4.58808">
        <ele>699.30657959</ele>
        <time>2016-02-04T14:10:24.592Z</time>
      </trkpt>
      <trkpt lat="46.03323" lon="4.58806">
        <ele>699.163818359</ele>
        <time>2016-02-04T14:10:30.627Z</time>
      </trkpt>
      <trkpt lat="46.03322" lon="4.58806">
        <ele>699.190246582</ele>
        <time>2016-02-04T14:10:31.598Z</time>
      </trkpt>
      <trkpt lat="46.03313" lon="4.58805">
        <ele>699.338378906</ele>
        <time>2016-02-04T14:10:39.627Z</time>
      </trkpt>
      <trkpt lat="46.03311" lon="4.58804">
        <ele>699.315307617</ele>
        <time>2016-02-04T14:10:40.597Z</time>
      </trkpt>
      <trkpt lat="46.03303" lon="4.58801">
        <ele>699.059143066</ele>
        <time>2016-02-04T14:10:46.608Z</time>
      </trkpt>
      <trkpt lat="46.03302" lon="4.58801">
        <ele>699.010864258</ele>
        <time>2016-02-04T14:10:47.59Z</time>
      </trkpt>
      <trkpt lat="46.03293" lon="4.58803">
        <ele>699.027099609</ele>
        <time>2016-02-04T14:10:55.625Z</time>
      </trkpt>
      <trkpt lat="46.03292" lon="4.58803">
        <ele>699.026672363</ele>
        <time>2016-02-04T14:10:56.591Z</time>
      </trkpt>
      <trkpt lat="46.03283" lon="4.58803">
        <ele>699.807739258</ele>
        <time>2016-02-04T14:11:05.62Z</time>
      </trkpt>
      <trkpt lat="46.03282" lon="4.58803">
        <ele>699.875976562</ele>
        <time>2016-02-04T14:11:06.592Z</time>
      </trkpt>
      <trkpt lat="46.03274" lon="4.588">
        <ele>700.360595703</ele>
        <time>2016-02-04T14:11:13.613Z</time>
      </trkpt>
      <trkpt lat="46.03272" lon="4.58799">
        <ele>700.386962891</ele>
        <time>2016-02-04T14:11:14.588Z</time>
      </trkpt>
      <trkpt lat="46.03264" lon="4.58793">
        <ele>700.173278809</ele>
        <time>2016-02-04T14:11:25.635Z</time>
      </trkpt>
      <trkpt lat="46.03264" lon="4.58793">
        <ele>700.175476074</ele>
        <time>2016-02-04T14:11:26.592Z</time>
      </trkpt>
      <trkpt lat="46.03261" lon="4.58782">
        <ele>699.693054199</ele>
        <time>2016-02-04T14:11:39.624Z</time>
      </trkpt>
      <trkpt lat="46.0326" lon="4.5878">
        <ele>699.661071777</ele>
        <time>2016-02-04T14:11:40.601Z</time>
      </trkpt>
      <trkpt lat="46.03256" lon="4.5877">
        <ele>699.108947754</ele>
        <time>2016-02-04T14:11:44.614Z</time>
      </trkpt>
      <trkpt lat="46.03255" lon="4.58769">
        <ele>699.031921387</ele>
        <time>2016-02-04T14:11:45.592Z</time>
      </trkpt>
      <trkpt lat="46.03253" lon="4.58757">
        <ele>699.565856934</ele>
        <time>2016-02-04T14:11:55.608Z</time>
      </trkpt>
      <trkpt lat="46.03252" lon="4.58753">
        <ele>699.668212891</ele>
        <time>2016-02-04T14:11:56.593Z</time>
      </trkpt>
      <trkpt lat="46.03252" lon="4.5874">
        <ele>700.682067871</ele>
        <time>2016-02-04T14:12:03.61Z</time>
      </trkpt>
      <trkpt lat="46.03252" lon="4.58739">
        <ele>700.780029297</ele>
        <time>2016-02-04T14:12:04.602Z</time>
      </trkpt>
      <trkpt lat="46.0325" lon="4.5873">
        <ele>701.843505859</ele>
        <time>2016-02-04T14:12:11.616Z</time>
      </trkpt>
      <trkpt lat="46.0325" lon="4.58726">
        <ele>701.985595703</ele>
        <time>2016-02-04T14:12:12.594Z</time>
      </trkpt>
      <trkpt lat="46.0325" lon="4.58714">
        <ele>702.651977539</ele>
        <time>2016-02-04T14:12:19.613Z</time>
      </trkpt>
      <trkpt lat="46.0325" lon="4.58713">
        <ele>702.881225586</ele>
        <time>2016-02-04T14:12:20.607Z</time>
      </trkpt>
      <trkpt lat="46.0325" lon="4.58701">
        <ele>704.520324707</ele>
        <time>2016-02-04T14:12:27.617Z</time>
      </trkpt>
      <trkpt lat="46.0325" lon="4.58699">
        <ele>704.921936035</ele>
        <time>2016-02-04T14:12:28.6Z</time>
      </trkpt>
      <trkpt lat="46.03251" lon="4.58687">
        <ele>706.75970459</ele>
        <time>2016-02-04T14:12:38.61Z</time>
      </trkpt>
      <trkpt lat="46.0325" lon="4.58685">
        <ele>706.757873535</ele>
        <time>2016-02-04T14:12:39.594Z</time>
      </trkpt>
      <trkpt lat="46.03247" lon="4.58674">
        <ele>706.860656738</ele>
        <time>2016-02-04T14:12:47.636Z</time>
      </trkpt>
      <trkpt lat="46.03247" lon="4.58672">
        <ele>706.851623535</ele>
        <time>2016-02-04T14:12:48.595Z</time>
      </trkpt>
      <trkpt lat="46.03242" lon="4.58663">
        <ele>707.198242188</ele>
        <time>2016-02-04T14:12:53.615Z</time>
      </trkpt>
      <trkpt lat="46.03241" lon="4.58661">
        <ele>707.288513184</ele>
        <time>2016-02-04T14:12:54.598Z</time>
      </trkpt>
      <trkpt lat="46.03237" lon="4.58651">
        <ele>707.749023438</ele>
        <time>2016-02-04T14:13:01.63Z</time>
      </trkpt>
      <trkpt lat="46.03236" lon="4.58649">
        <ele>707.831542969</ele>
        <time>2016-02-04T14:13:02.595Z</time>
      </trkpt>
      <trkpt lat="46.0323" lon="4.5864">
        <ele>709.043273926</ele>
        <time>2016-02-04T14:13:10.746Z</time>
      </trkpt>
      <trkpt lat="46.03229" lon="4.58638">
        <ele>709.136352539</ele>
        <time>2016-02-04T14:13:11.602Z</time>
      </trkpt>
      <trkpt lat="46.03229" lon="4.58627">
        <ele>709.638549805</ele>
        <time>2016-02-04T14:13:16.63Z</time>
      </trkpt>
      <trkpt lat="46.03228" lon="4.58625">
        <ele>709.722839355</ele>
        <time>2016-02-04T14:13:17.604Z</time>
      </trkpt>
      <trkpt lat="46.03226" lon="4.58613">
        <ele>711.159301758</ele>
        <time>2016-02-04T14:13:24.612Z</time>
      </trkpt>
      <trkpt lat="46.03225" lon="4.58611">
        <ele>711.295654297</ele>
        <time>2016-02-04T14:13:25.599Z</time>
      </trkpt>
      <trkpt lat="46.03223" lon="4.58599">
        <ele>712.119628906</ele>
        <time>2016-02-04T14:13:32.619Z</time>
      </trkpt>
      <trkpt lat="46.03223" lon="4.58597">
        <ele>712.237243652</ele>
        <time>2016-02-04T14:13:33.596Z</time>
      </trkpt>
      <trkpt lat="46.0322" lon="4.58586">
        <ele>712.139282227</ele>
        <time>2016-02-04T14:13:38.63Z</time>
      </trkpt>
      <trkpt lat="46.0322" lon="4.58585">
        <ele>712.17791748</ele>
        <time>2016-02-04T14:13:39.611Z</time>
      </trkpt>
      <trkpt lat="46.03217" lon="4.58574">
        <ele>711.978942871</ele>
        <time>2016-02-04T14:13:45.639Z</time>
      </trkpt>
      <trkpt lat="46.03216" lon="4.58572">
        <ele>711.89855957</ele>
        <time>2016-02-04T14:13:46.599Z</time>
      </trkpt>
      <trkpt lat="46.03214" lon="4.58561">
        <ele>712.227600098</ele>
        <time>2016-02-04T14:13:52.624Z</time>
      </trkpt>
      <trkpt lat="46.03213" lon="4.58559">
        <ele>712.067687988</ele>
        <time>2016-02-04T14:13:53.599Z</time>
      </trkpt>
      <trkpt lat="46.0321" lon="4.58547">
        <ele>711.837158203</ele>
        <time>2016-02-04T14:14:00.634Z</time>
      </trkpt>
      <trkpt lat="46.0321" lon="4.58545">
        <ele>711.88092041</ele>
        <time>2016-02-04T14:14:01.603Z</time>
      </trkpt>
      <trkpt lat="46.03209" lon="4.58536">
        <ele>712.263793945</ele>
        <time>2016-02-04T14:14:05.636Z</time>
      </trkpt>
      <trkpt lat="46.03208" lon="4.58532">
        <ele>712.364685059</ele>
        <time>2016-02-04T14:14:06.6Z</time>
      </trkpt>
      <trkpt lat="46.03211" lon="4.5852">
        <ele>712.512451172</ele>
        <time>2016-02-04T14:14:16.641Z</time>
      </trkpt>
      <trkpt lat="46.03212" lon="4.5852">
        <ele>712.661621094</ele>
        <time>2016-02-04T14:14:17.62Z</time>
      </trkpt>
      <trkpt lat="46.03208" lon="4.58509">
        <ele>712.994140625</ele>
        <time>2016-02-04T14:14:24.637Z</time>
      </trkpt>
      <trkpt lat="46.03207" lon="4.58508">
        <ele>712.985351562</ele>
        <time>2016-02-04T14:14:25.599Z</time>
      </trkpt>
      <trkpt lat="46.032" lon="4.585">
        <ele>712.570495605</ele>
        <time>2016-02-04T14:14:32.636Z</time>
      </trkpt>
      <trkpt lat="46.03199" lon="4.58498">
        <ele>712.474243164</ele>
        <time>2016-02-04T14:14:33.617Z</time>
      </trkpt>
      <trkpt lat="46.03193" lon="4.58488">
        <ele>711.958862305</ele>
        <time>2016-02-04T14:14:38.64Z</time>
      </trkpt>
      <trkpt lat="46.03192" lon="4.58486">
        <ele>711.791259766</ele>
        <time>2016-02-04T14:14:39.619Z</time>
      </trkpt>
      <trkpt lat="46.03189" lon="4.58474">
        <ele>710.919372559</ele>
        <time>2016-02-04T14:14:50.608Z</time>
      </trkpt>
      <trkpt lat="46.03188" lon="4.58474">
        <ele>711.067321777</ele>
        <time>2016-02-04T14:14:51.6Z</time>
      </trkpt>
      <trkpt lat="46.03183" lon="4.58466">
        <ele>711.574707031</ele>
        <time>2016-02-04T14:14:55.641Z</time>
      </trkpt>
      <trkpt lat="46.03181" lon="4.58464">
        <ele>711.717163086</ele>
        <time>2016-02-04T14:14:56.617Z</time>
      </trkpt>
      <trkpt lat="46.03174" lon="4.58461">
        <ele>711.877502441</ele>
        <time>2016-02-04T14:15:00.637Z</time>
      </trkpt>
      <trkpt lat="46.03173" lon="4.5846">
        <ele>711.890686035</ele>
        <time>2016-02-04T14:15:01.609Z</time>
      </trkpt>
      <trkpt lat="46.03165" lon="4.58453">
        <ele>712.018859863</ele>
        <time>2016-02-04T14:15:08.693Z</time>
      </trkpt>
      <trkpt lat="46.03164" lon="4.58451">
        <ele>712.018432617</ele>
        <time>2016-02-04T14:15:09.609Z</time>
      </trkpt>
      <trkpt lat="46.03159" lon="4.58442">
        <ele>712.440551758</ele>
        <time>2016-02-04T14:15:16.644Z</time>
      </trkpt>
      <trkpt lat="46.03158" lon="4.58441">
        <ele>712.37310791</ele>
        <time>2016-02-04T14:15:17.609Z</time>
      </trkpt>
      <trkpt lat="46.03152" lon="4.58432">
        <ele>712.399414062</ele>
        <time>2016-02-04T14:15:23.641Z</time>
      </trkpt>
      <trkpt lat="46.03152" lon="4.58431">
        <ele>712.432922363</ele>
        <time>2016-02-04T14:15:24.62Z</time>
      </trkpt>
      <trkpt lat="46.03147" lon="4.58422">
        <ele>712.847045898</ele>
        <time>2016-02-04T14:15:32.64Z</time>
      </trkpt>
      <trkpt lat="46.03146" lon="4.58419">
        <ele>712.856811523</ele>
        <time>2016-02-04T14:15:33.59Z</time>
      </trkpt>
      <trkpt lat="46.03144" lon="4.58407">
        <ele>713.756286621</ele>
        <time>2016-02-04T14:15:41.659Z</time>
      </trkpt>
      <trkpt lat="46.03144" lon="4.58406">
        <ele>713.923583984</ele>
        <time>2016-02-04T14:15:42.591Z</time>
      </trkpt>
      <trkpt lat="46.03138" lon="4.58401">
        <ele>714.885681152</ele>
        <time>2016-02-04T14:15:47.603Z</time>
      </trkpt>
      <trkpt lat="46.03137" lon="4.58398">
        <ele>715.014892578</ele>
        <time>2016-02-04T14:15:48.573Z</time>
      </trkpt>
      <trkpt lat="46.03131" lon="4.58391">
        <ele>715.655090332</ele>
        <time>2016-02-04T14:15:53.62Z</time>
      </trkpt>
      <trkpt lat="46.0313" lon="4.58389">
        <ele>715.799987793</ele>
        <time>2016-02-04T14:15:54.586Z</time>
      </trkpt>
      <trkpt lat="46.03124" lon="4.58379">
        <ele>716.964538574</ele>
        <time>2016-02-04T14:16:04.646Z</time>
      </trkpt>
      <trkpt lat="46.03124" lon="4.58379">
        <ele>716.986877441</ele>
        <time>2016-02-04T14:16:05.595Z</time>
      </trkpt>
      <trkpt lat="46.0312" lon="4.58369">
        <ele>717.940795898</ele>
        <time>2016-02-04T14:16:13.629Z</time>
      </trkpt>
      <trkpt lat="46.03118" lon="4.58367">
        <ele>718.066162109</ele>
        <time>2016-02-04T14:16:14.608Z</time>
      </trkpt>
      <trkpt lat="46.03114" lon="4.58355">
        <ele>718.475585938</ele>
        <time>2016-02-04T14:16:21.757Z</time>
      </trkpt>
      <trkpt lat="46.03113" lon="4.58354">
        <ele>718.575195312</ele>
        <time>2016-02-04T14:16:22.592Z</time>
      </trkpt>
      <trkpt lat="46.03108" lon="4.58344">
        <ele>719.296508789</ele>
        <time>2016-02-04T14:16:28.626Z</time>
      </trkpt>
      <trkpt lat="46.03107" lon="4.58343">
        <ele>719.380310059</ele>
        <time>2016-02-04T14:16:29.588Z</time>
      </trkpt>
      <trkpt lat="46.03104" lon="4.58332">
        <ele>721.160339355</ele>
        <time>2016-02-04T14:16:35.628Z</time>
      </trkpt>
      <trkpt lat="46.03103" lon="4.58331">
        <ele>721.471252441</ele>
        <time>2016-02-04T14:16:36.604Z</time>
      </trkpt>
      <trkpt lat="46.031" lon="4.58322">
        <ele>723.62487793</ele>
        <time>2016-02-04T14:16:45.626Z</time>
      </trkpt>
      <trkpt lat="46.03098" lon="4.58319">
        <ele>723.916259766</ele>
        <time>2016-02-04T14:16:46.598Z</time>
      </trkpt>
      <trkpt lat="46.03092" lon="4.58311">
        <ele>725.380493164</ele>
        <time>2016-02-04T14:16:52.614Z</time>
      </trkpt>
      <trkpt lat="46.03091" lon="4.5831">
        <ele>725.599182129</ele>
        <time>2016-02-04T14:16:53.592Z</time>
      </trkpt>
      <trkpt lat="46.03085" lon="4.58302">
        <ele>725.741882324</ele>
        <time>2016-02-04T14:16:57.623Z</time>
      </trkpt>
      <trkpt lat="46.03084" lon="4.583">
        <ele>725.757202148</ele>
        <time>2016-02-04T14:16:58.594Z</time>
      </trkpt>
      <trkpt lat="46.03078" lon="4.58293">
        <ele>725.799560547</ele>
        <time>2016-02-04T14:17:03.629Z</time>
      </trkpt>
      <trkpt lat="46.03077" lon="4.58292">
        <ele>725.757751465</ele>
        <time>2016-02-04T14:17:04.579Z</time>
      </trkpt>
      <trkpt lat="46.0307" lon="4.58284">
        <ele>725.600708008</ele>
        <time>2016-02-04T14:17:09.628Z</time>
      </trkpt>
      <trkpt lat="46.03069" lon="4.58283">
        <ele>725.52911377</ele>
        <time>2016-02-04T14:17:10.593Z</time>
      </trkpt>
      <trkpt lat="46.03062" lon="4.58275">
        <ele>725.608337402</ele>
        <time>2016-02-04T14:17:17.62Z</time>
      </trkpt>
      <trkpt lat="46.03061" lon="4.58273">
        <ele>725.71685791</ele>
        <time>2016-02-04T14:17:18.593Z</time>
      </trkpt>
      <trkpt lat="46.03056" lon="4.58264">
        <ele>726.115356445</ele>
        <time>2016-02-04T14:17:25.613Z</time>
      </trkpt>
      <trkpt lat="46.03055" lon="4.58262">
        <ele>726.26940918</ele>
        <time>2016-02-04T14:17:26.595Z</time>
      </trkpt>
      <trkpt lat="46.03049" lon="4.58255">
        <ele>726.788818359</ele>
        <time>2016-02-04T14:17:31.612Z</time>
      </trkpt>
      <trkpt lat="46.03048" lon="4.58254">
        <ele>726.73260498</ele>
        <time>2016-02-04T14:17:32.606Z</time>
      </trkpt>
      <trkpt lat="46.03041" lon="4.58247">
        <ele>727.846008301</ele>
        <time>2016-02-04T14:17:43.638Z</time>
      </trkpt>
      <trkpt lat="46.03038" lon="4.58246">
        <ele>728.091186523</ele>
        <time>2016-02-04T14:17:44.61Z</time>
      </trkpt>
      <trkpt lat="46.03031" lon="4.5824">
        <ele>732.499816895</ele>
        <time>2016-02-04T14:17:58.613Z</time>
      </trkpt>
      <trkpt lat="46.03031" lon="4.58239">
        <ele>732.765380859</ele>
        <time>2016-02-04T14:17:59.594Z</time>
      </trkpt>
      <trkpt lat="46.03023" lon="4.58234">
        <ele>734.152587891</ele>
        <time>2016-02-04T14:18:06.634Z</time>
      </trkpt>
      <trkpt lat="46.03022" lon="4.58233">
        <ele>734.353820801</ele>
        <time>2016-02-04T14:18:07.595Z</time>
      </trkpt>
      <trkpt lat="46.03015" lon="4.58227">
        <ele>735.218505859</ele>
        <time>2016-02-04T14:18:13.625Z</time>
      </trkpt>
      <trkpt lat="46.03014" lon="4.58227">
        <ele>735.331787109</ele>
        <time>2016-02-04T14:18:14.596Z</time>
      </trkpt>
      <trkpt lat="46.03006" lon="4.58223">
        <ele>735.631713867</ele>
        <time>2016-02-04T14:18:23.637Z</time>
      </trkpt>
      <trkpt lat="46.03004" lon="4.58222">
        <ele>735.684082031</ele>
        <time>2016-02-04T14:18:24.59Z</time>
      </trkpt>
      <trkpt lat="46.02997" lon="4.58218">
        <ele>735.801330566</ele>
        <time>2016-02-04T14:18:27.642Z</time>
      </trkpt>
      <trkpt lat="46.02995" lon="4.58218">
        <ele>735.796875</ele>
        <time>2016-02-04T14:18:28.609Z</time>
      </trkpt>
      <trkpt lat="46.02987" lon="4.58212">
        <ele>735.364746094</ele>
        <time>2016-02-04T14:18:39.633Z</time>
      </trkpt>
      <trkpt lat="46.02985" lon="4.58211">
        <ele>735.331481934</ele>
        <time>2016-02-04T14:18:40.596Z</time>
      </trkpt>
      <trkpt lat="46.02976" lon="4.5821">
        <ele>735.253295898</ele>
        <time>2016-02-04T14:18:46.633Z</time>
      </trkpt>
      <trkpt lat="46.02976" lon="4.5821">
        <ele>735.294250488</ele>
        <time>2016-02-04T14:18:47.618Z</time>
      </trkpt>
      <trkpt lat="46.02967" lon="4.5821">
        <ele>736.026428223</ele>
        <time>2016-02-04T14:18:54.64Z</time>
      </trkpt>
      <trkpt lat="46.02965" lon="4.5821">
        <ele>736.220336914</ele>
        <time>2016-02-04T14:18:55.611Z</time>
      </trkpt>
      <trkpt lat="46.02957" lon="4.58211">
        <ele>737.11920166</ele>
        <time>2016-02-04T14:19:02.662Z</time>
      </trkpt>
      <trkpt lat="46.02956" lon="4.58212">
        <ele>737.333190918</ele>
        <time>2016-02-04T14:19:03.608Z</time>
      </trkpt>
      <trkpt lat="46.02949" lon="4.58219">
        <ele>738.316955566</ele>
        <time>2016-02-04T14:19:12.642Z</time>
      </trkpt>
      <trkpt lat="46.02948" lon="4.5822">
        <ele>738.352722168</ele>
        <time>2016-02-04T14:19:13.614Z</time>
      </trkpt>
      <trkpt lat="46.02943" lon="4.58229">
        <ele>739.656799316</ele>
        <time>2016-02-04T14:19:20.64Z</time>
      </trkpt>
      <trkpt lat="46.02942" lon="4.58231">
        <ele>739.897644043</ele>
        <time>2016-02-04T14:19:21.601Z</time>
      </trkpt>
      <trkpt lat="46.0294" lon="4.58242">
        <ele>741.73828125</ele>
        <time>2016-02-04T14:19:28.643Z</time>
      </trkpt>
      <trkpt lat="46.0294" lon="4.58244">
        <ele>741.952636719</ele>
        <time>2016-02-04T14:19:29.616Z</time>
      </trkpt>
      <trkpt lat="46.02937" lon="4.58254">
        <ele>742.627502441</ele>
        <time>2016-02-04T14:19:37.657Z</time>
      </trkpt>
      <trkpt lat="46.02937" lon="4.58256">
        <ele>742.565673828</ele>
        <time>2016-02-04T14:19:38.604Z</time>
      </trkpt>
      <trkpt lat="46.02935" lon="4.58265">
        <ele>742.860412598</ele>
        <time>2016-02-04T14:19:43.632Z</time>
      </trkpt>
      <trkpt lat="46.02932" lon="4.58268">
        <ele>742.95690918</ele>
        <time>2016-02-04T14:19:44.616Z</time>
      </trkpt>
      <trkpt lat="46.0293" lon="4.5828">
        <ele>743.311279297</ele>
        <time>2016-02-04T14:19:48.633Z</time>
      </trkpt>
      <trkpt lat="46.02931" lon="4.58282">
        <ele>743.35748291</ele>
        <time>2016-02-04T14:19:49.614Z</time>
      </trkpt>
      <trkpt lat="46.02929" lon="4.58294">
        <ele>743.927062988</ele>
        <time>2016-02-04T14:19:59.637Z</time>
      </trkpt>
      <trkpt lat="46.02928" lon="4.58295">
        <ele>744.099487305</ele>
        <time>2016-02-04T14:20:00.616Z</time>
      </trkpt>
      <trkpt lat="46.02925" lon="4.58303">
        <ele>744.434814453</ele>
        <time>2016-02-04T14:20:04.642Z</time>
      </trkpt>
      <trkpt lat="46.02925" lon="4.58308">
        <ele>744.50793457</ele>
        <time>2016-02-04T14:20:05.621Z</time>
      </trkpt>
      <trkpt lat="46.02924" lon="4.5832">
        <ele>744.377685547</ele>
        <time>2016-02-04T14:20:11.647Z</time>
      </trkpt>
      <trkpt lat="46.02923" lon="4.58321">
        <ele>744.356689453</ele>
        <time>2016-02-04T14:20:12.617Z</time>
      </trkpt>
      <trkpt lat="46.02923" lon="4.58333">
        <ele>744.257202148</ele>
        <time>2016-02-04T14:20:18.642Z</time>
      </trkpt>
      <trkpt lat="46.02923" lon="4.58334">
        <ele>744.178405762</ele>
        <time>2016-02-04T14:20:19.609Z</time>
      </trkpt>
      <trkpt lat="46.02921" lon="4.58347">
        <ele>744.072998047</ele>
        <time>2016-02-04T14:20:25.638Z</time>
      </trkpt>
      <trkpt lat="46.02921" lon="4.58349">
        <ele>744.12487793</ele>
        <time>2016-02-04T14:20:26.627Z</time>
      </trkpt>
      <trkpt lat="46.02918" lon="4.58357">
        <ele>744.454711914</ele>
        <time>2016-02-04T14:20:35.642Z</time>
      </trkpt>
      <trkpt lat="46.02918" lon="4.58361">
        <ele>744.555480957</ele>
        <time>2016-02-04T14:20:36.618Z</time>
      </trkpt>
      <trkpt lat="46.02915" lon="4.58372">
        <ele>744.984375</ele>
        <time>2016-02-04T14:20:42.647Z</time>
      </trkpt>
      <trkpt lat="46.02914" lon="4.58374">
        <ele>745.012145996</ele>
        <time>2016-02-04T14:20:43.619Z</time>
      </trkpt>
      <trkpt lat="46.02912" lon="4.58385">
        <ele>745.015441895</ele>
        <time>2016-02-04T14:20:51.62Z</time>
      </trkpt>
      <trkpt lat="46.02912" lon="4.58386">
        <ele>745.005981445</ele>
        <time>2016-02-04T14:20:52.594Z</time>
      </trkpt>
      <trkpt lat="46.02908" lon="4.58398">
        <ele>745.239929199</ele>
        <time>2016-02-04T14:20:57.612Z</time>
      </trkpt>
      <trkpt lat="46.02908" lon="4.58399">
        <ele>745.387756348</ele>
        <time>2016-02-04T14:20:58.584Z</time>
      </trkpt>
      <trkpt lat="46.02906" lon="4.58409">
        <ele>747.260742188</ele>
        <time>2016-02-04T14:21:04.62Z</time>
      </trkpt>
      <trkpt lat="46.02905" lon="4.58411">
        <ele>747.527099609</ele>
        <time>2016-02-04T14:21:05.596Z</time>
      </trkpt>
      <trkpt lat="46.02902" lon="4.58423">
        <ele>749.594177246</ele>
        <time>2016-02-04T14:21:12.63Z</time>
      </trkpt>
      <trkpt lat="46.029" lon="4.58425">
        <ele>749.878967285</ele>
        <time>2016-02-04T14:21:13.597Z</time>
      </trkpt>
      <trkpt lat="46.02896" lon="4.58435">
        <ele>751.103027344</ele>
        <time>2016-02-04T14:21:19.635Z</time>
      </trkpt>
      <trkpt lat="46.02895" lon="4.58437">
        <ele>751.222595215</ele>
        <time>2016-02-04T14:21:20.598Z</time>
      </trkpt>
      <trkpt lat="46.02891" lon="4.58448">
        <ele>751.766296387</ele>
        <time>2016-02-04T14:21:26.623Z</time>
      </trkpt>
      <trkpt lat="46.0289" lon="4.5845">
        <ele>751.85333252</ele>
        <time>2016-02-04T14:21:27.6Z</time>
      </trkpt>
      <trkpt lat="46.02885" lon="4.58457">
        <ele>753.359375</ele>
        <time>2016-02-04T14:21:35.635Z</time>
      </trkpt>
      <trkpt lat="46.02883" lon="4.5846">
        <ele>753.559936523</ele>
        <time>2016-02-04T14:21:36.599Z</time>
      </trkpt>
      <trkpt lat="46.02876" lon="4.58467">
        <ele>753.808532715</ele>
        <time>2016-02-04T14:21:41.627Z</time>
      </trkpt>
      <trkpt lat="46.02876" lon="4.58468">
        <ele>753.814147949</ele>
        <time>2016-02-04T14:21:42.595Z</time>
      </trkpt>
      <trkpt lat="46.02871" lon="4.58478">
        <ele>754.243469238</ele>
        <time>2016-02-04T14:21:48.626Z</time>
      </trkpt>
      <trkpt lat="46.02871" lon="4.5848">
        <ele>754.305603027</ele>
        <time>2016-02-04T14:21:49.59Z</time>
      </trkpt>
      <trkpt lat="46.02868" lon="4.5849">
        <ele>754.48651123</ele>
        <time>2016-02-04T14:21:57.633Z</time>
      </trkpt>
      <trkpt lat="46.02868" lon="4.58493">
        <ele>754.531677246</ele>
        <time>2016-02-04T14:21:58.591Z</time>
      </trkpt>
      <trkpt lat="46.02863" lon="4.58504">
        <ele>754.644897461</ele>
        <time>2016-02-04T14:22:06.621Z</time>
      </trkpt>
      <trkpt lat="46.02863" lon="4.58507">
        <ele>754.730224609</ele>
        <time>2016-02-04T14:22:07.591Z</time>
      </trkpt>
      <trkpt lat="46.02858" lon="4.58517">
        <ele>754.671813965</ele>
        <time>2016-02-04T14:22:12.64Z</time>
      </trkpt>
      <trkpt lat="46.02856" lon="4.58519">
        <ele>754.68157959</ele>
        <time>2016-02-04T14:22:13.593Z</time>
      </trkpt>
      <trkpt lat="46.02852" lon="4.5853">
        <ele>754.246276855</ele>
        <time>2016-02-04T14:22:21.755Z</time>
      </trkpt>
      <trkpt lat="46.0285" lon="4.58532">
        <ele>754.226806641</ele>
        <time>2016-02-04T14:22:22.595Z</time>
      </trkpt>
      <trkpt lat="46.02846" lon="4.58541">
        <ele>754.406799316</ele>
        <time>2016-02-04T14:22:28.623Z</time>
      </trkpt>
      <trkpt lat="46.02845" lon="4.58543">
        <ele>754.579589844</ele>
        <time>2016-02-04T14:22:29.603Z</time>
      </trkpt>
      <trkpt lat="46.0284" lon="4.58551">
        <ele>756.119140625</ele>
        <time>2016-02-04T14:22:37.722Z</time>
      </trkpt>
      <trkpt lat="46.02838" lon="4.58554">
        <ele>756.25994873</ele>
        <time>2016-02-04T14:22:38.608Z</time>
      </trkpt>
      <trkpt lat="46.02833" lon="4.58562">
        <ele>756.667785645</ele>
        <time>2016-02-04T14:22:43.634Z</time>
      </trkpt>
      <trkpt lat="46.02832" lon="4.58564">
        <ele>756.627807617</ele>
        <time>2016-02-04T14:22:44.583Z</time>
      </trkpt>
      <trkpt lat="46.02827" lon="4.58575">
        <ele>756.339416504</ele>
        <time>2016-02-04T14:22:51.627Z</time>
      </trkpt>
      <trkpt lat="46.02826" lon="4.58577">
        <ele>756.263244629</ele>
        <time>2016-02-04T14:22:52.606Z</time>
      </trkpt>
      <trkpt lat="46.02821" lon="4.58587">
        <ele>756.08984375</ele>
        <time>2016-02-04T14:23:02.634Z</time>
      </trkpt>
      <trkpt lat="46.02821" lon="4.58588">
        <ele>756.123596191</ele>
        <time>2016-02-04T14:23:03.606Z</time>
      </trkpt>
      <trkpt lat="46.02815" lon="4.58597">
        <ele>757.455871582</ele>
        <time>2016-02-04T14:23:11.635Z</time>
      </trkpt>
      <trkpt lat="46.02814" lon="4.58598">
        <ele>757.642272949</ele>
        <time>2016-02-04T14:23:12.608Z</time>
      </trkpt>
      <trkpt lat="46.02807" lon="4.58605">
        <ele>758.081237793</ele>
        <time>2016-02-04T14:23:17.657Z</time>
      </trkpt>
      <trkpt lat="46.02805" lon="4.58609">
        <ele>758.08380127</ele>
        <time>2016-02-04T14:23:18.608Z</time>
      </trkpt>
      <trkpt lat="46.02798" lon="4.58618">
        <ele>757.815063477</ele>
        <time>2016-02-04T14:23:26.64Z</time>
      </trkpt>
      <trkpt lat="46.02798" lon="4.58619">
        <ele>757.885131836</ele>
        <time>2016-02-04T14:23:27.608Z</time>
      </trkpt>
      <trkpt lat="46.02793" lon="4.58629">
        <ele>757.360595703</ele>
        <time>2016-02-04T14:23:35.622Z</time>
      </trkpt>
      <trkpt lat="46.02792" lon="4.5863">
        <ele>757.301208496</ele>
        <time>2016-02-04T14:23:36.609Z</time>
      </trkpt>
      <trkpt lat="46.02785" lon="4.58637">
        <ele>757.740722656</ele>
        <time>2016-02-04T14:23:47.647Z</time>
      </trkpt>
      <trkpt lat="46.02784" lon="4.58637">
        <ele>757.706726074</ele>
        <time>2016-02-04T14:23:48.605Z</time>
      </trkpt>
      <trkpt lat="46.02775" lon="4.58635">
        <ele>758.260192871</ele>
        <time>2016-02-04T14:23:54.634Z</time>
      </trkpt>
      <trkpt lat="46.02773" lon="4.58635">
        <ele>758.299804688</ele>
        <time>2016-02-04T14:23:55.61Z</time>
      </trkpt>
      <trkpt lat="46.02765" lon="4.58636">
        <ele>758.990539551</ele>
        <time>2016-02-04T14:24:01.601Z</time>
      </trkpt>
      <trkpt lat="46.02763" lon="4.58636">
        <ele>759.094848633</ele>
        <time>2016-02-04T14:24:02.618Z</time>
      </trkpt>
      <trkpt lat="46.02755" lon="4.58632">
        <ele>760.157836914</ele>
        <time>2016-02-04T14:24:09.637Z</time>
      </trkpt>
      <trkpt lat="46.02754" lon="4.58632">
        <ele>760.203491211</ele>
        <time>2016-02-04T14:24:10.612Z</time>
      </trkpt>
      <trkpt lat="46.02747" lon="4.58631">
        <ele>760.505554199</ele>
        <time>2016-02-04T14:24:19.633Z</time>
      </trkpt>
      <trkpt lat="46.02745" lon="4.58631">
        <ele>760.519714355</ele>
        <time>2016-02-04T14:24:20.611Z</time>
      </trkpt>
      <trkpt lat="46.02737" lon="4.58629">
        <ele>760.719909668</ele>
        <time>2016-02-04T14:24:25.635Z</time>
      </trkpt>
      <trkpt lat="46.02736" lon="4.58628">
        <ele>760.79119873</ele>
        <time>2016-02-04T14:24:26.612Z</time>
      </trkpt>
      <trkpt lat="46.02727" lon="4.58626">
        <ele>760.766784668</ele>
        <time>2016-02-04T14:24:32.636Z</time>
      </trkpt>
      <trkpt lat="46.02725" lon="4.58626">
        <ele>760.754150391</ele>
        <time>2016-02-04T14:24:33.609Z</time>
      </trkpt>
      <trkpt lat="46.02717" lon="4.58625">
        <ele>760.337463379</ele>
        <time>2016-02-04T14:24:40.638Z</time>
      </trkpt>
      <trkpt lat="46.02716" lon="4.58624">
        <ele>760.30682373</ele>
        <time>2016-02-04T14:24:41.613Z</time>
      </trkpt>
      <trkpt lat="46.02708" lon="4.58619">
        <ele>759.630004883</ele>
        <time>2016-02-04T14:24:51.648Z</time>
      </trkpt>
      <trkpt lat="46.02706" lon="4.58618">
        <ele>759.570373535</ele>
        <time>2016-02-04T14:24:52.59Z</time>
      </trkpt>
      <trkpt lat="46.02697" lon="4.58618">
        <ele>759.610656738</ele>
        <time>2016-02-04T14:24:56.636Z</time>
      </trkpt>
      <trkpt lat="46.02695" lon="4.58617">
        <ele>759.688659668</ele>
        <time>2016-02-04T14:24:57.619Z</time>
      </trkpt>
      <trkpt lat="46.02686" lon="4.58614">
        <ele>759.849304199</ele>
        <time>2016-02-04T14:25:03.639Z</time>
      </trkpt>
      <trkpt lat="46.02686" lon="4.58613">
        <ele>759.887939453</ele>
        <time>2016-02-04T14:25:04.622Z</time>
      </trkpt>
      <trkpt lat="46.02677" lon="4.58611">
        <ele>759.369689941</ele>
        <time>2016-02-04T14:25:10.681Z</time>
      </trkpt>
      <trkpt lat="46.02676" lon="4.58611">
        <ele>759.305175781</ele>
        <time>2016-02-04T14:25:11.618Z</time>
      </trkpt>
      <trkpt lat="46.02669" lon="4.58606">
        <ele>759.244567871</ele>
        <time>2016-02-04T14:25:17.641Z</time>
      </trkpt>
      <trkpt lat="46.02668" lon="4.58604">
        <ele>759.207946777</ele>
        <time>2016-02-04T14:25:18.612Z</time>
      </trkpt>
      <trkpt lat="46.0266" lon="4.586">
        <ele>758.671569824</ele>
        <time>2016-02-04T14:25:24.64Z</time>
      </trkpt>
      <trkpt lat="46.02659" lon="4.586">
        <ele>758.608032227</ele>
        <time>2016-02-04T14:25:25.615Z</time>
      </trkpt>
      <trkpt lat="46.02651" lon="4.58598">
        <ele>758.019714355</ele>
        <time>2016-02-04T14:25:31.653Z</time>
      </trkpt>
      <trkpt lat="46.02649" lon="4.58598">
        <ele>757.959289551</ele>
        <time>2016-02-04T14:25:32.617Z</time>
      </trkpt>
      <trkpt lat="46.02641" lon="4.58595">
        <ele>756.952819824</ele>
        <time>2016-02-04T14:25:42.649Z</time>
      </trkpt>
      <trkpt lat="46.0264" lon="4.58595">
        <ele>756.819580078</ele>
        <time>2016-02-04T14:25:43.617Z</time>
      </trkpt>
      <trkpt lat="46.02632" lon="4.58596">
        <ele>756.306213379</ele>
        <time>2016-02-04T14:25:48.693Z</time>
      </trkpt>
      <trkpt lat="46.02631" lon="4.58596">
        <ele>756.177246094</ele>
        <time>2016-02-04T14:25:49.619Z</time>
      </trkpt>
      <trkpt lat="46.02623" lon="4.58598">
        <ele>755.372192383</ele>
        <time>2016-02-04T14:25:56.65Z</time>
      </trkpt>
      <trkpt lat="46.02622" lon="4.58598">
        <ele>755.374145508</ele>
        <time>2016-02-04T14:25:57.621Z</time>
      </trkpt>
      <trkpt lat="46.02614" lon="4.58597">
        <ele>755.398132324</ele>
        <time>2016-02-04T14:25:59.582Z</time>
      </trkpt>
      <trkpt lat="46.02611" lon="4.58596">
        <ele>755.386291504</ele>
        <time>2016-02-04T14:26:00.59Z</time>
      </trkpt>
      <trkpt lat="46.02602" lon="4.58594">
        <ele>755.454833984</ele>
        <time>2016-02-04T14:26:06.685Z</time>
      </trkpt>
      <trkpt lat="46.02601" lon="4.58594">
        <ele>755.308532715</ele>
        <time>2016-02-04T14:26:07.594Z</time>
      </trkpt>
      <trkpt lat="46.02593" lon="4.58598">
        <ele>754.318481445</ele>
        <time>2016-02-04T14:26:15.609Z</time>
      </trkpt>
      <trkpt lat="46.02592" lon="4.58598">
        <ele>754.190856934</ele>
        <time>2016-02-04T14:26:16.592Z</time>
      </trkpt>
      <trkpt lat="46.02585" lon="4.58601">
        <ele>753.098571777</ele>
        <time>2016-02-04T14:26:25.695Z</time>
      </trkpt>
      <trkpt lat="46.02583" lon="4.58601">
        <ele>753.012878418</ele>
        <time>2016-02-04T14:26:26.597Z</time>
      </trkpt>
      <trkpt lat="46.02576" lon="4.58604">
        <ele>752.674560547</ele>
        <time>2016-02-04T14:26:30.629Z</time>
      </trkpt>
      <trkpt lat="46.02575" lon="4.58606">
        <ele>752.524597168</ele>
        <time>2016-02-04T14:26:31.597Z</time>
      </trkpt>
      <trkpt lat="46.02568" lon="4.58614">
        <ele>750.424621582</ele>
        <time>2016-02-04T14:26:41.631Z</time>
      </trkpt>
      <trkpt lat="46.02567" lon="4.58615">
        <ele>750.328491211</ele>
        <time>2016-02-04T14:26:42.601Z</time>
      </trkpt>
      <trkpt lat="46.0256" lon="4.5862">
        <ele>750.552185059</ele>
        <time>2016-02-04T14:26:47.627Z</time>
      </trkpt>
      <trkpt lat="46.02557" lon="4.58621">
        <ele>750.644775391</ele>
        <time>2016-02-04T14:26:48.599Z</time>
      </trkpt>
      <trkpt lat="46.0255" lon="4.58627">
        <ele>750.92755127</ele>
        <time>2016-02-04T14:26:54.647Z</time>
      </trkpt>
      <trkpt lat="46.02548" lon="4.58628">
        <ele>750.989135742</ele>
        <time>2016-02-04T14:26:55.586Z</time>
      </trkpt>
      <trkpt lat="46.0254" lon="4.58633">
        <ele>750.681030273</ele>
        <time>2016-02-04T14:26:59.624Z</time>
      </trkpt>
      <trkpt lat="46.02539" lon="4.58634">
        <ele>750.524597168</ele>
        <time>2016-02-04T14:27:00.599Z</time>
      </trkpt>
      <trkpt lat="46.02531" lon="4.58638">
        <ele>748.872375488</ele>
        <time>2016-02-04T14:27:08.626Z</time>
      </trkpt>
      <trkpt lat="46.02528" lon="4.58639">
        <ele>748.705810547</ele>
        <time>2016-02-04T14:27:09.599Z</time>
      </trkpt>
      <trkpt lat="46.0252" lon="4.58641">
        <ele>747.983703613</ele>
        <time>2016-02-04T14:27:16.739Z</time>
      </trkpt>
      <trkpt lat="46.02519" lon="4.58641">
        <ele>748.000427246</ele>
        <time>2016-02-04T14:27:17.609Z</time>
      </trkpt>
      <trkpt lat="46.0251" lon="4.58645">
        <ele>747.6171875</ele>
        <time>2016-02-04T14:27:22.629Z</time>
      </trkpt>
      <trkpt lat="46.0251" lon="4.58646">
        <ele>747.59967041</ele>
        <time>2016-02-04T14:27:23.619Z</time>
      </trkpt>
      <trkpt lat="46.02503" lon="4.58653">
        <ele>747.56237793</ele>
        <time>2016-02-04T14:27:30.628Z</time>
      </trkpt>
      <trkpt lat="46.02502" lon="4.58655">
        <ele>747.594726562</ele>
        <time>2016-02-04T14:27:31.602Z</time>
      </trkpt>
      <trkpt lat="46.02494" lon="4.5866">
        <ele>746.604919434</ele>
        <time>2016-02-04T14:27:39.628Z</time>
      </trkpt>
      <trkpt lat="46.02493" lon="4.5866">
        <ele>746.542053223</ele>
        <time>2016-02-04T14:27:40.603Z</time>
      </trkpt>
      <trkpt lat="46.02485" lon="4.58666">
        <ele>746.633300781</ele>
        <time>2016-02-04T14:27:49.628Z</time>
      </trkpt>
      <trkpt lat="46.02484" lon="4.58667">
        <ele>746.691467285</ele>
        <time>2016-02-04T14:27:50.603Z</time>
      </trkpt>
      <trkpt lat="46.02478" lon="4.58671">
        <ele>746.355041504</ele>
        <time>2016-02-04T14:27:55.743Z</time>
      </trkpt>
      <trkpt lat="46.02476" lon="4.58672">
        <ele>746.196105957</ele>
        <time>2016-02-04T14:27:56.604Z</time>
      </trkpt>
      <trkpt lat="46.02468" lon="4.58674">
        <ele>745.692321777</ele>
        <time>2016-02-04T14:28:00.64Z</time>
      </trkpt>
      <trkpt lat="46.02465" lon="4.58675">
        <ele>745.655029297</ele>
        <time>2016-02-04T14:28:01.601Z</time>
      </trkpt>
      <trkpt lat="46.02459" lon="4.58683">
        <ele>745.252380371</ele>
        <time>2016-02-04T14:28:05.629Z</time>
      </trkpt>
      <trkpt lat="46.02458" lon="4.58684">
        <ele>745.165710449</ele>
        <time>2016-02-04T14:28:06.604Z</time>
      </trkpt>
      <trkpt lat="46.02453" lon="4.58692">
        <ele>744.836791992</ele>
        <time>2016-02-04T14:28:15.632Z</time>
      </trkpt>
      <trkpt lat="46.02451" lon="4.58695">
        <ele>744.796936035</ele>
        <time>2016-02-04T14:28:16.605Z</time>
      </trkpt>
      <trkpt lat="46.02444" lon="4.58703">
        <ele>744.315185547</ele>
        <time>2016-02-04T14:28:19.629Z</time>
      </trkpt>
      <trkpt lat="46.02443" lon="4.58704">
        <ele>744.134033203</ele>
        <time>2016-02-04T14:28:20.594Z</time>
      </trkpt>
      <trkpt lat="46.0244" lon="4.58715">
        <ele>742.082214355</ele>
        <time>2016-02-04T14:28:26.628Z</time>
      </trkpt>
      <trkpt lat="46.02439" lon="4.58716">
        <ele>741.757324219</ele>
        <time>2016-02-04T14:28:27.606Z</time>
      </trkpt>
      <trkpt lat="46.02434" lon="4.58723">
        <ele>739.65057373</ele>
        <time>2016-02-04T14:28:33.767Z</time>
      </trkpt>
      <trkpt lat="46.02432" lon="4.58724">
        <ele>739.33026123</ele>
        <time>2016-02-04T14:28:34.605Z</time>
      </trkpt>
      <trkpt lat="46.02424" lon="4.5873">
        <ele>737.761779785</ele>
        <time>2016-02-04T14:28:43.629Z</time>
      </trkpt>
      <trkpt lat="46.02423" lon="4.58731">
        <ele>737.758361816</ele>
        <time>2016-02-04T14:28:44.597Z</time>
      </trkpt>
      <trkpt lat="46.02417" lon="4.58739">
        <ele>737.06427002</ele>
        <time>2016-02-04T14:28:52.616Z</time>
      </trkpt>
      <trkpt lat="46.02416" lon="4.5874">
        <ele>737.019226074</ele>
        <time>2016-02-04T14:28:53.604Z</time>
      </trkpt>
      <trkpt lat="46.02412" lon="4.58745">
        <ele>737.177246094</ele>
        <time>2016-02-04T14:28:59.633Z</time>
      </trkpt>
      <trkpt lat="46.02409" lon="4.58748">
        <ele>737.162841797</ele>
        <time>2016-02-04T14:29:00.607Z</time>
      </trkpt>
      <trkpt lat="46.02402" lon="4.58755">
        <ele>737.212219238</ele>
        <time>2016-02-04T14:29:03.647Z</time>
      </trkpt>
      <trkpt lat="46.024" lon="4.58758">
        <ele>737.101074219</ele>
        <time>2016-02-04T14:29:04.608Z</time>
      </trkpt>
      <trkpt lat="46.02393" lon="4.58766">
        <ele>735.622802734</ele>
        <time>2016-02-04T14:29:11.657Z</time>
      </trkpt>
      <trkpt lat="46.02392" lon="4.58767">
        <ele>735.368835449</ele>
        <time>2016-02-04T14:29:12.598Z</time>
      </trkpt>
      <trkpt lat="46.02386" lon="4.58775">
        <ele>734.507202148</ele>
        <time>2016-02-04T14:29:17.635Z</time>
      </trkpt>
      <trkpt lat="46.02386" lon="4.58777">
        <ele>734.336425781</ele>
        <time>2016-02-04T14:29:18.61Z</time>
      </trkpt>
      <trkpt lat="46.02381" lon="4.58786">
        <ele>733.38494873</ele>
        <time>2016-02-04T14:29:24.634Z</time>
      </trkpt>
      <trkpt lat="46.0238" lon="4.58787">
        <ele>733.311950684</ele>
        <time>2016-02-04T14:29:25.61Z</time>
      </trkpt>
      <trkpt lat="46.02375" lon="4.58797">
        <ele>733.595214844</ele>
        <time>2016-02-04T14:29:30.653Z</time>
      </trkpt>
      <trkpt lat="46.02374" lon="4.58798">
        <ele>733.602783203</ele>
        <time>2016-02-04T14:29:31.608Z</time>
      </trkpt>
      <trkpt lat="46.02368" lon="4.58808">
        <ele>733.714904785</ele>
        <time>2016-02-04T14:29:36.629Z</time>
      </trkpt>
      <trkpt lat="46.02368" lon="4.58809">
        <ele>733.682983398</ele>
        <time>2016-02-04T14:29:37.619Z</time>
      </trkpt>
      <trkpt lat="46.02362" lon="4.58816">
        <ele>733.420776367</ele>
        <time>2016-02-04T14:29:41.629Z</time>
      </trkpt>
      <trkpt lat="46.02361" lon="4.58818">
        <ele>733.476318359</ele>
        <time>2016-02-04T14:29:42.609Z</time>
      </trkpt>
      <trkpt lat="46.02354" lon="4.58825">
        <ele>733.513793945</ele>
        <time>2016-02-04T14:29:49.674Z</time>
      </trkpt>
      <trkpt lat="46.02353" lon="4.58826">
        <ele>733.559570312</ele>
        <time>2016-02-04T14:29:50.608Z</time>
      </trkpt>
      <trkpt lat="46.02347" lon="4.58835">
        <ele>732.903076172</ele>
        <time>2016-02-04T14:29:59.636Z</time>
      </trkpt>
      <trkpt lat="46.02346" lon="4.58836">
        <ele>732.74017334</ele>
        <time>2016-02-04T14:30:00.61Z</time>
      </trkpt>
      <trkpt lat="46.02342" lon="4.58846">
        <ele>731.562744141</ele>
        <time>2016-02-04T14:30:06.639Z</time>
      </trkpt>
      <trkpt lat="46.02341" lon="4.58848">
        <ele>731.306152344</ele>
        <time>2016-02-04T14:30:07.627Z</time>
      </trkpt>
      <trkpt lat="46.02335" lon="4.58857">
        <ele>730.26574707</ele>
        <time>2016-02-04T14:30:12.643Z</time>
      </trkpt>
      <trkpt lat="46.02335" lon="4.58858">
        <ele>730.050720215</ele>
        <time>2016-02-04T14:30:13.616Z</time>
      </trkpt>
      <trkpt lat="46.02329" lon="4.58866">
        <ele>728.80279541</ele>
        <time>2016-02-04T14:30:20.653Z</time>
      </trkpt>
      <trkpt lat="46.02327" lon="4.58867">
        <ele>728.56842041</ele>
        <time>2016-02-04T14:30:21.616Z</time>
      </trkpt>
      <trkpt lat="46.02322" lon="4.58875">
        <ele>727.33605957</ele>
        <time>2016-02-04T14:30:28.788Z</time>
      </trkpt>
      <trkpt lat="46.02321" lon="4.58876">
        <ele>727.175598145</ele>
        <time>2016-02-04T14:30:29.617Z</time>
      </trkpt>
      <trkpt lat="46.02317" lon="4.58882">
        <ele>726.246337891</ele>
        <time>2016-02-04T14:30:35.653Z</time>
      </trkpt>
      <trkpt lat="46.02314" lon="4.58886">
        <ele>726.156188965</ele>
        <time>2016-02-04T14:30:36.613Z</time>
      </trkpt>
      <trkpt lat="46.02309" lon="4.58896">
        <ele>725.33203125</ele>
        <time>2016-02-04T14:30:43.639Z</time>
      </trkpt>
      <trkpt lat="46.02307" lon="4.58897">
        <ele>725.141784668</ele>
        <time>2016-02-04T14:30:44.612Z</time>
      </trkpt>
      <trkpt lat="46.02303" lon="4.58908">
        <ele>723.903198242</ele>
        <time>2016-02-04T14:30:50.737Z</time>
      </trkpt>
      <trkpt lat="46.02302" lon="4.5891">
        <ele>723.651184082</ele>
        <time>2016-02-04T14:30:51.616Z</time>
      </trkpt>
      <trkpt lat="46.02296" lon="4.58919">
        <ele>722.520690918</ele>
        <time>2016-02-04T14:30:57.639Z</time>
      </trkpt>
      <trkpt lat="46.02295" lon="4.58921">
        <ele>722.434814453</ele>
        <time>2016-02-04T14:30:58.616Z</time>
      </trkpt>
      <trkpt lat="46.0229" lon="4.58931">
        <ele>721.282165527</ele>
        <time>2016-02-04T14:31:04.653Z</time>
      </trkpt>
      <trkpt lat="46.02289" lon="4.58932">
        <ele>721.129638672</ele>
        <time>2016-02-04T14:31:05.616Z</time>
      </trkpt>
      <trkpt lat="46.02283" lon="4.5894">
        <ele>720.970458984</ele>
        <time>2016-02-04T14:31:11.644Z</time>
      </trkpt>
      <trkpt lat="46.02282" lon="4.58941">
        <ele>721.082397461</ele>
        <time>2016-02-04T14:31:12.617Z</time>
      </trkpt>
      <trkpt lat="46.02279" lon="4.58952">
        <ele>721.159729004</ele>
        <time>2016-02-04T14:31:17.628Z</time>
      </trkpt>
      <trkpt lat="46.02278" lon="4.58954">
        <ele>721.014587402</ele>
        <time>2016-02-04T14:31:18.593Z</time>
      </trkpt>
      <trkpt lat="46.02274" lon="4.58965">
        <ele>719.615600586</ele>
        <time>2016-02-04T14:31:25.623Z</time>
      </trkpt>
      <trkpt lat="46.02274" lon="4.58966">
        <ele>719.300842285</ele>
        <time>2016-02-04T14:31:26.605Z</time>
      </trkpt>
      <trkpt lat="46.02269" lon="4.58977">
        <ele>717.677368164</ele>
        <time>2016-02-04T14:31:32.616Z</time>
      </trkpt>
      <trkpt lat="46.02268" lon="4.58979">
        <ele>717.402587891</ele>
        <time>2016-02-04T14:31:33.606Z</time>
      </trkpt>
      <trkpt lat="46.02267" lon="4.58991">
        <ele>716.151245117</ele>
        <time>2016-02-04T14:31:37.618Z</time>
      </trkpt>
      <trkpt lat="46.02267" lon="4.58993">
        <ele>715.841369629</ele>
        <time>2016-02-04T14:31:38.592Z</time>
      </trkpt>
      <trkpt lat="46.02262" lon="4.59003">
        <ele>714.148986816</ele>
        <time>2016-02-04T14:31:50.63Z</time>
      </trkpt>
      <trkpt lat="46.02261" lon="4.59004">
        <ele>714.243225098</ele>
        <time>2016-02-04T14:31:51.601Z</time>
      </trkpt>
      <trkpt lat="46.02253" lon="4.5901">
        <ele>714.697509766</ele>
        <time>2016-02-04T14:31:55.627Z</time>
      </trkpt>
      <trkpt lat="46.02251" lon="4.5901">
        <ele>714.894958496</ele>
        <time>2016-02-04T14:31:56.601Z</time>
      </trkpt>
      <trkpt lat="46.02243" lon="4.59014">
        <ele>715.113830566</ele>
        <time>2016-02-04T14:32:01.623Z</time>
      </trkpt>
      <trkpt lat="46.02242" lon="4.59015">
        <ele>715.127563477</ele>
        <time>2016-02-04T14:32:02.612Z</time>
      </trkpt>
      <trkpt lat="46.02235" lon="4.59021">
        <ele>714.385131836</ele>
        <time>2016-02-04T14:32:10.641Z</time>
      </trkpt>
      <trkpt lat="46.02234" lon="4.59023">
        <ele>714.222595215</ele>
        <time>2016-02-04T14:32:11.608Z</time>
      </trkpt>
      <trkpt lat="46.02227" lon="4.59029">
        <ele>712.734375</ele>
        <time>2016-02-04T14:32:19.643Z</time>
      </trkpt>
      <trkpt lat="46.02225" lon="4.5903">
        <ele>712.43170166</ele>
        <time>2016-02-04T14:32:20.618Z</time>
      </trkpt>
      <trkpt lat="46.02221" lon="4.59038">
        <ele>710.274780273</ele>
        <time>2016-02-04T14:32:26.626Z</time>
      </trkpt>
      <trkpt lat="46.02219" lon="4.59041">
        <ele>709.924987793</ele>
        <time>2016-02-04T14:32:27.61Z</time>
      </trkpt>
      <trkpt lat="46.02214" lon="4.5905">
        <ele>708.548400879</ele>
        <time>2016-02-04T14:32:34.627Z</time>
      </trkpt>
      <trkpt lat="46.02213" lon="4.59052">
        <ele>708.391601562</ele>
        <time>2016-02-04T14:32:35.599Z</time>
      </trkpt>
      <trkpt lat="46.02207" lon="4.5906">
        <ele>707.720825195</ele>
        <time>2016-02-04T14:32:41.639Z</time>
      </trkpt>
      <trkpt lat="46.02206" lon="4.59061">
        <ele>707.553283691</ele>
        <time>2016-02-04T14:32:42.599Z</time>
      </trkpt>
      <trkpt lat="46.022" lon="4.59068">
        <ele>706.775817871</ele>
        <time>2016-02-04T14:32:46.624Z</time>
      </trkpt>
      <trkpt lat="46.02198" lon="4.5907">
        <ele>706.586669922</ele>
        <time>2016-02-04T14:32:47.6Z</time>
      </trkpt>
      <trkpt lat="46.02191" lon="4.59075">
        <ele>704.899047852</ele>
        <time>2016-02-04T14:32:56.63Z</time>
      </trkpt>
      <trkpt lat="46.0219" lon="4.59075">
        <ele>704.694213867</ele>
        <time>2016-02-04T14:32:57.589Z</time>
      </trkpt>
      <trkpt lat="46.02183" lon="4.59068">
        <ele>701.102416992</ele>
        <time>2016-02-04T14:33:54.626Z</time>
      </trkpt>
      <trkpt lat="46.02183" lon="4.59067">
        <ele>701.048400879</ele>
        <time>2016-02-04T14:33:55.588Z</time>
      </trkpt>
      <trkpt lat="46.02184" lon="4.59078">
        <ele>698.537353516</ele>
        <time>2016-02-04T14:34:06.641Z</time>
      </trkpt>
      <trkpt lat="46.02184" lon="4.5908">
        <ele>698.501586914</ele>
        <time>2016-02-04T14:34:07.611Z</time>
      </trkpt>
      <trkpt lat="46.02177" lon="4.59087">
        <ele>697.863342285</ele>
        <time>2016-02-04T14:34:14.616Z</time>
      </trkpt>
      <trkpt lat="46.02176" lon="4.59087">
        <ele>697.710510254</ele>
        <time>2016-02-04T14:34:15.574Z</time>
      </trkpt>
      <trkpt lat="46.02167" lon="4.59086">
        <ele>695.727233887</ele>
        <time>2016-02-04T14:34:22.591Z</time>
      </trkpt>
      <trkpt lat="46.02166" lon="4.59086">
        <ele>695.42956543</ele>
        <time>2016-02-04T14:34:23.58Z</time>
      </trkpt>
      <trkpt lat="46.02158" lon="4.59089">
        <ele>694.166381836</ele>
        <time>2016-02-04T14:35:19.616Z</time>
      </trkpt>
    </trkseg>
  </trk>
</gpx>